<?xml version="1.0" encoding="UTF-8" standalone="no" ?>
<gpx xmlns="http://www.topografix.com/GPX/1/1" xmlns:xsi="http://www.w3.org/2001/XMLSchema-instance" xsi:schemaLocation="http://www.topografix.com/GPX/1/1 http://www.topografix.com/GPX/1/1/gpx.xsd" version="1.1" creator="VisuGPX - https://www.visugpx.com">
  <metadata>
    <name>Pot_Thur 60</name>
  </metadata>
  <wpt lat="48.87672" lon="-0.388">
    <ele>204.2</ele>
    <name><![CDATA[WP 1]]></name>
  </wpt>
  <wpt lat="48.87672" lon="-0.388">
    <ele>204.2</ele>
    <name><![CDATA[Départ Arrivee]]></name>
  </wpt>
  <trk>
    <name><![CDATA[Le conquérant]]></name>
    <extensions>
      <line xmlns="http://www.topografix.com/GPX/gpx_style/0/2">
        <color>0000FF</color>
        <width>4</width>
      </line>
    </extensions>
    <trkseg>
      <trkpt lat="48.89283" lon="-0.20267">
        <ele>139</ele>
        <time>2011-12-18T07:39:50Z</time>
      </trkpt>
      <trkpt lat="48.89283" lon="-0.20267">
        <ele>139</ele>
        <time>2011-12-18T07:39:50Z</time>
      </trkpt>
      <trkpt lat="48.89283" lon="-0.20267">
        <ele>139</ele>
        <time>2011-12-18T07:39:50Z</time>
      </trkpt>
      <trkpt lat="48.89283" lon="-0.20267">
        <ele>139</ele>
        <time>2011-12-18T07:39:50Z</time>
      </trkpt>
      <trkpt lat="48.89283" lon="-0.20267">
        <ele>139</ele>
        <time>2011-12-18T07:39:50Z</time>
      </trkpt>
      <trkpt lat="48.89283" lon="-0.20267">
        <ele>139</ele>
        <time>2011-12-18T07:39:51Z</time>
      </trkpt>
      <trkpt lat="48.89281" lon="-0.20264">
        <ele>139</ele>
        <time>2011-12-18T07:40:16Z</time>
      </trkpt>
      <trkpt lat="48.89279" lon="-0.20262">
        <ele>139</ele>
        <time>2011-12-18T07:40:18Z</time>
      </trkpt>
      <trkpt lat="48.89273" lon="-0.20251">
        <ele>139</ele>
        <time>2011-12-18T07:40:22Z</time>
      </trkpt>
      <trkpt lat="48.89271" lon="-0.20243">
        <ele>139</ele>
        <time>2011-12-18T07:40:24Z</time>
      </trkpt>
      <trkpt lat="48.89272" lon="-0.20229">
        <ele>139</ele>
        <time>2011-12-18T07:40:27Z</time>
      </trkpt>
      <trkpt lat="48.89275" lon="-0.20208">
        <ele>139</ele>
        <time>2011-12-18T07:40:31Z</time>
      </trkpt>
      <trkpt lat="48.89273" lon="-0.20175">
        <ele>139</ele>
        <time>2011-12-18T07:40:37Z</time>
      </trkpt>
      <trkpt lat="48.89258" lon="-0.20161">
        <ele>139</ele>
        <time>2011-12-18T07:40:41Z</time>
      </trkpt>
      <trkpt lat="48.89254" lon="-0.20158">
        <ele>139</ele>
        <time>2011-12-18T07:40:42Z</time>
      </trkpt>
      <trkpt lat="48.89238" lon="-0.20143">
        <ele>139</ele>
        <time>2011-12-18T07:40:46Z</time>
      </trkpt>
      <trkpt lat="48.8923" lon="-0.2014">
        <ele>139</ele>
        <time>2011-12-18T07:40:48Z</time>
      </trkpt>
      <trkpt lat="48.89226" lon="-0.20142">
        <ele>139.6000061</ele>
        <time>2011-12-18T07:40:49Z</time>
      </trkpt>
      <trkpt lat="48.89224" lon="-0.20146">
        <ele>140</ele>
        <time>2011-12-18T07:40:50Z</time>
      </trkpt>
      <trkpt lat="48.89221" lon="-0.20151">
        <ele>140.1999969</ele>
        <time>2011-12-18T07:40:51Z</time>
      </trkpt>
      <trkpt lat="48.89219" lon="-0.20155">
        <ele>141</ele>
        <time>2011-12-18T07:40:52Z</time>
      </trkpt>
      <trkpt lat="48.89218" lon="-0.2016">
        <ele>141.1999969</ele>
        <time>2011-12-18T07:40:53Z</time>
      </trkpt>
      <trkpt lat="48.89216" lon="-0.20163">
        <ele>141.1999969</ele>
        <time>2011-12-18T07:40:54Z</time>
      </trkpt>
      <trkpt lat="48.89206" lon="-0.20186">
        <ele>141.1999969</ele>
        <time>2011-12-18T07:40:59Z</time>
      </trkpt>
      <trkpt lat="48.89202" lon="-0.20194">
        <ele>141.1999969</ele>
        <time>2011-12-18T07:41:01Z</time>
      </trkpt>
      <trkpt lat="48.89197" lon="-0.20204">
        <ele>141.1999969</ele>
        <time>2011-12-18T07:41:03Z</time>
      </trkpt>
      <trkpt lat="48.89194" lon="-0.2021">
        <ele>141.1999969</ele>
        <time>2011-12-18T07:41:04Z</time>
      </trkpt>
      <trkpt lat="48.89191" lon="-0.20221">
        <ele>141.8000031</ele>
        <time>2011-12-18T07:41:06Z</time>
      </trkpt>
      <trkpt lat="48.89188" lon="-0.20226">
        <ele>142</ele>
        <time>2011-12-18T07:41:07Z</time>
      </trkpt>
      <trkpt lat="48.89186" lon="-0.20231">
        <ele>142.6000061</ele>
        <time>2011-12-18T07:41:08Z</time>
      </trkpt>
      <trkpt lat="48.89183" lon="-0.20235">
        <ele>143</ele>
        <time>2011-12-18T07:41:09Z</time>
      </trkpt>
      <trkpt lat="48.8918" lon="-0.20239">
        <ele>143.1999969</ele>
        <time>2011-12-18T07:41:10Z</time>
      </trkpt>
      <trkpt lat="48.89178" lon="-0.20243">
        <ele>143.1999969</ele>
        <time>2011-12-18T07:41:11Z</time>
      </trkpt>
      <trkpt lat="48.89171" lon="-0.20257">
        <ele>143.8000031</ele>
        <time>2011-12-18T07:41:14Z</time>
      </trkpt>
      <trkpt lat="48.89169" lon="-0.20262">
        <ele>144</ele>
        <time>2011-12-18T07:41:15Z</time>
      </trkpt>
      <trkpt lat="48.89167" lon="-0.20266">
        <ele>144.8000031</ele>
        <time>2011-12-18T07:41:16Z</time>
      </trkpt>
      <trkpt lat="48.89166" lon="-0.2027">
        <ele>145</ele>
        <time>2011-12-18T07:41:17Z</time>
      </trkpt>
      <trkpt lat="48.89163" lon="-0.20275">
        <ele>145.6000061</ele>
        <time>2011-12-18T07:41:18Z</time>
      </trkpt>
      <trkpt lat="48.89156" lon="-0.20292">
        <ele>145.6000061</ele>
        <time>2011-12-18T07:41:21Z</time>
      </trkpt>
      <trkpt lat="48.89153" lon="-0.20297">
        <ele>145.6000061</ele>
        <time>2011-12-18T07:41:22Z</time>
      </trkpt>
      <trkpt lat="48.89149" lon="-0.20301">
        <ele>145.6000061</ele>
        <time>2011-12-18T07:41:23Z</time>
      </trkpt>
      <trkpt lat="48.89145" lon="-0.20303">
        <ele>146</ele>
        <time>2011-12-18T07:41:24Z</time>
      </trkpt>
      <trkpt lat="48.89141" lon="-0.20305">
        <ele>146.1999969</ele>
        <time>2011-12-18T07:41:25Z</time>
      </trkpt>
      <trkpt lat="48.89138" lon="-0.20305">
        <ele>147</ele>
        <time>2011-12-18T07:41:26Z</time>
      </trkpt>
      <trkpt lat="48.89131" lon="-0.20306">
        <ele>147.8000031</ele>
        <time>2011-12-18T07:41:27Z</time>
      </trkpt>
      <trkpt lat="48.89131" lon="-0.20306">
        <ele>147.8000031</ele>
        <time>2011-12-18T07:41:28Z</time>
      </trkpt>
      <trkpt lat="48.89118" lon="-0.20312">
        <ele>147.8000031</ele>
        <time>2011-12-18T07:41:33Z</time>
      </trkpt>
      <trkpt lat="48.89112" lon="-0.20312">
        <ele>148</ele>
        <time>2011-12-18T07:41:35Z</time>
      </trkpt>
      <trkpt lat="48.8911" lon="-0.20312">
        <ele>148.8000031</ele>
        <time>2011-12-18T07:41:36Z</time>
      </trkpt>
      <trkpt lat="48.89107" lon="-0.20312">
        <ele>149</ele>
        <time>2011-12-18T07:41:37Z</time>
      </trkpt>
      <trkpt lat="48.89104" lon="-0.20311">
        <ele>149.6000061</ele>
        <time>2011-12-18T07:41:38Z</time>
      </trkpt>
      <trkpt lat="48.89101" lon="-0.2031">
        <ele>150</ele>
        <time>2011-12-18T07:41:39Z</time>
      </trkpt>
      <trkpt lat="48.89099" lon="-0.20309">
        <ele>150</ele>
        <time>2011-12-18T07:41:40Z</time>
      </trkpt>
      <trkpt lat="48.89087" lon="-0.203">
        <ele>150.1999969</ele>
        <time>2011-12-18T07:41:45Z</time>
      </trkpt>
      <trkpt lat="48.89084" lon="-0.20297">
        <ele>151</ele>
        <time>2011-12-18T07:41:46Z</time>
      </trkpt>
      <trkpt lat="48.89082" lon="-0.20294">
        <ele>151.1999969</ele>
        <time>2011-12-18T07:41:47Z</time>
      </trkpt>
      <trkpt lat="48.89079" lon="-0.2029">
        <ele>151.8000031</ele>
        <time>2011-12-18T07:41:48Z</time>
      </trkpt>
      <trkpt lat="48.89077" lon="-0.20287">
        <ele>152</ele>
        <time>2011-12-18T07:41:49Z</time>
      </trkpt>
      <trkpt lat="48.89074" lon="-0.2028">
        <ele>152</ele>
        <time>2011-12-18T07:41:51Z</time>
      </trkpt>
      <trkpt lat="48.89072" lon="-0.20277">
        <ele>152</ele>
        <time>2011-12-18T07:41:52Z</time>
      </trkpt>
      <trkpt lat="48.89062" lon="-0.20265">
        <ele>152.6000061</ele>
        <time>2011-12-18T07:41:56Z</time>
      </trkpt>
      <trkpt lat="48.8906" lon="-0.20262">
        <ele>153</ele>
        <time>2011-12-18T07:41:57Z</time>
      </trkpt>
      <trkpt lat="48.89058" lon="-0.20259">
        <ele>153.6000061</ele>
        <time>2011-12-18T07:41:58Z</time>
      </trkpt>
      <trkpt lat="48.89056" lon="-0.20256">
        <ele>154</ele>
        <time>2011-12-18T07:41:59Z</time>
      </trkpt>
      <trkpt lat="48.89054" lon="-0.20253">
        <ele>154.1999969</ele>
        <time>2011-12-18T07:42:00Z</time>
      </trkpt>
      <trkpt lat="48.89047" lon="-0.20245">
        <ele>154.1999969</ele>
        <time>2011-12-18T07:42:03Z</time>
      </trkpt>
      <trkpt lat="48.89043" lon="-0.20239">
        <ele>154.8000031</ele>
        <time>2011-12-18T07:42:05Z</time>
      </trkpt>
      <trkpt lat="48.89041" lon="-0.20236">
        <ele>155</ele>
        <time>2011-12-18T07:42:06Z</time>
      </trkpt>
      <trkpt lat="48.89039" lon="-0.20233">
        <ele>155.8000031</ele>
        <time>2011-12-18T07:42:07Z</time>
      </trkpt>
      <trkpt lat="48.89037" lon="-0.20231">
        <ele>156</ele>
        <time>2011-12-18T07:42:08Z</time>
      </trkpt>
      <trkpt lat="48.89035" lon="-0.20228">
        <ele>156.6000061</ele>
        <time>2011-12-18T07:42:09Z</time>
      </trkpt>
      <trkpt lat="48.89022" lon="-0.20215">
        <ele>156.6000061</ele>
        <time>2011-12-18T07:42:15Z</time>
      </trkpt>
      <trkpt lat="48.89018" lon="-0.20212">
        <ele>157</ele>
        <time>2011-12-18T07:42:17Z</time>
      </trkpt>
      <trkpt lat="48.89015" lon="-0.2021">
        <ele>157.1999969</ele>
        <time>2011-12-18T07:42:18Z</time>
      </trkpt>
      <trkpt lat="48.89011" lon="-0.20208">
        <ele>157.8000031</ele>
        <time>2011-12-18T07:42:19Z</time>
      </trkpt>
      <trkpt lat="48.89002" lon="-0.20182">
        <ele>158.8000031</ele>
        <time>2011-12-18T07:43:10Z</time>
      </trkpt>
      <trkpt lat="48.89" lon="-0.20163">
        <ele>158.8000031</ele>
        <time>2011-12-18T07:43:14Z</time>
      </trkpt>
      <trkpt lat="48.88998" lon="-0.20159">
        <ele>158.8000031</ele>
        <time>2011-12-18T07:43:15Z</time>
      </trkpt>
      <trkpt lat="48.88989" lon="-0.20144">
        <ele>159</ele>
        <time>2011-12-18T07:43:19Z</time>
      </trkpt>
      <trkpt lat="48.88987" lon="-0.2014">
        <ele>159.6000061</ele>
        <time>2011-12-18T07:43:20Z</time>
      </trkpt>
      <trkpt lat="48.88986" lon="-0.20136">
        <ele>160</ele>
        <time>2011-12-18T07:43:21Z</time>
      </trkpt>
      <trkpt lat="48.88984" lon="-0.20132">
        <ele>160.1999969</ele>
        <time>2011-12-18T07:43:22Z</time>
      </trkpt>
      <trkpt lat="48.88982" lon="-0.20128">
        <ele>160.8000031</ele>
        <time>2011-12-18T07:43:23Z</time>
      </trkpt>
      <trkpt lat="48.88962" lon="-0.20088">
        <ele>160.8000031</ele>
        <time>2011-12-18T07:43:33Z</time>
      </trkpt>
      <trkpt lat="48.88941" lon="-0.20052">
        <ele>160.8000031</ele>
        <time>2011-12-18T07:43:42Z</time>
      </trkpt>
      <trkpt lat="48.88929" lon="-0.20029">
        <ele>160.8000031</ele>
        <time>2011-12-18T07:43:47Z</time>
      </trkpt>
      <trkpt lat="48.88921" lon="-0.20018">
        <ele>160.8000031</ele>
        <time>2011-12-18T07:43:50Z</time>
      </trkpt>
      <trkpt lat="48.88902" lon="-0.19989">
        <ele>160.8000031</ele>
        <time>2011-12-18T07:43:57Z</time>
      </trkpt>
      <trkpt lat="48.88894" lon="-0.19977">
        <ele>160.8000031</ele>
        <time>2011-12-18T07:44:00Z</time>
      </trkpt>
      <trkpt lat="48.88875" lon="-0.19952">
        <ele>160.8000031</ele>
        <time>2011-12-18T07:44:07Z</time>
      </trkpt>
      <trkpt lat="48.88857" lon="-0.19928">
        <ele>160.8000031</ele>
        <time>2011-12-18T07:44:14Z</time>
      </trkpt>
      <trkpt lat="48.88845" lon="-0.19934">
        <ele>160.8000031</ele>
        <time>2011-12-18T07:44:18Z</time>
      </trkpt>
      <trkpt lat="48.88842" lon="-0.19935">
        <ele>161</ele>
        <time>2011-12-18T07:44:19Z</time>
      </trkpt>
      <trkpt lat="48.88839" lon="-0.19935">
        <ele>161.6000061</ele>
        <time>2011-12-18T07:44:20Z</time>
      </trkpt>
      <trkpt lat="48.88836" lon="-0.19935">
        <ele>162</ele>
        <time>2011-12-18T07:44:21Z</time>
      </trkpt>
      <trkpt lat="48.88832" lon="-0.19934">
        <ele>162.1999969</ele>
        <time>2011-12-18T07:44:22Z</time>
      </trkpt>
      <trkpt lat="48.88828" lon="-0.19934">
        <ele>162.8000031</ele>
        <time>2011-12-18T07:44:23Z</time>
      </trkpt>
      <trkpt lat="48.88815" lon="-0.1992">
        <ele>162.8000031</ele>
        <time>2011-12-18T07:44:27Z</time>
      </trkpt>
      <trkpt lat="48.88812" lon="-0.19916">
        <ele>162.8000031</ele>
        <time>2011-12-18T07:44:28Z</time>
      </trkpt>
      <trkpt lat="48.888" lon="-0.19908">
        <ele>162.8000031</ele>
        <time>2011-12-18T07:44:31Z</time>
      </trkpt>
      <trkpt lat="48.88795" lon="-0.19906">
        <ele>162.8000031</ele>
        <time>2011-12-18T07:44:32Z</time>
      </trkpt>
      <trkpt lat="48.88784" lon="-0.19901">
        <ele>162.8000031</ele>
        <time>2011-12-18T07:44:35Z</time>
      </trkpt>
      <trkpt lat="48.88769" lon="-0.19895">
        <ele>162.8000031</ele>
        <time>2011-12-18T07:44:39Z</time>
      </trkpt>
      <trkpt lat="48.88747" lon="-0.19886">
        <ele>162.8000031</ele>
        <time>2011-12-18T07:44:45Z</time>
      </trkpt>
      <trkpt lat="48.88721" lon="-0.19879">
        <ele>162.8000031</ele>
        <time>2011-12-18T07:44:52Z</time>
      </trkpt>
      <trkpt lat="48.88697" lon="-0.19871">
        <ele>162.8000031</ele>
        <time>2011-12-18T07:44:58Z</time>
      </trkpt>
      <trkpt lat="48.88689" lon="-0.1987">
        <ele>162.8000031</ele>
        <time>2011-12-18T07:45:00Z</time>
      </trkpt>
      <trkpt lat="48.88661" lon="-0.19867">
        <ele>162.8000031</ele>
        <time>2011-12-18T07:45:07Z</time>
      </trkpt>
      <trkpt lat="48.88638" lon="-0.1986">
        <ele>162.8000031</ele>
        <time>2011-12-18T07:45:13Z</time>
      </trkpt>
      <trkpt lat="48.88611" lon="-0.1985">
        <ele>163</ele>
        <time>2011-12-18T07:45:20Z</time>
      </trkpt>
      <trkpt lat="48.88607" lon="-0.19849">
        <ele>163.8000031</ele>
        <time>2011-12-18T07:45:21Z</time>
      </trkpt>
      <trkpt lat="48.88603" lon="-0.19847">
        <ele>164</ele>
        <time>2011-12-18T07:45:22Z</time>
      </trkpt>
      <trkpt lat="48.88599" lon="-0.19846">
        <ele>164.6000061</ele>
        <time>2011-12-18T07:45:23Z</time>
      </trkpt>
      <trkpt lat="48.88595" lon="-0.19845">
        <ele>165</ele>
        <time>2011-12-18T07:45:24Z</time>
      </trkpt>
      <trkpt lat="48.8857" lon="-0.19837">
        <ele>165</ele>
        <time>2011-12-18T07:45:30Z</time>
      </trkpt>
      <trkpt lat="48.88542" lon="-0.1983">
        <ele>165</ele>
        <time>2011-12-18T07:45:37Z</time>
      </trkpt>
      <trkpt lat="48.88514" lon="-0.19824">
        <ele>165</ele>
        <time>2011-12-18T07:45:44Z</time>
      </trkpt>
      <trkpt lat="48.88497" lon="-0.1982">
        <ele>165</ele>
        <time>2011-12-18T07:45:49Z</time>
      </trkpt>
      <trkpt lat="48.88481" lon="-0.19825">
        <ele>165</ele>
        <time>2011-12-18T07:45:54Z</time>
      </trkpt>
      <trkpt lat="48.88471" lon="-0.19823">
        <ele>165</ele>
        <time>2011-12-18T07:45:57Z</time>
      </trkpt>
      <trkpt lat="48.88465" lon="-0.19815">
        <ele>165.6000061</ele>
        <time>2011-12-18T07:45:59Z</time>
      </trkpt>
      <trkpt lat="48.88462" lon="-0.19812">
        <ele>166</ele>
        <time>2011-12-18T07:46:00Z</time>
      </trkpt>
      <trkpt lat="48.88459" lon="-0.19809">
        <ele>166.1999969</ele>
        <time>2011-12-18T07:46:01Z</time>
      </trkpt>
      <trkpt lat="48.88456" lon="-0.19807">
        <ele>166.8000031</ele>
        <time>2011-12-18T07:46:02Z</time>
      </trkpt>
      <trkpt lat="48.88452" lon="-0.19805">
        <ele>167</ele>
        <time>2011-12-18T07:46:03Z</time>
      </trkpt>
      <trkpt lat="48.88434" lon="-0.19799">
        <ele>167</ele>
        <time>2011-12-18T07:46:08Z</time>
      </trkpt>
      <trkpt lat="48.8843" lon="-0.19797">
        <ele>167</ele>
        <time>2011-12-18T07:46:09Z</time>
      </trkpt>
      <trkpt lat="48.88421" lon="-0.19794">
        <ele>167.6000061</ele>
        <time>2011-12-18T07:46:13Z</time>
      </trkpt>
      <trkpt lat="48.88418" lon="-0.19793">
        <ele>168</ele>
        <time>2011-12-18T07:46:14Z</time>
      </trkpt>
      <trkpt lat="48.88416" lon="-0.19792">
        <ele>168.6000061</ele>
        <time>2011-12-18T07:46:15Z</time>
      </trkpt>
      <trkpt lat="48.88412" lon="-0.19792">
        <ele>169</ele>
        <time>2011-12-18T07:46:16Z</time>
      </trkpt>
      <trkpt lat="48.88409" lon="-0.19792">
        <ele>169.1999969</ele>
        <time>2011-12-18T07:46:17Z</time>
      </trkpt>
      <trkpt lat="48.88396" lon="-0.19788">
        <ele>169.1999969</ele>
        <time>2011-12-18T07:46:20Z</time>
      </trkpt>
      <trkpt lat="48.88364" lon="-0.19779">
        <ele>169.1999969</ele>
        <time>2011-12-18T07:46:27Z</time>
      </trkpt>
      <trkpt lat="48.88359" lon="-0.19777">
        <ele>169.1999969</ele>
        <time>2011-12-18T07:46:28Z</time>
      </trkpt>
      <trkpt lat="48.8833" lon="-0.19771">
        <ele>169.1999969</ele>
        <time>2011-12-18T07:46:34Z</time>
      </trkpt>
      <trkpt lat="48.88326" lon="-0.19769">
        <ele>169.1999969</ele>
        <time>2011-12-18T07:46:35Z</time>
      </trkpt>
      <trkpt lat="48.88315" lon="-0.19775">
        <ele>169.1999969</ele>
        <time>2011-12-18T07:46:38Z</time>
      </trkpt>
      <trkpt lat="48.88311" lon="-0.1979">
        <ele>169.1999969</ele>
        <time>2011-12-18T07:46:42Z</time>
      </trkpt>
      <trkpt lat="48.88311" lon="-0.19793">
        <ele>169.1999969</ele>
        <time>2011-12-18T07:46:43Z</time>
      </trkpt>
      <trkpt lat="48.88308" lon="-0.19807">
        <ele>169.1999969</ele>
        <time>2011-12-18T07:46:47Z</time>
      </trkpt>
      <trkpt lat="48.88306" lon="-0.19814">
        <ele>169.1999969</ele>
        <time>2011-12-18T07:46:49Z</time>
      </trkpt>
      <trkpt lat="48.88305" lon="-0.19824">
        <ele>169.1999969</ele>
        <time>2011-12-18T07:46:52Z</time>
      </trkpt>
      <trkpt lat="48.88303" lon="-0.19836">
        <ele>169.1999969</ele>
        <time>2011-12-18T07:46:55Z</time>
      </trkpt>
      <trkpt lat="48.88302" lon="-0.1984">
        <ele>169.1999969</ele>
        <time>2011-12-18T07:46:56Z</time>
      </trkpt>
      <trkpt lat="48.88299" lon="-0.19857">
        <ele>169.1999969</ele>
        <time>2011-12-18T07:47:01Z</time>
      </trkpt>
      <trkpt lat="48.88298" lon="-0.19863">
        <ele>169.8000031</ele>
        <time>2011-12-18T07:47:03Z</time>
      </trkpt>
      <trkpt lat="48.88297" lon="-0.19867">
        <ele>170</ele>
        <time>2011-12-18T07:47:04Z</time>
      </trkpt>
      <trkpt lat="48.88296" lon="-0.19871">
        <ele>170.6000061</ele>
        <time>2011-12-18T07:47:05Z</time>
      </trkpt>
      <trkpt lat="48.88295" lon="-0.19876">
        <ele>171</ele>
        <time>2011-12-18T07:47:06Z</time>
      </trkpt>
      <trkpt lat="48.88294" lon="-0.1988">
        <ele>171.1999969</ele>
        <time>2011-12-18T07:47:07Z</time>
      </trkpt>
      <trkpt lat="48.88292" lon="-0.199">
        <ele>171.1999969</ele>
        <time>2011-12-18T07:47:12Z</time>
      </trkpt>
      <trkpt lat="48.88291" lon="-0.19909">
        <ele>171.1999969</ele>
        <time>2011-12-18T07:47:14Z</time>
      </trkpt>
      <trkpt lat="48.88289" lon="-0.19925">
        <ele>171.1999969</ele>
        <time>2011-12-18T07:47:18Z</time>
      </trkpt>
      <trkpt lat="48.88286" lon="-0.19939">
        <ele>171.1999969</ele>
        <time>2011-12-18T07:47:21Z</time>
      </trkpt>
      <trkpt lat="48.88283" lon="-0.19956">
        <ele>171.1999969</ele>
        <time>2011-12-18T07:47:27Z</time>
      </trkpt>
      <trkpt lat="48.88281" lon="-0.19969">
        <ele>171.1999969</ele>
        <time>2011-12-18T07:47:31Z</time>
      </trkpt>
      <trkpt lat="48.8828" lon="-0.19974">
        <ele>171.1999969</ele>
        <time>2011-12-18T07:47:32Z</time>
      </trkpt>
      <trkpt lat="48.88281" lon="-0.19996">
        <ele>171.1999969</ele>
        <time>2011-12-18T07:47:37Z</time>
      </trkpt>
      <trkpt lat="48.88273" lon="-0.20009">
        <ele>171.1999969</ele>
        <time>2011-12-18T07:47:42Z</time>
      </trkpt>
      <trkpt lat="48.88271" lon="-0.20013">
        <ele>171.1999969</ele>
        <time>2011-12-18T07:47:43Z</time>
      </trkpt>
      <trkpt lat="48.8826" lon="-0.20033">
        <ele>171.1999969</ele>
        <time>2011-12-18T07:47:48Z</time>
      </trkpt>
      <trkpt lat="48.8825" lon="-0.2005">
        <ele>171.1999969</ele>
        <time>2011-12-18T07:47:53Z</time>
      </trkpt>
      <trkpt lat="48.88241" lon="-0.20067">
        <ele>171.8000031</ele>
        <time>2011-12-18T07:47:58Z</time>
      </trkpt>
      <trkpt lat="48.88239" lon="-0.2007">
        <ele>172</ele>
        <time>2011-12-18T07:47:59Z</time>
      </trkpt>
      <trkpt lat="48.88237" lon="-0.20073">
        <ele>172.6000061</ele>
        <time>2011-12-18T07:48:00Z</time>
      </trkpt>
      <trkpt lat="48.88235" lon="-0.20077">
        <ele>173</ele>
        <time>2011-12-18T07:48:01Z</time>
      </trkpt>
      <trkpt lat="48.88233" lon="-0.20081">
        <ele>173.1999969</ele>
        <time>2011-12-18T07:48:02Z</time>
      </trkpt>
      <trkpt lat="48.88226" lon="-0.20096">
        <ele>173.1999969</ele>
        <time>2011-12-18T07:48:06Z</time>
      </trkpt>
      <trkpt lat="48.88223" lon="-0.20099">
        <ele>173.1999969</ele>
        <time>2011-12-18T07:48:07Z</time>
      </trkpt>
      <trkpt lat="48.88212" lon="-0.20114">
        <ele>173.8000031</ele>
        <time>2011-12-18T07:48:12Z</time>
      </trkpt>
      <trkpt lat="48.8821" lon="-0.20117">
        <ele>174</ele>
        <time>2011-12-18T07:48:13Z</time>
      </trkpt>
      <trkpt lat="48.88207" lon="-0.20118">
        <ele>174.8000031</ele>
        <time>2011-12-18T07:48:14Z</time>
      </trkpt>
      <trkpt lat="48.88205" lon="-0.20119">
        <ele>175</ele>
        <time>2011-12-18T07:48:15Z</time>
      </trkpt>
      <trkpt lat="48.88202" lon="-0.20121">
        <ele>175.6000061</ele>
        <time>2011-12-18T07:48:16Z</time>
      </trkpt>
      <trkpt lat="48.88192" lon="-0.20128">
        <ele>175.6000061</ele>
        <time>2011-12-18T07:48:20Z</time>
      </trkpt>
      <trkpt lat="48.8819" lon="-0.20129">
        <ele>175.6000061</ele>
        <time>2011-12-18T07:48:21Z</time>
      </trkpt>
      <trkpt lat="48.88183" lon="-0.20131">
        <ele>176</ele>
        <time>2011-12-18T07:48:24Z</time>
      </trkpt>
      <trkpt lat="48.88181" lon="-0.20132">
        <ele>176.1999969</ele>
        <time>2011-12-18T07:48:25Z</time>
      </trkpt>
      <trkpt lat="48.88178" lon="-0.20132">
        <ele>176.8000031</ele>
        <time>2011-12-18T07:48:26Z</time>
      </trkpt>
      <trkpt lat="48.88176" lon="-0.20133">
        <ele>177</ele>
        <time>2011-12-18T07:48:27Z</time>
      </trkpt>
      <trkpt lat="48.88173" lon="-0.20135">
        <ele>177.6000061</ele>
        <time>2011-12-18T07:48:28Z</time>
      </trkpt>
      <trkpt lat="48.88164" lon="-0.2014">
        <ele>177.6000061</ele>
        <time>2011-12-18T07:48:31Z</time>
      </trkpt>
      <trkpt lat="48.88161" lon="-0.20142">
        <ele>178</ele>
        <time>2011-12-18T07:48:32Z</time>
      </trkpt>
      <trkpt lat="48.88158" lon="-0.20143">
        <ele>178.1999969</ele>
        <time>2011-12-18T07:48:33Z</time>
      </trkpt>
      <trkpt lat="48.88156" lon="-0.20144">
        <ele>179.1999969</ele>
        <time>2011-12-18T07:48:34Z</time>
      </trkpt>
      <trkpt lat="48.88153" lon="-0.20145">
        <ele>179.8000031</ele>
        <time>2011-12-18T07:48:35Z</time>
      </trkpt>
      <trkpt lat="48.88146" lon="-0.2015">
        <ele>180</ele>
        <time>2011-12-18T07:48:38Z</time>
      </trkpt>
      <trkpt lat="48.88144" lon="-0.20152">
        <ele>180.6000061</ele>
        <time>2011-12-18T07:48:39Z</time>
      </trkpt>
      <trkpt lat="48.88141" lon="-0.20153">
        <ele>181</ele>
        <time>2011-12-18T07:48:40Z</time>
      </trkpt>
      <trkpt lat="48.88139" lon="-0.20155">
        <ele>181.1999969</ele>
        <time>2011-12-18T07:48:41Z</time>
      </trkpt>
      <trkpt lat="48.88136" lon="-0.20157">
        <ele>181.8000031</ele>
        <time>2011-12-18T07:48:42Z</time>
      </trkpt>
      <trkpt lat="48.88132" lon="-0.20161">
        <ele>181.8000031</ele>
        <time>2011-12-18T07:48:44Z</time>
      </trkpt>
      <trkpt lat="48.88128" lon="-0.20179">
        <ele>181.8000031</ele>
        <time>2011-12-18T07:48:49Z</time>
      </trkpt>
      <trkpt lat="48.88128" lon="-0.20184">
        <ele>182</ele>
        <time>2011-12-18T07:48:50Z</time>
      </trkpt>
      <trkpt lat="48.88129" lon="-0.20188">
        <ele>182.8000031</ele>
        <time>2011-12-18T07:48:51Z</time>
      </trkpt>
      <trkpt lat="48.88129" lon="-0.20193">
        <ele>183</ele>
        <time>2011-12-18T07:48:52Z</time>
      </trkpt>
      <trkpt lat="48.8813" lon="-0.20197">
        <ele>183.6000061</ele>
        <time>2011-12-18T07:48:53Z</time>
      </trkpt>
      <trkpt lat="48.8813" lon="-0.20201">
        <ele>184</ele>
        <time>2011-12-18T07:48:54Z</time>
      </trkpt>
      <trkpt lat="48.88131" lon="-0.20205">
        <ele>184</ele>
        <time>2011-12-18T07:48:55Z</time>
      </trkpt>
      <trkpt lat="48.88137" lon="-0.20236">
        <ele>184.1999969</ele>
        <time>2011-12-18T07:49:03Z</time>
      </trkpt>
      <trkpt lat="48.88138" lon="-0.2024">
        <ele>184.8000031</ele>
        <time>2011-12-18T07:49:04Z</time>
      </trkpt>
      <trkpt lat="48.88138" lon="-0.20244">
        <ele>185</ele>
        <time>2011-12-18T07:49:05Z</time>
      </trkpt>
      <trkpt lat="48.88138" lon="-0.20248">
        <ele>185.6000061</ele>
        <time>2011-12-18T07:49:06Z</time>
      </trkpt>
      <trkpt lat="48.88139" lon="-0.20251">
        <ele>186</ele>
        <time>2011-12-18T07:49:07Z</time>
      </trkpt>
      <trkpt lat="48.88141" lon="-0.20268">
        <ele>186</ele>
        <time>2011-12-18T07:49:11Z</time>
      </trkpt>
      <trkpt lat="48.88146" lon="-0.20307">
        <ele>186</ele>
        <time>2011-12-18T07:49:18Z</time>
      </trkpt>
      <trkpt lat="48.88149" lon="-0.20341">
        <ele>186</ele>
        <time>2011-12-18T07:49:24Z</time>
      </trkpt>
      <trkpt lat="48.88152" lon="-0.20361">
        <ele>186</ele>
        <time>2011-12-18T07:49:27Z</time>
      </trkpt>
      <trkpt lat="48.88155" lon="-0.20382">
        <ele>185.6000061</ele>
        <time>2011-12-18T07:49:30Z</time>
      </trkpt>
      <trkpt lat="48.88155" lon="-0.20389">
        <ele>185</ele>
        <time>2011-12-18T07:49:31Z</time>
      </trkpt>
      <trkpt lat="48.88156" lon="-0.20397">
        <ele>184.8000031</ele>
        <time>2011-12-18T07:49:32Z</time>
      </trkpt>
      <trkpt lat="48.88157" lon="-0.20405">
        <ele>184.1999969</ele>
        <time>2011-12-18T07:49:33Z</time>
      </trkpt>
      <trkpt lat="48.88158" lon="-0.20412">
        <ele>183.8000031</ele>
        <time>2011-12-18T07:49:34Z</time>
      </trkpt>
      <trkpt lat="48.88159" lon="-0.20427">
        <ele>183.1999969</ele>
        <time>2011-12-18T07:49:36Z</time>
      </trkpt>
      <trkpt lat="48.8816" lon="-0.20435">
        <ele>183</ele>
        <time>2011-12-18T07:49:37Z</time>
      </trkpt>
      <trkpt lat="48.88161" lon="-0.20442">
        <ele>182.1999969</ele>
        <time>2011-12-18T07:49:38Z</time>
      </trkpt>
      <trkpt lat="48.88162" lon="-0.2045">
        <ele>182</ele>
        <time>2011-12-18T07:49:39Z</time>
      </trkpt>
      <trkpt lat="48.88163" lon="-0.20457">
        <ele>181.6000061</ele>
        <time>2011-12-18T07:49:40Z</time>
      </trkpt>
      <trkpt lat="48.88166" lon="-0.20479">
        <ele>181.6000061</ele>
        <time>2011-12-18T07:49:43Z</time>
      </trkpt>
      <trkpt lat="48.88168" lon="-0.20494">
        <ele>181.6000061</ele>
        <time>2011-12-18T07:49:45Z</time>
      </trkpt>
      <trkpt lat="48.88171" lon="-0.20518">
        <ele>181.6000061</ele>
        <time>2011-12-18T07:49:48Z</time>
      </trkpt>
      <trkpt lat="48.88174" lon="-0.20533">
        <ele>181.6000061</ele>
        <time>2011-12-18T07:49:50Z</time>
      </trkpt>
      <trkpt lat="48.88177" lon="-0.20547">
        <ele>181.6000061</ele>
        <time>2011-12-18T07:49:52Z</time>
      </trkpt>
      <trkpt lat="48.88179" lon="-0.20554">
        <ele>181.6000061</ele>
        <time>2011-12-18T07:49:53Z</time>
      </trkpt>
      <trkpt lat="48.88191" lon="-0.20576">
        <ele>181.6000061</ele>
        <time>2011-12-18T07:49:57Z</time>
      </trkpt>
      <trkpt lat="48.88194" lon="-0.2058">
        <ele>181.6000061</ele>
        <time>2011-12-18T07:49:58Z</time>
      </trkpt>
      <trkpt lat="48.88189" lon="-0.20576">
        <ele>181.6000061</ele>
        <time>2011-12-18T07:50:54Z</time>
      </trkpt>
      <trkpt lat="48.88185" lon="-0.20583">
        <ele>181.6000061</ele>
        <time>2011-12-18T07:50:57Z</time>
      </trkpt>
      <trkpt lat="48.88185" lon="-0.20588">
        <ele>181.6000061</ele>
        <time>2011-12-18T07:50:58Z</time>
      </trkpt>
      <trkpt lat="48.88188" lon="-0.20596">
        <ele>181.6000061</ele>
        <time>2011-12-18T07:51:00Z</time>
      </trkpt>
      <trkpt lat="48.88193" lon="-0.20607">
        <ele>181.6000061</ele>
        <time>2011-12-18T07:51:03Z</time>
      </trkpt>
      <trkpt lat="48.88194" lon="-0.20611">
        <ele>181.6000061</ele>
        <time>2011-12-18T07:51:04Z</time>
      </trkpt>
      <trkpt lat="48.88192" lon="-0.20617">
        <ele>181.6000061</ele>
        <time>2011-12-18T07:51:06Z</time>
      </trkpt>
      <trkpt lat="48.88183" lon="-0.20622">
        <ele>181.6000061</ele>
        <time>2011-12-18T07:51:11Z</time>
      </trkpt>
      <trkpt lat="48.88178" lon="-0.20623">
        <ele>181.6000061</ele>
        <time>2011-12-18T07:51:13Z</time>
      </trkpt>
      <trkpt lat="48.88172" lon="-0.20628">
        <ele>181.6000061</ele>
        <time>2011-12-18T07:51:17Z</time>
      </trkpt>
      <trkpt lat="48.88162" lon="-0.2065">
        <ele>181.6000061</ele>
        <time>2011-12-18T07:51:24Z</time>
      </trkpt>
      <trkpt lat="48.88157" lon="-0.20658">
        <ele>181.6000061</ele>
        <time>2011-12-18T07:51:27Z</time>
      </trkpt>
      <trkpt lat="48.88157" lon="-0.20661">
        <ele>181.6000061</ele>
        <time>2011-12-18T07:51:28Z</time>
      </trkpt>
      <trkpt lat="48.88158" lon="-0.20689">
        <ele>181.6000061</ele>
        <time>2011-12-18T07:51:34Z</time>
      </trkpt>
      <trkpt lat="48.88156" lon="-0.20726">
        <ele>181.6000061</ele>
        <time>2011-12-18T07:51:41Z</time>
      </trkpt>
      <trkpt lat="48.88146" lon="-0.20748">
        <ele>181.6000061</ele>
        <time>2011-12-18T07:51:46Z</time>
      </trkpt>
      <trkpt lat="48.88144" lon="-0.2075">
        <ele>181.6000061</ele>
        <time>2011-12-18T07:51:47Z</time>
      </trkpt>
      <trkpt lat="48.88141" lon="-0.20752">
        <ele>181.6000061</ele>
        <time>2011-12-18T07:51:49Z</time>
      </trkpt>
      <trkpt lat="48.8814" lon="-0.20752">
        <ele>181.6000061</ele>
        <time>2011-12-18T07:51:50Z</time>
      </trkpt>
      <trkpt lat="48.88136" lon="-0.20753">
        <ele>181.6000061</ele>
        <time>2011-12-18T07:51:56Z</time>
      </trkpt>
      <trkpt lat="48.88136" lon="-0.20754">
        <ele>181.6000061</ele>
        <time>2011-12-18T07:51:57Z</time>
      </trkpt>
      <trkpt lat="48.88134" lon="-0.20756">
        <ele>181.6000061</ele>
        <time>2011-12-18T07:51:59Z</time>
      </trkpt>
      <trkpt lat="48.88131" lon="-0.20758">
        <ele>181.6000061</ele>
        <time>2011-12-18T07:52:02Z</time>
      </trkpt>
      <trkpt lat="48.88129" lon="-0.2076">
        <ele>181.6000061</ele>
        <time>2011-12-18T07:52:16Z</time>
      </trkpt>
      <trkpt lat="48.88127" lon="-0.20762">
        <ele>181.6000061</ele>
        <time>2011-12-18T07:52:18Z</time>
      </trkpt>
      <trkpt lat="48.88125" lon="-0.20764">
        <ele>181.6000061</ele>
        <time>2011-12-18T07:52:19Z</time>
      </trkpt>
      <trkpt lat="48.88121" lon="-0.20767">
        <ele>181</ele>
        <time>2011-12-18T07:52:21Z</time>
      </trkpt>
      <trkpt lat="48.8812" lon="-0.20769">
        <ele>180.8000031</ele>
        <time>2011-12-18T07:52:22Z</time>
      </trkpt>
      <trkpt lat="48.88119" lon="-0.20772">
        <ele>180</ele>
        <time>2011-12-18T07:52:23Z</time>
      </trkpt>
      <trkpt lat="48.88119" lon="-0.20775">
        <ele>179.8000031</ele>
        <time>2011-12-18T07:52:24Z</time>
      </trkpt>
      <trkpt lat="48.88119" lon="-0.20778">
        <ele>179.1999969</ele>
        <time>2011-12-18T07:52:25Z</time>
      </trkpt>
      <trkpt lat="48.88122" lon="-0.20795">
        <ele>179.1999969</ele>
        <time>2011-12-18T07:52:30Z</time>
      </trkpt>
      <trkpt lat="48.88127" lon="-0.20807">
        <ele>179.1999969</ele>
        <time>2011-12-18T07:52:35Z</time>
      </trkpt>
      <trkpt lat="48.88128" lon="-0.20808">
        <ele>179.1999969</ele>
        <time>2011-12-18T07:52:36Z</time>
      </trkpt>
      <trkpt lat="48.88133" lon="-0.20818">
        <ele>179.1999969</ele>
        <time>2011-12-18T07:52:41Z</time>
      </trkpt>
      <trkpt lat="48.88134" lon="-0.20819">
        <ele>179.1999969</ele>
        <time>2011-12-18T07:52:42Z</time>
      </trkpt>
      <trkpt lat="48.88136" lon="-0.20822">
        <ele>179.1999969</ele>
        <time>2011-12-18T07:53:25Z</time>
      </trkpt>
      <trkpt lat="48.88137" lon="-0.20824">
        <ele>179.1999969</ele>
        <time>2011-12-18T07:53:26Z</time>
      </trkpt>
      <trkpt lat="48.88146" lon="-0.20842">
        <ele>179.1999969</ele>
        <time>2011-12-18T07:53:32Z</time>
      </trkpt>
      <trkpt lat="48.88155" lon="-0.20865">
        <ele>179.1999969</ele>
        <time>2011-12-18T07:53:37Z</time>
      </trkpt>
      <trkpt lat="48.88151" lon="-0.20888">
        <ele>179</ele>
        <time>2011-12-18T07:53:41Z</time>
      </trkpt>
      <trkpt lat="48.88149" lon="-0.20893">
        <ele>178.6000061</ele>
        <time>2011-12-18T07:53:42Z</time>
      </trkpt>
      <trkpt lat="48.88147" lon="-0.20898">
        <ele>178</ele>
        <time>2011-12-18T07:53:43Z</time>
      </trkpt>
      <trkpt lat="48.88145" lon="-0.20903">
        <ele>177.6000061</ele>
        <time>2011-12-18T07:53:44Z</time>
      </trkpt>
      <trkpt lat="48.88143" lon="-0.20908">
        <ele>177</ele>
        <time>2011-12-18T07:53:45Z</time>
      </trkpt>
      <trkpt lat="48.88139" lon="-0.20917">
        <ele>177</ele>
        <time>2011-12-18T07:53:47Z</time>
      </trkpt>
      <trkpt lat="48.8813" lon="-0.20936">
        <ele>177</ele>
        <time>2011-12-18T07:53:51Z</time>
      </trkpt>
      <trkpt lat="48.88126" lon="-0.20945">
        <ele>177</ele>
        <time>2011-12-18T07:53:53Z</time>
      </trkpt>
      <trkpt lat="48.88108" lon="-0.20974">
        <ele>177</ele>
        <time>2011-12-18T07:54:00Z</time>
      </trkpt>
      <trkpt lat="48.88096" lon="-0.20996">
        <ele>177</ele>
        <time>2011-12-18T07:54:05Z</time>
      </trkpt>
      <trkpt lat="48.88084" lon="-0.21013">
        <ele>177</ele>
        <time>2011-12-18T07:54:09Z</time>
      </trkpt>
      <trkpt lat="48.8808" lon="-0.2102">
        <ele>177</ele>
        <time>2011-12-18T07:54:11Z</time>
      </trkpt>
      <trkpt lat="48.88074" lon="-0.21029">
        <ele>177</ele>
        <time>2011-12-18T07:54:14Z</time>
      </trkpt>
      <trkpt lat="48.88064" lon="-0.21041">
        <ele>177</ele>
        <time>2011-12-18T07:54:18Z</time>
      </trkpt>
      <trkpt lat="48.8805" lon="-0.21061">
        <ele>177</ele>
        <time>2011-12-18T07:54:24Z</time>
      </trkpt>
      <trkpt lat="48.88035" lon="-0.21083">
        <ele>177</ele>
        <time>2011-12-18T07:54:31Z</time>
      </trkpt>
      <trkpt lat="48.88023" lon="-0.21103">
        <ele>177</ele>
        <time>2011-12-18T07:54:37Z</time>
      </trkpt>
      <trkpt lat="48.88007" lon="-0.21129">
        <ele>177</ele>
        <time>2011-12-18T07:54:44Z</time>
      </trkpt>
      <trkpt lat="48.8799" lon="-0.21155">
        <ele>177</ele>
        <time>2011-12-18T07:54:51Z</time>
      </trkpt>
      <trkpt lat="48.87972" lon="-0.21181">
        <ele>177</ele>
        <time>2011-12-18T07:54:58Z</time>
      </trkpt>
      <trkpt lat="48.87956" lon="-0.21207">
        <ele>177</ele>
        <time>2011-12-18T07:55:04Z</time>
      </trkpt>
      <trkpt lat="48.87941" lon="-0.21231">
        <ele>177</ele>
        <time>2011-12-18T07:55:09Z</time>
      </trkpt>
      <trkpt lat="48.87932" lon="-0.21247">
        <ele>177</ele>
        <time>2011-12-18T07:55:12Z</time>
      </trkpt>
      <trkpt lat="48.87919" lon="-0.21266">
        <ele>177</ele>
        <time>2011-12-18T07:55:16Z</time>
      </trkpt>
      <trkpt lat="48.87909" lon="-0.21279">
        <ele>177</ele>
        <time>2011-12-18T07:55:19Z</time>
      </trkpt>
      <trkpt lat="48.87887" lon="-0.21314">
        <ele>177</ele>
        <time>2011-12-18T07:55:26Z</time>
      </trkpt>
      <trkpt lat="48.87865" lon="-0.21347">
        <ele>177</ele>
        <time>2011-12-18T07:55:33Z</time>
      </trkpt>
      <trkpt lat="48.8785" lon="-0.2137">
        <ele>177</ele>
        <time>2011-12-18T07:55:38Z</time>
      </trkpt>
      <trkpt lat="48.87846" lon="-0.21375">
        <ele>177</ele>
        <time>2011-12-18T07:55:39Z</time>
      </trkpt>
      <trkpt lat="48.87828" lon="-0.21403">
        <ele>177</ele>
        <time>2011-12-18T07:55:45Z</time>
      </trkpt>
      <trkpt lat="48.8781" lon="-0.21427">
        <ele>177</ele>
        <time>2011-12-18T07:55:51Z</time>
      </trkpt>
      <trkpt lat="48.87789" lon="-0.21456">
        <ele>177</ele>
        <time>2011-12-18T07:55:58Z</time>
      </trkpt>
      <trkpt lat="48.87763" lon="-0.21493">
        <ele>177</ele>
        <time>2011-12-18T07:56:07Z</time>
      </trkpt>
      <trkpt lat="48.87746" lon="-0.21527">
        <ele>177</ele>
        <time>2011-12-18T07:56:14Z</time>
      </trkpt>
      <trkpt lat="48.87736" lon="-0.21544">
        <ele>177.6000061</ele>
        <time>2011-12-18T07:56:18Z</time>
      </trkpt>
      <trkpt lat="48.87734" lon="-0.21549">
        <ele>178</ele>
        <time>2011-12-18T07:56:19Z</time>
      </trkpt>
      <trkpt lat="48.87732" lon="-0.21554">
        <ele>178.1999969</ele>
        <time>2011-12-18T07:56:20Z</time>
      </trkpt>
      <trkpt lat="48.8773" lon="-0.2156">
        <ele>178.8000031</ele>
        <time>2011-12-18T07:56:21Z</time>
      </trkpt>
      <trkpt lat="48.87728" lon="-0.21566">
        <ele>179</ele>
        <time>2011-12-18T07:56:22Z</time>
      </trkpt>
      <trkpt lat="48.87719" lon="-0.21593">
        <ele>179</ele>
        <time>2011-12-18T07:56:27Z</time>
      </trkpt>
      <trkpt lat="48.87706" lon="-0.21625">
        <ele>179</ele>
        <time>2011-12-18T07:56:33Z</time>
      </trkpt>
      <trkpt lat="48.87704" lon="-0.2163">
        <ele>179</ele>
        <time>2011-12-18T07:56:34Z</time>
      </trkpt>
      <trkpt lat="48.87691" lon="-0.21659">
        <ele>179</ele>
        <time>2011-12-18T07:56:40Z</time>
      </trkpt>
      <trkpt lat="48.87679" lon="-0.21684">
        <ele>179</ele>
        <time>2011-12-18T07:56:47Z</time>
      </trkpt>
      <trkpt lat="48.87672" lon="-0.21695">
        <ele>179</ele>
        <time>2011-12-18T07:56:52Z</time>
      </trkpt>
      <trkpt lat="48.87671" lon="-0.21697">
        <ele>179</ele>
        <time>2011-12-18T07:56:53Z</time>
      </trkpt>
      <trkpt lat="48.87668" lon="-0.21703">
        <ele>179</ele>
        <time>2011-12-18T07:56:57Z</time>
      </trkpt>
      <trkpt lat="48.87668" lon="-0.21704">
        <ele>179</ele>
        <time>2011-12-18T07:56:59Z</time>
      </trkpt>
      <trkpt lat="48.87667" lon="-0.21705">
        <ele>179</ele>
        <time>2011-12-18T07:57:00Z</time>
      </trkpt>
      <trkpt lat="48.87666" lon="-0.21711">
        <ele>179</ele>
        <time>2011-12-18T07:57:12Z</time>
      </trkpt>
      <trkpt lat="48.87665" lon="-0.21712">
        <ele>179</ele>
        <time>2011-12-18T07:57:13Z</time>
      </trkpt>
      <trkpt lat="48.87665" lon="-0.21712">
        <ele>179</ele>
        <time>2011-12-18T07:57:14Z</time>
      </trkpt>
      <trkpt lat="48.87656" lon="-0.21721">
        <ele>179</ele>
        <time>2011-12-18T07:57:53Z</time>
      </trkpt>
      <trkpt lat="48.87631" lon="-0.21776">
        <ele>179</ele>
        <time>2011-12-18T07:58:12Z</time>
      </trkpt>
      <trkpt lat="48.87628" lon="-0.2178">
        <ele>179</ele>
        <time>2011-12-18T07:58:13Z</time>
      </trkpt>
      <trkpt lat="48.87611" lon="-0.21812">
        <ele>179</ele>
        <time>2011-12-18T07:58:20Z</time>
      </trkpt>
      <trkpt lat="48.87602" lon="-0.21824">
        <ele>179</ele>
        <time>2011-12-18T07:58:23Z</time>
      </trkpt>
      <trkpt lat="48.87596" lon="-0.21832">
        <ele>179</ele>
        <time>2011-12-18T07:58:25Z</time>
      </trkpt>
      <trkpt lat="48.87592" lon="-0.21836">
        <ele>179</ele>
        <time>2011-12-18T07:58:26Z</time>
      </trkpt>
      <trkpt lat="48.87588" lon="-0.2184">
        <ele>179</ele>
        <time>2011-12-18T07:58:27Z</time>
      </trkpt>
      <trkpt lat="48.87574" lon="-0.21852">
        <ele>179.8000031</ele>
        <time>2011-12-18T07:58:31Z</time>
      </trkpt>
      <trkpt lat="48.87571" lon="-0.21855">
        <ele>180</ele>
        <time>2011-12-18T07:58:32Z</time>
      </trkpt>
      <trkpt lat="48.87567" lon="-0.21857">
        <ele>180.6000061</ele>
        <time>2011-12-18T07:58:33Z</time>
      </trkpt>
      <trkpt lat="48.87565" lon="-0.2186">
        <ele>181</ele>
        <time>2011-12-18T07:58:34Z</time>
      </trkpt>
      <trkpt lat="48.87562" lon="-0.21863">
        <ele>181.1999969</ele>
        <time>2011-12-18T07:58:35Z</time>
      </trkpt>
      <trkpt lat="48.87556" lon="-0.2187">
        <ele>181.1999969</ele>
        <time>2011-12-18T07:58:37Z</time>
      </trkpt>
      <trkpt lat="48.87539" lon="-0.21893">
        <ele>181.1999969</ele>
        <time>2011-12-18T07:58:43Z</time>
      </trkpt>
      <trkpt lat="48.87536" lon="-0.21896">
        <ele>181.1999969</ele>
        <time>2011-12-18T07:58:44Z</time>
      </trkpt>
      <trkpt lat="48.8752" lon="-0.21914">
        <ele>181.1999969</ele>
        <time>2011-12-18T07:58:49Z</time>
      </trkpt>
      <trkpt lat="48.87517" lon="-0.21917">
        <ele>181.1999969</ele>
        <time>2011-12-18T07:58:50Z</time>
      </trkpt>
      <trkpt lat="48.87509" lon="-0.21922">
        <ele>181.1999969</ele>
        <time>2011-12-18T07:58:52Z</time>
      </trkpt>
      <trkpt lat="48.87505" lon="-0.21925">
        <ele>181.8000031</ele>
        <time>2011-12-18T07:58:53Z</time>
      </trkpt>
      <trkpt lat="48.87501" lon="-0.21928">
        <ele>182.6000061</ele>
        <time>2011-12-18T07:58:54Z</time>
      </trkpt>
      <trkpt lat="48.87497" lon="-0.21931">
        <ele>183</ele>
        <time>2011-12-18T07:58:55Z</time>
      </trkpt>
      <trkpt lat="48.87494" lon="-0.21934">
        <ele>183.1999969</ele>
        <time>2011-12-18T07:58:56Z</time>
      </trkpt>
      <trkpt lat="48.87478" lon="-0.21948">
        <ele>183.1999969</ele>
        <time>2011-12-18T07:59:01Z</time>
      </trkpt>
      <trkpt lat="48.8747" lon="-0.21956">
        <ele>183.1999969</ele>
        <time>2011-12-18T07:59:04Z</time>
      </trkpt>
      <trkpt lat="48.87461" lon="-0.21966">
        <ele>183.8000031</ele>
        <time>2011-12-18T07:59:07Z</time>
      </trkpt>
      <trkpt lat="48.87458" lon="-0.2197">
        <ele>184</ele>
        <time>2011-12-18T07:59:08Z</time>
      </trkpt>
      <trkpt lat="48.87455" lon="-0.21973">
        <ele>184.6000061</ele>
        <time>2011-12-18T07:59:09Z</time>
      </trkpt>
      <trkpt lat="48.87451" lon="-0.21976">
        <ele>185</ele>
        <time>2011-12-18T07:59:10Z</time>
      </trkpt>
      <trkpt lat="48.87448" lon="-0.21979">
        <ele>185.6000061</ele>
        <time>2011-12-18T07:59:11Z</time>
      </trkpt>
      <trkpt lat="48.87439" lon="-0.2199">
        <ele>185.6000061</ele>
        <time>2011-12-18T07:59:14Z</time>
      </trkpt>
      <trkpt lat="48.87425" lon="-0.22006">
        <ele>185.6000061</ele>
        <time>2011-12-18T07:59:19Z</time>
      </trkpt>
      <trkpt lat="48.87419" lon="-0.22014">
        <ele>185.6000061</ele>
        <time>2011-12-18T07:59:22Z</time>
      </trkpt>
      <trkpt lat="48.87416" lon="-0.22017">
        <ele>186</ele>
        <time>2011-12-18T07:59:23Z</time>
      </trkpt>
      <trkpt lat="48.87413" lon="-0.2202">
        <ele>186.1999969</ele>
        <time>2011-12-18T07:59:24Z</time>
      </trkpt>
      <trkpt lat="48.87411" lon="-0.22023">
        <ele>186.8000031</ele>
        <time>2011-12-18T07:59:25Z</time>
      </trkpt>
      <trkpt lat="48.87407" lon="-0.22027">
        <ele>187</ele>
        <time>2011-12-18T07:59:26Z</time>
      </trkpt>
      <trkpt lat="48.87403" lon="-0.2203">
        <ele>187.6000061</ele>
        <time>2011-12-18T07:59:27Z</time>
      </trkpt>
      <trkpt lat="48.87398" lon="-0.22033">
        <ele>187.6000061</ele>
        <time>2011-12-18T07:59:28Z</time>
      </trkpt>
      <trkpt lat="48.8738" lon="-0.22051">
        <ele>187.6000061</ele>
        <time>2011-12-18T07:59:34Z</time>
      </trkpt>
      <trkpt lat="48.87363" lon="-0.22068">
        <ele>188</ele>
        <time>2011-12-18T07:59:40Z</time>
      </trkpt>
      <trkpt lat="48.8736" lon="-0.22071">
        <ele>188.1999969</ele>
        <time>2011-12-18T07:59:41Z</time>
      </trkpt>
      <trkpt lat="48.87357" lon="-0.22074">
        <ele>188.8000031</ele>
        <time>2011-12-18T07:59:42Z</time>
      </trkpt>
      <trkpt lat="48.87354" lon="-0.22077">
        <ele>189.6000061</ele>
        <time>2011-12-18T07:59:43Z</time>
      </trkpt>
      <trkpt lat="48.87347" lon="-0.22084">
        <ele>189.6000061</ele>
        <time>2011-12-18T07:59:45Z</time>
      </trkpt>
      <trkpt lat="48.87333" lon="-0.221">
        <ele>189.6000061</ele>
        <time>2011-12-18T07:59:50Z</time>
      </trkpt>
      <trkpt lat="48.87312" lon="-0.22122">
        <ele>189.6000061</ele>
        <time>2011-12-18T07:59:57Z</time>
      </trkpt>
      <trkpt lat="48.87306" lon="-0.22129">
        <ele>190</ele>
        <time>2011-12-18T07:59:59Z</time>
      </trkpt>
      <trkpt lat="48.87303" lon="-0.22133">
        <ele>190.1999969</ele>
        <time>2011-12-18T08:00:00Z</time>
      </trkpt>
      <trkpt lat="48.87299" lon="-0.22136">
        <ele>190.8000031</ele>
        <time>2011-12-18T08:00:01Z</time>
      </trkpt>
      <trkpt lat="48.87296" lon="-0.22139">
        <ele>191</ele>
        <time>2011-12-18T08:00:02Z</time>
      </trkpt>
      <trkpt lat="48.87293" lon="-0.22143">
        <ele>191.6000061</ele>
        <time>2011-12-18T08:00:03Z</time>
      </trkpt>
      <trkpt lat="48.87277" lon="-0.22162">
        <ele>191.6000061</ele>
        <time>2011-12-18T08:00:09Z</time>
      </trkpt>
      <trkpt lat="48.87261" lon="-0.22178">
        <ele>191.6000061</ele>
        <time>2011-12-18T08:00:14Z</time>
      </trkpt>
      <trkpt lat="48.87252" lon="-0.22187">
        <ele>192</ele>
        <time>2011-12-18T08:00:17Z</time>
      </trkpt>
      <trkpt lat="48.87248" lon="-0.2219">
        <ele>192.6000061</ele>
        <time>2011-12-18T08:00:18Z</time>
      </trkpt>
      <trkpt lat="48.87245" lon="-0.22193">
        <ele>193</ele>
        <time>2011-12-18T08:00:19Z</time>
      </trkpt>
      <trkpt lat="48.87242" lon="-0.22196">
        <ele>193.1999969</ele>
        <time>2011-12-18T08:00:20Z</time>
      </trkpt>
      <trkpt lat="48.87239" lon="-0.22199">
        <ele>193.8000031</ele>
        <time>2011-12-18T08:00:21Z</time>
      </trkpt>
      <trkpt lat="48.87218" lon="-0.2222">
        <ele>193.8000031</ele>
        <time>2011-12-18T08:00:28Z</time>
      </trkpt>
      <trkpt lat="48.87201" lon="-0.22232">
        <ele>194</ele>
        <time>2011-12-18T08:00:34Z</time>
      </trkpt>
      <trkpt lat="48.87198" lon="-0.22234">
        <ele>194.6000061</ele>
        <time>2011-12-18T08:00:35Z</time>
      </trkpt>
      <trkpt lat="48.87196" lon="-0.22235">
        <ele>195</ele>
        <time>2011-12-18T08:00:36Z</time>
      </trkpt>
      <trkpt lat="48.87195" lon="-0.22237">
        <ele>195.1999969</ele>
        <time>2011-12-18T08:00:37Z</time>
      </trkpt>
      <trkpt lat="48.87194" lon="-0.22239">
        <ele>196</ele>
        <time>2011-12-18T08:00:38Z</time>
      </trkpt>
      <trkpt lat="48.87181" lon="-0.22251">
        <ele>196</ele>
        <time>2011-12-18T08:00:44Z</time>
      </trkpt>
      <trkpt lat="48.87165" lon="-0.22269">
        <ele>196</ele>
        <time>2011-12-18T08:00:50Z</time>
      </trkpt>
      <trkpt lat="48.87161" lon="-0.22272">
        <ele>196.1999969</ele>
        <time>2011-12-18T08:00:51Z</time>
      </trkpt>
      <trkpt lat="48.87158" lon="-0.22275">
        <ele>196.8000031</ele>
        <time>2011-12-18T08:00:52Z</time>
      </trkpt>
      <trkpt lat="48.87155" lon="-0.22278">
        <ele>197</ele>
        <time>2011-12-18T08:00:53Z</time>
      </trkpt>
      <trkpt lat="48.87152" lon="-0.22281">
        <ele>197.6000061</ele>
        <time>2011-12-18T08:00:54Z</time>
      </trkpt>
      <trkpt lat="48.8715" lon="-0.22285">
        <ele>198</ele>
        <time>2011-12-18T08:00:55Z</time>
      </trkpt>
      <trkpt lat="48.87145" lon="-0.22291">
        <ele>198</ele>
        <time>2011-12-18T08:00:57Z</time>
      </trkpt>
      <trkpt lat="48.87129" lon="-0.22308">
        <ele>198.1999969</ele>
        <time>2011-12-18T08:01:03Z</time>
      </trkpt>
      <trkpt lat="48.87125" lon="-0.22311">
        <ele>198.8000031</ele>
        <time>2011-12-18T08:01:04Z</time>
      </trkpt>
      <trkpt lat="48.87122" lon="-0.22314">
        <ele>199</ele>
        <time>2011-12-18T08:01:05Z</time>
      </trkpt>
      <trkpt lat="48.87119" lon="-0.22317">
        <ele>199.8000031</ele>
        <time>2011-12-18T08:01:06Z</time>
      </trkpt>
      <trkpt lat="48.87114" lon="-0.2232">
        <ele>200</ele>
        <time>2011-12-18T08:01:07Z</time>
      </trkpt>
      <trkpt lat="48.87108" lon="-0.22325">
        <ele>200</ele>
        <time>2011-12-18T08:01:09Z</time>
      </trkpt>
      <trkpt lat="48.87092" lon="-0.22342">
        <ele>200</ele>
        <time>2011-12-18T08:01:15Z</time>
      </trkpt>
      <trkpt lat="48.87077" lon="-0.22356">
        <ele>200.6000061</ele>
        <time>2011-12-18T08:01:20Z</time>
      </trkpt>
      <trkpt lat="48.87075" lon="-0.22359">
        <ele>201</ele>
        <time>2011-12-18T08:01:21Z</time>
      </trkpt>
      <trkpt lat="48.87072" lon="-0.22362">
        <ele>201.8000031</ele>
        <time>2011-12-18T08:01:22Z</time>
      </trkpt>
      <trkpt lat="48.8707" lon="-0.22365">
        <ele>202</ele>
        <time>2011-12-18T08:01:23Z</time>
      </trkpt>
      <trkpt lat="48.87064" lon="-0.22377">
        <ele>202</ele>
        <time>2011-12-18T08:01:26Z</time>
      </trkpt>
      <trkpt lat="48.87062" lon="-0.22381">
        <ele>202.6000061</ele>
        <time>2011-12-18T08:01:27Z</time>
      </trkpt>
      <trkpt lat="48.8706" lon="-0.22384">
        <ele>203</ele>
        <time>2011-12-18T08:01:28Z</time>
      </trkpt>
      <trkpt lat="48.87057" lon="-0.22388">
        <ele>203.1999969</ele>
        <time>2011-12-18T08:01:29Z</time>
      </trkpt>
      <trkpt lat="48.87055" lon="-0.2239">
        <ele>203.8000031</ele>
        <time>2011-12-18T08:01:30Z</time>
      </trkpt>
      <trkpt lat="48.87053" lon="-0.22393">
        <ele>204</ele>
        <time>2011-12-18T08:01:31Z</time>
      </trkpt>
      <trkpt lat="48.87042" lon="-0.22405">
        <ele>204.8000031</ele>
        <time>2011-12-18T08:01:36Z</time>
      </trkpt>
      <trkpt lat="48.87039" lon="-0.22407">
        <ele>205</ele>
        <time>2011-12-18T08:01:37Z</time>
      </trkpt>
      <trkpt lat="48.87036" lon="-0.22409">
        <ele>205.6000061</ele>
        <time>2011-12-18T08:01:38Z</time>
      </trkpt>
      <trkpt lat="48.87034" lon="-0.22411">
        <ele>206</ele>
        <time>2011-12-18T08:01:39Z</time>
      </trkpt>
      <trkpt lat="48.87031" lon="-0.22413">
        <ele>206.6000061</ele>
        <time>2011-12-18T08:01:40Z</time>
      </trkpt>
      <trkpt lat="48.87019" lon="-0.2242">
        <ele>206.6000061</ele>
        <time>2011-12-18T08:01:45Z</time>
      </trkpt>
      <trkpt lat="48.87009" lon="-0.2242">
        <ele>206.6000061</ele>
        <time>2011-12-18T08:01:51Z</time>
      </trkpt>
      <trkpt lat="48.86997" lon="-0.2242">
        <ele>206.6000061</ele>
        <time>2011-12-18T08:01:57Z</time>
      </trkpt>
      <trkpt lat="48.86986" lon="-0.22422">
        <ele>206.6000061</ele>
        <time>2011-12-18T08:02:03Z</time>
      </trkpt>
      <trkpt lat="48.86985" lon="-0.22422">
        <ele>206.6000061</ele>
        <time>2011-12-18T08:02:05Z</time>
      </trkpt>
      <trkpt lat="48.86984" lon="-0.22425">
        <ele>206.6000061</ele>
        <time>2011-12-18T08:05:01Z</time>
      </trkpt>
      <trkpt lat="48.86983" lon="-0.22428">
        <ele>206.6000061</ele>
        <time>2011-12-18T08:05:02Z</time>
      </trkpt>
      <trkpt lat="48.86982" lon="-0.22431">
        <ele>206.6000061</ele>
        <time>2011-12-18T08:05:03Z</time>
      </trkpt>
      <trkpt lat="48.86981" lon="-0.22457">
        <ele>206.6000061</ele>
        <time>2011-12-18T08:05:08Z</time>
      </trkpt>
      <trkpt lat="48.86982" lon="-0.22464">
        <ele>206.6000061</ele>
        <time>2011-12-18T08:05:09Z</time>
      </trkpt>
      <trkpt lat="48.8698" lon="-0.22487">
        <ele>206.6000061</ele>
        <time>2011-12-18T08:05:12Z</time>
      </trkpt>
      <trkpt lat="48.86977" lon="-0.22493">
        <ele>206.6000061</ele>
        <time>2011-12-18T08:05:13Z</time>
      </trkpt>
      <trkpt lat="48.86968" lon="-0.22509">
        <ele>206</ele>
        <time>2011-12-18T08:05:16Z</time>
      </trkpt>
      <trkpt lat="48.86964" lon="-0.22514">
        <ele>205.8000031</ele>
        <time>2011-12-18T08:05:17Z</time>
      </trkpt>
      <trkpt lat="48.8696" lon="-0.22518">
        <ele>205</ele>
        <time>2011-12-18T08:05:18Z</time>
      </trkpt>
      <trkpt lat="48.86955" lon="-0.22522">
        <ele>204.8000031</ele>
        <time>2011-12-18T08:05:19Z</time>
      </trkpt>
      <trkpt lat="48.86951" lon="-0.22526">
        <ele>204.1999969</ele>
        <time>2011-12-18T08:05:20Z</time>
      </trkpt>
      <trkpt lat="48.8693" lon="-0.22546">
        <ele>204.1999969</ele>
        <time>2011-12-18T08:05:26Z</time>
      </trkpt>
      <trkpt lat="48.86911" lon="-0.22569">
        <ele>204.1999969</ele>
        <time>2011-12-18T08:05:32Z</time>
      </trkpt>
      <trkpt lat="48.8689" lon="-0.22594">
        <ele>204.1999969</ele>
        <time>2011-12-18T08:05:39Z</time>
      </trkpt>
      <trkpt lat="48.86876" lon="-0.2261">
        <ele>204.1999969</ele>
        <time>2011-12-18T08:05:44Z</time>
      </trkpt>
      <trkpt lat="48.86867" lon="-0.22622">
        <ele>204.1999969</ele>
        <time>2011-12-18T08:05:47Z</time>
      </trkpt>
      <trkpt lat="48.8686" lon="-0.22629">
        <ele>204.1999969</ele>
        <time>2011-12-18T08:05:49Z</time>
      </trkpt>
      <trkpt lat="48.86846" lon="-0.2265">
        <ele>204.1999969</ele>
        <time>2011-12-18T08:05:54Z</time>
      </trkpt>
      <trkpt lat="48.86833" lon="-0.22671">
        <ele>204.1999969</ele>
        <time>2011-12-18T08:05:59Z</time>
      </trkpt>
      <trkpt lat="48.8683" lon="-0.22674">
        <ele>204.1999969</ele>
        <time>2011-12-18T08:06:00Z</time>
      </trkpt>
      <trkpt lat="48.86816" lon="-0.22692">
        <ele>204.1999969</ele>
        <time>2011-12-18T08:06:05Z</time>
      </trkpt>
      <trkpt lat="48.86801" lon="-0.22711">
        <ele>204.1999969</ele>
        <time>2011-12-18T08:06:10Z</time>
      </trkpt>
      <trkpt lat="48.86797" lon="-0.22714">
        <ele>204.1999969</ele>
        <time>2011-12-18T08:06:11Z</time>
      </trkpt>
      <trkpt lat="48.86783" lon="-0.22734">
        <ele>204.1999969</ele>
        <time>2011-12-18T08:06:16Z</time>
      </trkpt>
      <trkpt lat="48.86779" lon="-0.22742">
        <ele>204.1999969</ele>
        <time>2011-12-18T08:06:18Z</time>
      </trkpt>
      <trkpt lat="48.86771" lon="-0.22752">
        <ele>204.1999969</ele>
        <time>2011-12-18T08:06:21Z</time>
      </trkpt>
      <trkpt lat="48.86761" lon="-0.22767">
        <ele>204.1999969</ele>
        <time>2011-12-18T08:06:25Z</time>
      </trkpt>
      <trkpt lat="48.86758" lon="-0.22775">
        <ele>204.8000031</ele>
        <time>2011-12-18T08:06:27Z</time>
      </trkpt>
      <trkpt lat="48.86756" lon="-0.22778">
        <ele>205</ele>
        <time>2011-12-18T08:06:28Z</time>
      </trkpt>
      <trkpt lat="48.86754" lon="-0.22782">
        <ele>205.6000061</ele>
        <time>2011-12-18T08:06:29Z</time>
      </trkpt>
      <trkpt lat="48.86751" lon="-0.22786">
        <ele>206</ele>
        <time>2011-12-18T08:06:30Z</time>
      </trkpt>
      <trkpt lat="48.86749" lon="-0.2279">
        <ele>206.1999969</ele>
        <time>2011-12-18T08:06:31Z</time>
      </trkpt>
      <trkpt lat="48.86738" lon="-0.22808">
        <ele>206.1999969</ele>
        <time>2011-12-18T08:06:36Z</time>
      </trkpt>
      <trkpt lat="48.86724" lon="-0.22825">
        <ele>206.1999969</ele>
        <time>2011-12-18T08:06:42Z</time>
      </trkpt>
      <trkpt lat="48.86715" lon="-0.22837">
        <ele>206.1999969</ele>
        <time>2011-12-18T08:06:46Z</time>
      </trkpt>
      <trkpt lat="48.86694" lon="-0.22865">
        <ele>207</ele>
        <time>2011-12-18T08:06:55Z</time>
      </trkpt>
      <trkpt lat="48.86692" lon="-0.22868">
        <ele>207.1999969</ele>
        <time>2011-12-18T08:06:56Z</time>
      </trkpt>
      <trkpt lat="48.86689" lon="-0.22871">
        <ele>207.8000031</ele>
        <time>2011-12-18T08:06:57Z</time>
      </trkpt>
      <trkpt lat="48.86686" lon="-0.22874">
        <ele>208</ele>
        <time>2011-12-18T08:06:58Z</time>
      </trkpt>
      <trkpt lat="48.86684" lon="-0.22877">
        <ele>208.6000061</ele>
        <time>2011-12-18T08:06:59Z</time>
      </trkpt>
      <trkpt lat="48.86679" lon="-0.22884">
        <ele>208.6000061</ele>
        <time>2011-12-18T08:07:01Z</time>
      </trkpt>
      <trkpt lat="48.8666" lon="-0.22907">
        <ele>208.6000061</ele>
        <time>2011-12-18T08:07:09Z</time>
      </trkpt>
      <trkpt lat="48.86649" lon="-0.22922">
        <ele>208.6000061</ele>
        <time>2011-12-18T08:07:14Z</time>
      </trkpt>
      <trkpt lat="48.86643" lon="-0.22928">
        <ele>209</ele>
        <time>2011-12-18T08:07:16Z</time>
      </trkpt>
      <trkpt lat="48.86641" lon="-0.22931">
        <ele>209.1999969</ele>
        <time>2011-12-18T08:07:17Z</time>
      </trkpt>
      <trkpt lat="48.86638" lon="-0.22933">
        <ele>209.8000031</ele>
        <time>2011-12-18T08:07:18Z</time>
      </trkpt>
      <trkpt lat="48.86636" lon="-0.22936">
        <ele>210</ele>
        <time>2011-12-18T08:07:19Z</time>
      </trkpt>
      <trkpt lat="48.86633" lon="-0.22939">
        <ele>210.6000061</ele>
        <time>2011-12-18T08:07:20Z</time>
      </trkpt>
      <trkpt lat="48.86619" lon="-0.22956">
        <ele>210.6000061</ele>
        <time>2011-12-18T08:07:26Z</time>
      </trkpt>
      <trkpt lat="48.86601" lon="-0.22962">
        <ele>210.6000061</ele>
        <time>2011-12-18T08:07:32Z</time>
      </trkpt>
      <trkpt lat="48.86575" lon="-0.22966">
        <ele>210.6000061</ele>
        <time>2011-12-18T08:07:39Z</time>
      </trkpt>
      <trkpt lat="48.8657" lon="-0.22967">
        <ele>210.6000061</ele>
        <time>2011-12-18T08:07:40Z</time>
      </trkpt>
      <trkpt lat="48.86545" lon="-0.22975">
        <ele>210.6000061</ele>
        <time>2011-12-18T08:07:46Z</time>
      </trkpt>
      <trkpt lat="48.86542" lon="-0.22978">
        <ele>210.6000061</ele>
        <time>2011-12-18T08:07:47Z</time>
      </trkpt>
      <trkpt lat="48.86531" lon="-0.22989">
        <ele>210.6000061</ele>
        <time>2011-12-18T08:07:50Z</time>
      </trkpt>
      <trkpt lat="48.86517" lon="-0.23002">
        <ele>210.6000061</ele>
        <time>2011-12-18T08:07:54Z</time>
      </trkpt>
      <trkpt lat="48.86514" lon="-0.23006">
        <ele>210.6000061</ele>
        <time>2011-12-18T08:07:55Z</time>
      </trkpt>
      <trkpt lat="48.865" lon="-0.23021">
        <ele>210.6000061</ele>
        <time>2011-12-18T08:07:59Z</time>
      </trkpt>
      <trkpt lat="48.86496" lon="-0.23025">
        <ele>210.6000061</ele>
        <time>2011-12-18T08:08:00Z</time>
      </trkpt>
      <trkpt lat="48.86468" lon="-0.23056">
        <ele>210.6000061</ele>
        <time>2011-12-18T08:08:08Z</time>
      </trkpt>
      <trkpt lat="48.86442" lon="-0.23082">
        <ele>210.6000061</ele>
        <time>2011-12-18T08:08:15Z</time>
      </trkpt>
      <trkpt lat="48.86435" lon="-0.23089">
        <ele>210.6000061</ele>
        <time>2011-12-18T08:08:17Z</time>
      </trkpt>
      <trkpt lat="48.86431" lon="-0.23093">
        <ele>211</ele>
        <time>2011-12-18T08:08:18Z</time>
      </trkpt>
      <trkpt lat="48.86428" lon="-0.23096">
        <ele>211.1999969</ele>
        <time>2011-12-18T08:08:19Z</time>
      </trkpt>
      <trkpt lat="48.86424" lon="-0.231">
        <ele>211.8000031</ele>
        <time>2011-12-18T08:08:20Z</time>
      </trkpt>
      <trkpt lat="48.86421" lon="-0.23104">
        <ele>212.1999969</ele>
        <time>2011-12-18T08:08:21Z</time>
      </trkpt>
      <trkpt lat="48.86417" lon="-0.23107">
        <ele>212.8000031</ele>
        <time>2011-12-18T08:08:22Z</time>
      </trkpt>
      <trkpt lat="48.86411" lon="-0.23115">
        <ele>212.8000031</ele>
        <time>2011-12-18T08:08:24Z</time>
      </trkpt>
      <trkpt lat="48.8638" lon="-0.23145">
        <ele>212.8000031</ele>
        <time>2011-12-18T08:08:33Z</time>
      </trkpt>
      <trkpt lat="48.86376" lon="-0.23149">
        <ele>213</ele>
        <time>2011-12-18T08:08:34Z</time>
      </trkpt>
      <trkpt lat="48.86373" lon="-0.23153">
        <ele>213.6000061</ele>
        <time>2011-12-18T08:08:35Z</time>
      </trkpt>
      <trkpt lat="48.8637" lon="-0.23156">
        <ele>214</ele>
        <time>2011-12-18T08:08:36Z</time>
      </trkpt>
      <trkpt lat="48.86366" lon="-0.2316">
        <ele>214.1999969</ele>
        <time>2011-12-18T08:08:37Z</time>
      </trkpt>
      <trkpt lat="48.86363" lon="-0.23163">
        <ele>214.8000031</ele>
        <time>2011-12-18T08:08:38Z</time>
      </trkpt>
      <trkpt lat="48.86349" lon="-0.23176">
        <ele>214.8000031</ele>
        <time>2011-12-18T08:08:42Z</time>
      </trkpt>
      <trkpt lat="48.86339" lon="-0.23185">
        <ele>215</ele>
        <time>2011-12-18T08:08:45Z</time>
      </trkpt>
      <trkpt lat="48.86336" lon="-0.23188">
        <ele>215.6000061</ele>
        <time>2011-12-18T08:08:46Z</time>
      </trkpt>
      <trkpt lat="48.86333" lon="-0.23191">
        <ele>216</ele>
        <time>2011-12-18T08:08:47Z</time>
      </trkpt>
      <trkpt lat="48.86331" lon="-0.23195">
        <ele>216.8000031</ele>
        <time>2011-12-18T08:08:48Z</time>
      </trkpt>
      <trkpt lat="48.86328" lon="-0.23198">
        <ele>216.8000031</ele>
        <time>2011-12-18T08:08:49Z</time>
      </trkpt>
      <trkpt lat="48.86312" lon="-0.23215">
        <ele>216.8000031</ele>
        <time>2011-12-18T08:08:54Z</time>
      </trkpt>
      <trkpt lat="48.86306" lon="-0.23221">
        <ele>216.8000031</ele>
        <time>2011-12-18T08:08:56Z</time>
      </trkpt>
      <trkpt lat="48.86303" lon="-0.23224">
        <ele>217</ele>
        <time>2011-12-18T08:08:57Z</time>
      </trkpt>
      <trkpt lat="48.863" lon="-0.23227">
        <ele>217.6000061</ele>
        <time>2011-12-18T08:08:58Z</time>
      </trkpt>
      <trkpt lat="48.86297" lon="-0.2323">
        <ele>218</ele>
        <time>2011-12-18T08:08:59Z</time>
      </trkpt>
      <trkpt lat="48.86294" lon="-0.23234">
        <ele>218.6000061</ele>
        <time>2011-12-18T08:09:00Z</time>
      </trkpt>
      <trkpt lat="48.86291" lon="-0.23237">
        <ele>219</ele>
        <time>2011-12-18T08:09:01Z</time>
      </trkpt>
      <trkpt lat="48.8628" lon="-0.23247">
        <ele>219</ele>
        <time>2011-12-18T08:09:04Z</time>
      </trkpt>
      <trkpt lat="48.86267" lon="-0.23261">
        <ele>219</ele>
        <time>2011-12-18T08:09:08Z</time>
      </trkpt>
      <trkpt lat="48.86264" lon="-0.23264">
        <ele>219.1999969</ele>
        <time>2011-12-18T08:09:09Z</time>
      </trkpt>
      <trkpt lat="48.86261" lon="-0.23268">
        <ele>219.8000031</ele>
        <time>2011-12-18T08:09:10Z</time>
      </trkpt>
      <trkpt lat="48.86258" lon="-0.23272">
        <ele>220</ele>
        <time>2011-12-18T08:09:11Z</time>
      </trkpt>
      <trkpt lat="48.86254" lon="-0.23275">
        <ele>220.6000061</ele>
        <time>2011-12-18T08:09:12Z</time>
      </trkpt>
      <trkpt lat="48.86251" lon="-0.23279">
        <ele>221</ele>
        <time>2011-12-18T08:09:13Z</time>
      </trkpt>
      <trkpt lat="48.86236" lon="-0.23293">
        <ele>221</ele>
        <time>2011-12-18T08:09:17Z</time>
      </trkpt>
      <trkpt lat="48.86212" lon="-0.23317">
        <ele>221.1999969</ele>
        <time>2011-12-18T08:09:24Z</time>
      </trkpt>
      <trkpt lat="48.86209" lon="-0.23321">
        <ele>221.8000031</ele>
        <time>2011-12-18T08:09:25Z</time>
      </trkpt>
      <trkpt lat="48.86206" lon="-0.23324">
        <ele>222</ele>
        <time>2011-12-18T08:09:26Z</time>
      </trkpt>
      <trkpt lat="48.86203" lon="-0.23328">
        <ele>222.6000061</ele>
        <time>2011-12-18T08:09:27Z</time>
      </trkpt>
      <trkpt lat="48.862" lon="-0.23332">
        <ele>223</ele>
        <time>2011-12-18T08:09:28Z</time>
      </trkpt>
      <trkpt lat="48.86183" lon="-0.23353">
        <ele>223</ele>
        <time>2011-12-18T08:09:34Z</time>
      </trkpt>
      <trkpt lat="48.86158" lon="-0.23381">
        <ele>223</ele>
        <time>2011-12-18T08:09:42Z</time>
      </trkpt>
      <trkpt lat="48.86152" lon="-0.23389">
        <ele>223.1999969</ele>
        <time>2011-12-18T08:09:44Z</time>
      </trkpt>
      <trkpt lat="48.86149" lon="-0.23393">
        <ele>223.8000031</ele>
        <time>2011-12-18T08:09:45Z</time>
      </trkpt>
      <trkpt lat="48.86146" lon="-0.23397">
        <ele>224.1999969</ele>
        <time>2011-12-18T08:09:46Z</time>
      </trkpt>
      <trkpt lat="48.86143" lon="-0.23402">
        <ele>224.8000031</ele>
        <time>2011-12-18T08:09:47Z</time>
      </trkpt>
      <trkpt lat="48.86139" lon="-0.23406">
        <ele>225</ele>
        <time>2011-12-18T08:09:48Z</time>
      </trkpt>
      <trkpt lat="48.86133" lon="-0.23414">
        <ele>225</ele>
        <time>2011-12-18T08:09:50Z</time>
      </trkpt>
      <trkpt lat="48.86129" lon="-0.23417">
        <ele>225</ele>
        <time>2011-12-18T08:09:51Z</time>
      </trkpt>
      <trkpt lat="48.86119" lon="-0.23428">
        <ele>225</ele>
        <time>2011-12-18T08:09:54Z</time>
      </trkpt>
      <trkpt lat="48.86116" lon="-0.23432">
        <ele>225</ele>
        <time>2011-12-18T08:09:55Z</time>
      </trkpt>
      <trkpt lat="48.86097" lon="-0.23455">
        <ele>225</ele>
        <time>2011-12-18T08:10:01Z</time>
      </trkpt>
      <trkpt lat="48.86085" lon="-0.23472">
        <ele>225</ele>
        <time>2011-12-18T08:10:05Z</time>
      </trkpt>
      <trkpt lat="48.86077" lon="-0.23485">
        <ele>225</ele>
        <time>2011-12-18T08:10:08Z</time>
      </trkpt>
      <trkpt lat="48.86059" lon="-0.23515">
        <ele>225</ele>
        <time>2011-12-18T08:10:15Z</time>
      </trkpt>
      <trkpt lat="48.86051" lon="-0.23529">
        <ele>225</ele>
        <time>2011-12-18T08:10:19Z</time>
      </trkpt>
      <trkpt lat="48.8605" lon="-0.2353">
        <ele>225</ele>
        <time>2011-12-18T08:10:20Z</time>
      </trkpt>
      <trkpt lat="48.8605" lon="-0.23532">
        <ele>225</ele>
        <time>2011-12-18T08:10:21Z</time>
      </trkpt>
      <trkpt lat="48.8605" lon="-0.23535">
        <ele>225</ele>
        <time>2011-12-18T08:10:23Z</time>
      </trkpt>
      <trkpt lat="48.86051" lon="-0.23537">
        <ele>225</ele>
        <time>2011-12-18T08:10:24Z</time>
      </trkpt>
      <trkpt lat="48.86059" lon="-0.23552">
        <ele>225</ele>
        <time>2011-12-18T08:10:29Z</time>
      </trkpt>
      <trkpt lat="48.8606" lon="-0.23555">
        <ele>225</ele>
        <time>2011-12-18T08:10:30Z</time>
      </trkpt>
      <trkpt lat="48.86067" lon="-0.23573">
        <ele>225</ele>
        <time>2011-12-18T08:10:35Z</time>
      </trkpt>
      <trkpt lat="48.86077" lon="-0.23592">
        <ele>225</ele>
        <time>2011-12-18T08:10:40Z</time>
      </trkpt>
      <trkpt lat="48.86079" lon="-0.23596">
        <ele>225</ele>
        <time>2011-12-18T08:10:41Z</time>
      </trkpt>
      <trkpt lat="48.86092" lon="-0.23621">
        <ele>225</ele>
        <time>2011-12-18T08:10:47Z</time>
      </trkpt>
      <trkpt lat="48.86103" lon="-0.23652">
        <ele>225</ele>
        <time>2011-12-18T08:10:53Z</time>
      </trkpt>
      <trkpt lat="48.86112" lon="-0.23687">
        <ele>225</ele>
        <time>2011-12-18T08:11:00Z</time>
      </trkpt>
      <trkpt lat="48.86105" lon="-0.23712">
        <ele>225</ele>
        <time>2011-12-18T08:11:05Z</time>
      </trkpt>
      <trkpt lat="48.86086" lon="-0.23755">
        <ele>225</ele>
        <time>2011-12-18T08:11:13Z</time>
      </trkpt>
      <trkpt lat="48.86063" lon="-0.23787">
        <ele>224.8000031</ele>
        <time>2011-12-18T08:11:18Z</time>
      </trkpt>
      <trkpt lat="48.86058" lon="-0.23794">
        <ele>224.1999969</ele>
        <time>2011-12-18T08:11:19Z</time>
      </trkpt>
      <trkpt lat="48.86053" lon="-0.23801">
        <ele>223.8000031</ele>
        <time>2011-12-18T08:11:20Z</time>
      </trkpt>
      <trkpt lat="48.86047" lon="-0.23808">
        <ele>223.1999969</ele>
        <time>2011-12-18T08:11:21Z</time>
      </trkpt>
      <trkpt lat="48.86042" lon="-0.23815">
        <ele>223</ele>
        <time>2011-12-18T08:11:22Z</time>
      </trkpt>
      <trkpt lat="48.86025" lon="-0.23837">
        <ele>222.6000061</ele>
        <time>2011-12-18T08:11:25Z</time>
      </trkpt>
      <trkpt lat="48.8602" lon="-0.23845">
        <ele>222</ele>
        <time>2011-12-18T08:11:26Z</time>
      </trkpt>
      <trkpt lat="48.86015" lon="-0.23853">
        <ele>221.6000061</ele>
        <time>2011-12-18T08:11:27Z</time>
      </trkpt>
      <trkpt lat="48.86009" lon="-0.23862">
        <ele>221</ele>
        <time>2011-12-18T08:11:28Z</time>
      </trkpt>
      <trkpt lat="48.86004" lon="-0.2387">
        <ele>220.6000061</ele>
        <time>2011-12-18T08:11:29Z</time>
      </trkpt>
      <trkpt lat="48.85995" lon="-0.23886">
        <ele>220</ele>
        <time>2011-12-18T08:11:31Z</time>
      </trkpt>
      <trkpt lat="48.8599" lon="-0.23893">
        <ele>219.8000031</ele>
        <time>2011-12-18T08:11:32Z</time>
      </trkpt>
      <trkpt lat="48.85986" lon="-0.23901">
        <ele>219.1999969</ele>
        <time>2011-12-18T08:11:33Z</time>
      </trkpt>
      <trkpt lat="48.85981" lon="-0.23908">
        <ele>219</ele>
        <time>2011-12-18T08:11:34Z</time>
      </trkpt>
      <trkpt lat="48.85977" lon="-0.23915">
        <ele>218.6000061</ele>
        <time>2011-12-18T08:11:35Z</time>
      </trkpt>
      <trkpt lat="48.85972" lon="-0.23923">
        <ele>218.6000061</ele>
        <time>2011-12-18T08:11:36Z</time>
      </trkpt>
      <trkpt lat="48.85963" lon="-0.23938">
        <ele>218.6000061</ele>
        <time>2011-12-18T08:11:38Z</time>
      </trkpt>
      <trkpt lat="48.85958" lon="-0.23946">
        <ele>218</ele>
        <time>2011-12-18T08:11:39Z</time>
      </trkpt>
      <trkpt lat="48.85953" lon="-0.23953">
        <ele>217.8000031</ele>
        <time>2011-12-18T08:11:40Z</time>
      </trkpt>
      <trkpt lat="48.85948" lon="-0.23961">
        <ele>217</ele>
        <time>2011-12-18T08:11:41Z</time>
      </trkpt>
      <trkpt lat="48.85943" lon="-0.23968">
        <ele>216.6000061</ele>
        <time>2011-12-18T08:11:42Z</time>
      </trkpt>
      <trkpt lat="48.85931" lon="-0.23983">
        <ele>216</ele>
        <time>2011-12-18T08:11:44Z</time>
      </trkpt>
      <trkpt lat="48.85925" lon="-0.2399">
        <ele>215.6000061</ele>
        <time>2011-12-18T08:11:45Z</time>
      </trkpt>
      <trkpt lat="48.85919" lon="-0.23997">
        <ele>215</ele>
        <time>2011-12-18T08:11:46Z</time>
      </trkpt>
      <trkpt lat="48.85912" lon="-0.24004">
        <ele>214.8000031</ele>
        <time>2011-12-18T08:11:47Z</time>
      </trkpt>
      <trkpt lat="48.85905" lon="-0.24012">
        <ele>214.1999969</ele>
        <time>2011-12-18T08:11:48Z</time>
      </trkpt>
      <trkpt lat="48.85892" lon="-0.24029">
        <ele>213.8000031</ele>
        <time>2011-12-18T08:11:50Z</time>
      </trkpt>
      <trkpt lat="48.85886" lon="-0.24039">
        <ele>213.1999969</ele>
        <time>2011-12-18T08:11:51Z</time>
      </trkpt>
      <trkpt lat="48.8588" lon="-0.24049">
        <ele>212.8000031</ele>
        <time>2011-12-18T08:11:52Z</time>
      </trkpt>
      <trkpt lat="48.85875" lon="-0.24059">
        <ele>212</ele>
        <time>2011-12-18T08:11:53Z</time>
      </trkpt>
      <trkpt lat="48.85869" lon="-0.2407">
        <ele>211.6000061</ele>
        <time>2011-12-18T08:11:54Z</time>
      </trkpt>
      <trkpt lat="48.85863" lon="-0.2408">
        <ele>211</ele>
        <time>2011-12-18T08:11:55Z</time>
      </trkpt>
      <trkpt lat="48.85857" lon="-0.24091">
        <ele>210.6000061</ele>
        <time>2011-12-18T08:11:56Z</time>
      </trkpt>
      <trkpt lat="48.85851" lon="-0.24102">
        <ele>210</ele>
        <time>2011-12-18T08:11:57Z</time>
      </trkpt>
      <trkpt lat="48.85845" lon="-0.24113">
        <ele>209.1999969</ele>
        <time>2011-12-18T08:11:58Z</time>
      </trkpt>
      <trkpt lat="48.85835" lon="-0.24134">
        <ele>209.1999969</ele>
        <time>2011-12-18T08:12:00Z</time>
      </trkpt>
      <trkpt lat="48.85825" lon="-0.24155">
        <ele>209</ele>
        <time>2011-12-18T08:12:02Z</time>
      </trkpt>
      <trkpt lat="48.8582" lon="-0.24165">
        <ele>208.6000061</ele>
        <time>2011-12-18T08:12:03Z</time>
      </trkpt>
      <trkpt lat="48.85814" lon="-0.24175">
        <ele>208</ele>
        <time>2011-12-18T08:12:04Z</time>
      </trkpt>
      <trkpt lat="48.85809" lon="-0.24185">
        <ele>207</ele>
        <time>2011-12-18T08:12:05Z</time>
      </trkpt>
      <trkpt lat="48.85802" lon="-0.24195">
        <ele>206.1999969</ele>
        <time>2011-12-18T08:12:06Z</time>
      </trkpt>
      <trkpt lat="48.85795" lon="-0.24204">
        <ele>205.8000031</ele>
        <time>2011-12-18T08:12:07Z</time>
      </trkpt>
      <trkpt lat="48.85788" lon="-0.24212">
        <ele>205</ele>
        <time>2011-12-18T08:12:08Z</time>
      </trkpt>
      <trkpt lat="48.8578" lon="-0.24221">
        <ele>204</ele>
        <time>2011-12-18T08:12:09Z</time>
      </trkpt>
      <trkpt lat="48.85772" lon="-0.2423">
        <ele>203.6000061</ele>
        <time>2011-12-18T08:12:10Z</time>
      </trkpt>
      <trkpt lat="48.85765" lon="-0.24238">
        <ele>203</ele>
        <time>2011-12-18T08:12:11Z</time>
      </trkpt>
      <trkpt lat="48.85756" lon="-0.24247">
        <ele>202.1999969</ele>
        <time>2011-12-18T08:12:12Z</time>
      </trkpt>
      <trkpt lat="48.85748" lon="-0.24255">
        <ele>201.6000061</ele>
        <time>2011-12-18T08:12:13Z</time>
      </trkpt>
      <trkpt lat="48.85739" lon="-0.24264">
        <ele>200.8000031</ele>
        <time>2011-12-18T08:12:14Z</time>
      </trkpt>
      <trkpt lat="48.8573" lon="-0.24272">
        <ele>200</ele>
        <time>2011-12-18T08:12:15Z</time>
      </trkpt>
      <trkpt lat="48.85721" lon="-0.24281">
        <ele>199.1999969</ele>
        <time>2011-12-18T08:12:16Z</time>
      </trkpt>
      <trkpt lat="48.85713" lon="-0.24289">
        <ele>198.6000061</ele>
        <time>2011-12-18T08:12:17Z</time>
      </trkpt>
      <trkpt lat="48.85704" lon="-0.24298">
        <ele>198</ele>
        <time>2011-12-18T08:12:18Z</time>
      </trkpt>
      <trkpt lat="48.85696" lon="-0.24306">
        <ele>197</ele>
        <time>2011-12-18T08:12:19Z</time>
      </trkpt>
      <trkpt lat="48.85688" lon="-0.24314">
        <ele>196.6000061</ele>
        <time>2011-12-18T08:12:20Z</time>
      </trkpt>
      <trkpt lat="48.85679" lon="-0.24322">
        <ele>196</ele>
        <time>2011-12-18T08:12:21Z</time>
      </trkpt>
      <trkpt lat="48.85671" lon="-0.2433">
        <ele>195.1999969</ele>
        <time>2011-12-18T08:12:22Z</time>
      </trkpt>
      <trkpt lat="48.85663" lon="-0.24337">
        <ele>194.8000031</ele>
        <time>2011-12-18T08:12:23Z</time>
      </trkpt>
      <trkpt lat="48.85656" lon="-0.24344">
        <ele>194</ele>
        <time>2011-12-18T08:12:24Z</time>
      </trkpt>
      <trkpt lat="48.85648" lon="-0.2435">
        <ele>193.6000061</ele>
        <time>2011-12-18T08:12:25Z</time>
      </trkpt>
      <trkpt lat="48.85641" lon="-0.24357">
        <ele>193</ele>
        <time>2011-12-18T08:12:26Z</time>
      </trkpt>
      <trkpt lat="48.85633" lon="-0.24363">
        <ele>192.1999969</ele>
        <time>2011-12-18T08:12:27Z</time>
      </trkpt>
      <trkpt lat="48.85626" lon="-0.24368">
        <ele>191.8000031</ele>
        <time>2011-12-18T08:12:28Z</time>
      </trkpt>
      <trkpt lat="48.85603" lon="-0.24379">
        <ele>191.1999969</ele>
        <time>2011-12-18T08:12:31Z</time>
      </trkpt>
      <trkpt lat="48.85595" lon="-0.24381">
        <ele>191</ele>
        <time>2011-12-18T08:12:32Z</time>
      </trkpt>
      <trkpt lat="48.85588" lon="-0.24382">
        <ele>190.6000061</ele>
        <time>2011-12-18T08:12:33Z</time>
      </trkpt>
      <trkpt lat="48.8558" lon="-0.24383">
        <ele>190</ele>
        <time>2011-12-18T08:12:34Z</time>
      </trkpt>
      <trkpt lat="48.85572" lon="-0.24383">
        <ele>189.8000031</ele>
        <time>2011-12-18T08:12:35Z</time>
      </trkpt>
      <trkpt lat="48.85565" lon="-0.24384">
        <ele>189.8000031</ele>
        <time>2011-12-18T08:12:36Z</time>
      </trkpt>
      <trkpt lat="48.85549" lon="-0.24387">
        <ele>189.8000031</ele>
        <time>2011-12-18T08:12:38Z</time>
      </trkpt>
      <trkpt lat="48.85542" lon="-0.2439">
        <ele>189.1999969</ele>
        <time>2011-12-18T08:12:39Z</time>
      </trkpt>
      <trkpt lat="48.85534" lon="-0.24395">
        <ele>189</ele>
        <time>2011-12-18T08:12:40Z</time>
      </trkpt>
      <trkpt lat="48.85527" lon="-0.24401">
        <ele>188.6000061</ele>
        <time>2011-12-18T08:12:41Z</time>
      </trkpt>
      <trkpt lat="48.85521" lon="-0.24407">
        <ele>188</ele>
        <time>2011-12-18T08:12:42Z</time>
      </trkpt>
      <trkpt lat="48.85515" lon="-0.24414">
        <ele>187.8000031</ele>
        <time>2011-12-18T08:12:43Z</time>
      </trkpt>
      <trkpt lat="48.85499" lon="-0.24434">
        <ele>187.8000031</ele>
        <time>2011-12-18T08:12:46Z</time>
      </trkpt>
      <trkpt lat="48.85483" lon="-0.24453">
        <ele>187.1999969</ele>
        <time>2011-12-18T08:12:49Z</time>
      </trkpt>
      <trkpt lat="48.85477" lon="-0.24459">
        <ele>187</ele>
        <time>2011-12-18T08:12:50Z</time>
      </trkpt>
      <trkpt lat="48.85472" lon="-0.24465">
        <ele>186.6000061</ele>
        <time>2011-12-18T08:12:51Z</time>
      </trkpt>
      <trkpt lat="48.85465" lon="-0.24471">
        <ele>186</ele>
        <time>2011-12-18T08:12:52Z</time>
      </trkpt>
      <trkpt lat="48.85459" lon="-0.24477">
        <ele>185.8000031</ele>
        <time>2011-12-18T08:12:53Z</time>
      </trkpt>
      <trkpt lat="48.85452" lon="-0.24484">
        <ele>185.8000031</ele>
        <time>2011-12-18T08:12:54Z</time>
      </trkpt>
      <trkpt lat="48.85421" lon="-0.24515">
        <ele>185</ele>
        <time>2011-12-18T08:12:59Z</time>
      </trkpt>
      <trkpt lat="48.85414" lon="-0.24522">
        <ele>184.8000031</ele>
        <time>2011-12-18T08:13:00Z</time>
      </trkpt>
      <trkpt lat="48.85408" lon="-0.2453">
        <ele>184.1999969</ele>
        <time>2011-12-18T08:13:01Z</time>
      </trkpt>
      <trkpt lat="48.85402" lon="-0.24539">
        <ele>184</ele>
        <time>2011-12-18T08:13:02Z</time>
      </trkpt>
      <trkpt lat="48.85397" lon="-0.24547">
        <ele>183.6000061</ele>
        <time>2011-12-18T08:13:03Z</time>
      </trkpt>
      <trkpt lat="48.85378" lon="-0.2458">
        <ele>183</ele>
        <time>2011-12-18T08:13:07Z</time>
      </trkpt>
      <trkpt lat="48.85373" lon="-0.24588">
        <ele>182.8000031</ele>
        <time>2011-12-18T08:13:08Z</time>
      </trkpt>
      <trkpt lat="48.85369" lon="-0.24596">
        <ele>182.1999969</ele>
        <time>2011-12-18T08:13:09Z</time>
      </trkpt>
      <trkpt lat="48.85366" lon="-0.24604">
        <ele>182</ele>
        <time>2011-12-18T08:13:10Z</time>
      </trkpt>
      <trkpt lat="48.85363" lon="-0.24612">
        <ele>181.6000061</ele>
        <time>2011-12-18T08:13:11Z</time>
      </trkpt>
      <trkpt lat="48.85362" lon="-0.24623">
        <ele>181.6000061</ele>
        <time>2011-12-18T08:13:13Z</time>
      </trkpt>
      <trkpt lat="48.85358" lon="-0.2463">
        <ele>181.6000061</ele>
        <time>2011-12-18T08:13:16Z</time>
      </trkpt>
      <trkpt lat="48.85357" lon="-0.24631">
        <ele>181.6000061</ele>
        <time>2011-12-18T08:13:17Z</time>
      </trkpt>
      <trkpt lat="48.85354" lon="-0.24631">
        <ele>181.6000061</ele>
        <time>2011-12-18T08:13:19Z</time>
      </trkpt>
      <trkpt lat="48.85347" lon="-0.24632">
        <ele>181.6000061</ele>
        <time>2011-12-18T08:13:23Z</time>
      </trkpt>
      <trkpt lat="48.8534" lon="-0.24637">
        <ele>181.6000061</ele>
        <time>2011-12-18T08:13:27Z</time>
      </trkpt>
      <trkpt lat="48.85338" lon="-0.24639">
        <ele>181.6000061</ele>
        <time>2011-12-18T08:13:28Z</time>
      </trkpt>
      <trkpt lat="48.85325" lon="-0.24652">
        <ele>181.6000061</ele>
        <time>2011-12-18T08:13:34Z</time>
      </trkpt>
      <trkpt lat="48.85322" lon="-0.24655">
        <ele>181.6000061</ele>
        <time>2011-12-18T08:13:35Z</time>
      </trkpt>
      <trkpt lat="48.85311" lon="-0.24667">
        <ele>181.6000061</ele>
        <time>2011-12-18T08:13:39Z</time>
      </trkpt>
      <trkpt lat="48.85306" lon="-0.24672">
        <ele>181.6000061</ele>
        <time>2011-12-18T08:13:41Z</time>
      </trkpt>
      <trkpt lat="48.85291" lon="-0.2469">
        <ele>181.6000061</ele>
        <time>2011-12-18T08:13:47Z</time>
      </trkpt>
      <trkpt lat="48.85279" lon="-0.24711">
        <ele>181.6000061</ele>
        <time>2011-12-18T08:13:53Z</time>
      </trkpt>
      <trkpt lat="48.85267" lon="-0.24727">
        <ele>181.6000061</ele>
        <time>2011-12-18T08:13:58Z</time>
      </trkpt>
      <trkpt lat="48.85259" lon="-0.24738">
        <ele>182.1999969</ele>
        <time>2011-12-18T08:14:01Z</time>
      </trkpt>
      <trkpt lat="48.85256" lon="-0.24741">
        <ele>182.8000031</ele>
        <time>2011-12-18T08:14:02Z</time>
      </trkpt>
      <trkpt lat="48.85253" lon="-0.24744">
        <ele>183</ele>
        <time>2011-12-18T08:14:03Z</time>
      </trkpt>
      <trkpt lat="48.85251" lon="-0.24748">
        <ele>183.6000061</ele>
        <time>2011-12-18T08:14:04Z</time>
      </trkpt>
      <trkpt lat="48.85243" lon="-0.2476">
        <ele>183.6000061</ele>
        <time>2011-12-18T08:14:07Z</time>
      </trkpt>
      <trkpt lat="48.85237" lon="-0.24768">
        <ele>183.6000061</ele>
        <time>2011-12-18T08:14:09Z</time>
      </trkpt>
      <trkpt lat="48.85227" lon="-0.2478">
        <ele>184</ele>
        <time>2011-12-18T08:14:13Z</time>
      </trkpt>
      <trkpt lat="48.85225" lon="-0.24783">
        <ele>184.6000061</ele>
        <time>2011-12-18T08:14:14Z</time>
      </trkpt>
      <trkpt lat="48.85223" lon="-0.24787">
        <ele>185</ele>
        <time>2011-12-18T08:14:15Z</time>
      </trkpt>
      <trkpt lat="48.85221" lon="-0.24789">
        <ele>185.1999969</ele>
        <time>2011-12-18T08:14:16Z</time>
      </trkpt>
      <trkpt lat="48.85219" lon="-0.24792">
        <ele>185.8000031</ele>
        <time>2011-12-18T08:14:17Z</time>
      </trkpt>
      <trkpt lat="48.85209" lon="-0.24805">
        <ele>185.8000031</ele>
        <time>2011-12-18T08:14:21Z</time>
      </trkpt>
      <trkpt lat="48.85207" lon="-0.24809">
        <ele>185.8000031</ele>
        <time>2011-12-18T08:14:22Z</time>
      </trkpt>
      <trkpt lat="48.85189" lon="-0.2483">
        <ele>185.8000031</ele>
        <time>2011-12-18T08:14:29Z</time>
      </trkpt>
      <trkpt lat="48.85169" lon="-0.24858">
        <ele>185.8000031</ele>
        <time>2011-12-18T08:14:36Z</time>
      </trkpt>
      <trkpt lat="48.85166" lon="-0.24863">
        <ele>185.8000031</ele>
        <time>2011-12-18T08:14:37Z</time>
      </trkpt>
      <trkpt lat="48.85157" lon="-0.24887">
        <ele>185.8000031</ele>
        <time>2011-12-18T08:14:42Z</time>
      </trkpt>
      <trkpt lat="48.85156" lon="-0.24893">
        <ele>185.1999969</ele>
        <time>2011-12-18T08:14:43Z</time>
      </trkpt>
      <trkpt lat="48.85154" lon="-0.24899">
        <ele>185</ele>
        <time>2011-12-18T08:14:44Z</time>
      </trkpt>
      <trkpt lat="48.85152" lon="-0.24906">
        <ele>184.6000061</ele>
        <time>2011-12-18T08:14:45Z</time>
      </trkpt>
      <trkpt lat="48.8515" lon="-0.24913">
        <ele>184</ele>
        <time>2011-12-18T08:14:46Z</time>
      </trkpt>
      <trkpt lat="48.85148" lon="-0.24919">
        <ele>183.8000031</ele>
        <time>2011-12-18T08:14:47Z</time>
      </trkpt>
      <trkpt lat="48.85145" lon="-0.24926">
        <ele>183.8000031</ele>
        <time>2011-12-18T08:14:48Z</time>
      </trkpt>
      <trkpt lat="48.85143" lon="-0.24932">
        <ele>183</ele>
        <time>2011-12-18T08:14:49Z</time>
      </trkpt>
      <trkpt lat="48.8514" lon="-0.24938">
        <ele>182.8000031</ele>
        <time>2011-12-18T08:14:50Z</time>
      </trkpt>
      <trkpt lat="48.85138" lon="-0.24943">
        <ele>181.6000061</ele>
        <time>2011-12-18T08:14:51Z</time>
      </trkpt>
      <trkpt lat="48.85136" lon="-0.2495">
        <ele>181</ele>
        <time>2011-12-18T08:14:52Z</time>
      </trkpt>
      <trkpt lat="48.85133" lon="-0.24959">
        <ele>180.1999969</ele>
        <time>2011-12-18T08:14:53Z</time>
      </trkpt>
      <trkpt lat="48.85132" lon="-0.24967">
        <ele>180</ele>
        <time>2011-12-18T08:14:54Z</time>
      </trkpt>
      <trkpt lat="48.85131" lon="-0.24974">
        <ele>179.1999969</ele>
        <time>2011-12-18T08:14:55Z</time>
      </trkpt>
      <trkpt lat="48.8513" lon="-0.24982">
        <ele>178.8000031</ele>
        <time>2011-12-18T08:14:56Z</time>
      </trkpt>
      <trkpt lat="48.85128" lon="-0.2499">
        <ele>178</ele>
        <time>2011-12-18T08:14:57Z</time>
      </trkpt>
      <trkpt lat="48.85126" lon="-0.24999">
        <ele>177.6000061</ele>
        <time>2011-12-18T08:14:58Z</time>
      </trkpt>
      <trkpt lat="48.85125" lon="-0.25008">
        <ele>177</ele>
        <time>2011-12-18T08:14:59Z</time>
      </trkpt>
      <trkpt lat="48.85123" lon="-0.25017">
        <ele>176.1999969</ele>
        <time>2011-12-18T08:15:00Z</time>
      </trkpt>
      <trkpt lat="48.85121" lon="-0.25028">
        <ele>175.8000031</ele>
        <time>2011-12-18T08:15:01Z</time>
      </trkpt>
      <trkpt lat="48.8512" lon="-0.25038">
        <ele>175.1999969</ele>
        <time>2011-12-18T08:15:02Z</time>
      </trkpt>
      <trkpt lat="48.85118" lon="-0.25048">
        <ele>174.8000031</ele>
        <time>2011-12-18T08:15:03Z</time>
      </trkpt>
      <trkpt lat="48.85118" lon="-0.25059">
        <ele>174.1999969</ele>
        <time>2011-12-18T08:15:04Z</time>
      </trkpt>
      <trkpt lat="48.85117" lon="-0.25069">
        <ele>173.8000031</ele>
        <time>2011-12-18T08:15:05Z</time>
      </trkpt>
      <trkpt lat="48.85116" lon="-0.25091">
        <ele>173.1999969</ele>
        <time>2011-12-18T08:15:07Z</time>
      </trkpt>
      <trkpt lat="48.85114" lon="-0.25104">
        <ele>172.8000031</ele>
        <time>2011-12-18T08:15:08Z</time>
      </trkpt>
      <trkpt lat="48.85114" lon="-0.25115">
        <ele>172.1999969</ele>
        <time>2011-12-18T08:15:09Z</time>
      </trkpt>
      <trkpt lat="48.85113" lon="-0.25126">
        <ele>171.8000031</ele>
        <time>2011-12-18T08:15:10Z</time>
      </trkpt>
      <trkpt lat="48.85113" lon="-0.25138">
        <ele>171</ele>
        <time>2011-12-18T08:15:11Z</time>
      </trkpt>
      <trkpt lat="48.85113" lon="-0.25148">
        <ele>170.1999969</ele>
        <time>2011-12-18T08:15:12Z</time>
      </trkpt>
      <trkpt lat="48.85112" lon="-0.25159">
        <ele>169.6000061</ele>
        <time>2011-12-18T08:15:13Z</time>
      </trkpt>
      <trkpt lat="48.85111" lon="-0.2517">
        <ele>169</ele>
        <time>2011-12-18T08:15:14Z</time>
      </trkpt>
      <trkpt lat="48.8511" lon="-0.2518">
        <ele>168</ele>
        <time>2011-12-18T08:15:15Z</time>
      </trkpt>
      <trkpt lat="48.85109" lon="-0.2519">
        <ele>167.6000061</ele>
        <time>2011-12-18T08:15:16Z</time>
      </trkpt>
      <trkpt lat="48.85107" lon="-0.25199">
        <ele>167</ele>
        <time>2011-12-18T08:15:17Z</time>
      </trkpt>
      <trkpt lat="48.85105" lon="-0.25206">
        <ele>166.8000031</ele>
        <time>2011-12-18T08:15:18Z</time>
      </trkpt>
      <trkpt lat="48.85102" lon="-0.25213">
        <ele>166</ele>
        <time>2011-12-18T08:15:19Z</time>
      </trkpt>
      <trkpt lat="48.851" lon="-0.2522">
        <ele>165.6000061</ele>
        <time>2011-12-18T08:15:20Z</time>
      </trkpt>
      <trkpt lat="48.85097" lon="-0.25228">
        <ele>165</ele>
        <time>2011-12-18T08:15:21Z</time>
      </trkpt>
      <trkpt lat="48.85095" lon="-0.25236">
        <ele>164.6000061</ele>
        <time>2011-12-18T08:15:22Z</time>
      </trkpt>
      <trkpt lat="48.85093" lon="-0.25244">
        <ele>164</ele>
        <time>2011-12-18T08:15:23Z</time>
      </trkpt>
      <trkpt lat="48.8509" lon="-0.25252">
        <ele>163.6000061</ele>
        <time>2011-12-18T08:15:24Z</time>
      </trkpt>
      <trkpt lat="48.85086" lon="-0.25259">
        <ele>163</ele>
        <time>2011-12-18T08:15:25Z</time>
      </trkpt>
      <trkpt lat="48.85083" lon="-0.25265">
        <ele>162.8000031</ele>
        <time>2011-12-18T08:15:26Z</time>
      </trkpt>
      <trkpt lat="48.85079" lon="-0.25273">
        <ele>162.1999969</ele>
        <time>2011-12-18T08:15:27Z</time>
      </trkpt>
      <trkpt lat="48.85075" lon="-0.2528">
        <ele>161.8000031</ele>
        <time>2011-12-18T08:15:28Z</time>
      </trkpt>
      <trkpt lat="48.85072" lon="-0.25288">
        <ele>161.1999969</ele>
        <time>2011-12-18T08:15:29Z</time>
      </trkpt>
      <trkpt lat="48.85068" lon="-0.25295">
        <ele>161</ele>
        <time>2011-12-18T08:15:30Z</time>
      </trkpt>
      <trkpt lat="48.85063" lon="-0.25304">
        <ele>160.1999969</ele>
        <time>2011-12-18T08:15:31Z</time>
      </trkpt>
      <trkpt lat="48.85059" lon="-0.25312">
        <ele>159.8000031</ele>
        <time>2011-12-18T08:15:32Z</time>
      </trkpt>
      <trkpt lat="48.85055" lon="-0.2532">
        <ele>159</ele>
        <time>2011-12-18T08:15:33Z</time>
      </trkpt>
      <trkpt lat="48.85052" lon="-0.25328">
        <ele>158.1999969</ele>
        <time>2011-12-18T08:15:34Z</time>
      </trkpt>
      <trkpt lat="48.8505" lon="-0.25335">
        <ele>157.8000031</ele>
        <time>2011-12-18T08:15:35Z</time>
      </trkpt>
      <trkpt lat="48.8505" lon="-0.25342">
        <ele>157.1999969</ele>
        <time>2011-12-18T08:15:36Z</time>
      </trkpt>
      <trkpt lat="48.85049" lon="-0.25349">
        <ele>156.8000031</ele>
        <time>2011-12-18T08:15:37Z</time>
      </trkpt>
      <trkpt lat="48.85051" lon="-0.25354">
        <ele>156</ele>
        <time>2011-12-18T08:15:38Z</time>
      </trkpt>
      <trkpt lat="48.85052" lon="-0.25358">
        <ele>155.6000061</ele>
        <time>2011-12-18T08:15:39Z</time>
      </trkpt>
      <trkpt lat="48.85053" lon="-0.25363">
        <ele>155</ele>
        <time>2011-12-18T08:15:40Z</time>
      </trkpt>
      <trkpt lat="48.85053" lon="-0.25368">
        <ele>154.8000031</ele>
        <time>2011-12-18T08:15:41Z</time>
      </trkpt>
      <trkpt lat="48.85054" lon="-0.25373">
        <ele>154.1999969</ele>
        <time>2011-12-18T08:15:42Z</time>
      </trkpt>
      <trkpt lat="48.85055" lon="-0.25378">
        <ele>154</ele>
        <time>2011-12-18T08:15:43Z</time>
      </trkpt>
      <trkpt lat="48.85055" lon="-0.25384">
        <ele>153.6000061</ele>
        <time>2011-12-18T08:15:44Z</time>
      </trkpt>
      <trkpt lat="48.85053" lon="-0.25406">
        <ele>153.6000061</ele>
        <time>2011-12-18T08:15:48Z</time>
      </trkpt>
      <trkpt lat="48.85053" lon="-0.25412">
        <ele>153</ele>
        <time>2011-12-18T08:15:49Z</time>
      </trkpt>
      <trkpt lat="48.85053" lon="-0.25416">
        <ele>152.8000031</ele>
        <time>2011-12-18T08:15:50Z</time>
      </trkpt>
      <trkpt lat="48.85053" lon="-0.25422">
        <ele>152.1999969</ele>
        <time>2011-12-18T08:15:51Z</time>
      </trkpt>
      <trkpt lat="48.85054" lon="-0.25428">
        <ele>151.8000031</ele>
        <time>2011-12-18T08:15:52Z</time>
      </trkpt>
      <trkpt lat="48.85055" lon="-0.25433">
        <ele>151.1999969</ele>
        <time>2011-12-18T08:15:53Z</time>
      </trkpt>
      <trkpt lat="48.85056" lon="-0.25437">
        <ele>150.8000031</ele>
        <time>2011-12-18T08:15:54Z</time>
      </trkpt>
      <trkpt lat="48.85057" lon="-0.25441">
        <ele>150.1999969</ele>
        <time>2011-12-18T08:15:55Z</time>
      </trkpt>
      <trkpt lat="48.85057" lon="-0.25445">
        <ele>149.6000061</ele>
        <time>2011-12-18T08:15:56Z</time>
      </trkpt>
      <trkpt lat="48.85057" lon="-0.25443">
        <ele>149</ele>
        <time>2011-12-18T08:15:57Z</time>
      </trkpt>
      <trkpt lat="48.85056" lon="-0.25443">
        <ele>148.1999969</ele>
        <time>2011-12-18T08:15:58Z</time>
      </trkpt>
      <trkpt lat="48.8506" lon="-0.25421">
        <ele>149</ele>
        <time>2011-12-18T08:16:33Z</time>
      </trkpt>
      <trkpt lat="48.85062" lon="-0.25421">
        <ele>149</ele>
        <time>2011-12-18T08:16:34Z</time>
      </trkpt>
      <trkpt lat="48.85064" lon="-0.2542">
        <ele>149</ele>
        <time>2011-12-18T08:16:35Z</time>
      </trkpt>
      <trkpt lat="48.85076" lon="-0.25423">
        <ele>149</ele>
        <time>2011-12-18T08:16:40Z</time>
      </trkpt>
      <trkpt lat="48.8508" lon="-0.2543">
        <ele>149</ele>
        <time>2011-12-18T08:16:42Z</time>
      </trkpt>
      <trkpt lat="48.85084" lon="-0.25441">
        <ele>149</ele>
        <time>2011-12-18T08:16:44Z</time>
      </trkpt>
      <trkpt lat="48.85086" lon="-0.25446">
        <ele>148.6000061</ele>
        <time>2011-12-18T08:16:45Z</time>
      </trkpt>
      <trkpt lat="48.85087" lon="-0.25451">
        <ele>148</ele>
        <time>2011-12-18T08:16:46Z</time>
      </trkpt>
      <trkpt lat="48.85088" lon="-0.25455">
        <ele>147.8000031</ele>
        <time>2011-12-18T08:16:47Z</time>
      </trkpt>
      <trkpt lat="48.85088" lon="-0.25459">
        <ele>147.1999969</ele>
        <time>2011-12-18T08:16:48Z</time>
      </trkpt>
      <trkpt lat="48.85088" lon="-0.25463">
        <ele>147</ele>
        <time>2011-12-18T08:16:49Z</time>
      </trkpt>
      <trkpt lat="48.85088" lon="-0.2547">
        <ele>147</ele>
        <time>2011-12-18T08:16:51Z</time>
      </trkpt>
      <trkpt lat="48.85086" lon="-0.25474">
        <ele>148</ele>
        <time>2011-12-18T08:16:53Z</time>
      </trkpt>
      <trkpt lat="48.85084" lon="-0.25475">
        <ele>148.1999969</ele>
        <time>2011-12-18T08:16:54Z</time>
      </trkpt>
      <trkpt lat="48.85083" lon="-0.25476">
        <ele>148.8000031</ele>
        <time>2011-12-18T08:16:55Z</time>
      </trkpt>
      <trkpt lat="48.85081" lon="-0.25477">
        <ele>149</ele>
        <time>2011-12-18T08:16:56Z</time>
      </trkpt>
      <trkpt lat="48.85079" lon="-0.25479">
        <ele>149</ele>
        <time>2011-12-18T08:16:58Z</time>
      </trkpt>
      <trkpt lat="48.85077" lon="-0.2548">
        <ele>149</ele>
        <time>2011-12-18T08:16:59Z</time>
      </trkpt>
      <trkpt lat="48.85066" lon="-0.25489">
        <ele>149</ele>
        <time>2011-12-18T08:17:05Z</time>
      </trkpt>
      <trkpt lat="48.8506" lon="-0.25493">
        <ele>149</ele>
        <time>2011-12-18T08:17:08Z</time>
      </trkpt>
      <trkpt lat="48.85058" lon="-0.25494">
        <ele>149</ele>
        <time>2011-12-18T08:17:10Z</time>
      </trkpt>
      <trkpt lat="48.85058" lon="-0.25495">
        <ele>149</ele>
        <time>2011-12-18T08:17:12Z</time>
      </trkpt>
      <trkpt lat="48.85066" lon="-0.25498">
        <ele>149</ele>
        <time>2011-12-18T08:17:26Z</time>
      </trkpt>
      <trkpt lat="48.85069" lon="-0.25497">
        <ele>149</ele>
        <time>2011-12-18T08:17:28Z</time>
      </trkpt>
      <trkpt lat="48.85076" lon="-0.25494">
        <ele>149.8000031</ele>
        <time>2011-12-18T08:17:32Z</time>
      </trkpt>
      <trkpt lat="48.85077" lon="-0.25494">
        <ele>150</ele>
        <time>2011-12-18T08:17:33Z</time>
      </trkpt>
      <trkpt lat="48.8508" lon="-0.25493">
        <ele>150.6000061</ele>
        <time>2011-12-18T08:17:34Z</time>
      </trkpt>
      <trkpt lat="48.85082" lon="-0.25492">
        <ele>151</ele>
        <time>2011-12-18T08:17:35Z</time>
      </trkpt>
      <trkpt lat="48.85084" lon="-0.25491">
        <ele>151.1999969</ele>
        <time>2011-12-18T08:17:36Z</time>
      </trkpt>
      <trkpt lat="48.85092" lon="-0.25489">
        <ele>151.1999969</ele>
        <time>2011-12-18T08:17:39Z</time>
      </trkpt>
      <trkpt lat="48.85101" lon="-0.25487">
        <ele>151.1999969</ele>
        <time>2011-12-18T08:17:43Z</time>
      </trkpt>
      <trkpt lat="48.85104" lon="-0.25487">
        <ele>151.8000031</ele>
        <time>2011-12-18T08:17:44Z</time>
      </trkpt>
      <trkpt lat="48.85106" lon="-0.25487">
        <ele>152</ele>
        <time>2011-12-18T08:17:45Z</time>
      </trkpt>
      <trkpt lat="48.85109" lon="-0.25487">
        <ele>152.6000061</ele>
        <time>2011-12-18T08:17:46Z</time>
      </trkpt>
      <trkpt lat="48.85112" lon="-0.25488">
        <ele>153</ele>
        <time>2011-12-18T08:17:47Z</time>
      </trkpt>
      <trkpt lat="48.85114" lon="-0.25488">
        <ele>153.1999969</ele>
        <time>2011-12-18T08:17:48Z</time>
      </trkpt>
      <trkpt lat="48.85122" lon="-0.2549">
        <ele>153.1999969</ele>
        <time>2011-12-18T08:17:51Z</time>
      </trkpt>
      <trkpt lat="48.85128" lon="-0.25491">
        <ele>153.1999969</ele>
        <time>2011-12-18T08:17:53Z</time>
      </trkpt>
      <trkpt lat="48.85139" lon="-0.25499">
        <ele>153.8000031</ele>
        <time>2011-12-18T08:17:59Z</time>
      </trkpt>
      <trkpt lat="48.8514" lon="-0.255">
        <ele>154</ele>
        <time>2011-12-18T08:18:00Z</time>
      </trkpt>
      <trkpt lat="48.85141" lon="-0.25502">
        <ele>154.6000061</ele>
        <time>2011-12-18T08:18:01Z</time>
      </trkpt>
      <trkpt lat="48.85143" lon="-0.25502">
        <ele>155</ele>
        <time>2011-12-18T08:18:02Z</time>
      </trkpt>
      <trkpt lat="48.85144" lon="-0.25503">
        <ele>155.1999969</ele>
        <time>2011-12-18T08:18:03Z</time>
      </trkpt>
      <trkpt lat="48.85145" lon="-0.25503">
        <ele>155.1999969</ele>
        <time>2011-12-18T08:18:04Z</time>
      </trkpt>
      <trkpt lat="48.85161" lon="-0.25521">
        <ele>155.1999969</ele>
        <time>2011-12-18T08:19:09Z</time>
      </trkpt>
      <trkpt lat="48.85162" lon="-0.25523">
        <ele>155.1999969</ele>
        <time>2011-12-18T08:19:10Z</time>
      </trkpt>
      <trkpt lat="48.85168" lon="-0.25532">
        <ele>155.8000031</ele>
        <time>2011-12-18T08:19:14Z</time>
      </trkpt>
      <trkpt lat="48.85169" lon="-0.25533">
        <ele>156.1999969</ele>
        <time>2011-12-18T08:19:15Z</time>
      </trkpt>
      <trkpt lat="48.8517" lon="-0.25535">
        <ele>156.8000031</ele>
        <time>2011-12-18T08:19:16Z</time>
      </trkpt>
      <trkpt lat="48.85172" lon="-0.25537">
        <ele>157</ele>
        <time>2011-12-18T08:19:17Z</time>
      </trkpt>
      <trkpt lat="48.85174" lon="-0.25539">
        <ele>157.6000061</ele>
        <time>2011-12-18T08:19:18Z</time>
      </trkpt>
      <trkpt lat="48.85181" lon="-0.25548">
        <ele>157.6000061</ele>
        <time>2011-12-18T08:19:22Z</time>
      </trkpt>
      <trkpt lat="48.85187" lon="-0.25555">
        <ele>157.6000061</ele>
        <time>2011-12-18T08:19:25Z</time>
      </trkpt>
      <trkpt lat="48.85193" lon="-0.25562">
        <ele>158</ele>
        <time>2011-12-18T08:19:28Z</time>
      </trkpt>
      <trkpt lat="48.85195" lon="-0.25565">
        <ele>158.1999969</ele>
        <time>2011-12-18T08:19:29Z</time>
      </trkpt>
      <trkpt lat="48.85197" lon="-0.25567">
        <ele>158.8000031</ele>
        <time>2011-12-18T08:19:30Z</time>
      </trkpt>
      <trkpt lat="48.852" lon="-0.2557">
        <ele>159</ele>
        <time>2011-12-18T08:19:31Z</time>
      </trkpt>
      <trkpt lat="48.85202" lon="-0.25573">
        <ele>159.6000061</ele>
        <time>2011-12-18T08:19:32Z</time>
      </trkpt>
      <trkpt lat="48.8521" lon="-0.2558">
        <ele>159.6000061</ele>
        <time>2011-12-18T08:19:36Z</time>
      </trkpt>
      <trkpt lat="48.85217" lon="-0.25589">
        <ele>160</ele>
        <time>2011-12-18T08:19:40Z</time>
      </trkpt>
      <trkpt lat="48.8522" lon="-0.25591">
        <ele>160.6000061</ele>
        <time>2011-12-18T08:19:41Z</time>
      </trkpt>
      <trkpt lat="48.85222" lon="-0.25593">
        <ele>161</ele>
        <time>2011-12-18T08:19:42Z</time>
      </trkpt>
      <trkpt lat="48.85224" lon="-0.25594">
        <ele>161.1999969</ele>
        <time>2011-12-18T08:19:43Z</time>
      </trkpt>
      <trkpt lat="48.85226" lon="-0.25596">
        <ele>161.8000031</ele>
        <time>2011-12-18T08:19:44Z</time>
      </trkpt>
      <trkpt lat="48.85231" lon="-0.25602">
        <ele>161.8000031</ele>
        <time>2011-12-18T08:19:47Z</time>
      </trkpt>
      <trkpt lat="48.85238" lon="-0.2561">
        <ele>161.8000031</ele>
        <time>2011-12-18T08:19:52Z</time>
      </trkpt>
      <trkpt lat="48.8524" lon="-0.25611">
        <ele>162</ele>
        <time>2011-12-18T08:19:53Z</time>
      </trkpt>
      <trkpt lat="48.85242" lon="-0.25613">
        <ele>162.6000061</ele>
        <time>2011-12-18T08:19:54Z</time>
      </trkpt>
      <trkpt lat="48.85243" lon="-0.25614">
        <ele>163</ele>
        <time>2011-12-18T08:19:55Z</time>
      </trkpt>
      <trkpt lat="48.85245" lon="-0.25616">
        <ele>163.6000061</ele>
        <time>2011-12-18T08:19:56Z</time>
      </trkpt>
      <trkpt lat="48.85247" lon="-0.25619">
        <ele>164</ele>
        <time>2011-12-18T08:19:57Z</time>
      </trkpt>
      <trkpt lat="48.85252" lon="-0.25629">
        <ele>164</ele>
        <time>2011-12-18T08:20:01Z</time>
      </trkpt>
      <trkpt lat="48.85254" lon="-0.25631">
        <ele>164.1999969</ele>
        <time>2011-12-18T08:20:02Z</time>
      </trkpt>
      <trkpt lat="48.85255" lon="-0.25633">
        <ele>164.8000031</ele>
        <time>2011-12-18T08:20:03Z</time>
      </trkpt>
      <trkpt lat="48.85256" lon="-0.25636">
        <ele>165</ele>
        <time>2011-12-18T08:20:04Z</time>
      </trkpt>
      <trkpt lat="48.85257" lon="-0.25639">
        <ele>165.6000061</ele>
        <time>2011-12-18T08:20:05Z</time>
      </trkpt>
      <trkpt lat="48.85258" lon="-0.25641">
        <ele>166</ele>
        <time>2011-12-18T08:20:06Z</time>
      </trkpt>
      <trkpt lat="48.8526" lon="-0.25646">
        <ele>166</ele>
        <time>2011-12-18T08:20:08Z</time>
      </trkpt>
      <trkpt lat="48.85264" lon="-0.25655">
        <ele>166.6000061</ele>
        <time>2011-12-18T08:20:13Z</time>
      </trkpt>
      <trkpt lat="48.85265" lon="-0.25657">
        <ele>167</ele>
        <time>2011-12-18T08:20:14Z</time>
      </trkpt>
      <trkpt lat="48.85265" lon="-0.25659">
        <ele>167.1999969</ele>
        <time>2011-12-18T08:20:15Z</time>
      </trkpt>
      <trkpt lat="48.85264" lon="-0.25661">
        <ele>167.8000031</ele>
        <time>2011-12-18T08:20:16Z</time>
      </trkpt>
      <trkpt lat="48.85264" lon="-0.25662">
        <ele>168.1999969</ele>
        <time>2011-12-18T08:20:17Z</time>
      </trkpt>
      <trkpt lat="48.85267" lon="-0.25668">
        <ele>168.1999969</ele>
        <time>2011-12-18T08:21:27Z</time>
      </trkpt>
      <trkpt lat="48.85268" lon="-0.25671">
        <ele>168.1999969</ele>
        <time>2011-12-18T08:21:28Z</time>
      </trkpt>
      <trkpt lat="48.85269" lon="-0.25674">
        <ele>168.1999969</ele>
        <time>2011-12-18T08:21:29Z</time>
      </trkpt>
      <trkpt lat="48.8527" lon="-0.25682">
        <ele>168.8000031</ele>
        <time>2011-12-18T08:21:31Z</time>
      </trkpt>
      <trkpt lat="48.85271" lon="-0.25686">
        <ele>169</ele>
        <time>2011-12-18T08:21:32Z</time>
      </trkpt>
      <trkpt lat="48.85272" lon="-0.2569">
        <ele>169.6000061</ele>
        <time>2011-12-18T08:21:33Z</time>
      </trkpt>
      <trkpt lat="48.85273" lon="-0.25693">
        <ele>170</ele>
        <time>2011-12-18T08:21:34Z</time>
      </trkpt>
      <trkpt lat="48.85274" lon="-0.25696">
        <ele>170.1999969</ele>
        <time>2011-12-18T08:21:35Z</time>
      </trkpt>
      <trkpt lat="48.85278" lon="-0.25706">
        <ele>170.1999969</ele>
        <time>2011-12-18T08:21:39Z</time>
      </trkpt>
      <trkpt lat="48.8528" lon="-0.25716">
        <ele>170.1999969</ele>
        <time>2011-12-18T08:21:43Z</time>
      </trkpt>
      <trkpt lat="48.85283" lon="-0.25726">
        <ele>170.1999969</ele>
        <time>2011-12-18T08:21:46Z</time>
      </trkpt>
      <trkpt lat="48.85287" lon="-0.25736">
        <ele>170.1999969</ele>
        <time>2011-12-18T08:21:49Z</time>
      </trkpt>
      <trkpt lat="48.85288" lon="-0.25739">
        <ele>170.8000031</ele>
        <time>2011-12-18T08:21:50Z</time>
      </trkpt>
      <trkpt lat="48.85289" lon="-0.25741">
        <ele>171</ele>
        <time>2011-12-18T08:21:51Z</time>
      </trkpt>
      <trkpt lat="48.85291" lon="-0.25743">
        <ele>171.6000061</ele>
        <time>2011-12-18T08:21:52Z</time>
      </trkpt>
      <trkpt lat="48.85292" lon="-0.25746">
        <ele>172</ele>
        <time>2011-12-18T08:21:53Z</time>
      </trkpt>
      <trkpt lat="48.85293" lon="-0.25749">
        <ele>172.1999969</ele>
        <time>2011-12-18T08:21:54Z</time>
      </trkpt>
      <trkpt lat="48.85298" lon="-0.25758">
        <ele>172.1999969</ele>
        <time>2011-12-18T08:21:58Z</time>
      </trkpt>
      <trkpt lat="48.853" lon="-0.25763">
        <ele>172.1999969</ele>
        <time>2011-12-18T08:22:00Z</time>
      </trkpt>
      <trkpt lat="48.85307" lon="-0.25781">
        <ele>172.1999969</ele>
        <time>2011-12-18T08:22:06Z</time>
      </trkpt>
      <trkpt lat="48.85309" lon="-0.25783">
        <ele>172.8000031</ele>
        <time>2011-12-18T08:22:07Z</time>
      </trkpt>
      <trkpt lat="48.8531" lon="-0.25786">
        <ele>173</ele>
        <time>2011-12-18T08:22:08Z</time>
      </trkpt>
      <trkpt lat="48.85311" lon="-0.25788">
        <ele>173.6000061</ele>
        <time>2011-12-18T08:22:09Z</time>
      </trkpt>
      <trkpt lat="48.85312" lon="-0.25791">
        <ele>174</ele>
        <time>2011-12-18T08:22:10Z</time>
      </trkpt>
      <trkpt lat="48.85314" lon="-0.25794">
        <ele>174.6000061</ele>
        <time>2011-12-18T08:22:11Z</time>
      </trkpt>
      <trkpt lat="48.85315" lon="-0.25797">
        <ele>174.6000061</ele>
        <time>2011-12-18T08:22:12Z</time>
      </trkpt>
      <trkpt lat="48.8532" lon="-0.25806">
        <ele>174.6000061</ele>
        <time>2011-12-18T08:22:15Z</time>
      </trkpt>
      <trkpt lat="48.85324" lon="-0.25814">
        <ele>175</ele>
        <time>2011-12-18T08:22:18Z</time>
      </trkpt>
      <trkpt lat="48.85326" lon="-0.25816">
        <ele>175.1999969</ele>
        <time>2011-12-18T08:22:19Z</time>
      </trkpt>
      <trkpt lat="48.85328" lon="-0.25818">
        <ele>175.8000031</ele>
        <time>2011-12-18T08:22:20Z</time>
      </trkpt>
      <trkpt lat="48.8533" lon="-0.2582">
        <ele>176</ele>
        <time>2011-12-18T08:22:21Z</time>
      </trkpt>
      <trkpt lat="48.85332" lon="-0.25822">
        <ele>176.8000031</ele>
        <time>2011-12-18T08:22:22Z</time>
      </trkpt>
      <trkpt lat="48.85335" lon="-0.25827">
        <ele>176.8000031</ele>
        <time>2011-12-18T08:22:24Z</time>
      </trkpt>
      <trkpt lat="48.85338" lon="-0.25835">
        <ele>177</ele>
        <time>2011-12-18T08:22:27Z</time>
      </trkpt>
      <trkpt lat="48.85339" lon="-0.25838">
        <ele>177.6000061</ele>
        <time>2011-12-18T08:22:28Z</time>
      </trkpt>
      <trkpt lat="48.8534" lon="-0.2584">
        <ele>178</ele>
        <time>2011-12-18T08:22:29Z</time>
      </trkpt>
      <trkpt lat="48.85342" lon="-0.25843">
        <ele>178.1999969</ele>
        <time>2011-12-18T08:22:30Z</time>
      </trkpt>
      <trkpt lat="48.85343" lon="-0.25845">
        <ele>178.8000031</ele>
        <time>2011-12-18T08:22:31Z</time>
      </trkpt>
      <trkpt lat="48.85345" lon="-0.25851">
        <ele>178.8000031</ele>
        <time>2011-12-18T08:22:33Z</time>
      </trkpt>
      <trkpt lat="48.85347" lon="-0.25854">
        <ele>179</ele>
        <time>2011-12-18T08:22:34Z</time>
      </trkpt>
      <trkpt lat="48.85348" lon="-0.25856">
        <ele>179.6000061</ele>
        <time>2011-12-18T08:22:35Z</time>
      </trkpt>
      <trkpt lat="48.85349" lon="-0.25858">
        <ele>180</ele>
        <time>2011-12-18T08:22:36Z</time>
      </trkpt>
      <trkpt lat="48.85351" lon="-0.2586">
        <ele>180.1999969</ele>
        <time>2011-12-18T08:22:37Z</time>
      </trkpt>
      <trkpt lat="48.85352" lon="-0.25862">
        <ele>180.8000031</ele>
        <time>2011-12-18T08:22:38Z</time>
      </trkpt>
      <trkpt lat="48.85354" lon="-0.25867">
        <ele>180.8000031</ele>
        <time>2011-12-18T08:22:40Z</time>
      </trkpt>
      <trkpt lat="48.85355" lon="-0.25868">
        <ele>180.8000031</ele>
        <time>2011-12-18T08:22:41Z</time>
      </trkpt>
      <trkpt lat="48.85359" lon="-0.25874">
        <ele>181</ele>
        <time>2011-12-18T08:22:44Z</time>
      </trkpt>
      <trkpt lat="48.8536" lon="-0.25875">
        <ele>181.6000061</ele>
        <time>2011-12-18T08:22:45Z</time>
      </trkpt>
      <trkpt lat="48.85361" lon="-0.25877">
        <ele>182</ele>
        <time>2011-12-18T08:22:46Z</time>
      </trkpt>
      <trkpt lat="48.85363" lon="-0.2588">
        <ele>182.6000061</ele>
        <time>2011-12-18T08:22:47Z</time>
      </trkpt>
      <trkpt lat="48.85364" lon="-0.25883">
        <ele>183</ele>
        <time>2011-12-18T08:22:48Z</time>
      </trkpt>
      <trkpt lat="48.8537" lon="-0.25898">
        <ele>183</ele>
        <time>2011-12-18T08:22:53Z</time>
      </trkpt>
      <trkpt lat="48.85373" lon="-0.25908">
        <ele>183.1999969</ele>
        <time>2011-12-18T08:22:56Z</time>
      </trkpt>
      <trkpt lat="48.85374" lon="-0.25911">
        <ele>183.8000031</ele>
        <time>2011-12-18T08:22:57Z</time>
      </trkpt>
      <trkpt lat="48.85375" lon="-0.25913">
        <ele>184</ele>
        <time>2011-12-18T08:22:58Z</time>
      </trkpt>
      <trkpt lat="48.85375" lon="-0.25916">
        <ele>184.6000061</ele>
        <time>2011-12-18T08:22:59Z</time>
      </trkpt>
      <trkpt lat="48.85376" lon="-0.25918">
        <ele>185</ele>
        <time>2011-12-18T08:23:00Z</time>
      </trkpt>
      <trkpt lat="48.8538" lon="-0.25933">
        <ele>185</ele>
        <time>2011-12-18T08:23:05Z</time>
      </trkpt>
      <trkpt lat="48.85387" lon="-0.25956">
        <ele>185</ele>
        <time>2011-12-18T08:23:12Z</time>
      </trkpt>
      <trkpt lat="48.8539" lon="-0.25966">
        <ele>185.1999969</ele>
        <time>2011-12-18T08:23:15Z</time>
      </trkpt>
      <trkpt lat="48.85391" lon="-0.25969">
        <ele>185.8000031</ele>
        <time>2011-12-18T08:23:16Z</time>
      </trkpt>
      <trkpt lat="48.85392" lon="-0.25972">
        <ele>186</ele>
        <time>2011-12-18T08:23:17Z</time>
      </trkpt>
      <trkpt lat="48.85393" lon="-0.25975">
        <ele>186.8000031</ele>
        <time>2011-12-18T08:23:18Z</time>
      </trkpt>
      <trkpt lat="48.85394" lon="-0.25977">
        <ele>187</ele>
        <time>2011-12-18T08:23:19Z</time>
      </trkpt>
      <trkpt lat="48.85397" lon="-0.25987">
        <ele>187</ele>
        <time>2011-12-18T08:23:24Z</time>
      </trkpt>
      <trkpt lat="48.85398" lon="-0.25989">
        <ele>187</ele>
        <time>2011-12-18T08:23:27Z</time>
      </trkpt>
      <trkpt lat="48.85398" lon="-0.25996">
        <ele>187</ele>
        <time>2011-12-18T08:24:06Z</time>
      </trkpt>
      <trkpt lat="48.85401" lon="-0.26004">
        <ele>187</ele>
        <time>2011-12-18T08:24:09Z</time>
      </trkpt>
      <trkpt lat="48.85403" lon="-0.26011">
        <ele>187</ele>
        <time>2011-12-18T08:24:11Z</time>
      </trkpt>
      <trkpt lat="48.85404" lon="-0.26014">
        <ele>187</ele>
        <time>2011-12-18T08:24:12Z</time>
      </trkpt>
      <trkpt lat="48.85406" lon="-0.2602">
        <ele>187</ele>
        <time>2011-12-18T08:24:14Z</time>
      </trkpt>
      <trkpt lat="48.85415" lon="-0.26037">
        <ele>187</ele>
        <time>2011-12-18T08:24:20Z</time>
      </trkpt>
      <trkpt lat="48.8542" lon="-0.26048">
        <ele>187</ele>
        <time>2011-12-18T08:24:23Z</time>
      </trkpt>
      <trkpt lat="48.85424" lon="-0.26055">
        <ele>187</ele>
        <time>2011-12-18T08:24:25Z</time>
      </trkpt>
      <trkpt lat="48.85426" lon="-0.26059">
        <ele>187</ele>
        <time>2011-12-18T08:24:26Z</time>
      </trkpt>
      <trkpt lat="48.85436" lon="-0.26078">
        <ele>187</ele>
        <time>2011-12-18T08:24:31Z</time>
      </trkpt>
      <trkpt lat="48.85437" lon="-0.26082">
        <ele>187</ele>
        <time>2011-12-18T08:24:32Z</time>
      </trkpt>
      <trkpt lat="48.85441" lon="-0.2609">
        <ele>187</ele>
        <time>2011-12-18T08:24:34Z</time>
      </trkpt>
      <trkpt lat="48.85444" lon="-0.26098">
        <ele>187</ele>
        <time>2011-12-18T08:24:36Z</time>
      </trkpt>
      <trkpt lat="48.85452" lon="-0.26116">
        <ele>187</ele>
        <time>2011-12-18T08:24:40Z</time>
      </trkpt>
      <trkpt lat="48.85456" lon="-0.26127">
        <ele>187</ele>
        <time>2011-12-18T08:24:42Z</time>
      </trkpt>
      <trkpt lat="48.85459" lon="-0.26143">
        <ele>187</ele>
        <time>2011-12-18T08:24:45Z</time>
      </trkpt>
      <trkpt lat="48.85464" lon="-0.26172">
        <ele>187</ele>
        <time>2011-12-18T08:24:51Z</time>
      </trkpt>
      <trkpt lat="48.85464" lon="-0.26194">
        <ele>187</ele>
        <time>2011-12-18T08:24:55Z</time>
      </trkpt>
      <trkpt lat="48.85463" lon="-0.26206">
        <ele>187</ele>
        <time>2011-12-18T08:24:57Z</time>
      </trkpt>
      <trkpt lat="48.85458" lon="-0.26243">
        <ele>187</ele>
        <time>2011-12-18T08:25:03Z</time>
      </trkpt>
      <trkpt lat="48.85457" lon="-0.26255">
        <ele>187</ele>
        <time>2011-12-18T08:25:05Z</time>
      </trkpt>
      <trkpt lat="48.85453" lon="-0.26291">
        <ele>187</ele>
        <time>2011-12-18T08:25:11Z</time>
      </trkpt>
      <trkpt lat="48.85451" lon="-0.26316">
        <ele>187</ele>
        <time>2011-12-18T08:25:15Z</time>
      </trkpt>
      <trkpt lat="48.8545" lon="-0.26329">
        <ele>187</ele>
        <time>2011-12-18T08:25:17Z</time>
      </trkpt>
      <trkpt lat="48.8545" lon="-0.2634">
        <ele>187</ele>
        <time>2011-12-18T08:25:19Z</time>
      </trkpt>
      <trkpt lat="48.8545" lon="-0.26373">
        <ele>187</ele>
        <time>2011-12-18T08:25:25Z</time>
      </trkpt>
      <trkpt lat="48.85452" lon="-0.26407">
        <ele>187</ele>
        <time>2011-12-18T08:25:31Z</time>
      </trkpt>
      <trkpt lat="48.85456" lon="-0.26432">
        <ele>187</ele>
        <time>2011-12-18T08:25:35Z</time>
      </trkpt>
      <trkpt lat="48.85458" lon="-0.26443">
        <ele>187</ele>
        <time>2011-12-18T08:25:37Z</time>
      </trkpt>
      <trkpt lat="48.85464" lon="-0.26484">
        <ele>187</ele>
        <time>2011-12-18T08:25:44Z</time>
      </trkpt>
      <trkpt lat="48.8547" lon="-0.26522">
        <ele>187</ele>
        <time>2011-12-18T08:25:50Z</time>
      </trkpt>
      <trkpt lat="48.85471" lon="-0.26528">
        <ele>186.8000031</ele>
        <time>2011-12-18T08:25:51Z</time>
      </trkpt>
      <trkpt lat="48.85472" lon="-0.26534">
        <ele>186</ele>
        <time>2011-12-18T08:25:52Z</time>
      </trkpt>
      <trkpt lat="48.85473" lon="-0.26541">
        <ele>185.8000031</ele>
        <time>2011-12-18T08:25:53Z</time>
      </trkpt>
      <trkpt lat="48.85474" lon="-0.26548">
        <ele>185.1999969</ele>
        <time>2011-12-18T08:25:54Z</time>
      </trkpt>
      <trkpt lat="48.85475" lon="-0.26556">
        <ele>185</ele>
        <time>2011-12-18T08:25:55Z</time>
      </trkpt>
      <trkpt lat="48.85479" lon="-0.26574">
        <ele>185</ele>
        <time>2011-12-18T08:25:58Z</time>
      </trkpt>
      <trkpt lat="48.85484" lon="-0.26588">
        <ele>184.6000061</ele>
        <time>2011-12-18T08:26:01Z</time>
      </trkpt>
      <trkpt lat="48.85485" lon="-0.26593">
        <ele>184</ele>
        <time>2011-12-18T08:26:02Z</time>
      </trkpt>
      <trkpt lat="48.85485" lon="-0.26598">
        <ele>183.8000031</ele>
        <time>2011-12-18T08:26:03Z</time>
      </trkpt>
      <trkpt lat="48.85486" lon="-0.26604">
        <ele>183.1999969</ele>
        <time>2011-12-18T08:26:04Z</time>
      </trkpt>
      <trkpt lat="48.85485" lon="-0.2661">
        <ele>183</ele>
        <time>2011-12-18T08:26:05Z</time>
      </trkpt>
      <trkpt lat="48.85482" lon="-0.26629">
        <ele>183</ele>
        <time>2011-12-18T08:26:08Z</time>
      </trkpt>
      <trkpt lat="48.85481" lon="-0.26643">
        <ele>183</ele>
        <time>2011-12-18T08:26:10Z</time>
      </trkpt>
      <trkpt lat="48.85481" lon="-0.2665">
        <ele>182.6000061</ele>
        <time>2011-12-18T08:26:11Z</time>
      </trkpt>
      <trkpt lat="48.85481" lon="-0.26658">
        <ele>182</ele>
        <time>2011-12-18T08:26:12Z</time>
      </trkpt>
      <trkpt lat="48.85481" lon="-0.26667">
        <ele>181.8000031</ele>
        <time>2011-12-18T08:26:13Z</time>
      </trkpt>
      <trkpt lat="48.85482" lon="-0.26675">
        <ele>181.1999969</ele>
        <time>2011-12-18T08:26:14Z</time>
      </trkpt>
      <trkpt lat="48.85483" lon="-0.26684">
        <ele>181</ele>
        <time>2011-12-18T08:26:15Z</time>
      </trkpt>
      <trkpt lat="48.85484" lon="-0.26692">
        <ele>181</ele>
        <time>2011-12-18T08:26:16Z</time>
      </trkpt>
      <trkpt lat="48.85485" lon="-0.267">
        <ele>181</ele>
        <time>2011-12-18T08:26:17Z</time>
      </trkpt>
      <trkpt lat="48.85487" lon="-0.26717">
        <ele>180.6000061</ele>
        <time>2011-12-18T08:26:19Z</time>
      </trkpt>
      <trkpt lat="48.85488" lon="-0.26725">
        <ele>180</ele>
        <time>2011-12-18T08:26:20Z</time>
      </trkpt>
      <trkpt lat="48.85489" lon="-0.26734">
        <ele>179.8000031</ele>
        <time>2011-12-18T08:26:21Z</time>
      </trkpt>
      <trkpt lat="48.8549" lon="-0.26742">
        <ele>178.8000031</ele>
        <time>2011-12-18T08:26:22Z</time>
      </trkpt>
      <trkpt lat="48.85493" lon="-0.26768">
        <ele>178.1999969</ele>
        <time>2011-12-18T08:26:25Z</time>
      </trkpt>
      <trkpt lat="48.85495" lon="-0.26777">
        <ele>178</ele>
        <time>2011-12-18T08:26:26Z</time>
      </trkpt>
      <trkpt lat="48.85496" lon="-0.26786">
        <ele>177.6000061</ele>
        <time>2011-12-18T08:26:27Z</time>
      </trkpt>
      <trkpt lat="48.85497" lon="-0.26795">
        <ele>177</ele>
        <time>2011-12-18T08:26:28Z</time>
      </trkpt>
      <trkpt lat="48.85497" lon="-0.26804">
        <ele>176.8000031</ele>
        <time>2011-12-18T08:26:29Z</time>
      </trkpt>
      <trkpt lat="48.85499" lon="-0.26821">
        <ele>176</ele>
        <time>2011-12-18T08:26:31Z</time>
      </trkpt>
      <trkpt lat="48.855" lon="-0.2683">
        <ele>175.8000031</ele>
        <time>2011-12-18T08:26:32Z</time>
      </trkpt>
      <trkpt lat="48.85501" lon="-0.26839">
        <ele>175.1999969</ele>
        <time>2011-12-18T08:26:33Z</time>
      </trkpt>
      <trkpt lat="48.85502" lon="-0.26847">
        <ele>175</ele>
        <time>2011-12-18T08:26:34Z</time>
      </trkpt>
      <trkpt lat="48.85504" lon="-0.26855">
        <ele>174.6000061</ele>
        <time>2011-12-18T08:26:35Z</time>
      </trkpt>
      <trkpt lat="48.85507" lon="-0.26872">
        <ele>174</ele>
        <time>2011-12-18T08:26:37Z</time>
      </trkpt>
      <trkpt lat="48.85508" lon="-0.26881">
        <ele>173.8000031</ele>
        <time>2011-12-18T08:26:38Z</time>
      </trkpt>
      <trkpt lat="48.85509" lon="-0.2689">
        <ele>173.1999969</ele>
        <time>2011-12-18T08:26:39Z</time>
      </trkpt>
      <trkpt lat="48.8551" lon="-0.26899">
        <ele>173</ele>
        <time>2011-12-18T08:26:40Z</time>
      </trkpt>
      <trkpt lat="48.85511" lon="-0.26908">
        <ele>172.6000061</ele>
        <time>2011-12-18T08:26:41Z</time>
      </trkpt>
      <trkpt lat="48.85513" lon="-0.26917">
        <ele>172.6000061</ele>
        <time>2011-12-18T08:26:42Z</time>
      </trkpt>
      <trkpt lat="48.85516" lon="-0.26945">
        <ele>172</ele>
        <time>2011-12-18T08:26:45Z</time>
      </trkpt>
      <trkpt lat="48.85516" lon="-0.26954">
        <ele>171.8000031</ele>
        <time>2011-12-18T08:26:46Z</time>
      </trkpt>
      <trkpt lat="48.85517" lon="-0.26963">
        <ele>171</ele>
        <time>2011-12-18T08:26:47Z</time>
      </trkpt>
      <trkpt lat="48.85517" lon="-0.26972">
        <ele>170.6000061</ele>
        <time>2011-12-18T08:26:48Z</time>
      </trkpt>
      <trkpt lat="48.85518" lon="-0.26981">
        <ele>170.6000061</ele>
        <time>2011-12-18T08:26:49Z</time>
      </trkpt>
      <trkpt lat="48.85518" lon="-0.2699">
        <ele>170</ele>
        <time>2011-12-18T08:26:50Z</time>
      </trkpt>
      <trkpt lat="48.85517" lon="-0.27001">
        <ele>169.6000061</ele>
        <time>2011-12-18T08:26:51Z</time>
      </trkpt>
      <trkpt lat="48.85517" lon="-0.27011">
        <ele>169</ele>
        <time>2011-12-18T08:26:52Z</time>
      </trkpt>
      <trkpt lat="48.85516" lon="-0.27022">
        <ele>168.8000031</ele>
        <time>2011-12-18T08:26:53Z</time>
      </trkpt>
      <trkpt lat="48.85514" lon="-0.27032">
        <ele>168.1999969</ele>
        <time>2011-12-18T08:26:54Z</time>
      </trkpt>
      <trkpt lat="48.8551" lon="-0.27063">
        <ele>168</ele>
        <time>2011-12-18T08:26:57Z</time>
      </trkpt>
      <trkpt lat="48.85509" lon="-0.27073">
        <ele>167.1999969</ele>
        <time>2011-12-18T08:26:58Z</time>
      </trkpt>
      <trkpt lat="48.85507" lon="-0.27083">
        <ele>167</ele>
        <time>2011-12-18T08:26:59Z</time>
      </trkpt>
      <trkpt lat="48.85505" lon="-0.27093">
        <ele>166.6000061</ele>
        <time>2011-12-18T08:27:00Z</time>
      </trkpt>
      <trkpt lat="48.85503" lon="-0.27102">
        <ele>166</ele>
        <time>2011-12-18T08:27:01Z</time>
      </trkpt>
      <trkpt lat="48.85501" lon="-0.27112">
        <ele>165.6000061</ele>
        <time>2011-12-18T08:27:02Z</time>
      </trkpt>
      <trkpt lat="48.85498" lon="-0.27121">
        <ele>165</ele>
        <time>2011-12-18T08:27:03Z</time>
      </trkpt>
      <trkpt lat="48.85495" lon="-0.27131">
        <ele>164.8000031</ele>
        <time>2011-12-18T08:27:04Z</time>
      </trkpt>
      <trkpt lat="48.85492" lon="-0.27141">
        <ele>164</ele>
        <time>2011-12-18T08:27:05Z</time>
      </trkpt>
      <trkpt lat="48.85488" lon="-0.27151">
        <ele>163.8000031</ele>
        <time>2011-12-18T08:27:06Z</time>
      </trkpt>
      <trkpt lat="48.85482" lon="-0.2717">
        <ele>163.8000031</ele>
        <time>2011-12-18T08:27:08Z</time>
      </trkpt>
      <trkpt lat="48.85479" lon="-0.27179">
        <ele>163.1999969</ele>
        <time>2011-12-18T08:27:09Z</time>
      </trkpt>
      <trkpt lat="48.85476" lon="-0.27189">
        <ele>163</ele>
        <time>2011-12-18T08:27:10Z</time>
      </trkpt>
      <trkpt lat="48.85473" lon="-0.27198">
        <ele>162</ele>
        <time>2011-12-18T08:27:11Z</time>
      </trkpt>
      <trkpt lat="48.85471" lon="-0.27208">
        <ele>161.8000031</ele>
        <time>2011-12-18T08:27:12Z</time>
      </trkpt>
      <trkpt lat="48.85468" lon="-0.27219">
        <ele>161.1999969</ele>
        <time>2011-12-18T08:27:13Z</time>
      </trkpt>
      <trkpt lat="48.85466" lon="-0.2723">
        <ele>161</ele>
        <time>2011-12-18T08:27:14Z</time>
      </trkpt>
      <trkpt lat="48.85464" lon="-0.27241">
        <ele>160.6000061</ele>
        <time>2011-12-18T08:27:15Z</time>
      </trkpt>
      <trkpt lat="48.85463" lon="-0.27252">
        <ele>160</ele>
        <time>2011-12-18T08:27:16Z</time>
      </trkpt>
      <trkpt lat="48.85463" lon="-0.27264">
        <ele>159.6000061</ele>
        <time>2011-12-18T08:27:17Z</time>
      </trkpt>
      <trkpt lat="48.85464" lon="-0.27276">
        <ele>159.6000061</ele>
        <time>2011-12-18T08:27:18Z</time>
      </trkpt>
      <trkpt lat="48.85465" lon="-0.27289">
        <ele>159</ele>
        <time>2011-12-18T08:27:19Z</time>
      </trkpt>
      <trkpt lat="48.85468" lon="-0.27301">
        <ele>158.8000031</ele>
        <time>2011-12-18T08:27:20Z</time>
      </trkpt>
      <trkpt lat="48.85471" lon="-0.27313">
        <ele>158.1999969</ele>
        <time>2011-12-18T08:27:21Z</time>
      </trkpt>
      <trkpt lat="48.85474" lon="-0.27324">
        <ele>158</ele>
        <time>2011-12-18T08:27:22Z</time>
      </trkpt>
      <trkpt lat="48.85478" lon="-0.27335">
        <ele>157.1999969</ele>
        <time>2011-12-18T08:27:23Z</time>
      </trkpt>
      <trkpt lat="48.85483" lon="-0.27344">
        <ele>156.8000031</ele>
        <time>2011-12-18T08:27:24Z</time>
      </trkpt>
      <trkpt lat="48.85488" lon="-0.27353">
        <ele>156.1999969</ele>
        <time>2011-12-18T08:27:25Z</time>
      </trkpt>
      <trkpt lat="48.85493" lon="-0.27362">
        <ele>155.8000031</ele>
        <time>2011-12-18T08:27:26Z</time>
      </trkpt>
      <trkpt lat="48.855" lon="-0.27369">
        <ele>155</ele>
        <time>2011-12-18T08:27:27Z</time>
      </trkpt>
      <trkpt lat="48.85507" lon="-0.27377">
        <ele>154.8000031</ele>
        <time>2011-12-18T08:27:28Z</time>
      </trkpt>
      <trkpt lat="48.85515" lon="-0.27384">
        <ele>154.1999969</ele>
        <time>2011-12-18T08:27:29Z</time>
      </trkpt>
      <trkpt lat="48.85522" lon="-0.2739">
        <ele>153.8000031</ele>
        <time>2011-12-18T08:27:30Z</time>
      </trkpt>
      <trkpt lat="48.8553" lon="-0.27396">
        <ele>153.1999969</ele>
        <time>2011-12-18T08:27:31Z</time>
      </trkpt>
      <trkpt lat="48.85538" lon="-0.27401">
        <ele>152.8000031</ele>
        <time>2011-12-18T08:27:32Z</time>
      </trkpt>
      <trkpt lat="48.85544" lon="-0.27407">
        <ele>152.1999969</ele>
        <time>2011-12-18T08:27:33Z</time>
      </trkpt>
      <trkpt lat="48.8555" lon="-0.27413">
        <ele>152</ele>
        <time>2011-12-18T08:27:34Z</time>
      </trkpt>
      <trkpt lat="48.85555" lon="-0.27418">
        <ele>151.6000061</ele>
        <time>2011-12-18T08:27:35Z</time>
      </trkpt>
      <trkpt lat="48.85558" lon="-0.27424">
        <ele>150.8000031</ele>
        <time>2011-12-18T08:27:36Z</time>
      </trkpt>
      <trkpt lat="48.8556" lon="-0.27429">
        <ele>150</ele>
        <time>2011-12-18T08:27:37Z</time>
      </trkpt>
      <trkpt lat="48.85562" lon="-0.27435">
        <ele>149.8000031</ele>
        <time>2011-12-18T08:27:38Z</time>
      </trkpt>
      <trkpt lat="48.85563" lon="-0.27441">
        <ele>149.1999969</ele>
        <time>2011-12-18T08:27:39Z</time>
      </trkpt>
      <trkpt lat="48.85563" lon="-0.27448">
        <ele>149</ele>
        <time>2011-12-18T08:27:40Z</time>
      </trkpt>
      <trkpt lat="48.85562" lon="-0.27454">
        <ele>148.1999969</ele>
        <time>2011-12-18T08:27:41Z</time>
      </trkpt>
      <trkpt lat="48.85557" lon="-0.27469">
        <ele>148.1999969</ele>
        <time>2011-12-18T08:27:44Z</time>
      </trkpt>
      <trkpt lat="48.85556" lon="-0.27472">
        <ele>148.1999969</ele>
        <time>2011-12-18T08:27:45Z</time>
      </trkpt>
      <trkpt lat="48.85554" lon="-0.27476">
        <ele>148.8000031</ele>
        <time>2011-12-18T08:27:47Z</time>
      </trkpt>
      <trkpt lat="48.85553" lon="-0.27478">
        <ele>149.1999969</ele>
        <time>2011-12-18T08:27:48Z</time>
      </trkpt>
      <trkpt lat="48.85551" lon="-0.2748">
        <ele>149.8000031</ele>
        <time>2011-12-18T08:27:49Z</time>
      </trkpt>
      <trkpt lat="48.8555" lon="-0.27481">
        <ele>150</ele>
        <time>2011-12-18T08:27:50Z</time>
      </trkpt>
      <trkpt lat="48.85548" lon="-0.27482">
        <ele>150.6000061</ele>
        <time>2011-12-18T08:27:51Z</time>
      </trkpt>
      <trkpt lat="48.85544" lon="-0.27484">
        <ele>150.6000061</ele>
        <time>2011-12-18T08:27:53Z</time>
      </trkpt>
      <trkpt lat="48.8554" lon="-0.27486">
        <ele>150.6000061</ele>
        <time>2011-12-18T08:27:55Z</time>
      </trkpt>
      <trkpt lat="48.85534" lon="-0.2749">
        <ele>150.6000061</ele>
        <time>2011-12-18T08:27:58Z</time>
      </trkpt>
      <trkpt lat="48.85529" lon="-0.27492">
        <ele>150.6000061</ele>
        <time>2011-12-18T08:28:00Z</time>
      </trkpt>
      <trkpt lat="48.85513" lon="-0.275">
        <ele>150.6000061</ele>
        <time>2011-12-18T08:28:07Z</time>
      </trkpt>
      <trkpt lat="48.85501" lon="-0.2751">
        <ele>151</ele>
        <time>2011-12-18T08:28:12Z</time>
      </trkpt>
      <trkpt lat="48.85498" lon="-0.27513">
        <ele>151.1999969</ele>
        <time>2011-12-18T08:28:13Z</time>
      </trkpt>
      <trkpt lat="48.85497" lon="-0.27516">
        <ele>151.8000031</ele>
        <time>2011-12-18T08:28:14Z</time>
      </trkpt>
      <trkpt lat="48.85495" lon="-0.2752">
        <ele>152</ele>
        <time>2011-12-18T08:28:15Z</time>
      </trkpt>
      <trkpt lat="48.85493" lon="-0.27523">
        <ele>152.6000061</ele>
        <time>2011-12-18T08:28:16Z</time>
      </trkpt>
      <trkpt lat="48.85489" lon="-0.27531">
        <ele>152.6000061</ele>
        <time>2011-12-18T08:28:18Z</time>
      </trkpt>
      <trkpt lat="48.85486" lon="-0.27539">
        <ele>152.6000061</ele>
        <time>2011-12-18T08:28:20Z</time>
      </trkpt>
      <trkpt lat="48.85484" lon="-0.27548">
        <ele>152.6000061</ele>
        <time>2011-12-18T08:28:22Z</time>
      </trkpt>
      <trkpt lat="48.85482" lon="-0.27557">
        <ele>152.6000061</ele>
        <time>2011-12-18T08:28:24Z</time>
      </trkpt>
      <trkpt lat="48.8548" lon="-0.27569">
        <ele>153</ele>
        <time>2011-12-18T08:28:27Z</time>
      </trkpt>
      <trkpt lat="48.85479" lon="-0.27573">
        <ele>153.6000061</ele>
        <time>2011-12-18T08:28:28Z</time>
      </trkpt>
      <trkpt lat="48.85479" lon="-0.27577">
        <ele>154</ele>
        <time>2011-12-18T08:28:29Z</time>
      </trkpt>
      <trkpt lat="48.8548" lon="-0.27582">
        <ele>154.1999969</ele>
        <time>2011-12-18T08:28:30Z</time>
      </trkpt>
      <trkpt lat="48.8548" lon="-0.27587">
        <ele>154.8000031</ele>
        <time>2011-12-18T08:28:31Z</time>
      </trkpt>
      <trkpt lat="48.85482" lon="-0.2761">
        <ele>154.8000031</ele>
        <time>2011-12-18T08:28:36Z</time>
      </trkpt>
      <trkpt lat="48.85487" lon="-0.27637">
        <ele>154.8000031</ele>
        <time>2011-12-18T08:28:41Z</time>
      </trkpt>
      <trkpt lat="48.85496" lon="-0.27673">
        <ele>154.8000031</ele>
        <time>2011-12-18T08:28:48Z</time>
      </trkpt>
      <trkpt lat="48.85501" lon="-0.27703">
        <ele>154.8000031</ele>
        <time>2011-12-18T08:28:53Z</time>
      </trkpt>
      <trkpt lat="48.85501" lon="-0.27709">
        <ele>154.8000031</ele>
        <time>2011-12-18T08:28:54Z</time>
      </trkpt>
      <trkpt lat="48.85502" lon="-0.27715">
        <ele>154.1999969</ele>
        <time>2011-12-18T08:28:55Z</time>
      </trkpt>
      <trkpt lat="48.85502" lon="-0.27721">
        <ele>154</ele>
        <time>2011-12-18T08:28:56Z</time>
      </trkpt>
      <trkpt lat="48.85503" lon="-0.27727">
        <ele>153.6000061</ele>
        <time>2011-12-18T08:28:57Z</time>
      </trkpt>
      <trkpt lat="48.85504" lon="-0.27734">
        <ele>153</ele>
        <time>2011-12-18T08:28:58Z</time>
      </trkpt>
      <trkpt lat="48.85505" lon="-0.27741">
        <ele>152.8000031</ele>
        <time>2011-12-18T08:28:59Z</time>
      </trkpt>
      <trkpt lat="48.85506" lon="-0.27748">
        <ele>152.8000031</ele>
        <time>2011-12-18T08:29:00Z</time>
      </trkpt>
      <trkpt lat="48.8551" lon="-0.27769">
        <ele>152.8000031</ele>
        <time>2011-12-18T08:29:03Z</time>
      </trkpt>
      <trkpt lat="48.85513" lon="-0.27792">
        <ele>152.8000031</ele>
        <time>2011-12-18T08:29:06Z</time>
      </trkpt>
      <trkpt lat="48.85516" lon="-0.27805">
        <ele>152.1999969</ele>
        <time>2011-12-18T08:29:08Z</time>
      </trkpt>
      <trkpt lat="48.85517" lon="-0.27811">
        <ele>152</ele>
        <time>2011-12-18T08:29:09Z</time>
      </trkpt>
      <trkpt lat="48.85518" lon="-0.27817">
        <ele>151.6000061</ele>
        <time>2011-12-18T08:29:10Z</time>
      </trkpt>
      <trkpt lat="48.85518" lon="-0.27823">
        <ele>151</ele>
        <time>2011-12-18T08:29:11Z</time>
      </trkpt>
      <trkpt lat="48.85519" lon="-0.27829">
        <ele>150.8000031</ele>
        <time>2011-12-18T08:29:12Z</time>
      </trkpt>
      <trkpt lat="48.8552" lon="-0.27841">
        <ele>150.8000031</ele>
        <time>2011-12-18T08:29:14Z</time>
      </trkpt>
      <trkpt lat="48.85523" lon="-0.27852">
        <ele>150.8000031</ele>
        <time>2011-12-18T08:29:16Z</time>
      </trkpt>
      <trkpt lat="48.85525" lon="-0.27862">
        <ele>150.8000031</ele>
        <time>2011-12-18T08:29:18Z</time>
      </trkpt>
      <trkpt lat="48.85531" lon="-0.27889">
        <ele>150.8000031</ele>
        <time>2011-12-18T08:29:24Z</time>
      </trkpt>
      <trkpt lat="48.85533" lon="-0.27896">
        <ele>150.8000031</ele>
        <time>2011-12-18T08:29:26Z</time>
      </trkpt>
      <trkpt lat="48.85536" lon="-0.27912">
        <ele>150.8000031</ele>
        <time>2011-12-18T08:29:30Z</time>
      </trkpt>
      <trkpt lat="48.85542" lon="-0.27931">
        <ele>151</ele>
        <time>2011-12-18T08:29:35Z</time>
      </trkpt>
      <trkpt lat="48.85543" lon="-0.27935">
        <ele>151.6000061</ele>
        <time>2011-12-18T08:29:36Z</time>
      </trkpt>
      <trkpt lat="48.85544" lon="-0.27939">
        <ele>152</ele>
        <time>2011-12-18T08:29:37Z</time>
      </trkpt>
      <trkpt lat="48.85546" lon="-0.27942">
        <ele>152.1999969</ele>
        <time>2011-12-18T08:29:38Z</time>
      </trkpt>
      <trkpt lat="48.85547" lon="-0.27946">
        <ele>152.8000031</ele>
        <time>2011-12-18T08:29:39Z</time>
      </trkpt>
      <trkpt lat="48.85551" lon="-0.27959">
        <ele>152.8000031</ele>
        <time>2011-12-18T08:29:43Z</time>
      </trkpt>
      <trkpt lat="48.85556" lon="-0.27979">
        <ele>153</ele>
        <time>2011-12-18T08:29:50Z</time>
      </trkpt>
      <trkpt lat="48.85557" lon="-0.27982">
        <ele>153.6000061</ele>
        <time>2011-12-18T08:29:51Z</time>
      </trkpt>
      <trkpt lat="48.85557" lon="-0.27984">
        <ele>154</ele>
        <time>2011-12-18T08:29:52Z</time>
      </trkpt>
      <trkpt lat="48.85558" lon="-0.27986">
        <ele>154.1999969</ele>
        <time>2011-12-18T08:29:53Z</time>
      </trkpt>
      <trkpt lat="48.85558" lon="-0.27988">
        <ele>154.8000031</ele>
        <time>2011-12-18T08:29:54Z</time>
      </trkpt>
      <trkpt lat="48.85557" lon="-0.27994">
        <ele>154.8000031</ele>
        <time>2011-12-18T08:29:56Z</time>
      </trkpt>
      <trkpt lat="48.85551" lon="-0.28019">
        <ele>154.8000031</ele>
        <time>2011-12-18T08:30:01Z</time>
      </trkpt>
      <trkpt lat="48.85549" lon="-0.28026">
        <ele>154.8000031</ele>
        <time>2011-12-18T08:30:02Z</time>
      </trkpt>
      <trkpt lat="48.85541" lon="-0.28046">
        <ele>154.8000031</ele>
        <time>2011-12-18T08:30:06Z</time>
      </trkpt>
      <trkpt lat="48.8553" lon="-0.28073">
        <ele>154.1999969</ele>
        <time>2011-12-18T08:30:10Z</time>
      </trkpt>
      <trkpt lat="48.85526" lon="-0.28081">
        <ele>153.8000031</ele>
        <time>2011-12-18T08:30:11Z</time>
      </trkpt>
      <trkpt lat="48.85523" lon="-0.28086">
        <ele>153.1999969</ele>
        <time>2011-12-18T08:30:12Z</time>
      </trkpt>
      <trkpt lat="48.85518" lon="-0.28095">
        <ele>152.8000031</ele>
        <time>2011-12-18T08:30:13Z</time>
      </trkpt>
      <trkpt lat="48.85513" lon="-0.28104">
        <ele>152</ele>
        <time>2011-12-18T08:30:14Z</time>
      </trkpt>
      <trkpt lat="48.85508" lon="-0.28114">
        <ele>151.8000031</ele>
        <time>2011-12-18T08:30:15Z</time>
      </trkpt>
      <trkpt lat="48.85501" lon="-0.28127">
        <ele>151</ele>
        <time>2011-12-18T08:30:16Z</time>
      </trkpt>
      <trkpt lat="48.85495" lon="-0.28138">
        <ele>150.6000061</ele>
        <time>2011-12-18T08:30:17Z</time>
      </trkpt>
      <trkpt lat="48.85486" lon="-0.28154">
        <ele>150</ele>
        <time>2011-12-18T08:30:18Z</time>
      </trkpt>
      <trkpt lat="48.85475" lon="-0.28172">
        <ele>149</ele>
        <time>2011-12-18T08:30:19Z</time>
      </trkpt>
      <trkpt lat="48.85466" lon="-0.28187">
        <ele>148.6000061</ele>
        <time>2011-12-18T08:30:20Z</time>
      </trkpt>
      <trkpt lat="48.85459" lon="-0.28198">
        <ele>148</ele>
        <time>2011-12-18T08:30:21Z</time>
      </trkpt>
      <trkpt lat="48.85453" lon="-0.28208">
        <ele>147.1999969</ele>
        <time>2011-12-18T08:30:22Z</time>
      </trkpt>
      <trkpt lat="48.85448" lon="-0.28218">
        <ele>146.8000031</ele>
        <time>2011-12-18T08:30:23Z</time>
      </trkpt>
      <trkpt lat="48.85443" lon="-0.28226">
        <ele>146</ele>
        <time>2011-12-18T08:30:24Z</time>
      </trkpt>
      <trkpt lat="48.85438" lon="-0.28235">
        <ele>145.6000061</ele>
        <time>2011-12-18T08:30:25Z</time>
      </trkpt>
      <trkpt lat="48.85429" lon="-0.28252">
        <ele>145.6000061</ele>
        <time>2011-12-18T08:30:27Z</time>
      </trkpt>
      <trkpt lat="48.85425" lon="-0.2826">
        <ele>145</ele>
        <time>2011-12-18T08:30:28Z</time>
      </trkpt>
      <trkpt lat="48.85421" lon="-0.28269">
        <ele>144.8000031</ele>
        <time>2011-12-18T08:30:29Z</time>
      </trkpt>
      <trkpt lat="48.85418" lon="-0.28278">
        <ele>144</ele>
        <time>2011-12-18T08:30:30Z</time>
      </trkpt>
      <trkpt lat="48.85414" lon="-0.28287">
        <ele>143.1999969</ele>
        <time>2011-12-18T08:30:31Z</time>
      </trkpt>
      <trkpt lat="48.8541" lon="-0.28297">
        <ele>142.8000031</ele>
        <time>2011-12-18T08:30:32Z</time>
      </trkpt>
      <trkpt lat="48.85406" lon="-0.28305">
        <ele>142.1999969</ele>
        <time>2011-12-18T08:30:33Z</time>
      </trkpt>
      <trkpt lat="48.85402" lon="-0.28313">
        <ele>141.8000031</ele>
        <time>2011-12-18T08:30:34Z</time>
      </trkpt>
      <trkpt lat="48.85398" lon="-0.28321">
        <ele>141</ele>
        <time>2011-12-18T08:30:35Z</time>
      </trkpt>
      <trkpt lat="48.85394" lon="-0.28329">
        <ele>140.6000061</ele>
        <time>2011-12-18T08:30:36Z</time>
      </trkpt>
      <trkpt lat="48.8539" lon="-0.28337">
        <ele>140</ele>
        <time>2011-12-18T08:30:37Z</time>
      </trkpt>
      <trkpt lat="48.85386" lon="-0.28345">
        <ele>139.1999969</ele>
        <time>2011-12-18T08:30:38Z</time>
      </trkpt>
      <trkpt lat="48.85382" lon="-0.28354">
        <ele>138.8000031</ele>
        <time>2011-12-18T08:30:39Z</time>
      </trkpt>
      <trkpt lat="48.85376" lon="-0.28365">
        <ele>138</ele>
        <time>2011-12-18T08:30:41Z</time>
      </trkpt>
      <trkpt lat="48.85372" lon="-0.28375">
        <ele>137.1999969</ele>
        <time>2011-12-18T08:30:42Z</time>
      </trkpt>
      <trkpt lat="48.85367" lon="-0.28385">
        <ele>136.6000061</ele>
        <time>2011-12-18T08:30:43Z</time>
      </trkpt>
      <trkpt lat="48.85363" lon="-0.28395">
        <ele>136</ele>
        <time>2011-12-18T08:30:44Z</time>
      </trkpt>
      <trkpt lat="48.8536" lon="-0.28403">
        <ele>135</ele>
        <time>2011-12-18T08:30:45Z</time>
      </trkpt>
      <trkpt lat="48.85358" lon="-0.2841">
        <ele>134</ele>
        <time>2011-12-18T08:30:46Z</time>
      </trkpt>
      <trkpt lat="48.85357" lon="-0.28417">
        <ele>133</ele>
        <time>2011-12-18T08:30:47Z</time>
      </trkpt>
      <trkpt lat="48.85356" lon="-0.28422">
        <ele>133</ele>
        <time>2011-12-18T08:30:48Z</time>
      </trkpt>
      <trkpt lat="48.85356" lon="-0.28424">
        <ele>133.1999969</ele>
        <time>2011-12-18T08:30:49Z</time>
      </trkpt>
      <trkpt lat="48.85355" lon="-0.28427">
        <ele>133.6000061</ele>
        <time>2011-12-18T08:30:50Z</time>
      </trkpt>
      <trkpt lat="48.85354" lon="-0.28428">
        <ele>133.8000031</ele>
        <time>2011-12-18T08:30:51Z</time>
      </trkpt>
      <trkpt lat="48.85351" lon="-0.28428">
        <ele>133.8000031</ele>
        <time>2011-12-18T08:30:53Z</time>
      </trkpt>
      <trkpt lat="48.85338" lon="-0.2842">
        <ele>133.8000031</ele>
        <time>2011-12-18T08:30:57Z</time>
      </trkpt>
      <trkpt lat="48.85322" lon="-0.28407">
        <ele>133.1999969</ele>
        <time>2011-12-18T08:31:01Z</time>
      </trkpt>
      <trkpt lat="48.85317" lon="-0.28403">
        <ele>132.8000031</ele>
        <time>2011-12-18T08:31:02Z</time>
      </trkpt>
      <trkpt lat="48.85313" lon="-0.28401">
        <ele>132.1999969</ele>
        <time>2011-12-18T08:31:03Z</time>
      </trkpt>
      <trkpt lat="48.8531" lon="-0.28404">
        <ele>132</ele>
        <time>2011-12-18T08:31:04Z</time>
      </trkpt>
      <trkpt lat="48.85308" lon="-0.28408">
        <ele>131.1999969</ele>
        <time>2011-12-18T08:31:05Z</time>
      </trkpt>
      <trkpt lat="48.85308" lon="-0.28414">
        <ele>131</ele>
        <time>2011-12-18T08:31:06Z</time>
      </trkpt>
      <trkpt lat="48.85309" lon="-0.2842">
        <ele>130.6000061</ele>
        <time>2011-12-18T08:31:07Z</time>
      </trkpt>
      <trkpt lat="48.85309" lon="-0.28426">
        <ele>130</ele>
        <time>2011-12-18T08:31:08Z</time>
      </trkpt>
      <trkpt lat="48.8531" lon="-0.28433">
        <ele>129.8000031</ele>
        <time>2011-12-18T08:31:09Z</time>
      </trkpt>
      <trkpt lat="48.85311" lon="-0.2844">
        <ele>129</ele>
        <time>2011-12-18T08:31:10Z</time>
      </trkpt>
      <trkpt lat="48.85314" lon="-0.28466">
        <ele>129</ele>
        <time>2011-12-18T08:31:13Z</time>
      </trkpt>
      <trkpt lat="48.85317" lon="-0.28494">
        <ele>128.8000031</ele>
        <time>2011-12-18T08:31:16Z</time>
      </trkpt>
      <trkpt lat="48.85318" lon="-0.28503">
        <ele>128.1999969</ele>
        <time>2011-12-18T08:31:17Z</time>
      </trkpt>
      <trkpt lat="48.8532" lon="-0.28512">
        <ele>128</ele>
        <time>2011-12-18T08:31:18Z</time>
      </trkpt>
      <trkpt lat="48.8532" lon="-0.2852">
        <ele>127.4000015</ele>
        <time>2011-12-18T08:31:19Z</time>
      </trkpt>
      <trkpt lat="48.85321" lon="-0.28528">
        <ele>127</ele>
        <time>2011-12-18T08:31:20Z</time>
      </trkpt>
      <trkpt lat="48.85321" lon="-0.28543">
        <ele>127</ele>
        <time>2011-12-18T08:31:22Z</time>
      </trkpt>
      <trkpt lat="48.85321" lon="-0.28551">
        <ele>126.8000031</ele>
        <time>2011-12-18T08:31:23Z</time>
      </trkpt>
      <trkpt lat="48.85321" lon="-0.28559">
        <ele>126.4000015</ele>
        <time>2011-12-18T08:31:24Z</time>
      </trkpt>
      <trkpt lat="48.85321" lon="-0.28567">
        <ele>126</ele>
        <time>2011-12-18T08:31:25Z</time>
      </trkpt>
      <trkpt lat="48.85321" lon="-0.28574">
        <ele>125.4000015</ele>
        <time>2011-12-18T08:31:26Z</time>
      </trkpt>
      <trkpt lat="48.85321" lon="-0.28582">
        <ele>125</ele>
        <time>2011-12-18T08:31:27Z</time>
      </trkpt>
      <trkpt lat="48.85319" lon="-0.28618">
        <ele>124.8000031</ele>
        <time>2011-12-18T08:31:31Z</time>
      </trkpt>
      <trkpt lat="48.85319" lon="-0.28629">
        <ele>124</ele>
        <time>2011-12-18T08:31:32Z</time>
      </trkpt>
      <trkpt lat="48.85319" lon="-0.2864">
        <ele>123.8000031</ele>
        <time>2011-12-18T08:31:33Z</time>
      </trkpt>
      <trkpt lat="48.85319" lon="-0.28652">
        <ele>123.4000015</ele>
        <time>2011-12-18T08:31:34Z</time>
      </trkpt>
      <trkpt lat="48.85318" lon="-0.28662">
        <ele>123</ele>
        <time>2011-12-18T08:31:35Z</time>
      </trkpt>
      <trkpt lat="48.85317" lon="-0.28671">
        <ele>122.4000015</ele>
        <time>2011-12-18T08:31:36Z</time>
      </trkpt>
      <trkpt lat="48.85315" lon="-0.28678">
        <ele>122</ele>
        <time>2011-12-18T08:31:37Z</time>
      </trkpt>
      <trkpt lat="48.85312" lon="-0.28682">
        <ele>121.4000015</ele>
        <time>2011-12-18T08:31:38Z</time>
      </trkpt>
      <trkpt lat="48.8531" lon="-0.28683">
        <ele>120</ele>
        <time>2011-12-18T08:31:39Z</time>
      </trkpt>
      <trkpt lat="48.85308" lon="-0.28684">
        <ele>119.4000015</ele>
        <time>2011-12-18T08:31:40Z</time>
      </trkpt>
      <trkpt lat="48.85306" lon="-0.28684">
        <ele>119</ele>
        <time>2011-12-18T08:31:41Z</time>
      </trkpt>
      <trkpt lat="48.85304" lon="-0.28685">
        <ele>118.4000015</ele>
        <time>2011-12-18T08:31:42Z</time>
      </trkpt>
      <trkpt lat="48.85297" lon="-0.28688">
        <ele>118.4000015</ele>
        <time>2011-12-18T08:31:45Z</time>
      </trkpt>
      <trkpt lat="48.85287" lon="-0.28695">
        <ele>118.4000015</ele>
        <time>2011-12-18T08:31:50Z</time>
      </trkpt>
      <trkpt lat="48.85282" lon="-0.28704">
        <ele>118.4000015</ele>
        <time>2011-12-18T08:31:53Z</time>
      </trkpt>
      <trkpt lat="48.85281" lon="-0.28706">
        <ele>118.4000015</ele>
        <time>2011-12-18T08:31:54Z</time>
      </trkpt>
      <trkpt lat="48.85281" lon="-0.28708">
        <ele>118.4000015</ele>
        <time>2011-12-18T08:31:57Z</time>
      </trkpt>
      <trkpt lat="48.8528" lon="-0.28712">
        <ele>118.4000015</ele>
        <time>2011-12-18T08:32:10Z</time>
      </trkpt>
      <trkpt lat="48.8528" lon="-0.28714">
        <ele>118.4000015</ele>
        <time>2011-12-18T08:32:11Z</time>
      </trkpt>
      <trkpt lat="48.85277" lon="-0.28735">
        <ele>118.4000015</ele>
        <time>2011-12-18T08:32:17Z</time>
      </trkpt>
      <trkpt lat="48.85277" lon="-0.28738">
        <ele>119</ele>
        <time>2011-12-18T08:32:18Z</time>
      </trkpt>
      <trkpt lat="48.85277" lon="-0.28741">
        <ele>119.4000015</ele>
        <time>2011-12-18T08:32:19Z</time>
      </trkpt>
      <trkpt lat="48.85277" lon="-0.28743">
        <ele>119.8000031</ele>
        <time>2011-12-18T08:32:20Z</time>
      </trkpt>
      <trkpt lat="48.85276" lon="-0.28745">
        <ele>120</ele>
        <time>2011-12-18T08:32:21Z</time>
      </trkpt>
      <trkpt lat="48.85276" lon="-0.28747">
        <ele>120.4000015</ele>
        <time>2011-12-18T08:32:22Z</time>
      </trkpt>
      <trkpt lat="48.85274" lon="-0.28749">
        <ele>120.4000015</ele>
        <time>2011-12-18T08:32:23Z</time>
      </trkpt>
      <trkpt lat="48.85272" lon="-0.28754">
        <ele>121</ele>
        <time>2011-12-18T08:32:25Z</time>
      </trkpt>
      <trkpt lat="48.85271" lon="-0.28756">
        <ele>121.4000015</ele>
        <time>2011-12-18T08:32:26Z</time>
      </trkpt>
      <trkpt lat="48.8527" lon="-0.28758">
        <ele>121.8000031</ele>
        <time>2011-12-18T08:32:27Z</time>
      </trkpt>
      <trkpt lat="48.85268" lon="-0.2876">
        <ele>122.4000015</ele>
        <time>2011-12-18T08:32:28Z</time>
      </trkpt>
      <trkpt lat="48.85267" lon="-0.28761">
        <ele>122.4000015</ele>
        <time>2011-12-18T08:32:29Z</time>
      </trkpt>
      <trkpt lat="48.85264" lon="-0.28765">
        <ele>122.4000015</ele>
        <time>2011-12-18T08:32:31Z</time>
      </trkpt>
      <trkpt lat="48.85262" lon="-0.28767">
        <ele>123</ele>
        <time>2011-12-18T08:32:32Z</time>
      </trkpt>
      <trkpt lat="48.85261" lon="-0.28769">
        <ele>123.4000015</ele>
        <time>2011-12-18T08:32:33Z</time>
      </trkpt>
      <trkpt lat="48.8526" lon="-0.28771">
        <ele>124</ele>
        <time>2011-12-18T08:32:34Z</time>
      </trkpt>
      <trkpt lat="48.85258" lon="-0.28774">
        <ele>124.4000015</ele>
        <time>2011-12-18T08:32:35Z</time>
      </trkpt>
      <trkpt lat="48.85257" lon="-0.28776">
        <ele>124.8000031</ele>
        <time>2011-12-18T08:32:36Z</time>
      </trkpt>
      <trkpt lat="48.85253" lon="-0.28784">
        <ele>125</ele>
        <time>2011-12-18T08:32:39Z</time>
      </trkpt>
      <trkpt lat="48.85251" lon="-0.28786">
        <ele>125.4000015</ele>
        <time>2011-12-18T08:32:40Z</time>
      </trkpt>
      <trkpt lat="48.85249" lon="-0.28788">
        <ele>126</ele>
        <time>2011-12-18T08:32:41Z</time>
      </trkpt>
      <trkpt lat="48.85248" lon="-0.28791">
        <ele>126.4000015</ele>
        <time>2011-12-18T08:32:42Z</time>
      </trkpt>
      <trkpt lat="48.85246" lon="-0.28794">
        <ele>126.8000031</ele>
        <time>2011-12-18T08:32:43Z</time>
      </trkpt>
      <trkpt lat="48.8524" lon="-0.28801">
        <ele>126.8000031</ele>
        <time>2011-12-18T08:32:46Z</time>
      </trkpt>
      <trkpt lat="48.85233" lon="-0.28807">
        <ele>127</ele>
        <time>2011-12-18T08:32:49Z</time>
      </trkpt>
      <trkpt lat="48.85231" lon="-0.28808">
        <ele>127.4000015</ele>
        <time>2011-12-18T08:32:50Z</time>
      </trkpt>
      <trkpt lat="48.85229" lon="-0.28808">
        <ele>128</ele>
        <time>2011-12-18T08:32:51Z</time>
      </trkpt>
      <trkpt lat="48.85227" lon="-0.28809">
        <ele>128.1999969</ele>
        <time>2011-12-18T08:32:52Z</time>
      </trkpt>
      <trkpt lat="48.85224" lon="-0.28809">
        <ele>128.8000031</ele>
        <time>2011-12-18T08:32:53Z</time>
      </trkpt>
      <trkpt lat="48.8522" lon="-0.28809">
        <ele>129</ele>
        <time>2011-12-18T08:32:55Z</time>
      </trkpt>
      <trkpt lat="48.85218" lon="-0.28809">
        <ele>129.6000061</ele>
        <time>2011-12-18T08:32:56Z</time>
      </trkpt>
      <trkpt lat="48.85217" lon="-0.28808">
        <ele>130</ele>
        <time>2011-12-18T08:32:57Z</time>
      </trkpt>
      <trkpt lat="48.85215" lon="-0.28807">
        <ele>130.1999969</ele>
        <time>2011-12-18T08:32:58Z</time>
      </trkpt>
      <trkpt lat="48.85214" lon="-0.28806">
        <ele>130.8000031</ele>
        <time>2011-12-18T08:32:59Z</time>
      </trkpt>
      <trkpt lat="48.8521" lon="-0.28803">
        <ele>130.8000031</ele>
        <time>2011-12-18T08:33:02Z</time>
      </trkpt>
      <trkpt lat="48.85202" lon="-0.288">
        <ele>130.8000031</ele>
        <time>2011-12-18T08:33:08Z</time>
      </trkpt>
      <trkpt lat="48.85192" lon="-0.288">
        <ele>131.1999969</ele>
        <time>2011-12-18T08:33:15Z</time>
      </trkpt>
      <trkpt lat="48.85191" lon="-0.288">
        <ele>131.8000031</ele>
        <time>2011-12-18T08:33:16Z</time>
      </trkpt>
      <trkpt lat="48.85189" lon="-0.28801">
        <ele>132</ele>
        <time>2011-12-18T08:33:17Z</time>
      </trkpt>
      <trkpt lat="48.85187" lon="-0.28802">
        <ele>133</ele>
        <time>2011-12-18T08:33:18Z</time>
      </trkpt>
      <trkpt lat="48.85183" lon="-0.28801">
        <ele>133</ele>
        <time>2011-12-18T08:33:21Z</time>
      </trkpt>
      <trkpt lat="48.85171" lon="-0.28801">
        <ele>133</ele>
        <time>2011-12-18T08:33:28Z</time>
      </trkpt>
      <trkpt lat="48.85166" lon="-0.28802">
        <ele>133.1999969</ele>
        <time>2011-12-18T08:33:32Z</time>
      </trkpt>
      <trkpt lat="48.85164" lon="-0.28802">
        <ele>134</ele>
        <time>2011-12-18T08:33:33Z</time>
      </trkpt>
      <trkpt lat="48.85163" lon="-0.28803">
        <ele>134.1999969</ele>
        <time>2011-12-18T08:33:34Z</time>
      </trkpt>
      <trkpt lat="48.85161" lon="-0.28804">
        <ele>134.8000031</ele>
        <time>2011-12-18T08:33:35Z</time>
      </trkpt>
      <trkpt lat="48.8516" lon="-0.28805">
        <ele>135</ele>
        <time>2011-12-18T08:33:36Z</time>
      </trkpt>
      <trkpt lat="48.85154" lon="-0.28811">
        <ele>135</ele>
        <time>2011-12-18T08:33:41Z</time>
      </trkpt>
      <trkpt lat="48.85146" lon="-0.28821">
        <ele>135</ele>
        <time>2011-12-18T08:33:47Z</time>
      </trkpt>
      <trkpt lat="48.85139" lon="-0.28826">
        <ele>135</ele>
        <time>2011-12-18T08:33:51Z</time>
      </trkpt>
      <trkpt lat="48.85137" lon="-0.28829">
        <ele>135</ele>
        <time>2011-12-18T08:33:53Z</time>
      </trkpt>
      <trkpt lat="48.85134" lon="-0.28832">
        <ele>135</ele>
        <time>2011-12-18T08:33:56Z</time>
      </trkpt>
      <trkpt lat="48.85132" lon="-0.28834">
        <ele>135</ele>
        <time>2011-12-18T08:33:59Z</time>
      </trkpt>
      <trkpt lat="48.8513" lon="-0.28835">
        <ele>137</ele>
        <time>2011-12-18T08:34:15Z</time>
      </trkpt>
      <trkpt lat="48.85129" lon="-0.28836">
        <ele>137</ele>
        <time>2011-12-18T08:34:16Z</time>
      </trkpt>
      <trkpt lat="48.85125" lon="-0.28838">
        <ele>137</ele>
        <time>2011-12-18T08:34:18Z</time>
      </trkpt>
      <trkpt lat="48.8512" lon="-0.2884">
        <ele>137</ele>
        <time>2011-12-18T08:34:20Z</time>
      </trkpt>
      <trkpt lat="48.85118" lon="-0.28842">
        <ele>137</ele>
        <time>2011-12-18T08:34:21Z</time>
      </trkpt>
      <trkpt lat="48.8511" lon="-0.28846">
        <ele>137</ele>
        <time>2011-12-18T08:34:24Z</time>
      </trkpt>
      <trkpt lat="48.85103" lon="-0.28849">
        <ele>137</ele>
        <time>2011-12-18T08:34:27Z</time>
      </trkpt>
      <trkpt lat="48.85097" lon="-0.28853">
        <ele>137</ele>
        <time>2011-12-18T08:34:30Z</time>
      </trkpt>
      <trkpt lat="48.85091" lon="-0.28856">
        <ele>137</ele>
        <time>2011-12-18T08:34:33Z</time>
      </trkpt>
      <trkpt lat="48.85089" lon="-0.28859">
        <ele>137</ele>
        <time>2011-12-18T08:34:34Z</time>
      </trkpt>
      <trkpt lat="48.85085" lon="-0.28867">
        <ele>137</ele>
        <time>2011-12-18T08:34:37Z</time>
      </trkpt>
      <trkpt lat="48.85084" lon="-0.2887">
        <ele>137</ele>
        <time>2011-12-18T08:34:38Z</time>
      </trkpt>
      <trkpt lat="48.85081" lon="-0.28882">
        <ele>137</ele>
        <time>2011-12-18T08:34:42Z</time>
      </trkpt>
      <trkpt lat="48.8508" lon="-0.28888">
        <ele>137</ele>
        <time>2011-12-18T08:34:44Z</time>
      </trkpt>
      <trkpt lat="48.8508" lon="-0.28896">
        <ele>137</ele>
        <time>2011-12-18T08:34:46Z</time>
      </trkpt>
      <trkpt lat="48.8508" lon="-0.28902">
        <ele>137</ele>
        <time>2011-12-18T08:34:48Z</time>
      </trkpt>
      <trkpt lat="48.8508" lon="-0.28908">
        <ele>137</ele>
        <time>2011-12-18T08:34:51Z</time>
      </trkpt>
      <trkpt lat="48.85079" lon="-0.28915">
        <ele>137</ele>
        <time>2011-12-18T08:34:56Z</time>
      </trkpt>
      <trkpt lat="48.85079" lon="-0.28933">
        <ele>137</ele>
        <time>2011-12-18T08:35:33Z</time>
      </trkpt>
      <trkpt lat="48.85079" lon="-0.28934">
        <ele>137</ele>
        <time>2011-12-18T08:35:34Z</time>
      </trkpt>
      <trkpt lat="48.85079" lon="-0.28935">
        <ele>137</ele>
        <time>2011-12-18T08:35:35Z</time>
      </trkpt>
      <trkpt lat="48.85078" lon="-0.28949">
        <ele>137.8000031</ele>
        <time>2011-12-18T08:39:19Z</time>
      </trkpt>
      <trkpt lat="48.85078" lon="-0.28954">
        <ele>137.1999969</ele>
        <time>2011-12-18T08:39:20Z</time>
      </trkpt>
      <trkpt lat="48.85077" lon="-0.28958">
        <ele>137</ele>
        <time>2011-12-18T08:39:21Z</time>
      </trkpt>
      <trkpt lat="48.85077" lon="-0.28963">
        <ele>136.6000061</ele>
        <time>2011-12-18T08:39:22Z</time>
      </trkpt>
      <trkpt lat="48.85077" lon="-0.28966">
        <ele>136</ele>
        <time>2011-12-18T08:39:23Z</time>
      </trkpt>
      <trkpt lat="48.85077" lon="-0.2897">
        <ele>135.8000031</ele>
        <time>2011-12-18T08:39:24Z</time>
      </trkpt>
      <trkpt lat="48.85076" lon="-0.28974">
        <ele>135.8000031</ele>
        <time>2011-12-18T08:39:25Z</time>
      </trkpt>
      <trkpt lat="48.85073" lon="-0.29001">
        <ele>135.8000031</ele>
        <time>2011-12-18T08:39:31Z</time>
      </trkpt>
      <trkpt lat="48.85071" lon="-0.29018">
        <ele>135.8000031</ele>
        <time>2011-12-18T08:39:34Z</time>
      </trkpt>
      <trkpt lat="48.85069" lon="-0.29029">
        <ele>135.8000031</ele>
        <time>2011-12-18T08:39:36Z</time>
      </trkpt>
      <trkpt lat="48.85068" lon="-0.2905">
        <ele>135.1999969</ele>
        <time>2011-12-18T08:39:40Z</time>
      </trkpt>
      <trkpt lat="48.85068" lon="-0.29055">
        <ele>134.8000031</ele>
        <time>2011-12-18T08:39:41Z</time>
      </trkpt>
      <trkpt lat="48.85068" lon="-0.2906">
        <ele>134.1999969</ele>
        <time>2011-12-18T08:39:42Z</time>
      </trkpt>
      <trkpt lat="48.85068" lon="-0.29064">
        <ele>134</ele>
        <time>2011-12-18T08:39:43Z</time>
      </trkpt>
      <trkpt lat="48.85068" lon="-0.2907">
        <ele>133.6000061</ele>
        <time>2011-12-18T08:39:44Z</time>
      </trkpt>
      <trkpt lat="48.85066" lon="-0.29101">
        <ele>133.6000061</ele>
        <time>2011-12-18T08:39:49Z</time>
      </trkpt>
      <trkpt lat="48.85066" lon="-0.29113">
        <ele>133</ele>
        <time>2011-12-18T08:39:51Z</time>
      </trkpt>
      <trkpt lat="48.85066" lon="-0.29119">
        <ele>132.8000031</ele>
        <time>2011-12-18T08:39:52Z</time>
      </trkpt>
      <trkpt lat="48.85065" lon="-0.29124">
        <ele>132.1999969</ele>
        <time>2011-12-18T08:39:53Z</time>
      </trkpt>
      <trkpt lat="48.85064" lon="-0.29131">
        <ele>131.6000061</ele>
        <time>2011-12-18T08:39:54Z</time>
      </trkpt>
      <trkpt lat="48.85063" lon="-0.29143">
        <ele>131.6000061</ele>
        <time>2011-12-18T08:39:56Z</time>
      </trkpt>
      <trkpt lat="48.85063" lon="-0.29149">
        <ele>131</ele>
        <time>2011-12-18T08:39:57Z</time>
      </trkpt>
      <trkpt lat="48.85062" lon="-0.29156">
        <ele>130.6000061</ele>
        <time>2011-12-18T08:39:58Z</time>
      </trkpt>
      <trkpt lat="48.85062" lon="-0.29162">
        <ele>130</ele>
        <time>2011-12-18T08:39:59Z</time>
      </trkpt>
      <trkpt lat="48.85062" lon="-0.29168">
        <ele>129.8000031</ele>
        <time>2011-12-18T08:40:00Z</time>
      </trkpt>
      <trkpt lat="48.85061" lon="-0.29175">
        <ele>129.1999969</ele>
        <time>2011-12-18T08:40:01Z</time>
      </trkpt>
      <trkpt lat="48.85061" lon="-0.29182">
        <ele>129.1999969</ele>
        <time>2011-12-18T08:40:02Z</time>
      </trkpt>
      <trkpt lat="48.85061" lon="-0.29197">
        <ele>128.8000031</ele>
        <time>2011-12-18T08:40:04Z</time>
      </trkpt>
      <trkpt lat="48.85061" lon="-0.29204">
        <ele>128.1999969</ele>
        <time>2011-12-18T08:40:05Z</time>
      </trkpt>
      <trkpt lat="48.85061" lon="-0.29211">
        <ele>127.8000031</ele>
        <time>2011-12-18T08:40:06Z</time>
      </trkpt>
      <trkpt lat="48.85061" lon="-0.29219">
        <ele>127.4000015</ele>
        <time>2011-12-18T08:40:07Z</time>
      </trkpt>
      <trkpt lat="48.85061" lon="-0.29226">
        <ele>127</ele>
        <time>2011-12-18T08:40:08Z</time>
      </trkpt>
      <trkpt lat="48.85061" lon="-0.29245">
        <ele>127</ele>
        <time>2011-12-18T08:40:11Z</time>
      </trkpt>
      <trkpt lat="48.85062" lon="-0.29262">
        <ele>127</ele>
        <time>2011-12-18T08:40:14Z</time>
      </trkpt>
      <trkpt lat="48.85062" lon="-0.29279">
        <ele>127</ele>
        <time>2011-12-18T08:40:18Z</time>
      </trkpt>
      <trkpt lat="48.8506" lon="-0.29287">
        <ele>127</ele>
        <time>2011-12-18T08:40:20Z</time>
      </trkpt>
      <trkpt lat="48.8506" lon="-0.29297">
        <ele>127</ele>
        <time>2011-12-18T08:40:23Z</time>
      </trkpt>
      <trkpt lat="48.85059" lon="-0.29302">
        <ele>127</ele>
        <time>2011-12-18T08:40:25Z</time>
      </trkpt>
      <trkpt lat="48.85059" lon="-0.29304">
        <ele>127</ele>
        <time>2011-12-18T08:40:26Z</time>
      </trkpt>
      <trkpt lat="48.85057" lon="-0.29314">
        <ele>127</ele>
        <time>2011-12-18T08:40:29Z</time>
      </trkpt>
      <trkpt lat="48.85056" lon="-0.29321">
        <ele>127</ele>
        <time>2011-12-18T08:40:31Z</time>
      </trkpt>
      <trkpt lat="48.85054" lon="-0.29325">
        <ele>127</ele>
        <time>2011-12-18T08:40:32Z</time>
      </trkpt>
      <trkpt lat="48.85055" lon="-0.29328">
        <ele>127.4000015</ele>
        <time>2011-12-18T08:40:33Z</time>
      </trkpt>
      <trkpt lat="48.85055" lon="-0.29333">
        <ele>127.8000031</ele>
        <time>2011-12-18T08:40:34Z</time>
      </trkpt>
      <trkpt lat="48.85056" lon="-0.29337">
        <ele>128</ele>
        <time>2011-12-18T08:40:35Z</time>
      </trkpt>
      <trkpt lat="48.85058" lon="-0.29342">
        <ele>128.6000061</ele>
        <time>2011-12-18T08:40:36Z</time>
      </trkpt>
      <trkpt lat="48.8506" lon="-0.29346">
        <ele>129</ele>
        <time>2011-12-18T08:40:37Z</time>
      </trkpt>
      <trkpt lat="48.85061" lon="-0.2935">
        <ele>129</ele>
        <time>2011-12-18T08:40:38Z</time>
      </trkpt>
      <trkpt lat="48.85067" lon="-0.2936">
        <ele>129</ele>
        <time>2011-12-18T08:40:42Z</time>
      </trkpt>
      <trkpt lat="48.85068" lon="-0.2937">
        <ele>129.1999969</ele>
        <time>2011-12-18T08:40:45Z</time>
      </trkpt>
      <trkpt lat="48.85067" lon="-0.29373">
        <ele>129.8000031</ele>
        <time>2011-12-18T08:40:46Z</time>
      </trkpt>
      <trkpt lat="48.85067" lon="-0.29376">
        <ele>130</ele>
        <time>2011-12-18T08:40:47Z</time>
      </trkpt>
      <trkpt lat="48.85067" lon="-0.29379">
        <ele>130.6000061</ele>
        <time>2011-12-18T08:40:48Z</time>
      </trkpt>
      <trkpt lat="48.85067" lon="-0.29382">
        <ele>131</ele>
        <time>2011-12-18T08:40:49Z</time>
      </trkpt>
      <trkpt lat="48.85066" lon="-0.29384">
        <ele>131</ele>
        <time>2011-12-18T08:40:50Z</time>
      </trkpt>
      <trkpt lat="48.85063" lon="-0.29394">
        <ele>131</ele>
        <time>2011-12-18T08:40:53Z</time>
      </trkpt>
      <trkpt lat="48.85056" lon="-0.29422">
        <ele>131</ele>
        <time>2011-12-18T08:40:59Z</time>
      </trkpt>
      <trkpt lat="48.85049" lon="-0.29442">
        <ele>131</ele>
        <time>2011-12-18T08:41:03Z</time>
      </trkpt>
      <trkpt lat="48.85046" lon="-0.29455">
        <ele>131</ele>
        <time>2011-12-18T08:41:06Z</time>
      </trkpt>
      <trkpt lat="48.85042" lon="-0.29472">
        <ele>131.6000061</ele>
        <time>2011-12-18T08:41:10Z</time>
      </trkpt>
      <trkpt lat="48.85042" lon="-0.29476">
        <ele>132</ele>
        <time>2011-12-18T08:41:11Z</time>
      </trkpt>
      <trkpt lat="48.85041" lon="-0.29481">
        <ele>132.6000061</ele>
        <time>2011-12-18T08:41:12Z</time>
      </trkpt>
      <trkpt lat="48.8504" lon="-0.29485">
        <ele>133</ele>
        <time>2011-12-18T08:41:13Z</time>
      </trkpt>
      <trkpt lat="48.85039" lon="-0.29489">
        <ele>133.1999969</ele>
        <time>2011-12-18T08:41:14Z</time>
      </trkpt>
      <trkpt lat="48.85031" lon="-0.29508">
        <ele>133.1999969</ele>
        <time>2011-12-18T08:41:19Z</time>
      </trkpt>
      <trkpt lat="48.85011" lon="-0.29538">
        <ele>133.1999969</ele>
        <time>2011-12-18T08:41:27Z</time>
      </trkpt>
      <trkpt lat="48.84994" lon="-0.29557">
        <ele>133.1999969</ele>
        <time>2011-12-18T08:41:33Z</time>
      </trkpt>
      <trkpt lat="48.84989" lon="-0.2956">
        <ele>133.8000031</ele>
        <time>2011-12-18T08:41:35Z</time>
      </trkpt>
      <trkpt lat="48.84987" lon="-0.29561">
        <ele>134</ele>
        <time>2011-12-18T08:41:36Z</time>
      </trkpt>
      <trkpt lat="48.84985" lon="-0.29563">
        <ele>134.6000061</ele>
        <time>2011-12-18T08:41:37Z</time>
      </trkpt>
      <trkpt lat="48.84983" lon="-0.29564">
        <ele>135</ele>
        <time>2011-12-18T08:41:38Z</time>
      </trkpt>
      <trkpt lat="48.84981" lon="-0.29565">
        <ele>135.1999969</ele>
        <time>2011-12-18T08:41:39Z</time>
      </trkpt>
      <trkpt lat="48.84975" lon="-0.2958">
        <ele>135.1999969</ele>
        <time>2011-12-18T08:41:43Z</time>
      </trkpt>
      <trkpt lat="48.84966" lon="-0.2961">
        <ele>135.1999969</ele>
        <time>2011-12-18T08:41:48Z</time>
      </trkpt>
      <trkpt lat="48.84964" lon="-0.29617">
        <ele>135</ele>
        <time>2011-12-18T08:41:49Z</time>
      </trkpt>
      <trkpt lat="48.84963" lon="-0.29624">
        <ele>134.6000061</ele>
        <time>2011-12-18T08:41:50Z</time>
      </trkpt>
      <trkpt lat="48.84962" lon="-0.29631">
        <ele>134</ele>
        <time>2011-12-18T08:41:51Z</time>
      </trkpt>
      <trkpt lat="48.8496" lon="-0.29639">
        <ele>133.6000061</ele>
        <time>2011-12-18T08:41:52Z</time>
      </trkpt>
      <trkpt lat="48.84959" lon="-0.29647">
        <ele>133</ele>
        <time>2011-12-18T08:41:53Z</time>
      </trkpt>
      <trkpt lat="48.84957" lon="-0.29655">
        <ele>132.6000061</ele>
        <time>2011-12-18T08:41:54Z</time>
      </trkpt>
      <trkpt lat="48.84955" lon="-0.29664">
        <ele>132</ele>
        <time>2011-12-18T08:41:55Z</time>
      </trkpt>
      <trkpt lat="48.84952" lon="-0.29671">
        <ele>131.6000061</ele>
        <time>2011-12-18T08:41:56Z</time>
      </trkpt>
      <trkpt lat="48.84949" lon="-0.2968">
        <ele>131</ele>
        <time>2011-12-18T08:41:57Z</time>
      </trkpt>
      <trkpt lat="48.84946" lon="-0.29689">
        <ele>130</ele>
        <time>2011-12-18T08:41:58Z</time>
      </trkpt>
      <trkpt lat="48.84942" lon="-0.29698">
        <ele>129.1999969</ele>
        <time>2011-12-18T08:41:59Z</time>
      </trkpt>
      <trkpt lat="48.84938" lon="-0.29707">
        <ele>128.8000031</ele>
        <time>2011-12-18T08:42:00Z</time>
      </trkpt>
      <trkpt lat="48.84934" lon="-0.29715">
        <ele>128</ele>
        <time>2011-12-18T08:42:01Z</time>
      </trkpt>
      <trkpt lat="48.8493" lon="-0.29723">
        <ele>127.8000031</ele>
        <time>2011-12-18T08:42:02Z</time>
      </trkpt>
      <trkpt lat="48.84926" lon="-0.29731">
        <ele>127</ele>
        <time>2011-12-18T08:42:03Z</time>
      </trkpt>
      <trkpt lat="48.84921" lon="-0.29739">
        <ele>126.4000015</ele>
        <time>2011-12-18T08:42:04Z</time>
      </trkpt>
      <trkpt lat="48.84917" lon="-0.29745">
        <ele>126</ele>
        <time>2011-12-18T08:42:05Z</time>
      </trkpt>
      <trkpt lat="48.84912" lon="-0.29752">
        <ele>126</ele>
        <time>2011-12-18T08:42:06Z</time>
      </trkpt>
      <trkpt lat="48.849" lon="-0.29772">
        <ele>125.4000015</ele>
        <time>2011-12-18T08:42:09Z</time>
      </trkpt>
      <trkpt lat="48.84897" lon="-0.29777">
        <ele>125</ele>
        <time>2011-12-18T08:42:10Z</time>
      </trkpt>
      <trkpt lat="48.84893" lon="-0.29782">
        <ele>124.8000031</ele>
        <time>2011-12-18T08:42:11Z</time>
      </trkpt>
      <trkpt lat="48.84888" lon="-0.29788">
        <ele>124.4000015</ele>
        <time>2011-12-18T08:42:12Z</time>
      </trkpt>
      <trkpt lat="48.84884" lon="-0.29793">
        <ele>124</ele>
        <time>2011-12-18T08:42:13Z</time>
      </trkpt>
      <trkpt lat="48.84877" lon="-0.29803">
        <ele>124</ele>
        <time>2011-12-18T08:42:15Z</time>
      </trkpt>
      <trkpt lat="48.8487" lon="-0.29813">
        <ele>124</ele>
        <time>2011-12-18T08:42:17Z</time>
      </trkpt>
      <trkpt lat="48.84863" lon="-0.29823">
        <ele>124</ele>
        <time>2011-12-18T08:42:19Z</time>
      </trkpt>
      <trkpt lat="48.8486" lon="-0.29829">
        <ele>124</ele>
        <time>2011-12-18T08:42:20Z</time>
      </trkpt>
      <trkpt lat="48.84856" lon="-0.29842">
        <ele>123</ele>
        <time>2011-12-18T08:42:22Z</time>
      </trkpt>
      <trkpt lat="48.84854" lon="-0.29848">
        <ele>122.4000015</ele>
        <time>2011-12-18T08:42:23Z</time>
      </trkpt>
      <trkpt lat="48.84852" lon="-0.29854">
        <ele>122</ele>
        <time>2011-12-18T08:42:24Z</time>
      </trkpt>
      <trkpt lat="48.8485" lon="-0.2986">
        <ele>121.4000015</ele>
        <time>2011-12-18T08:42:25Z</time>
      </trkpt>
      <trkpt lat="48.84848" lon="-0.29867">
        <ele>121</ele>
        <time>2011-12-18T08:42:26Z</time>
      </trkpt>
      <trkpt lat="48.84846" lon="-0.29872">
        <ele>120</ele>
        <time>2011-12-18T08:42:27Z</time>
      </trkpt>
      <trkpt lat="48.84845" lon="-0.29879">
        <ele>119.4000015</ele>
        <time>2011-12-18T08:42:28Z</time>
      </trkpt>
      <trkpt lat="48.84843" lon="-0.29886">
        <ele>118.8000031</ele>
        <time>2011-12-18T08:42:29Z</time>
      </trkpt>
      <trkpt lat="48.84842" lon="-0.29893">
        <ele>118</ele>
        <time>2011-12-18T08:42:30Z</time>
      </trkpt>
      <trkpt lat="48.84841" lon="-0.29899">
        <ele>117.4000015</ele>
        <time>2011-12-18T08:42:31Z</time>
      </trkpt>
      <trkpt lat="48.84839" lon="-0.29905">
        <ele>116.8000031</ele>
        <time>2011-12-18T08:42:32Z</time>
      </trkpt>
      <trkpt lat="48.84838" lon="-0.29911">
        <ele>116</ele>
        <time>2011-12-18T08:42:33Z</time>
      </trkpt>
      <trkpt lat="48.84836" lon="-0.29916">
        <ele>115.4000015</ele>
        <time>2011-12-18T08:42:34Z</time>
      </trkpt>
      <trkpt lat="48.84836" lon="-0.29921">
        <ele>114.8000031</ele>
        <time>2011-12-18T08:42:35Z</time>
      </trkpt>
      <trkpt lat="48.84834" lon="-0.29928">
        <ele>114.4000015</ele>
        <time>2011-12-18T08:42:36Z</time>
      </trkpt>
      <trkpt lat="48.84832" lon="-0.29934">
        <ele>113.8000031</ele>
        <time>2011-12-18T08:42:37Z</time>
      </trkpt>
      <trkpt lat="48.8483" lon="-0.29941">
        <ele>113.4000015</ele>
        <time>2011-12-18T08:42:38Z</time>
      </trkpt>
      <trkpt lat="48.84828" lon="-0.29946">
        <ele>113</ele>
        <time>2011-12-18T08:42:39Z</time>
      </trkpt>
      <trkpt lat="48.84826" lon="-0.29951">
        <ele>112.4000015</ele>
        <time>2011-12-18T08:42:40Z</time>
      </trkpt>
      <trkpt lat="48.84821" lon="-0.29963">
        <ele>112.4000015</ele>
        <time>2011-12-18T08:42:42Z</time>
      </trkpt>
      <trkpt lat="48.84817" lon="-0.29973">
        <ele>112</ele>
        <time>2011-12-18T08:42:44Z</time>
      </trkpt>
      <trkpt lat="48.84815" lon="-0.29976">
        <ele>111.8000031</ele>
        <time>2011-12-18T08:42:45Z</time>
      </trkpt>
      <trkpt lat="48.84813" lon="-0.2998">
        <ele>111.4000015</ele>
        <time>2011-12-18T08:42:46Z</time>
      </trkpt>
      <trkpt lat="48.84812" lon="-0.29984">
        <ele>110.4000015</ele>
        <time>2011-12-18T08:42:47Z</time>
      </trkpt>
      <trkpt lat="48.8481" lon="-0.29993">
        <ele>110.4000015</ele>
        <time>2011-12-18T08:42:49Z</time>
      </trkpt>
      <trkpt lat="48.84807" lon="-0.29999">
        <ele>110.4000015</ele>
        <time>2011-12-18T08:42:51Z</time>
      </trkpt>
      <trkpt lat="48.84807" lon="-0.29999">
        <ele>110.4000015</ele>
        <time>2011-12-18T08:42:52Z</time>
      </trkpt>
      <trkpt lat="48.84803" lon="-0.30009">
        <ele>110.4000015</ele>
        <time>2011-12-18T08:42:56Z</time>
      </trkpt>
      <trkpt lat="48.84802" lon="-0.30012">
        <ele>110.4000015</ele>
        <time>2011-12-18T08:42:57Z</time>
      </trkpt>
      <trkpt lat="48.848" lon="-0.30021">
        <ele>110.4000015</ele>
        <time>2011-12-18T08:43:00Z</time>
      </trkpt>
      <trkpt lat="48.84796" lon="-0.3003">
        <ele>110.4000015</ele>
        <time>2011-12-18T08:43:03Z</time>
      </trkpt>
      <trkpt lat="48.8479" lon="-0.30052">
        <ele>110.4000015</ele>
        <time>2011-12-18T08:43:10Z</time>
      </trkpt>
      <trkpt lat="48.84784" lon="-0.30075">
        <ele>110.4000015</ele>
        <time>2011-12-18T08:43:16Z</time>
      </trkpt>
      <trkpt lat="48.84785" lon="-0.30076">
        <ele>110.4000015</ele>
        <time>2011-12-18T08:43:17Z</time>
      </trkpt>
      <trkpt lat="48.84784" lon="-0.30086">
        <ele>110.4000015</ele>
        <time>2011-12-18T08:43:20Z</time>
      </trkpt>
      <trkpt lat="48.84783" lon="-0.30092">
        <ele>110.4000015</ele>
        <time>2011-12-18T08:43:22Z</time>
      </trkpt>
      <trkpt lat="48.84782" lon="-0.30108">
        <ele>110.4000015</ele>
        <time>2011-12-18T08:43:27Z</time>
      </trkpt>
      <trkpt lat="48.84781" lon="-0.30111">
        <ele>110.4000015</ele>
        <time>2011-12-18T08:43:28Z</time>
      </trkpt>
      <trkpt lat="48.8478" lon="-0.30124">
        <ele>110.4000015</ele>
        <time>2011-12-18T08:43:32Z</time>
      </trkpt>
      <trkpt lat="48.84776" lon="-0.30145">
        <ele>110.4000015</ele>
        <time>2011-12-18T08:43:38Z</time>
      </trkpt>
      <trkpt lat="48.84771" lon="-0.30174">
        <ele>110.4000015</ele>
        <time>2011-12-18T08:43:45Z</time>
      </trkpt>
      <trkpt lat="48.84769" lon="-0.30185">
        <ele>111</ele>
        <time>2011-12-18T08:43:48Z</time>
      </trkpt>
      <trkpt lat="48.84768" lon="-0.30189">
        <ele>111.4000015</ele>
        <time>2011-12-18T08:43:49Z</time>
      </trkpt>
      <trkpt lat="48.84768" lon="-0.30192">
        <ele>112</ele>
        <time>2011-12-18T08:43:50Z</time>
      </trkpt>
      <trkpt lat="48.84767" lon="-0.30196">
        <ele>112.4000015</ele>
        <time>2011-12-18T08:43:51Z</time>
      </trkpt>
      <trkpt lat="48.84767" lon="-0.302">
        <ele>112.8000031</ele>
        <time>2011-12-18T08:43:52Z</time>
      </trkpt>
      <trkpt lat="48.84764" lon="-0.30214">
        <ele>112.8000031</ele>
        <time>2011-12-18T08:43:57Z</time>
      </trkpt>
      <trkpt lat="48.8476" lon="-0.3023">
        <ele>112.8000031</ele>
        <time>2011-12-18T08:44:01Z</time>
      </trkpt>
      <trkpt lat="48.84756" lon="-0.30248">
        <ele>112.8000031</ele>
        <time>2011-12-18T08:44:07Z</time>
      </trkpt>
      <trkpt lat="48.84757" lon="-0.3025">
        <ele>112.8000031</ele>
        <time>2011-12-18T08:44:08Z</time>
      </trkpt>
      <trkpt lat="48.84757" lon="-0.3026">
        <ele>112.8000031</ele>
        <time>2011-12-18T08:44:12Z</time>
      </trkpt>
      <trkpt lat="48.84757" lon="-0.3027">
        <ele>112.8000031</ele>
        <time>2011-12-18T08:44:17Z</time>
      </trkpt>
      <trkpt lat="48.84757" lon="-0.30272">
        <ele>112.8000031</ele>
        <time>2011-12-18T08:44:18Z</time>
      </trkpt>
      <trkpt lat="48.84759" lon="-0.30287">
        <ele>112.8000031</ele>
        <time>2011-12-18T08:44:23Z</time>
      </trkpt>
      <trkpt lat="48.8476" lon="-0.30293">
        <ele>113</ele>
        <time>2011-12-18T08:44:25Z</time>
      </trkpt>
      <trkpt lat="48.8476" lon="-0.30295">
        <ele>114</ele>
        <time>2011-12-18T08:44:26Z</time>
      </trkpt>
      <trkpt lat="48.84761" lon="-0.30297">
        <ele>114.4000015</ele>
        <time>2011-12-18T08:44:27Z</time>
      </trkpt>
      <trkpt lat="48.84762" lon="-0.303">
        <ele>115</ele>
        <time>2011-12-18T08:44:28Z</time>
      </trkpt>
      <trkpt lat="48.84764" lon="-0.30302">
        <ele>115</ele>
        <time>2011-12-18T08:44:29Z</time>
      </trkpt>
      <trkpt lat="48.84767" lon="-0.3031">
        <ele>115</ele>
        <time>2011-12-18T08:44:32Z</time>
      </trkpt>
      <trkpt lat="48.84767" lon="-0.30314">
        <ele>115.4000015</ele>
        <time>2011-12-18T08:44:33Z</time>
      </trkpt>
      <trkpt lat="48.84768" lon="-0.30317">
        <ele>115.8000031</ele>
        <time>2011-12-18T08:44:34Z</time>
      </trkpt>
      <trkpt lat="48.84769" lon="-0.30319">
        <ele>116</ele>
        <time>2011-12-18T08:44:35Z</time>
      </trkpt>
      <trkpt lat="48.8477" lon="-0.30321">
        <ele>116.8000031</ele>
        <time>2011-12-18T08:44:36Z</time>
      </trkpt>
      <trkpt lat="48.84771" lon="-0.30324">
        <ele>117</ele>
        <time>2011-12-18T08:44:37Z</time>
      </trkpt>
      <trkpt lat="48.84775" lon="-0.30341">
        <ele>117</ele>
        <time>2011-12-18T08:44:42Z</time>
      </trkpt>
      <trkpt lat="48.84776" lon="-0.30344">
        <ele>117.4000015</ele>
        <time>2011-12-18T08:44:43Z</time>
      </trkpt>
      <trkpt lat="48.84777" lon="-0.30347">
        <ele>118</ele>
        <time>2011-12-18T08:44:44Z</time>
      </trkpt>
      <trkpt lat="48.84778" lon="-0.3035">
        <ele>118.4000015</ele>
        <time>2011-12-18T08:44:45Z</time>
      </trkpt>
      <trkpt lat="48.84779" lon="-0.30353">
        <ele>119</ele>
        <time>2011-12-18T08:44:46Z</time>
      </trkpt>
      <trkpt lat="48.8478" lon="-0.30357">
        <ele>119.4000015</ele>
        <time>2011-12-18T08:44:47Z</time>
      </trkpt>
      <trkpt lat="48.84784" lon="-0.30367">
        <ele>119.4000015</ele>
        <time>2011-12-18T08:44:50Z</time>
      </trkpt>
      <trkpt lat="48.84788" lon="-0.30382">
        <ele>119.4000015</ele>
        <time>2011-12-18T08:44:55Z</time>
      </trkpt>
      <trkpt lat="48.84791" lon="-0.30402">
        <ele>119.4000015</ele>
        <time>2011-12-18T08:45:01Z</time>
      </trkpt>
      <trkpt lat="48.84794" lon="-0.30426">
        <ele>119.4000015</ele>
        <time>2011-12-18T08:45:07Z</time>
      </trkpt>
      <trkpt lat="48.848" lon="-0.30453">
        <ele>119.4000015</ele>
        <time>2011-12-18T08:45:13Z</time>
      </trkpt>
      <trkpt lat="48.84801" lon="-0.30472">
        <ele>119.4000015</ele>
        <time>2011-12-18T08:45:18Z</time>
      </trkpt>
      <trkpt lat="48.84801" lon="-0.30478">
        <ele>119.4000015</ele>
        <time>2011-12-18T08:45:20Z</time>
      </trkpt>
      <trkpt lat="48.848" lon="-0.30486">
        <ele>119.4000015</ele>
        <time>2011-12-18T08:45:23Z</time>
      </trkpt>
      <trkpt lat="48.84797" lon="-0.30488">
        <ele>119.4000015</ele>
        <time>2011-12-18T08:45:25Z</time>
      </trkpt>
      <trkpt lat="48.84792" lon="-0.30491">
        <ele>119.4000015</ele>
        <time>2011-12-18T08:45:28Z</time>
      </trkpt>
      <trkpt lat="48.84789" lon="-0.30494">
        <ele>119.4000015</ele>
        <time>2011-12-18T08:45:30Z</time>
      </trkpt>
      <trkpt lat="48.84786" lon="-0.30496">
        <ele>119.4000015</ele>
        <time>2011-12-18T08:45:32Z</time>
      </trkpt>
      <trkpt lat="48.84783" lon="-0.30498">
        <ele>119.4000015</ele>
        <time>2011-12-18T08:45:34Z</time>
      </trkpt>
      <trkpt lat="48.84778" lon="-0.30501">
        <ele>119.4000015</ele>
        <time>2011-12-18T08:45:37Z</time>
      </trkpt>
      <trkpt lat="48.84777" lon="-0.30502">
        <ele>119.8000031</ele>
        <time>2011-12-18T08:45:38Z</time>
      </trkpt>
      <trkpt lat="48.84775" lon="-0.30503">
        <ele>120</ele>
        <time>2011-12-18T08:45:39Z</time>
      </trkpt>
      <trkpt lat="48.84774" lon="-0.30505">
        <ele>121</ele>
        <time>2011-12-18T08:45:40Z</time>
      </trkpt>
      <trkpt lat="48.84772" lon="-0.30507">
        <ele>121.4000015</ele>
        <time>2011-12-18T08:45:41Z</time>
      </trkpt>
      <trkpt lat="48.84772" lon="-0.30507">
        <ele>121.4000015</ele>
        <time>2011-12-18T08:45:43Z</time>
      </trkpt>
      <trkpt lat="48.8477" lon="-0.3051">
        <ele>121.4000015</ele>
        <time>2011-12-18T08:45:55Z</time>
      </trkpt>
      <trkpt lat="48.84764" lon="-0.30516">
        <ele>121.4000015</ele>
        <time>2011-12-18T08:45:58Z</time>
      </trkpt>
      <trkpt lat="48.84762" lon="-0.30517">
        <ele>121.8000031</ele>
        <time>2011-12-18T08:45:59Z</time>
      </trkpt>
      <trkpt lat="48.84761" lon="-0.3052">
        <ele>122</ele>
        <time>2011-12-18T08:46:00Z</time>
      </trkpt>
      <trkpt lat="48.84759" lon="-0.30524">
        <ele>122.4000015</ele>
        <time>2011-12-18T08:46:01Z</time>
      </trkpt>
      <trkpt lat="48.84758" lon="-0.30527">
        <ele>123</ele>
        <time>2011-12-18T08:46:02Z</time>
      </trkpt>
      <trkpt lat="48.84757" lon="-0.3053">
        <ele>123.4000015</ele>
        <time>2011-12-18T08:46:03Z</time>
      </trkpt>
      <trkpt lat="48.84753" lon="-0.30545">
        <ele>123.4000015</ele>
        <time>2011-12-18T08:46:07Z</time>
      </trkpt>
      <trkpt lat="48.8475" lon="-0.30554">
        <ele>123.4000015</ele>
        <time>2011-12-18T08:46:09Z</time>
      </trkpt>
      <trkpt lat="48.84743" lon="-0.30578">
        <ele>123.4000015</ele>
        <time>2011-12-18T08:46:16Z</time>
      </trkpt>
      <trkpt lat="48.84745" lon="-0.30585">
        <ele>123.4000015</ele>
        <time>2011-12-18T08:46:18Z</time>
      </trkpt>
      <trkpt lat="48.84747" lon="-0.30587">
        <ele>123.4000015</ele>
        <time>2011-12-18T08:46:19Z</time>
      </trkpt>
      <trkpt lat="48.8475" lon="-0.30588">
        <ele>123.4000015</ele>
        <time>2011-12-18T08:46:20Z</time>
      </trkpt>
      <trkpt lat="48.84759" lon="-0.30595">
        <ele>123.4000015</ele>
        <time>2011-12-18T08:46:23Z</time>
      </trkpt>
      <trkpt lat="48.84761" lon="-0.30598">
        <ele>123</ele>
        <time>2011-12-18T08:46:24Z</time>
      </trkpt>
      <trkpt lat="48.84761" lon="-0.30602">
        <ele>122.4000015</ele>
        <time>2011-12-18T08:46:25Z</time>
      </trkpt>
      <trkpt lat="48.84762" lon="-0.30604">
        <ele>122</ele>
        <time>2011-12-18T08:46:26Z</time>
      </trkpt>
      <trkpt lat="48.84763" lon="-0.30605">
        <ele>121.8000031</ele>
        <time>2011-12-18T08:46:27Z</time>
      </trkpt>
      <trkpt lat="48.84762" lon="-0.30605">
        <ele>121.4000015</ele>
        <time>2011-12-18T08:46:28Z</time>
      </trkpt>
      <trkpt lat="48.84761" lon="-0.30611">
        <ele>121.4000015</ele>
        <time>2011-12-18T08:48:07Z</time>
      </trkpt>
      <trkpt lat="48.8476" lon="-0.30613">
        <ele>121.4000015</ele>
        <time>2011-12-18T08:48:08Z</time>
      </trkpt>
      <trkpt lat="48.84754" lon="-0.30626">
        <ele>121.4000015</ele>
        <time>2011-12-18T08:48:12Z</time>
      </trkpt>
      <trkpt lat="48.84742" lon="-0.30642">
        <ele>121.4000015</ele>
        <time>2011-12-18T08:48:17Z</time>
      </trkpt>
      <trkpt lat="48.8474" lon="-0.30646">
        <ele>121.4000015</ele>
        <time>2011-12-18T08:48:18Z</time>
      </trkpt>
      <trkpt lat="48.84728" lon="-0.30662">
        <ele>121.4000015</ele>
        <time>2011-12-18T08:48:23Z</time>
      </trkpt>
      <trkpt lat="48.84726" lon="-0.30666">
        <ele>121.4000015</ele>
        <time>2011-12-18T08:48:24Z</time>
      </trkpt>
      <trkpt lat="48.84722" lon="-0.30673">
        <ele>121.4000015</ele>
        <time>2011-12-18T08:48:26Z</time>
      </trkpt>
      <trkpt lat="48.84712" lon="-0.30689">
        <ele>121.4000015</ele>
        <time>2011-12-18T08:48:30Z</time>
      </trkpt>
      <trkpt lat="48.84703" lon="-0.30702">
        <ele>121.4000015</ele>
        <time>2011-12-18T08:48:34Z</time>
      </trkpt>
      <trkpt lat="48.84696" lon="-0.30714">
        <ele>121.4000015</ele>
        <time>2011-12-18T08:48:37Z</time>
      </trkpt>
      <trkpt lat="48.84688" lon="-0.30731">
        <ele>121.4000015</ele>
        <time>2011-12-18T08:48:41Z</time>
      </trkpt>
      <trkpt lat="48.84681" lon="-0.30748">
        <ele>121.4000015</ele>
        <time>2011-12-18T08:48:45Z</time>
      </trkpt>
      <trkpt lat="48.84669" lon="-0.30777">
        <ele>121.4000015</ele>
        <time>2011-12-18T08:48:51Z</time>
      </trkpt>
      <trkpt lat="48.84651" lon="-0.30812">
        <ele>121.4000015</ele>
        <time>2011-12-18T08:48:58Z</time>
      </trkpt>
      <trkpt lat="48.84631" lon="-0.30847">
        <ele>121.4000015</ele>
        <time>2011-12-18T08:49:06Z</time>
      </trkpt>
      <trkpt lat="48.84625" lon="-0.30857">
        <ele>121.4000015</ele>
        <time>2011-12-18T08:49:08Z</time>
      </trkpt>
      <trkpt lat="48.84616" lon="-0.3087">
        <ele>121</ele>
        <time>2011-12-18T08:49:11Z</time>
      </trkpt>
      <trkpt lat="48.84614" lon="-0.30875">
        <ele>120.4000015</ele>
        <time>2011-12-18T08:49:12Z</time>
      </trkpt>
      <trkpt lat="48.84611" lon="-0.3088">
        <ele>120</ele>
        <time>2011-12-18T08:49:13Z</time>
      </trkpt>
      <trkpt lat="48.84609" lon="-0.30885">
        <ele>119.8000031</ele>
        <time>2011-12-18T08:49:14Z</time>
      </trkpt>
      <trkpt lat="48.84606" lon="-0.3089">
        <ele>119.4000015</ele>
        <time>2011-12-18T08:49:15Z</time>
      </trkpt>
      <trkpt lat="48.8459" lon="-0.30923">
        <ele>119.4000015</ele>
        <time>2011-12-18T08:49:21Z</time>
      </trkpt>
      <trkpt lat="48.84577" lon="-0.30942">
        <ele>119</ele>
        <time>2011-12-18T08:49:25Z</time>
      </trkpt>
      <trkpt lat="48.84574" lon="-0.30947">
        <ele>118.4000015</ele>
        <time>2011-12-18T08:49:26Z</time>
      </trkpt>
      <trkpt lat="48.84571" lon="-0.30952">
        <ele>118</ele>
        <time>2011-12-18T08:49:27Z</time>
      </trkpt>
      <trkpt lat="48.84567" lon="-0.30956">
        <ele>117.8000031</ele>
        <time>2011-12-18T08:49:28Z</time>
      </trkpt>
      <trkpt lat="48.84564" lon="-0.30961">
        <ele>117.4000015</ele>
        <time>2011-12-18T08:49:29Z</time>
      </trkpt>
      <trkpt lat="48.84547" lon="-0.30981">
        <ele>117.4000015</ele>
        <time>2011-12-18T08:49:34Z</time>
      </trkpt>
      <trkpt lat="48.84523" lon="-0.31001">
        <ele>117.4000015</ele>
        <time>2011-12-18T08:49:40Z</time>
      </trkpt>
      <trkpt lat="48.84519" lon="-0.31005">
        <ele>117.4000015</ele>
        <time>2011-12-18T08:49:41Z</time>
      </trkpt>
      <trkpt lat="48.8451" lon="-0.31021">
        <ele>117.4000015</ele>
        <time>2011-12-18T08:49:45Z</time>
      </trkpt>
      <trkpt lat="48.84504" lon="-0.31027">
        <ele>117.4000015</ele>
        <time>2011-12-18T08:49:47Z</time>
      </trkpt>
      <trkpt lat="48.84496" lon="-0.31033">
        <ele>117.8000031</ele>
        <time>2011-12-18T08:49:50Z</time>
      </trkpt>
      <trkpt lat="48.84494" lon="-0.31035">
        <ele>118</ele>
        <time>2011-12-18T08:49:51Z</time>
      </trkpt>
      <trkpt lat="48.84492" lon="-0.31037">
        <ele>118.4000015</ele>
        <time>2011-12-18T08:49:52Z</time>
      </trkpt>
      <trkpt lat="48.8449" lon="-0.31039">
        <ele>119</ele>
        <time>2011-12-18T08:49:53Z</time>
      </trkpt>
      <trkpt lat="48.84487" lon="-0.31041">
        <ele>119.4000015</ele>
        <time>2011-12-18T08:49:54Z</time>
      </trkpt>
      <trkpt lat="48.84482" lon="-0.31045">
        <ele>119.4000015</ele>
        <time>2011-12-18T08:49:56Z</time>
      </trkpt>
      <trkpt lat="48.84472" lon="-0.31052">
        <ele>119.4000015</ele>
        <time>2011-12-18T08:49:59Z</time>
      </trkpt>
      <trkpt lat="48.84465" lon="-0.31057">
        <ele>119.4000015</ele>
        <time>2011-12-18T08:50:02Z</time>
      </trkpt>
      <trkpt lat="48.8445" lon="-0.31071">
        <ele>119.4000015</ele>
        <time>2011-12-18T08:50:08Z</time>
      </trkpt>
      <trkpt lat="48.84441" lon="-0.31079">
        <ele>119.8000031</ele>
        <time>2011-12-18T08:50:11Z</time>
      </trkpt>
      <trkpt lat="48.84438" lon="-0.31082">
        <ele>120.4000015</ele>
        <time>2011-12-18T08:50:12Z</time>
      </trkpt>
      <trkpt lat="48.84435" lon="-0.31084">
        <ele>121</ele>
        <time>2011-12-18T08:50:13Z</time>
      </trkpt>
      <trkpt lat="48.84433" lon="-0.31087">
        <ele>121.4000015</ele>
        <time>2011-12-18T08:50:14Z</time>
      </trkpt>
      <trkpt lat="48.84418" lon="-0.31104">
        <ele>121.4000015</ele>
        <time>2011-12-18T08:50:19Z</time>
      </trkpt>
      <trkpt lat="48.84404" lon="-0.31118">
        <ele>121.4000015</ele>
        <time>2011-12-18T08:50:24Z</time>
      </trkpt>
      <trkpt lat="48.84386" lon="-0.31138">
        <ele>121.4000015</ele>
        <time>2011-12-18T08:50:31Z</time>
      </trkpt>
      <trkpt lat="48.84366" lon="-0.31157">
        <ele>121.4000015</ele>
        <time>2011-12-18T08:50:38Z</time>
      </trkpt>
      <trkpt lat="48.84348" lon="-0.31176">
        <ele>121.4000015</ele>
        <time>2011-12-18T08:50:45Z</time>
      </trkpt>
      <trkpt lat="48.84338" lon="-0.31185">
        <ele>121.4000015</ele>
        <time>2011-12-18T08:50:49Z</time>
      </trkpt>
      <trkpt lat="48.84333" lon="-0.31192">
        <ele>121.4000015</ele>
        <time>2011-12-18T08:50:51Z</time>
      </trkpt>
      <trkpt lat="48.8433" lon="-0.31196">
        <ele>121.4000015</ele>
        <time>2011-12-18T08:50:52Z</time>
      </trkpt>
      <trkpt lat="48.84325" lon="-0.31201">
        <ele>121.4000015</ele>
        <time>2011-12-18T08:50:54Z</time>
      </trkpt>
      <trkpt lat="48.8432" lon="-0.31213">
        <ele>121.4000015</ele>
        <time>2011-12-18T08:50:57Z</time>
      </trkpt>
      <trkpt lat="48.84313" lon="-0.31229">
        <ele>121.4000015</ele>
        <time>2011-12-18T08:51:00Z</time>
      </trkpt>
      <trkpt lat="48.8431" lon="-0.31235">
        <ele>120.4000015</ele>
        <time>2011-12-18T08:51:01Z</time>
      </trkpt>
      <trkpt lat="48.84308" lon="-0.31242">
        <ele>120</ele>
        <time>2011-12-18T08:51:02Z</time>
      </trkpt>
      <trkpt lat="48.84306" lon="-0.31249">
        <ele>119.8000031</ele>
        <time>2011-12-18T08:51:03Z</time>
      </trkpt>
      <trkpt lat="48.84303" lon="-0.31255">
        <ele>119.4000015</ele>
        <time>2011-12-18T08:51:04Z</time>
      </trkpt>
      <trkpt lat="48.84299" lon="-0.3127">
        <ele>119.4000015</ele>
        <time>2011-12-18T08:51:06Z</time>
      </trkpt>
      <trkpt lat="48.84296" lon="-0.31285">
        <ele>119.4000015</ele>
        <time>2011-12-18T08:51:08Z</time>
      </trkpt>
      <trkpt lat="48.84295" lon="-0.31293">
        <ele>119</ele>
        <time>2011-12-18T08:51:09Z</time>
      </trkpt>
      <trkpt lat="48.84295" lon="-0.313">
        <ele>118.4000015</ele>
        <time>2011-12-18T08:51:10Z</time>
      </trkpt>
      <trkpt lat="48.84294" lon="-0.31308">
        <ele>118</ele>
        <time>2011-12-18T08:51:11Z</time>
      </trkpt>
      <trkpt lat="48.84294" lon="-0.31315">
        <ele>117.4000015</ele>
        <time>2011-12-18T08:51:12Z</time>
      </trkpt>
      <trkpt lat="48.84293" lon="-0.31323">
        <ele>117</ele>
        <time>2011-12-18T08:51:13Z</time>
      </trkpt>
      <trkpt lat="48.84291" lon="-0.31339">
        <ele>117</ele>
        <time>2011-12-18T08:51:15Z</time>
      </trkpt>
      <trkpt lat="48.84291" lon="-0.31353">
        <ele>116.8000031</ele>
        <time>2011-12-18T08:51:17Z</time>
      </trkpt>
      <trkpt lat="48.84292" lon="-0.31359">
        <ele>116.4000015</ele>
        <time>2011-12-18T08:51:18Z</time>
      </trkpt>
      <trkpt lat="48.84293" lon="-0.31366">
        <ele>116</ele>
        <time>2011-12-18T08:51:19Z</time>
      </trkpt>
      <trkpt lat="48.84295" lon="-0.31372">
        <ele>115.4000015</ele>
        <time>2011-12-18T08:51:20Z</time>
      </trkpt>
      <trkpt lat="48.84298" lon="-0.31379">
        <ele>115</ele>
        <time>2011-12-18T08:51:21Z</time>
      </trkpt>
      <trkpt lat="48.84301" lon="-0.31385">
        <ele>114.8000031</ele>
        <time>2011-12-18T08:51:22Z</time>
      </trkpt>
      <trkpt lat="48.84304" lon="-0.31391">
        <ele>114.4000015</ele>
        <time>2011-12-18T08:51:23Z</time>
      </trkpt>
      <trkpt lat="48.84308" lon="-0.31396">
        <ele>114</ele>
        <time>2011-12-18T08:51:24Z</time>
      </trkpt>
      <trkpt lat="48.84313" lon="-0.31401">
        <ele>113.4000015</ele>
        <time>2011-12-18T08:51:25Z</time>
      </trkpt>
      <trkpt lat="48.84318" lon="-0.31405">
        <ele>112.4000015</ele>
        <time>2011-12-18T08:51:26Z</time>
      </trkpt>
      <trkpt lat="48.84323" lon="-0.31408">
        <ele>112</ele>
        <time>2011-12-18T08:51:27Z</time>
      </trkpt>
      <trkpt lat="48.84328" lon="-0.3141">
        <ele>111.8000031</ele>
        <time>2011-12-18T08:51:28Z</time>
      </trkpt>
      <trkpt lat="48.84333" lon="-0.3141">
        <ele>111.4000015</ele>
        <time>2011-12-18T08:51:29Z</time>
      </trkpt>
      <trkpt lat="48.84337" lon="-0.31411">
        <ele>111</ele>
        <time>2011-12-18T08:51:30Z</time>
      </trkpt>
      <trkpt lat="48.8434" lon="-0.31411">
        <ele>110.4000015</ele>
        <time>2011-12-18T08:51:31Z</time>
      </trkpt>
      <trkpt lat="48.84343" lon="-0.31411">
        <ele>110</ele>
        <time>2011-12-18T08:51:32Z</time>
      </trkpt>
      <trkpt lat="48.84346" lon="-0.31412">
        <ele>109.4000015</ele>
        <time>2011-12-18T08:51:33Z</time>
      </trkpt>
      <trkpt lat="48.84347" lon="-0.31412">
        <ele>109</ele>
        <time>2011-12-18T08:51:34Z</time>
      </trkpt>
      <trkpt lat="48.84348" lon="-0.31413">
        <ele>108.8000031</ele>
        <time>2011-12-18T08:51:35Z</time>
      </trkpt>
      <trkpt lat="48.84349" lon="-0.31414">
        <ele>108.8000031</ele>
        <time>2011-12-18T08:51:38Z</time>
      </trkpt>
      <trkpt lat="48.84351" lon="-0.31417">
        <ele>108.8000031</ele>
        <time>2011-12-18T08:51:50Z</time>
      </trkpt>
      <trkpt lat="48.84352" lon="-0.3142">
        <ele>108.8000031</ele>
        <time>2011-12-18T08:51:51Z</time>
      </trkpt>
      <trkpt lat="48.84354" lon="-0.31423">
        <ele>108.4000015</ele>
        <time>2011-12-18T08:51:52Z</time>
      </trkpt>
      <trkpt lat="48.84356" lon="-0.31428">
        <ele>108</ele>
        <time>2011-12-18T08:51:53Z</time>
      </trkpt>
      <trkpt lat="48.84358" lon="-0.31432">
        <ele>107.4000015</ele>
        <time>2011-12-18T08:51:54Z</time>
      </trkpt>
      <trkpt lat="48.84359" lon="-0.31436">
        <ele>107</ele>
        <time>2011-12-18T08:51:55Z</time>
      </trkpt>
      <trkpt lat="48.84362" lon="-0.3144">
        <ele>106.8000031</ele>
        <time>2011-12-18T08:51:56Z</time>
      </trkpt>
      <trkpt lat="48.84364" lon="-0.31444">
        <ele>106.8000031</ele>
        <time>2011-12-18T08:51:57Z</time>
      </trkpt>
      <trkpt lat="48.84367" lon="-0.31448">
        <ele>106.4000015</ele>
        <time>2011-12-18T08:51:58Z</time>
      </trkpt>
      <trkpt lat="48.8437" lon="-0.3145">
        <ele>105.8000031</ele>
        <time>2011-12-18T08:51:59Z</time>
      </trkpt>
      <trkpt lat="48.84373" lon="-0.31452">
        <ele>105.4000015</ele>
        <time>2011-12-18T08:52:00Z</time>
      </trkpt>
      <trkpt lat="48.84377" lon="-0.31454">
        <ele>104.8000031</ele>
        <time>2011-12-18T08:52:01Z</time>
      </trkpt>
      <trkpt lat="48.8438" lon="-0.31456">
        <ele>104.4000015</ele>
        <time>2011-12-18T08:52:02Z</time>
      </trkpt>
      <trkpt lat="48.84384" lon="-0.31459">
        <ele>104.4000015</ele>
        <time>2011-12-18T08:52:03Z</time>
      </trkpt>
      <trkpt lat="48.84392" lon="-0.31464">
        <ele>104</ele>
        <time>2011-12-18T08:52:05Z</time>
      </trkpt>
      <trkpt lat="48.84396" lon="-0.31467">
        <ele>103.4000015</ele>
        <time>2011-12-18T08:52:06Z</time>
      </trkpt>
      <trkpt lat="48.84399" lon="-0.3147">
        <ele>103</ele>
        <time>2011-12-18T08:52:07Z</time>
      </trkpt>
      <trkpt lat="48.84402" lon="-0.31473">
        <ele>102.4000015</ele>
        <time>2011-12-18T08:52:08Z</time>
      </trkpt>
      <trkpt lat="48.84403" lon="-0.31476">
        <ele>102</ele>
        <time>2011-12-18T08:52:09Z</time>
      </trkpt>
      <trkpt lat="48.84403" lon="-0.31479">
        <ele>102</ele>
        <time>2011-12-18T08:52:10Z</time>
      </trkpt>
      <trkpt lat="48.84404" lon="-0.31489">
        <ele>102</ele>
        <time>2011-12-18T08:52:13Z</time>
      </trkpt>
      <trkpt lat="48.84404" lon="-0.31493">
        <ele>101</ele>
        <time>2011-12-18T08:52:14Z</time>
      </trkpt>
      <trkpt lat="48.84403" lon="-0.31496">
        <ele>100.8000031</ele>
        <time>2011-12-18T08:52:15Z</time>
      </trkpt>
      <trkpt lat="48.84403" lon="-0.31499">
        <ele>100.4000015</ele>
        <time>2011-12-18T08:52:16Z</time>
      </trkpt>
      <trkpt lat="48.84403" lon="-0.31501">
        <ele>100</ele>
        <time>2011-12-18T08:52:17Z</time>
      </trkpt>
      <trkpt lat="48.84403" lon="-0.31503">
        <ele>100</ele>
        <time>2011-12-18T08:52:18Z</time>
      </trkpt>
      <trkpt lat="48.84403" lon="-0.31507">
        <ele>100</ele>
        <time>2011-12-18T08:52:20Z</time>
      </trkpt>
      <trkpt lat="48.84403" lon="-0.31509">
        <ele>100</ele>
        <time>2011-12-18T08:52:21Z</time>
      </trkpt>
      <trkpt lat="48.84403" lon="-0.31514">
        <ele>100</ele>
        <time>2011-12-18T08:52:23Z</time>
      </trkpt>
      <trkpt lat="48.84402" lon="-0.31519">
        <ele>100</ele>
        <time>2011-12-18T08:52:26Z</time>
      </trkpt>
      <trkpt lat="48.84407" lon="-0.31546">
        <ele>100</ele>
        <time>2011-12-18T08:52:57Z</time>
      </trkpt>
      <trkpt lat="48.84407" lon="-0.31549">
        <ele>100</ele>
        <time>2011-12-18T08:52:58Z</time>
      </trkpt>
      <trkpt lat="48.84408" lon="-0.31553">
        <ele>100</ele>
        <time>2011-12-18T08:53:00Z</time>
      </trkpt>
      <trkpt lat="48.84409" lon="-0.31558">
        <ele>100</ele>
        <time>2011-12-18T08:54:09Z</time>
      </trkpt>
      <trkpt lat="48.8441" lon="-0.31563">
        <ele>100</ele>
        <time>2011-12-18T08:54:11Z</time>
      </trkpt>
      <trkpt lat="48.8441" lon="-0.31566">
        <ele>100</ele>
        <time>2011-12-18T08:54:12Z</time>
      </trkpt>
      <trkpt lat="48.84412" lon="-0.31575">
        <ele>100</ele>
        <time>2011-12-18T08:54:15Z</time>
      </trkpt>
      <trkpt lat="48.84415" lon="-0.31587">
        <ele>100</ele>
        <time>2011-12-18T08:54:19Z</time>
      </trkpt>
      <trkpt lat="48.84416" lon="-0.31592">
        <ele>100</ele>
        <time>2011-12-18T08:54:21Z</time>
      </trkpt>
      <trkpt lat="48.84417" lon="-0.31598">
        <ele>100</ele>
        <time>2011-12-18T08:54:23Z</time>
      </trkpt>
      <trkpt lat="48.84418" lon="-0.31604">
        <ele>100</ele>
        <time>2011-12-18T08:54:25Z</time>
      </trkpt>
      <trkpt lat="48.84418" lon="-0.31607">
        <ele>100.4000015</ele>
        <time>2011-12-18T08:54:26Z</time>
      </trkpt>
      <trkpt lat="48.84418" lon="-0.3161">
        <ele>100.8000031</ele>
        <time>2011-12-18T08:54:27Z</time>
      </trkpt>
      <trkpt lat="48.84418" lon="-0.31613">
        <ele>101</ele>
        <time>2011-12-18T08:54:28Z</time>
      </trkpt>
      <trkpt lat="48.84417" lon="-0.31616">
        <ele>101.4000015</ele>
        <time>2011-12-18T08:54:29Z</time>
      </trkpt>
      <trkpt lat="48.84416" lon="-0.31618">
        <ele>102</ele>
        <time>2011-12-18T08:54:30Z</time>
      </trkpt>
      <trkpt lat="48.84414" lon="-0.31623">
        <ele>102</ele>
        <time>2011-12-18T08:54:32Z</time>
      </trkpt>
      <trkpt lat="48.84412" lon="-0.31627">
        <ele>102</ele>
        <time>2011-12-18T08:54:34Z</time>
      </trkpt>
      <trkpt lat="48.8441" lon="-0.31631">
        <ele>102.4000015</ele>
        <time>2011-12-18T08:54:36Z</time>
      </trkpt>
      <trkpt lat="48.84409" lon="-0.31633">
        <ele>102.8000031</ele>
        <time>2011-12-18T08:54:37Z</time>
      </trkpt>
      <trkpt lat="48.84408" lon="-0.31635">
        <ele>103</ele>
        <time>2011-12-18T08:54:38Z</time>
      </trkpt>
      <trkpt lat="48.84407" lon="-0.31637">
        <ele>103.8000031</ele>
        <time>2011-12-18T08:54:39Z</time>
      </trkpt>
      <trkpt lat="48.84406" lon="-0.31638">
        <ele>104</ele>
        <time>2011-12-18T08:54:40Z</time>
      </trkpt>
      <trkpt lat="48.84403" lon="-0.31643">
        <ele>104</ele>
        <time>2011-12-18T08:54:43Z</time>
      </trkpt>
      <trkpt lat="48.84402" lon="-0.31644">
        <ele>104.4000015</ele>
        <time>2011-12-18T08:54:44Z</time>
      </trkpt>
      <trkpt lat="48.844" lon="-0.31646">
        <ele>105</ele>
        <time>2011-12-18T08:54:45Z</time>
      </trkpt>
      <trkpt lat="48.84399" lon="-0.31648">
        <ele>105.4000015</ele>
        <time>2011-12-18T08:54:46Z</time>
      </trkpt>
      <trkpt lat="48.84398" lon="-0.31651">
        <ele>105.8000031</ele>
        <time>2011-12-18T08:54:47Z</time>
      </trkpt>
      <trkpt lat="48.84397" lon="-0.31653">
        <ele>106</ele>
        <time>2011-12-18T08:54:48Z</time>
      </trkpt>
      <trkpt lat="48.84395" lon="-0.31659">
        <ele>106</ele>
        <time>2011-12-18T08:54:50Z</time>
      </trkpt>
      <trkpt lat="48.84394" lon="-0.31664">
        <ele>106</ele>
        <time>2011-12-18T08:54:52Z</time>
      </trkpt>
      <trkpt lat="48.84393" lon="-0.31667">
        <ele>106.4000015</ele>
        <time>2011-12-18T08:54:53Z</time>
      </trkpt>
      <trkpt lat="48.84392" lon="-0.31669">
        <ele>107</ele>
        <time>2011-12-18T08:54:54Z</time>
      </trkpt>
      <trkpt lat="48.84391" lon="-0.31671">
        <ele>107.4000015</ele>
        <time>2011-12-18T08:54:55Z</time>
      </trkpt>
      <trkpt lat="48.84391" lon="-0.31674">
        <ele>108</ele>
        <time>2011-12-18T08:54:56Z</time>
      </trkpt>
      <trkpt lat="48.8439" lon="-0.31677">
        <ele>108.4000015</ele>
        <time>2011-12-18T08:54:57Z</time>
      </trkpt>
      <trkpt lat="48.8439" lon="-0.31685">
        <ele>108.4000015</ele>
        <time>2011-12-18T08:55:00Z</time>
      </trkpt>
      <trkpt lat="48.8439" lon="-0.31687">
        <ele>109</ele>
        <time>2011-12-18T08:55:01Z</time>
      </trkpt>
      <trkpt lat="48.8439" lon="-0.3169">
        <ele>109.4000015</ele>
        <time>2011-12-18T08:55:02Z</time>
      </trkpt>
      <trkpt lat="48.8439" lon="-0.31692">
        <ele>109.8000031</ele>
        <time>2011-12-18T08:55:03Z</time>
      </trkpt>
      <trkpt lat="48.8439" lon="-0.31695">
        <ele>110</ele>
        <time>2011-12-18T08:55:04Z</time>
      </trkpt>
      <trkpt lat="48.84391" lon="-0.31698">
        <ele>110.4000015</ele>
        <time>2011-12-18T08:55:05Z</time>
      </trkpt>
      <trkpt lat="48.84392" lon="-0.31709">
        <ele>110.4000015</ele>
        <time>2011-12-18T08:55:09Z</time>
      </trkpt>
      <trkpt lat="48.844" lon="-0.31709">
        <ele>112.4000015</ele>
        <time>2011-12-18T08:56:29Z</time>
      </trkpt>
      <trkpt lat="48.84416" lon="-0.31692">
        <ele>112.4000015</ele>
        <time>2011-12-18T08:56:35Z</time>
      </trkpt>
      <trkpt lat="48.8443" lon="-0.31681">
        <ele>113</ele>
        <time>2011-12-18T08:56:40Z</time>
      </trkpt>
      <trkpt lat="48.84432" lon="-0.3168">
        <ele>113.8000031</ele>
        <time>2011-12-18T08:56:41Z</time>
      </trkpt>
      <trkpt lat="48.84435" lon="-0.3168">
        <ele>114.4000015</ele>
        <time>2011-12-18T08:56:42Z</time>
      </trkpt>
      <trkpt lat="48.84439" lon="-0.31681">
        <ele>115</ele>
        <time>2011-12-18T08:56:43Z</time>
      </trkpt>
      <trkpt lat="48.84442" lon="-0.31683">
        <ele>115.8000031</ele>
        <time>2011-12-18T08:56:44Z</time>
      </trkpt>
      <trkpt lat="48.84445" lon="-0.31685">
        <ele>115.8000031</ele>
        <time>2011-12-18T08:56:45Z</time>
      </trkpt>
      <trkpt lat="48.8445" lon="-0.31689">
        <ele>116</ele>
        <time>2011-12-18T08:56:47Z</time>
      </trkpt>
      <trkpt lat="48.84453" lon="-0.31691">
        <ele>116.4000015</ele>
        <time>2011-12-18T08:56:48Z</time>
      </trkpt>
      <trkpt lat="48.84456" lon="-0.31694">
        <ele>117</ele>
        <time>2011-12-18T08:56:49Z</time>
      </trkpt>
      <trkpt lat="48.84458" lon="-0.31696">
        <ele>117.4000015</ele>
        <time>2011-12-18T08:56:50Z</time>
      </trkpt>
      <trkpt lat="48.84461" lon="-0.31698">
        <ele>117.8000031</ele>
        <time>2011-12-18T08:56:51Z</time>
      </trkpt>
      <trkpt lat="48.84467" lon="-0.31704">
        <ele>118</ele>
        <time>2011-12-18T08:56:54Z</time>
      </trkpt>
      <trkpt lat="48.8447" lon="-0.31706">
        <ele>118.8000031</ele>
        <time>2011-12-18T08:56:55Z</time>
      </trkpt>
      <trkpt lat="48.84472" lon="-0.31708">
        <ele>119</ele>
        <time>2011-12-18T08:56:56Z</time>
      </trkpt>
      <trkpt lat="48.84474" lon="-0.31709">
        <ele>119.8000031</ele>
        <time>2011-12-18T08:56:57Z</time>
      </trkpt>
      <trkpt lat="48.84476" lon="-0.31711">
        <ele>120</ele>
        <time>2011-12-18T08:56:58Z</time>
      </trkpt>
      <trkpt lat="48.84484" lon="-0.31716">
        <ele>120</ele>
        <time>2011-12-18T08:57:01Z</time>
      </trkpt>
      <trkpt lat="48.84497" lon="-0.31726">
        <ele>120.4000015</ele>
        <time>2011-12-18T08:57:07Z</time>
      </trkpt>
      <trkpt lat="48.84498" lon="-0.31728">
        <ele>121</ele>
        <time>2011-12-18T08:57:08Z</time>
      </trkpt>
      <trkpt lat="48.845" lon="-0.31731">
        <ele>121.4000015</ele>
        <time>2011-12-18T08:57:09Z</time>
      </trkpt>
      <trkpt lat="48.84502" lon="-0.31733">
        <ele>122</ele>
        <time>2011-12-18T08:57:10Z</time>
      </trkpt>
      <trkpt lat="48.84503" lon="-0.31736">
        <ele>122.4000015</ele>
        <time>2011-12-18T08:57:11Z</time>
      </trkpt>
      <trkpt lat="48.84511" lon="-0.3175">
        <ele>122.8000031</ele>
        <time>2011-12-18T08:57:16Z</time>
      </trkpt>
      <trkpt lat="48.84512" lon="-0.31753">
        <ele>123</ele>
        <time>2011-12-18T08:57:17Z</time>
      </trkpt>
      <trkpt lat="48.84514" lon="-0.31757">
        <ele>123.8000031</ele>
        <time>2011-12-18T08:57:18Z</time>
      </trkpt>
      <trkpt lat="48.84515" lon="-0.31761">
        <ele>124</ele>
        <time>2011-12-18T08:57:19Z</time>
      </trkpt>
      <trkpt lat="48.84516" lon="-0.31764">
        <ele>124.4000015</ele>
        <time>2011-12-18T08:57:20Z</time>
      </trkpt>
      <trkpt lat="48.8452" lon="-0.31776">
        <ele>124.4000015</ele>
        <time>2011-12-18T08:57:23Z</time>
      </trkpt>
      <trkpt lat="48.84522" lon="-0.31779">
        <ele>124.4000015</ele>
        <time>2011-12-18T08:57:24Z</time>
      </trkpt>
      <trkpt lat="48.84527" lon="-0.31789">
        <ele>125</ele>
        <time>2011-12-18T08:57:27Z</time>
      </trkpt>
      <trkpt lat="48.84529" lon="-0.31791">
        <ele>125.4000015</ele>
        <time>2011-12-18T08:57:28Z</time>
      </trkpt>
      <trkpt lat="48.84531" lon="-0.31794">
        <ele>125.8000031</ele>
        <time>2011-12-18T08:57:29Z</time>
      </trkpt>
      <trkpt lat="48.84533" lon="-0.31797">
        <ele>126</ele>
        <time>2011-12-18T08:57:30Z</time>
      </trkpt>
      <trkpt lat="48.84535" lon="-0.318">
        <ele>126.4000015</ele>
        <time>2011-12-18T08:57:31Z</time>
      </trkpt>
      <trkpt lat="48.84543" lon="-0.31814">
        <ele>127</ele>
        <time>2011-12-18T08:57:36Z</time>
      </trkpt>
      <trkpt lat="48.84545" lon="-0.31816">
        <ele>127.4000015</ele>
        <time>2011-12-18T08:57:37Z</time>
      </trkpt>
      <trkpt lat="48.84547" lon="-0.31818">
        <ele>128</ele>
        <time>2011-12-18T08:57:38Z</time>
      </trkpt>
      <trkpt lat="48.84549" lon="-0.3182">
        <ele>128.1999969</ele>
        <time>2011-12-18T08:57:39Z</time>
      </trkpt>
      <trkpt lat="48.84551" lon="-0.31823">
        <ele>128.8000031</ele>
        <time>2011-12-18T08:57:40Z</time>
      </trkpt>
      <trkpt lat="48.84561" lon="-0.31837">
        <ele>128.8000031</ele>
        <time>2011-12-18T08:57:45Z</time>
      </trkpt>
      <trkpt lat="48.84563" lon="-0.31839">
        <ele>129</ele>
        <time>2011-12-18T08:57:46Z</time>
      </trkpt>
      <trkpt lat="48.84565" lon="-0.31842">
        <ele>129.6000061</ele>
        <time>2011-12-18T08:57:47Z</time>
      </trkpt>
      <trkpt lat="48.84567" lon="-0.31844">
        <ele>130</ele>
        <time>2011-12-18T08:57:48Z</time>
      </trkpt>
      <trkpt lat="48.84569" lon="-0.31847">
        <ele>130.1999969</ele>
        <time>2011-12-18T08:57:49Z</time>
      </trkpt>
      <trkpt lat="48.84571" lon="-0.3185">
        <ele>130.8000031</ele>
        <time>2011-12-18T08:57:50Z</time>
      </trkpt>
      <trkpt lat="48.84573" lon="-0.31853">
        <ele>130.8000031</ele>
        <time>2011-12-18T08:57:51Z</time>
      </trkpt>
      <trkpt lat="48.84581" lon="-0.31862">
        <ele>131.1999969</ele>
        <time>2011-12-18T08:57:55Z</time>
      </trkpt>
      <trkpt lat="48.84583" lon="-0.31864">
        <ele>131.8000031</ele>
        <time>2011-12-18T08:57:56Z</time>
      </trkpt>
      <trkpt lat="48.84585" lon="-0.31866">
        <ele>132</ele>
        <time>2011-12-18T08:57:57Z</time>
      </trkpt>
      <trkpt lat="48.84588" lon="-0.31869">
        <ele>132.6000061</ele>
        <time>2011-12-18T08:57:58Z</time>
      </trkpt>
      <trkpt lat="48.8459" lon="-0.31871">
        <ele>133</ele>
        <time>2011-12-18T08:57:59Z</time>
      </trkpt>
      <trkpt lat="48.84596" lon="-0.31876">
        <ele>133.1999969</ele>
        <time>2011-12-18T08:58:01Z</time>
      </trkpt>
      <trkpt lat="48.84598" lon="-0.31879">
        <ele>133.8000031</ele>
        <time>2011-12-18T08:58:02Z</time>
      </trkpt>
      <trkpt lat="48.84601" lon="-0.3188">
        <ele>134.1999969</ele>
        <time>2011-12-18T08:58:03Z</time>
      </trkpt>
      <trkpt lat="48.84603" lon="-0.31882">
        <ele>134.8000031</ele>
        <time>2011-12-18T08:58:04Z</time>
      </trkpt>
      <trkpt lat="48.84606" lon="-0.31884">
        <ele>135</ele>
        <time>2011-12-18T08:58:05Z</time>
      </trkpt>
      <trkpt lat="48.84616" lon="-0.31889">
        <ele>135.6000061</ele>
        <time>2011-12-18T08:58:09Z</time>
      </trkpt>
      <trkpt lat="48.84619" lon="-0.31891">
        <ele>136</ele>
        <time>2011-12-18T08:58:10Z</time>
      </trkpt>
      <trkpt lat="48.84621" lon="-0.31892">
        <ele>136.1999969</ele>
        <time>2011-12-18T08:58:11Z</time>
      </trkpt>
      <trkpt lat="48.84623" lon="-0.31893">
        <ele>137</ele>
        <time>2011-12-18T08:58:12Z</time>
      </trkpt>
      <trkpt lat="48.84626" lon="-0.31895">
        <ele>137.1999969</ele>
        <time>2011-12-18T08:58:13Z</time>
      </trkpt>
      <trkpt lat="48.84632" lon="-0.319">
        <ele>137.8000031</ele>
        <time>2011-12-18T08:58:16Z</time>
      </trkpt>
      <trkpt lat="48.84634" lon="-0.31901">
        <ele>138</ele>
        <time>2011-12-18T08:58:17Z</time>
      </trkpt>
      <trkpt lat="48.84636" lon="-0.31902">
        <ele>138.6000061</ele>
        <time>2011-12-18T08:58:18Z</time>
      </trkpt>
      <trkpt lat="48.84639" lon="-0.31903">
        <ele>139</ele>
        <time>2011-12-18T08:58:19Z</time>
      </trkpt>
      <trkpt lat="48.84641" lon="-0.31905">
        <ele>139.1999969</ele>
        <time>2011-12-18T08:58:20Z</time>
      </trkpt>
      <trkpt lat="48.8465" lon="-0.3191">
        <ele>139.1999969</ele>
        <time>2011-12-18T08:58:24Z</time>
      </trkpt>
      <trkpt lat="48.84652" lon="-0.31911">
        <ele>139.8000031</ele>
        <time>2011-12-18T08:58:25Z</time>
      </trkpt>
      <trkpt lat="48.84654" lon="-0.31913">
        <ele>140</ele>
        <time>2011-12-18T08:58:26Z</time>
      </trkpt>
      <trkpt lat="48.84656" lon="-0.31915">
        <ele>140.6000061</ele>
        <time>2011-12-18T08:58:27Z</time>
      </trkpt>
      <trkpt lat="48.84658" lon="-0.31917">
        <ele>141</ele>
        <time>2011-12-18T08:58:28Z</time>
      </trkpt>
      <trkpt lat="48.8466" lon="-0.31919">
        <ele>141.1999969</ele>
        <time>2011-12-18T08:58:29Z</time>
      </trkpt>
      <trkpt lat="48.84665" lon="-0.31922">
        <ele>141.1999969</ele>
        <time>2011-12-18T08:58:31Z</time>
      </trkpt>
      <trkpt lat="48.84672" lon="-0.31927">
        <ele>141.8000031</ele>
        <time>2011-12-18T08:58:34Z</time>
      </trkpt>
      <trkpt lat="48.84674" lon="-0.31928">
        <ele>142</ele>
        <time>2011-12-18T08:58:35Z</time>
      </trkpt>
      <trkpt lat="48.84676" lon="-0.31931">
        <ele>142.6000061</ele>
        <time>2011-12-18T08:58:36Z</time>
      </trkpt>
      <trkpt lat="48.84679" lon="-0.31933">
        <ele>143</ele>
        <time>2011-12-18T08:58:37Z</time>
      </trkpt>
      <trkpt lat="48.84681" lon="-0.31935">
        <ele>143.1999969</ele>
        <time>2011-12-18T08:58:38Z</time>
      </trkpt>
      <trkpt lat="48.84688" lon="-0.3194">
        <ele>143.1999969</ele>
        <time>2011-12-18T08:58:41Z</time>
      </trkpt>
      <trkpt lat="48.84692" lon="-0.31944">
        <ele>143.8000031</ele>
        <time>2011-12-18T08:58:43Z</time>
      </trkpt>
      <trkpt lat="48.84695" lon="-0.31946">
        <ele>144.1999969</ele>
        <time>2011-12-18T08:58:44Z</time>
      </trkpt>
      <trkpt lat="48.84697" lon="-0.31948">
        <ele>144.8000031</ele>
        <time>2011-12-18T08:58:45Z</time>
      </trkpt>
      <trkpt lat="48.84699" lon="-0.31951">
        <ele>145</ele>
        <time>2011-12-18T08:58:46Z</time>
      </trkpt>
      <trkpt lat="48.84702" lon="-0.31953">
        <ele>145.6000061</ele>
        <time>2011-12-18T08:58:47Z</time>
      </trkpt>
      <trkpt lat="48.84706" lon="-0.31958">
        <ele>146</ele>
        <time>2011-12-18T08:58:49Z</time>
      </trkpt>
      <trkpt lat="48.84709" lon="-0.3196">
        <ele>146.6000061</ele>
        <time>2011-12-18T08:58:50Z</time>
      </trkpt>
      <trkpt lat="48.84711" lon="-0.31962">
        <ele>147</ele>
        <time>2011-12-18T08:58:51Z</time>
      </trkpt>
      <trkpt lat="48.84713" lon="-0.31964">
        <ele>147.6000061</ele>
        <time>2011-12-18T08:58:52Z</time>
      </trkpt>
      <trkpt lat="48.84716" lon="-0.31967">
        <ele>148</ele>
        <time>2011-12-18T08:58:53Z</time>
      </trkpt>
      <trkpt lat="48.84722" lon="-0.31973">
        <ele>148.1999969</ele>
        <time>2011-12-18T08:58:56Z</time>
      </trkpt>
      <trkpt lat="48.84725" lon="-0.31976">
        <ele>148.8000031</ele>
        <time>2011-12-18T08:58:57Z</time>
      </trkpt>
      <trkpt lat="48.84727" lon="-0.31978">
        <ele>149</ele>
        <time>2011-12-18T08:58:58Z</time>
      </trkpt>
      <trkpt lat="48.84729" lon="-0.31981">
        <ele>149.6000061</ele>
        <time>2011-12-18T08:58:59Z</time>
      </trkpt>
      <trkpt lat="48.84732" lon="-0.31984">
        <ele>150</ele>
        <time>2011-12-18T08:59:00Z</time>
      </trkpt>
      <trkpt lat="48.84742" lon="-0.31992">
        <ele>150.1999969</ele>
        <time>2011-12-18T08:59:04Z</time>
      </trkpt>
      <trkpt lat="48.84745" lon="-0.31993">
        <ele>151</ele>
        <time>2011-12-18T08:59:05Z</time>
      </trkpt>
      <trkpt lat="48.84748" lon="-0.31995">
        <ele>151.1999969</ele>
        <time>2011-12-18T08:59:06Z</time>
      </trkpt>
      <trkpt lat="48.8475" lon="-0.31997">
        <ele>151.8000031</ele>
        <time>2011-12-18T08:59:07Z</time>
      </trkpt>
      <trkpt lat="48.84753" lon="-0.31999">
        <ele>152.1999969</ele>
        <time>2011-12-18T08:59:08Z</time>
      </trkpt>
      <trkpt lat="48.84766" lon="-0.32007">
        <ele>152.1999969</ele>
        <time>2011-12-18T08:59:13Z</time>
      </trkpt>
      <trkpt lat="48.84794" lon="-0.32022">
        <ele>152.1999969</ele>
        <time>2011-12-18T08:59:23Z</time>
      </trkpt>
      <trkpt lat="48.84803" lon="-0.32027">
        <ele>152.8000031</ele>
        <time>2011-12-18T08:59:26Z</time>
      </trkpt>
      <trkpt lat="48.84806" lon="-0.32029">
        <ele>153</ele>
        <time>2011-12-18T08:59:27Z</time>
      </trkpt>
      <trkpt lat="48.84809" lon="-0.3203">
        <ele>153.6000061</ele>
        <time>2011-12-18T08:59:28Z</time>
      </trkpt>
      <trkpt lat="48.84812" lon="-0.32032">
        <ele>154</ele>
        <time>2011-12-18T08:59:29Z</time>
      </trkpt>
      <trkpt lat="48.84815" lon="-0.32033">
        <ele>154.1999969</ele>
        <time>2011-12-18T08:59:30Z</time>
      </trkpt>
      <trkpt lat="48.84821" lon="-0.32036">
        <ele>154.1999969</ele>
        <time>2011-12-18T08:59:32Z</time>
      </trkpt>
      <trkpt lat="48.84842" lon="-0.3205">
        <ele>154.1999969</ele>
        <time>2011-12-18T08:59:39Z</time>
      </trkpt>
      <trkpt lat="48.84848" lon="-0.32053">
        <ele>154.1999969</ele>
        <time>2011-12-18T08:59:41Z</time>
      </trkpt>
      <trkpt lat="48.84863" lon="-0.32061">
        <ele>154.8000031</ele>
        <time>2011-12-18T08:59:46Z</time>
      </trkpt>
      <trkpt lat="48.84867" lon="-0.32063">
        <ele>155</ele>
        <time>2011-12-18T08:59:47Z</time>
      </trkpt>
      <trkpt lat="48.8487" lon="-0.32065">
        <ele>155.6000061</ele>
        <time>2011-12-18T08:59:48Z</time>
      </trkpt>
      <trkpt lat="48.84873" lon="-0.32067">
        <ele>156</ele>
        <time>2011-12-18T08:59:49Z</time>
      </trkpt>
      <trkpt lat="48.84876" lon="-0.32069">
        <ele>156.1999969</ele>
        <time>2011-12-18T08:59:50Z</time>
      </trkpt>
      <trkpt lat="48.84901" lon="-0.32085">
        <ele>156.1999969</ele>
        <time>2011-12-18T08:59:58Z</time>
      </trkpt>
      <trkpt lat="48.84918" lon="-0.32098">
        <ele>156.1999969</ele>
        <time>2011-12-18T09:00:04Z</time>
      </trkpt>
      <trkpt lat="48.84924" lon="-0.32102">
        <ele>156.8000031</ele>
        <time>2011-12-18T09:00:06Z</time>
      </trkpt>
      <trkpt lat="48.84927" lon="-0.32104">
        <ele>157</ele>
        <time>2011-12-18T09:00:07Z</time>
      </trkpt>
      <trkpt lat="48.8493" lon="-0.32106">
        <ele>157.6000061</ele>
        <time>2011-12-18T09:00:08Z</time>
      </trkpt>
      <trkpt lat="48.84933" lon="-0.32108">
        <ele>158</ele>
        <time>2011-12-18T09:00:09Z</time>
      </trkpt>
      <trkpt lat="48.84936" lon="-0.3211">
        <ele>158.1999969</ele>
        <time>2011-12-18T09:00:10Z</time>
      </trkpt>
      <trkpt lat="48.84939" lon="-0.32113">
        <ele>158.1999969</ele>
        <time>2011-12-18T09:00:11Z</time>
      </trkpt>
      <trkpt lat="48.84955" lon="-0.32124">
        <ele>158.8000031</ele>
        <time>2011-12-18T09:00:17Z</time>
      </trkpt>
      <trkpt lat="48.84958" lon="-0.32125">
        <ele>159</ele>
        <time>2011-12-18T09:00:18Z</time>
      </trkpt>
      <trkpt lat="48.84961" lon="-0.32127">
        <ele>159.6000061</ele>
        <time>2011-12-18T09:00:19Z</time>
      </trkpt>
      <trkpt lat="48.84964" lon="-0.32129">
        <ele>160</ele>
        <time>2011-12-18T09:00:20Z</time>
      </trkpt>
      <trkpt lat="48.84967" lon="-0.3213">
        <ele>160.1999969</ele>
        <time>2011-12-18T09:00:21Z</time>
      </trkpt>
      <trkpt lat="48.84984" lon="-0.32135">
        <ele>160.1999969</ele>
        <time>2011-12-18T09:00:27Z</time>
      </trkpt>
      <trkpt lat="48.84987" lon="-0.32136">
        <ele>161</ele>
        <time>2011-12-18T09:00:28Z</time>
      </trkpt>
      <trkpt lat="48.8499" lon="-0.32136">
        <ele>161.8000031</ele>
        <time>2011-12-18T09:00:29Z</time>
      </trkpt>
      <trkpt lat="48.84993" lon="-0.32137">
        <ele>162</ele>
        <time>2011-12-18T09:00:30Z</time>
      </trkpt>
      <trkpt lat="48.84997" lon="-0.32137">
        <ele>162.6000061</ele>
        <time>2011-12-18T09:00:31Z</time>
      </trkpt>
      <trkpt lat="48.85005" lon="-0.32138">
        <ele>162.6000061</ele>
        <time>2011-12-18T09:00:34Z</time>
      </trkpt>
      <trkpt lat="48.85008" lon="-0.32138">
        <ele>163</ele>
        <time>2011-12-18T09:00:35Z</time>
      </trkpt>
      <trkpt lat="48.85011" lon="-0.32137">
        <ele>163.1999969</ele>
        <time>2011-12-18T09:00:36Z</time>
      </trkpt>
      <trkpt lat="48.85014" lon="-0.32137">
        <ele>163.8000031</ele>
        <time>2011-12-18T09:00:37Z</time>
      </trkpt>
      <trkpt lat="48.85016" lon="-0.32137">
        <ele>164</ele>
        <time>2011-12-18T09:00:38Z</time>
      </trkpt>
      <trkpt lat="48.85019" lon="-0.32137">
        <ele>164.6000061</ele>
        <time>2011-12-18T09:00:39Z</time>
      </trkpt>
      <trkpt lat="48.85024" lon="-0.32137">
        <ele>164.6000061</ele>
        <time>2011-12-18T09:00:41Z</time>
      </trkpt>
      <trkpt lat="48.85027" lon="-0.32138">
        <ele>165</ele>
        <time>2011-12-18T09:00:42Z</time>
      </trkpt>
      <trkpt lat="48.8503" lon="-0.32138">
        <ele>165.1999969</ele>
        <time>2011-12-18T09:00:43Z</time>
      </trkpt>
      <trkpt lat="48.85033" lon="-0.32138">
        <ele>166</ele>
        <time>2011-12-18T09:00:44Z</time>
      </trkpt>
      <trkpt lat="48.85035" lon="-0.32138">
        <ele>166.1999969</ele>
        <time>2011-12-18T09:00:45Z</time>
      </trkpt>
      <trkpt lat="48.85038" lon="-0.32138">
        <ele>166.8000031</ele>
        <time>2011-12-18T09:00:46Z</time>
      </trkpt>
      <trkpt lat="48.85044" lon="-0.32138">
        <ele>166.8000031</ele>
        <time>2011-12-18T09:00:48Z</time>
      </trkpt>
      <trkpt lat="48.85047" lon="-0.32138">
        <ele>167</ele>
        <time>2011-12-18T09:00:49Z</time>
      </trkpt>
      <trkpt lat="48.85051" lon="-0.32138">
        <ele>167.6000061</ele>
        <time>2011-12-18T09:00:50Z</time>
      </trkpt>
      <trkpt lat="48.85054" lon="-0.32138">
        <ele>168</ele>
        <time>2011-12-18T09:00:51Z</time>
      </trkpt>
      <trkpt lat="48.85058" lon="-0.32137">
        <ele>168.6000061</ele>
        <time>2011-12-18T09:00:52Z</time>
      </trkpt>
      <trkpt lat="48.85061" lon="-0.32137">
        <ele>169</ele>
        <time>2011-12-18T09:00:53Z</time>
      </trkpt>
      <trkpt lat="48.85069" lon="-0.32138">
        <ele>169.1999969</ele>
        <time>2011-12-18T09:00:56Z</time>
      </trkpt>
      <trkpt lat="48.85072" lon="-0.32138">
        <ele>170</ele>
        <time>2011-12-18T09:00:57Z</time>
      </trkpt>
      <trkpt lat="48.85075" lon="-0.32138">
        <ele>170.1999969</ele>
        <time>2011-12-18T09:00:58Z</time>
      </trkpt>
      <trkpt lat="48.85078" lon="-0.32138">
        <ele>170.8000031</ele>
        <time>2011-12-18T09:00:59Z</time>
      </trkpt>
      <trkpt lat="48.85081" lon="-0.32138">
        <ele>171</ele>
        <time>2011-12-18T09:01:00Z</time>
      </trkpt>
      <trkpt lat="48.85092" lon="-0.32139">
        <ele>171</ele>
        <time>2011-12-18T09:01:04Z</time>
      </trkpt>
      <trkpt lat="48.85114" lon="-0.3214">
        <ele>171</ele>
        <time>2011-12-18T09:01:12Z</time>
      </trkpt>
      <trkpt lat="48.8512" lon="-0.3214">
        <ele>171.6000061</ele>
        <time>2011-12-18T09:01:14Z</time>
      </trkpt>
      <trkpt lat="48.85123" lon="-0.32141">
        <ele>172</ele>
        <time>2011-12-18T09:01:15Z</time>
      </trkpt>
      <trkpt lat="48.85125" lon="-0.32142">
        <ele>172.1999969</ele>
        <time>2011-12-18T09:01:16Z</time>
      </trkpt>
      <trkpt lat="48.85128" lon="-0.32143">
        <ele>172.8000031</ele>
        <time>2011-12-18T09:01:17Z</time>
      </trkpt>
      <trkpt lat="48.85131" lon="-0.32144">
        <ele>173</ele>
        <time>2011-12-18T09:01:18Z</time>
      </trkpt>
      <trkpt lat="48.85136" lon="-0.32147">
        <ele>173</ele>
        <time>2011-12-18T09:01:20Z</time>
      </trkpt>
      <trkpt lat="48.85154" lon="-0.32152">
        <ele>173</ele>
        <time>2011-12-18T09:01:26Z</time>
      </trkpt>
      <trkpt lat="48.85178" lon="-0.32159">
        <ele>173.6000061</ele>
        <time>2011-12-18T09:01:34Z</time>
      </trkpt>
      <trkpt lat="48.85181" lon="-0.32159">
        <ele>174</ele>
        <time>2011-12-18T09:01:35Z</time>
      </trkpt>
      <trkpt lat="48.85184" lon="-0.32159">
        <ele>174.1999969</ele>
        <time>2011-12-18T09:01:36Z</time>
      </trkpt>
      <trkpt lat="48.85188" lon="-0.3216">
        <ele>174.8000031</ele>
        <time>2011-12-18T09:01:37Z</time>
      </trkpt>
      <trkpt lat="48.85191" lon="-0.3216">
        <ele>175</ele>
        <time>2011-12-18T09:01:38Z</time>
      </trkpt>
      <trkpt lat="48.85202" lon="-0.3216">
        <ele>175</ele>
        <time>2011-12-18T09:01:41Z</time>
      </trkpt>
      <trkpt lat="48.85221" lon="-0.3216">
        <ele>175</ele>
        <time>2011-12-18T09:01:46Z</time>
      </trkpt>
      <trkpt lat="48.85232" lon="-0.32161">
        <ele>175</ele>
        <time>2011-12-18T09:01:49Z</time>
      </trkpt>
      <trkpt lat="48.8526" lon="-0.32165">
        <ele>175</ele>
        <time>2011-12-18T09:01:56Z</time>
      </trkpt>
      <trkpt lat="48.85279" lon="-0.32166">
        <ele>175.6000061</ele>
        <time>2011-12-18T09:02:01Z</time>
      </trkpt>
      <trkpt lat="48.85283" lon="-0.32166">
        <ele>176</ele>
        <time>2011-12-18T09:02:02Z</time>
      </trkpt>
      <trkpt lat="48.85286" lon="-0.32166">
        <ele>176.6000061</ele>
        <time>2011-12-18T09:02:03Z</time>
      </trkpt>
      <trkpt lat="48.8529" lon="-0.32165">
        <ele>177</ele>
        <time>2011-12-18T09:02:04Z</time>
      </trkpt>
      <trkpt lat="48.85293" lon="-0.32164">
        <ele>177.1999969</ele>
        <time>2011-12-18T09:02:05Z</time>
      </trkpt>
      <trkpt lat="48.85317" lon="-0.32158">
        <ele>177.1999969</ele>
        <time>2011-12-18T09:02:11Z</time>
      </trkpt>
      <trkpt lat="48.85344" lon="-0.32148">
        <ele>177.1999969</ele>
        <time>2011-12-18T09:02:18Z</time>
      </trkpt>
      <trkpt lat="48.85347" lon="-0.32146">
        <ele>177.8000031</ele>
        <time>2011-12-18T09:02:19Z</time>
      </trkpt>
      <trkpt lat="48.8535" lon="-0.32145">
        <ele>178</ele>
        <time>2011-12-18T09:02:20Z</time>
      </trkpt>
      <trkpt lat="48.85353" lon="-0.32144">
        <ele>178.6000061</ele>
        <time>2011-12-18T09:02:21Z</time>
      </trkpt>
      <trkpt lat="48.85356" lon="-0.32142">
        <ele>179</ele>
        <time>2011-12-18T09:02:22Z</time>
      </trkpt>
      <trkpt lat="48.85359" lon="-0.32141">
        <ele>179.1999969</ele>
        <time>2011-12-18T09:02:23Z</time>
      </trkpt>
      <trkpt lat="48.85362" lon="-0.3214">
        <ele>179.1999969</ele>
        <time>2011-12-18T09:02:24Z</time>
      </trkpt>
      <trkpt lat="48.85371" lon="-0.32138">
        <ele>179.1999969</ele>
        <time>2011-12-18T09:02:28Z</time>
      </trkpt>
      <trkpt lat="48.85374" lon="-0.32138">
        <ele>179.1999969</ele>
        <time>2011-12-18T09:02:29Z</time>
      </trkpt>
      <trkpt lat="48.85393" lon="-0.32135">
        <ele>179.1999969</ele>
        <time>2011-12-18T09:02:36Z</time>
      </trkpt>
      <trkpt lat="48.85396" lon="-0.32135">
        <ele>179.1999969</ele>
        <time>2011-12-18T09:02:37Z</time>
      </trkpt>
      <trkpt lat="48.8541" lon="-0.32128">
        <ele>179.1999969</ele>
        <time>2011-12-18T09:02:42Z</time>
      </trkpt>
      <trkpt lat="48.85411" lon="-0.32125">
        <ele>179.1999969</ele>
        <time>2011-12-18T09:02:43Z</time>
      </trkpt>
      <trkpt lat="48.85415" lon="-0.32114">
        <ele>179.1999969</ele>
        <time>2011-12-18T09:02:48Z</time>
      </trkpt>
      <trkpt lat="48.85415" lon="-0.32111">
        <ele>179.1999969</ele>
        <time>2011-12-18T09:02:49Z</time>
      </trkpt>
      <trkpt lat="48.85415" lon="-0.32106">
        <ele>179.1999969</ele>
        <time>2011-12-18T09:02:51Z</time>
      </trkpt>
      <trkpt lat="48.85415" lon="-0.32105">
        <ele>179.1999969</ele>
        <time>2011-12-18T09:02:52Z</time>
      </trkpt>
      <trkpt lat="48.85414" lon="-0.32105">
        <ele>179.1999969</ele>
        <time>2011-12-18T09:02:53Z</time>
      </trkpt>
      <trkpt lat="48.85415" lon="-0.32102">
        <ele>179.6000061</ele>
        <time>2011-12-18T09:04:05Z</time>
      </trkpt>
      <trkpt lat="48.85416" lon="-0.321">
        <ele>179.6000061</ele>
        <time>2011-12-18T09:04:06Z</time>
      </trkpt>
      <trkpt lat="48.85419" lon="-0.32089">
        <ele>179.6000061</ele>
        <time>2011-12-18T09:04:09Z</time>
      </trkpt>
      <trkpt lat="48.8542" lon="-0.32084">
        <ele>179.6000061</ele>
        <time>2011-12-18T09:04:10Z</time>
      </trkpt>
      <trkpt lat="48.85429" lon="-0.32055">
        <ele>179.6000061</ele>
        <time>2011-12-18T09:04:16Z</time>
      </trkpt>
      <trkpt lat="48.85442" lon="-0.32036">
        <ele>179.6000061</ele>
        <time>2011-12-18T09:04:21Z</time>
      </trkpt>
      <trkpt lat="48.85448" lon="-0.32031">
        <ele>179.6000061</ele>
        <time>2011-12-18T09:04:23Z</time>
      </trkpt>
      <trkpt lat="48.85458" lon="-0.32025">
        <ele>179.6000061</ele>
        <time>2011-12-18T09:04:26Z</time>
      </trkpt>
      <trkpt lat="48.85461" lon="-0.32023">
        <ele>179.6000061</ele>
        <time>2011-12-18T09:04:27Z</time>
      </trkpt>
      <trkpt lat="48.85465" lon="-0.32022">
        <ele>180</ele>
        <time>2011-12-18T09:04:28Z</time>
      </trkpt>
      <trkpt lat="48.85468" lon="-0.32021">
        <ele>180.1999969</ele>
        <time>2011-12-18T09:04:29Z</time>
      </trkpt>
      <trkpt lat="48.85472" lon="-0.3202">
        <ele>180.8000031</ele>
        <time>2011-12-18T09:04:30Z</time>
      </trkpt>
      <trkpt lat="48.85475" lon="-0.32019">
        <ele>181</ele>
        <time>2011-12-18T09:04:31Z</time>
      </trkpt>
      <trkpt lat="48.85479" lon="-0.32017">
        <ele>181.6000061</ele>
        <time>2011-12-18T09:04:32Z</time>
      </trkpt>
      <trkpt lat="48.85486" lon="-0.32013">
        <ele>181.6000061</ele>
        <time>2011-12-18T09:04:34Z</time>
      </trkpt>
      <trkpt lat="48.855" lon="-0.31997">
        <ele>181.6000061</ele>
        <time>2011-12-18T09:04:39Z</time>
      </trkpt>
      <trkpt lat="48.8551" lon="-0.31982">
        <ele>181.6000061</ele>
        <time>2011-12-18T09:04:44Z</time>
      </trkpt>
      <trkpt lat="48.85523" lon="-0.31962">
        <ele>181.6000061</ele>
        <time>2011-12-18T09:04:51Z</time>
      </trkpt>
      <trkpt lat="48.85533" lon="-0.31947">
        <ele>181.6000061</ele>
        <time>2011-12-18T09:04:57Z</time>
      </trkpt>
      <trkpt lat="48.85544" lon="-0.31932">
        <ele>181.6000061</ele>
        <time>2011-12-18T09:05:03Z</time>
      </trkpt>
      <trkpt lat="48.85559" lon="-0.31909">
        <ele>181.6000061</ele>
        <time>2011-12-18T09:05:11Z</time>
      </trkpt>
      <trkpt lat="48.8557" lon="-0.31894">
        <ele>181.6000061</ele>
        <time>2011-12-18T09:05:17Z</time>
      </trkpt>
      <trkpt lat="48.85584" lon="-0.31875">
        <ele>182</ele>
        <time>2011-12-18T09:05:24Z</time>
      </trkpt>
      <trkpt lat="48.85586" lon="-0.31872">
        <ele>182.1999969</ele>
        <time>2011-12-18T09:05:25Z</time>
      </trkpt>
      <trkpt lat="48.85588" lon="-0.3187">
        <ele>182.8000031</ele>
        <time>2011-12-18T09:05:26Z</time>
      </trkpt>
      <trkpt lat="48.8559" lon="-0.31868">
        <ele>183</ele>
        <time>2011-12-18T09:05:27Z</time>
      </trkpt>
      <trkpt lat="48.85591" lon="-0.31866">
        <ele>183.8000031</ele>
        <time>2011-12-18T09:05:28Z</time>
      </trkpt>
      <trkpt lat="48.85595" lon="-0.3186">
        <ele>183.8000031</ele>
        <time>2011-12-18T09:05:31Z</time>
      </trkpt>
      <trkpt lat="48.85604" lon="-0.31844">
        <ele>183.8000031</ele>
        <time>2011-12-18T09:05:36Z</time>
      </trkpt>
      <trkpt lat="48.85613" lon="-0.31817">
        <ele>183.8000031</ele>
        <time>2011-12-18T09:05:44Z</time>
      </trkpt>
      <trkpt lat="48.8562" lon="-0.31799">
        <ele>184</ele>
        <time>2011-12-18T09:05:49Z</time>
      </trkpt>
      <trkpt lat="48.85621" lon="-0.31795">
        <ele>184.6000061</ele>
        <time>2011-12-18T09:05:50Z</time>
      </trkpt>
      <trkpt lat="48.85622" lon="-0.31791">
        <ele>185</ele>
        <time>2011-12-18T09:05:51Z</time>
      </trkpt>
      <trkpt lat="48.85623" lon="-0.31787">
        <ele>185.1999969</ele>
        <time>2011-12-18T09:05:52Z</time>
      </trkpt>
      <trkpt lat="48.85624" lon="-0.31784">
        <ele>185.8000031</ele>
        <time>2011-12-18T09:05:53Z</time>
      </trkpt>
      <trkpt lat="48.85627" lon="-0.31774">
        <ele>185.8000031</ele>
        <time>2011-12-18T09:05:56Z</time>
      </trkpt>
      <trkpt lat="48.85635" lon="-0.31748">
        <ele>185.8000031</ele>
        <time>2011-12-18T09:06:03Z</time>
      </trkpt>
      <trkpt lat="48.85642" lon="-0.31725">
        <ele>186</ele>
        <time>2011-12-18T09:06:10Z</time>
      </trkpt>
      <trkpt lat="48.85644" lon="-0.31721">
        <ele>186.6000061</ele>
        <time>2011-12-18T09:06:11Z</time>
      </trkpt>
      <trkpt lat="48.85645" lon="-0.31718">
        <ele>187</ele>
        <time>2011-12-18T09:06:12Z</time>
      </trkpt>
      <trkpt lat="48.85646" lon="-0.31714">
        <ele>187.1999969</ele>
        <time>2011-12-18T09:06:13Z</time>
      </trkpt>
      <trkpt lat="48.85648" lon="-0.31711">
        <ele>187.8000031</ele>
        <time>2011-12-18T09:06:14Z</time>
      </trkpt>
      <trkpt lat="48.85651" lon="-0.31702">
        <ele>187.8000031</ele>
        <time>2011-12-18T09:06:17Z</time>
      </trkpt>
      <trkpt lat="48.85663" lon="-0.31685">
        <ele>187.8000031</ele>
        <time>2011-12-18T09:06:23Z</time>
      </trkpt>
      <trkpt lat="48.8568" lon="-0.3167">
        <ele>187.8000031</ele>
        <time>2011-12-18T09:06:31Z</time>
      </trkpt>
      <trkpt lat="48.85696" lon="-0.31656">
        <ele>187.8000031</ele>
        <time>2011-12-18T09:06:37Z</time>
      </trkpt>
      <trkpt lat="48.85704" lon="-0.31649">
        <ele>188</ele>
        <time>2011-12-18T09:06:40Z</time>
      </trkpt>
      <trkpt lat="48.85706" lon="-0.31648">
        <ele>188.6000061</ele>
        <time>2011-12-18T09:06:41Z</time>
      </trkpt>
      <trkpt lat="48.85709" lon="-0.31645">
        <ele>189</ele>
        <time>2011-12-18T09:06:42Z</time>
      </trkpt>
      <trkpt lat="48.85712" lon="-0.31642">
        <ele>189.8000031</ele>
        <time>2011-12-18T09:06:43Z</time>
      </trkpt>
      <trkpt lat="48.85714" lon="-0.3164">
        <ele>189.8000031</ele>
        <time>2011-12-18T09:06:44Z</time>
      </trkpt>
      <trkpt lat="48.85725" lon="-0.31628">
        <ele>189.8000031</ele>
        <time>2011-12-18T09:06:49Z</time>
      </trkpt>
      <trkpt lat="48.85739" lon="-0.31612">
        <ele>189.8000031</ele>
        <time>2011-12-18T09:06:56Z</time>
      </trkpt>
      <trkpt lat="48.85753" lon="-0.31595">
        <ele>189.8000031</ele>
        <time>2011-12-18T09:07:02Z</time>
      </trkpt>
      <trkpt lat="48.85765" lon="-0.31579">
        <ele>190</ele>
        <time>2011-12-18T09:07:08Z</time>
      </trkpt>
      <trkpt lat="48.85767" lon="-0.31577">
        <ele>190.6000061</ele>
        <time>2011-12-18T09:07:09Z</time>
      </trkpt>
      <trkpt lat="48.85769" lon="-0.31574">
        <ele>191</ele>
        <time>2011-12-18T09:07:10Z</time>
      </trkpt>
      <trkpt lat="48.85772" lon="-0.31571">
        <ele>191.1999969</ele>
        <time>2011-12-18T09:07:11Z</time>
      </trkpt>
      <trkpt lat="48.85774" lon="-0.31569">
        <ele>191.8000031</ele>
        <time>2011-12-18T09:07:12Z</time>
      </trkpt>
      <trkpt lat="48.8578" lon="-0.31562">
        <ele>191.8000031</ele>
        <time>2011-12-18T09:07:16Z</time>
      </trkpt>
      <trkpt lat="48.85792" lon="-0.31545">
        <ele>191.8000031</ele>
        <time>2011-12-18T09:07:22Z</time>
      </trkpt>
      <trkpt lat="48.85811" lon="-0.31522">
        <ele>191.8000031</ele>
        <time>2011-12-18T09:07:30Z</time>
      </trkpt>
      <trkpt lat="48.85829" lon="-0.31516">
        <ele>191.8000031</ele>
        <time>2011-12-18T09:07:36Z</time>
      </trkpt>
      <trkpt lat="48.85849" lon="-0.31512">
        <ele>191.8000031</ele>
        <time>2011-12-18T09:07:42Z</time>
      </trkpt>
      <trkpt lat="48.85865" lon="-0.31506">
        <ele>191.8000031</ele>
        <time>2011-12-18T09:07:48Z</time>
      </trkpt>
      <trkpt lat="48.85873" lon="-0.31501">
        <ele>191.8000031</ele>
        <time>2011-12-18T09:07:54Z</time>
      </trkpt>
      <trkpt lat="48.85881" lon="-0.31496">
        <ele>192.6000061</ele>
        <time>2011-12-18T09:07:58Z</time>
      </trkpt>
      <trkpt lat="48.85884" lon="-0.31495">
        <ele>193</ele>
        <time>2011-12-18T09:07:59Z</time>
      </trkpt>
      <trkpt lat="48.85887" lon="-0.31493">
        <ele>193.1999969</ele>
        <time>2011-12-18T09:08:00Z</time>
      </trkpt>
      <trkpt lat="48.85891" lon="-0.31492">
        <ele>193.8000031</ele>
        <time>2011-12-18T09:08:01Z</time>
      </trkpt>
      <trkpt lat="48.85909" lon="-0.31483">
        <ele>193.8000031</ele>
        <time>2011-12-18T09:08:08Z</time>
      </trkpt>
      <trkpt lat="48.85924" lon="-0.31477">
        <ele>193.8000031</ele>
        <time>2011-12-18T09:08:15Z</time>
      </trkpt>
      <trkpt lat="48.85928" lon="-0.31475">
        <ele>193.8000031</ele>
        <time>2011-12-18T09:08:18Z</time>
      </trkpt>
      <trkpt lat="48.85933" lon="-0.31473">
        <ele>193.8000031</ele>
        <time>2011-12-18T09:08:21Z</time>
      </trkpt>
      <trkpt lat="48.85935" lon="-0.31474">
        <ele>193.8000031</ele>
        <time>2011-12-18T09:08:22Z</time>
      </trkpt>
      <trkpt lat="48.85937" lon="-0.31474">
        <ele>194.1999969</ele>
        <time>2011-12-18T09:08:23Z</time>
      </trkpt>
      <trkpt lat="48.85946" lon="-0.31471">
        <ele>196</ele>
        <time>2011-12-18T09:08:56Z</time>
      </trkpt>
      <trkpt lat="48.85954" lon="-0.31444">
        <ele>196</ele>
        <time>2011-12-18T09:09:03Z</time>
      </trkpt>
      <trkpt lat="48.85962" lon="-0.31421">
        <ele>196.1999969</ele>
        <time>2011-12-18T09:09:09Z</time>
      </trkpt>
      <trkpt lat="48.85963" lon="-0.31418">
        <ele>196.8000031</ele>
        <time>2011-12-18T09:09:10Z</time>
      </trkpt>
      <trkpt lat="48.85964" lon="-0.31414">
        <ele>197</ele>
        <time>2011-12-18T09:09:11Z</time>
      </trkpt>
      <trkpt lat="48.85966" lon="-0.3141">
        <ele>198</ele>
        <time>2011-12-18T09:09:12Z</time>
      </trkpt>
      <trkpt lat="48.85971" lon="-0.31394">
        <ele>198</ele>
        <time>2011-12-18T09:09:16Z</time>
      </trkpt>
      <trkpt lat="48.85972" lon="-0.31391">
        <ele>198</ele>
        <time>2011-12-18T09:09:17Z</time>
      </trkpt>
      <trkpt lat="48.85973" lon="-0.31387">
        <ele>198.1999969</ele>
        <time>2011-12-18T09:09:18Z</time>
      </trkpt>
      <trkpt lat="48.85974" lon="-0.31384">
        <ele>198.8000031</ele>
        <time>2011-12-18T09:09:19Z</time>
      </trkpt>
      <trkpt lat="48.85975" lon="-0.3138">
        <ele>199</ele>
        <time>2011-12-18T09:09:20Z</time>
      </trkpt>
      <trkpt lat="48.85975" lon="-0.31377">
        <ele>199.6000061</ele>
        <time>2011-12-18T09:09:21Z</time>
      </trkpt>
      <trkpt lat="48.85976" lon="-0.31374">
        <ele>200</ele>
        <time>2011-12-18T09:09:22Z</time>
      </trkpt>
      <trkpt lat="48.85977" lon="-0.3137">
        <ele>200</ele>
        <time>2011-12-18T09:09:23Z</time>
      </trkpt>
      <trkpt lat="48.85979" lon="-0.31365">
        <ele>200</ele>
        <time>2011-12-18T09:09:25Z</time>
      </trkpt>
      <trkpt lat="48.85983" lon="-0.31363">
        <ele>200</ele>
        <time>2011-12-18T09:09:27Z</time>
      </trkpt>
      <trkpt lat="48.85983" lon="-0.31366">
        <ele>200.1999969</ele>
        <time>2011-12-18T09:09:28Z</time>
      </trkpt>
      <trkpt lat="48.85983" lon="-0.31369">
        <ele>201</ele>
        <time>2011-12-18T09:09:29Z</time>
      </trkpt>
      <trkpt lat="48.85983" lon="-0.31372">
        <ele>201.1999969</ele>
        <time>2011-12-18T09:09:30Z</time>
      </trkpt>
      <trkpt lat="48.85983" lon="-0.31376">
        <ele>201.8000031</ele>
        <time>2011-12-18T09:09:31Z</time>
      </trkpt>
      <trkpt lat="48.85983" lon="-0.3138">
        <ele>202</ele>
        <time>2011-12-18T09:09:32Z</time>
      </trkpt>
      <trkpt lat="48.85984" lon="-0.31404">
        <ele>202</ele>
        <time>2011-12-18T09:09:37Z</time>
      </trkpt>
      <trkpt lat="48.85987" lon="-0.31436">
        <ele>202</ele>
        <time>2011-12-18T09:09:44Z</time>
      </trkpt>
      <trkpt lat="48.85991" lon="-0.31472">
        <ele>202</ele>
        <time>2011-12-18T09:09:52Z</time>
      </trkpt>
      <trkpt lat="48.85994" lon="-0.31503">
        <ele>202</ele>
        <time>2011-12-18T09:09:57Z</time>
      </trkpt>
      <trkpt lat="48.85996" lon="-0.31517">
        <ele>202</ele>
        <time>2011-12-18T09:09:59Z</time>
      </trkpt>
      <trkpt lat="48.86" lon="-0.31552">
        <ele>202</ele>
        <time>2011-12-18T09:10:04Z</time>
      </trkpt>
      <trkpt lat="48.86001" lon="-0.31573">
        <ele>202</ele>
        <time>2011-12-18T09:10:07Z</time>
      </trkpt>
      <trkpt lat="48.86004" lon="-0.31593">
        <ele>202</ele>
        <time>2011-12-18T09:10:10Z</time>
      </trkpt>
      <trkpt lat="48.86005" lon="-0.31605">
        <ele>202</ele>
        <time>2011-12-18T09:10:12Z</time>
      </trkpt>
      <trkpt lat="48.86006" lon="-0.31618">
        <ele>202</ele>
        <time>2011-12-18T09:10:14Z</time>
      </trkpt>
      <trkpt lat="48.86006" lon="-0.31624">
        <ele>201.8000031</ele>
        <time>2011-12-18T09:10:15Z</time>
      </trkpt>
      <trkpt lat="48.86007" lon="-0.31629">
        <ele>201.1999969</ele>
        <time>2011-12-18T09:10:16Z</time>
      </trkpt>
      <trkpt lat="48.86008" lon="-0.31634">
        <ele>201</ele>
        <time>2011-12-18T09:10:17Z</time>
      </trkpt>
      <trkpt lat="48.86009" lon="-0.3164">
        <ele>200.6000061</ele>
        <time>2011-12-18T09:10:18Z</time>
      </trkpt>
      <trkpt lat="48.8601" lon="-0.31645">
        <ele>200</ele>
        <time>2011-12-18T09:10:19Z</time>
      </trkpt>
      <trkpt lat="48.86012" lon="-0.31656">
        <ele>200</ele>
        <time>2011-12-18T09:10:21Z</time>
      </trkpt>
      <trkpt lat="48.86014" lon="-0.31666">
        <ele>200</ele>
        <time>2011-12-18T09:10:23Z</time>
      </trkpt>
      <trkpt lat="48.86018" lon="-0.31697">
        <ele>200</ele>
        <time>2011-12-18T09:10:29Z</time>
      </trkpt>
      <trkpt lat="48.86023" lon="-0.31732">
        <ele>200</ele>
        <time>2011-12-18T09:10:35Z</time>
      </trkpt>
      <trkpt lat="48.8603" lon="-0.31766">
        <ele>200</ele>
        <time>2011-12-18T09:10:42Z</time>
      </trkpt>
      <trkpt lat="48.86036" lon="-0.31807">
        <ele>200</ele>
        <time>2011-12-18T09:10:50Z</time>
      </trkpt>
      <trkpt lat="48.86037" lon="-0.31845">
        <ele>200</ele>
        <time>2011-12-18T09:10:57Z</time>
      </trkpt>
      <trkpt lat="48.86038" lon="-0.31881">
        <ele>200</ele>
        <time>2011-12-18T09:11:02Z</time>
      </trkpt>
      <trkpt lat="48.86039" lon="-0.31889">
        <ele>200</ele>
        <time>2011-12-18T09:11:03Z</time>
      </trkpt>
      <trkpt lat="48.86042" lon="-0.3191">
        <ele>200</ele>
        <time>2011-12-18T09:11:07Z</time>
      </trkpt>
      <trkpt lat="48.86044" lon="-0.31938">
        <ele>200</ele>
        <time>2011-12-18T09:11:13Z</time>
      </trkpt>
      <trkpt lat="48.86044" lon="-0.31942">
        <ele>200</ele>
        <time>2011-12-18T09:11:14Z</time>
      </trkpt>
      <trkpt lat="48.86046" lon="-0.31967">
        <ele>200</ele>
        <time>2011-12-18T09:11:19Z</time>
      </trkpt>
      <trkpt lat="48.86046" lon="-0.31971">
        <ele>200</ele>
        <time>2011-12-18T09:11:20Z</time>
      </trkpt>
      <trkpt lat="48.86048" lon="-0.3199">
        <ele>200</ele>
        <time>2011-12-18T09:11:24Z</time>
      </trkpt>
      <trkpt lat="48.86049" lon="-0.31997">
        <ele>200</ele>
        <time>2011-12-18T09:11:26Z</time>
      </trkpt>
      <trkpt lat="48.86053" lon="-0.3201">
        <ele>200</ele>
        <time>2011-12-18T09:11:31Z</time>
      </trkpt>
      <trkpt lat="48.86055" lon="-0.3201">
        <ele>200</ele>
        <time>2011-12-18T09:11:32Z</time>
      </trkpt>
      <trkpt lat="48.86057" lon="-0.32002">
        <ele>200</ele>
        <time>2011-12-18T09:11:37Z</time>
      </trkpt>
      <trkpt lat="48.86056" lon="-0.31997">
        <ele>201</ele>
        <time>2011-12-18T09:11:40Z</time>
      </trkpt>
      <trkpt lat="48.86055" lon="-0.31995">
        <ele>201.1999969</ele>
        <time>2011-12-18T09:11:41Z</time>
      </trkpt>
      <trkpt lat="48.86056" lon="-0.31993">
        <ele>202</ele>
        <time>2011-12-18T09:11:42Z</time>
      </trkpt>
      <trkpt lat="48.86055" lon="-0.31992">
        <ele>202.1999969</ele>
        <time>2011-12-18T09:11:43Z</time>
      </trkpt>
      <trkpt lat="48.86055" lon="-0.31987">
        <ele>202.1999969</ele>
        <time>2011-12-18T09:11:46Z</time>
      </trkpt>
      <trkpt lat="48.86056" lon="-0.31985">
        <ele>202.8000031</ele>
        <time>2011-12-18T09:11:47Z</time>
      </trkpt>
      <trkpt lat="48.86056" lon="-0.31983">
        <ele>203</ele>
        <time>2011-12-18T09:11:48Z</time>
      </trkpt>
      <trkpt lat="48.86056" lon="-0.31982">
        <ele>203.6000061</ele>
        <time>2011-12-18T09:11:49Z</time>
      </trkpt>
      <trkpt lat="48.86055" lon="-0.31981">
        <ele>204</ele>
        <time>2011-12-18T09:11:50Z</time>
      </trkpt>
      <trkpt lat="48.86055" lon="-0.31979">
        <ele>204.1999969</ele>
        <time>2011-12-18T09:11:51Z</time>
      </trkpt>
      <trkpt lat="48.86057" lon="-0.3197">
        <ele>204.1999969</ele>
        <time>2011-12-18T09:11:55Z</time>
      </trkpt>
      <trkpt lat="48.86058" lon="-0.31968">
        <ele>204.1999969</ele>
        <time>2011-12-18T09:11:56Z</time>
      </trkpt>
      <trkpt lat="48.86059" lon="-0.31961">
        <ele>204.8000031</ele>
        <time>2011-12-18T09:11:59Z</time>
      </trkpt>
      <trkpt lat="48.86059" lon="-0.31959">
        <ele>205</ele>
        <time>2011-12-18T09:12:00Z</time>
      </trkpt>
      <trkpt lat="48.8606" lon="-0.31956">
        <ele>205.6000061</ele>
        <time>2011-12-18T09:12:01Z</time>
      </trkpt>
      <trkpt lat="48.8606" lon="-0.31953">
        <ele>206</ele>
        <time>2011-12-18T09:12:02Z</time>
      </trkpt>
      <trkpt lat="48.86061" lon="-0.31951">
        <ele>206.1999969</ele>
        <time>2011-12-18T09:12:03Z</time>
      </trkpt>
      <trkpt lat="48.86065" lon="-0.3193">
        <ele>206.1999969</ele>
        <time>2011-12-18T09:12:10Z</time>
      </trkpt>
      <trkpt lat="48.86067" lon="-0.31924">
        <ele>206.8000031</ele>
        <time>2011-12-18T09:12:12Z</time>
      </trkpt>
      <trkpt lat="48.86068" lon="-0.31921">
        <ele>207.1999969</ele>
        <time>2011-12-18T09:12:13Z</time>
      </trkpt>
      <trkpt lat="48.86068" lon="-0.31919">
        <ele>207.8000031</ele>
        <time>2011-12-18T09:12:14Z</time>
      </trkpt>
      <trkpt lat="48.86069" lon="-0.31918">
        <ele>208</ele>
        <time>2011-12-18T09:12:15Z</time>
      </trkpt>
      <trkpt lat="48.8607" lon="-0.31915">
        <ele>208.6000061</ele>
        <time>2011-12-18T09:12:16Z</time>
      </trkpt>
      <trkpt lat="48.86076" lon="-0.319">
        <ele>209</ele>
        <time>2011-12-18T09:12:23Z</time>
      </trkpt>
      <trkpt lat="48.86077" lon="-0.31897">
        <ele>209.1999969</ele>
        <time>2011-12-18T09:12:24Z</time>
      </trkpt>
      <trkpt lat="48.86079" lon="-0.31894">
        <ele>209.8000031</ele>
        <time>2011-12-18T09:12:25Z</time>
      </trkpt>
      <trkpt lat="48.86082" lon="-0.31891">
        <ele>210</ele>
        <time>2011-12-18T09:12:26Z</time>
      </trkpt>
      <trkpt lat="48.86084" lon="-0.31889">
        <ele>210.8000031</ele>
        <time>2011-12-18T09:12:27Z</time>
      </trkpt>
      <trkpt lat="48.86089" lon="-0.31887">
        <ele>210.8000031</ele>
        <time>2011-12-18T09:12:29Z</time>
      </trkpt>
      <trkpt lat="48.86091" lon="-0.31887">
        <ele>211</ele>
        <time>2011-12-18T09:12:30Z</time>
      </trkpt>
      <trkpt lat="48.86093" lon="-0.31887">
        <ele>211.6000061</ele>
        <time>2011-12-18T09:12:31Z</time>
      </trkpt>
      <trkpt lat="48.86095" lon="-0.31888">
        <ele>212</ele>
        <time>2011-12-18T09:12:32Z</time>
      </trkpt>
      <trkpt lat="48.86097" lon="-0.31889">
        <ele>212.1999969</ele>
        <time>2011-12-18T09:12:33Z</time>
      </trkpt>
      <trkpt lat="48.86099" lon="-0.31891">
        <ele>213</ele>
        <time>2011-12-18T09:12:34Z</time>
      </trkpt>
      <trkpt lat="48.86102" lon="-0.31892">
        <ele>213</ele>
        <time>2011-12-18T09:12:35Z</time>
      </trkpt>
      <trkpt lat="48.86121" lon="-0.319">
        <ele>213</ele>
        <time>2011-12-18T09:12:42Z</time>
      </trkpt>
      <trkpt lat="48.86123" lon="-0.31902">
        <ele>213.1999969</ele>
        <time>2011-12-18T09:12:43Z</time>
      </trkpt>
      <trkpt lat="48.86126" lon="-0.31903">
        <ele>213.8000031</ele>
        <time>2011-12-18T09:12:44Z</time>
      </trkpt>
      <trkpt lat="48.86129" lon="-0.31905">
        <ele>214</ele>
        <time>2011-12-18T09:12:45Z</time>
      </trkpt>
      <trkpt lat="48.86132" lon="-0.31906">
        <ele>214.6000061</ele>
        <time>2011-12-18T09:12:46Z</time>
      </trkpt>
      <trkpt lat="48.86134" lon="-0.31908">
        <ele>215</ele>
        <time>2011-12-18T09:12:47Z</time>
      </trkpt>
      <trkpt lat="48.86137" lon="-0.3191">
        <ele>215</ele>
        <time>2011-12-18T09:12:48Z</time>
      </trkpt>
      <trkpt lat="48.86153" lon="-0.31921">
        <ele>215</ele>
        <time>2011-12-18T09:12:55Z</time>
      </trkpt>
      <trkpt lat="48.86158" lon="-0.31921">
        <ele>215</ele>
        <time>2011-12-18T09:12:57Z</time>
      </trkpt>
      <trkpt lat="48.8616" lon="-0.31916">
        <ele>215</ele>
        <time>2011-12-18T09:12:59Z</time>
      </trkpt>
      <trkpt lat="48.86159" lon="-0.31906">
        <ele>215</ele>
        <time>2011-12-18T09:13:02Z</time>
      </trkpt>
      <trkpt lat="48.86159" lon="-0.31902">
        <ele>215</ele>
        <time>2011-12-18T09:13:03Z</time>
      </trkpt>
      <trkpt lat="48.86157" lon="-0.31876">
        <ele>215</ele>
        <time>2011-12-18T09:13:09Z</time>
      </trkpt>
      <trkpt lat="48.86156" lon="-0.31871">
        <ele>215</ele>
        <time>2011-12-18T09:13:10Z</time>
      </trkpt>
      <trkpt lat="48.86152" lon="-0.31845">
        <ele>215</ele>
        <time>2011-12-18T09:13:16Z</time>
      </trkpt>
      <trkpt lat="48.86148" lon="-0.31817">
        <ele>215</ele>
        <time>2011-12-18T09:13:22Z</time>
      </trkpt>
      <trkpt lat="48.86148" lon="-0.31812">
        <ele>215</ele>
        <time>2011-12-18T09:13:23Z</time>
      </trkpt>
      <trkpt lat="48.86144" lon="-0.31787">
        <ele>215</ele>
        <time>2011-12-18T09:13:28Z</time>
      </trkpt>
      <trkpt lat="48.86143" lon="-0.31777">
        <ele>215</ele>
        <time>2011-12-18T09:13:30Z</time>
      </trkpt>
      <trkpt lat="48.86141" lon="-0.31756">
        <ele>215</ele>
        <time>2011-12-18T09:13:34Z</time>
      </trkpt>
      <trkpt lat="48.86139" lon="-0.31746">
        <ele>215</ele>
        <time>2011-12-18T09:13:36Z</time>
      </trkpt>
      <trkpt lat="48.86135" lon="-0.3172">
        <ele>215</ele>
        <time>2011-12-18T09:13:41Z</time>
      </trkpt>
      <trkpt lat="48.86134" lon="-0.31705">
        <ele>215</ele>
        <time>2011-12-18T09:13:44Z</time>
      </trkpt>
      <trkpt lat="48.86129" lon="-0.31655">
        <ele>215</ele>
        <time>2011-12-18T09:13:53Z</time>
      </trkpt>
      <trkpt lat="48.86126" lon="-0.31628">
        <ele>215</ele>
        <time>2011-12-18T09:13:58Z</time>
      </trkpt>
      <trkpt lat="48.86123" lon="-0.31606">
        <ele>215</ele>
        <time>2011-12-18T09:14:02Z</time>
      </trkpt>
      <trkpt lat="48.86121" lon="-0.31594">
        <ele>215</ele>
        <time>2011-12-18T09:14:04Z</time>
      </trkpt>
      <trkpt lat="48.86116" lon="-0.31565">
        <ele>215</ele>
        <time>2011-12-18T09:14:09Z</time>
      </trkpt>
      <trkpt lat="48.86115" lon="-0.3156">
        <ele>215</ele>
        <time>2011-12-18T09:14:10Z</time>
      </trkpt>
      <trkpt lat="48.86111" lon="-0.31534">
        <ele>215</ele>
        <time>2011-12-18T09:14:15Z</time>
      </trkpt>
      <trkpt lat="48.86107" lon="-0.315">
        <ele>215</ele>
        <time>2011-12-18T09:14:22Z</time>
      </trkpt>
      <trkpt lat="48.86103" lon="-0.3147">
        <ele>215</ele>
        <time>2011-12-18T09:14:28Z</time>
      </trkpt>
      <trkpt lat="48.86098" lon="-0.31438">
        <ele>215</ele>
        <time>2011-12-18T09:14:34Z</time>
      </trkpt>
      <trkpt lat="48.8609" lon="-0.31397">
        <ele>215</ele>
        <time>2011-12-18T09:14:42Z</time>
      </trkpt>
      <trkpt lat="48.86083" lon="-0.31367">
        <ele>215</ele>
        <time>2011-12-18T09:14:48Z</time>
      </trkpt>
      <trkpt lat="48.86082" lon="-0.31363">
        <ele>215</ele>
        <time>2011-12-18T09:14:49Z</time>
      </trkpt>
      <trkpt lat="48.8608" lon="-0.31358">
        <ele>214.6000061</ele>
        <time>2011-12-18T09:14:50Z</time>
      </trkpt>
      <trkpt lat="48.86079" lon="-0.31353">
        <ele>214</ele>
        <time>2011-12-18T09:14:51Z</time>
      </trkpt>
      <trkpt lat="48.86078" lon="-0.31348">
        <ele>213.6000061</ele>
        <time>2011-12-18T09:14:52Z</time>
      </trkpt>
      <trkpt lat="48.86077" lon="-0.31343">
        <ele>213</ele>
        <time>2011-12-18T09:14:53Z</time>
      </trkpt>
      <trkpt lat="48.86076" lon="-0.31337">
        <ele>212.8000031</ele>
        <time>2011-12-18T09:14:54Z</time>
      </trkpt>
      <trkpt lat="48.86074" lon="-0.31331">
        <ele>212.8000031</ele>
        <time>2011-12-18T09:14:55Z</time>
      </trkpt>
      <trkpt lat="48.86068" lon="-0.31296">
        <ele>212.8000031</ele>
        <time>2011-12-18T09:15:02Z</time>
      </trkpt>
      <trkpt lat="48.86068" lon="-0.31289">
        <ele>212.8000031</ele>
        <time>2011-12-18T09:15:05Z</time>
      </trkpt>
      <trkpt lat="48.86071" lon="-0.31287">
        <ele>212.8000031</ele>
        <time>2011-12-18T09:15:07Z</time>
      </trkpt>
      <trkpt lat="48.86078" lon="-0.31286">
        <ele>212.8000031</ele>
        <time>2011-12-18T09:15:10Z</time>
      </trkpt>
      <trkpt lat="48.86082" lon="-0.31285">
        <ele>212.8000031</ele>
        <time>2011-12-18T09:15:12Z</time>
      </trkpt>
      <trkpt lat="48.86086" lon="-0.31284">
        <ele>212.8000031</ele>
        <time>2011-12-18T09:15:14Z</time>
      </trkpt>
      <trkpt lat="48.86098" lon="-0.31279">
        <ele>212.8000031</ele>
        <time>2011-12-18T09:15:19Z</time>
      </trkpt>
      <trkpt lat="48.8611" lon="-0.31277">
        <ele>212.8000031</ele>
        <time>2011-12-18T09:15:23Z</time>
      </trkpt>
      <trkpt lat="48.86114" lon="-0.31276">
        <ele>212.8000031</ele>
        <time>2011-12-18T09:15:25Z</time>
      </trkpt>
      <trkpt lat="48.86116" lon="-0.31276">
        <ele>212.8000031</ele>
        <time>2011-12-18T09:15:28Z</time>
      </trkpt>
      <trkpt lat="48.8612" lon="-0.31275">
        <ele>212.8000031</ele>
        <time>2011-12-18T09:15:35Z</time>
      </trkpt>
      <trkpt lat="48.86134" lon="-0.31271">
        <ele>212.8000031</ele>
        <time>2011-12-18T09:15:41Z</time>
      </trkpt>
      <trkpt lat="48.86144" lon="-0.31267">
        <ele>212.8000031</ele>
        <time>2011-12-18T09:15:45Z</time>
      </trkpt>
      <trkpt lat="48.86153" lon="-0.31265">
        <ele>212.8000031</ele>
        <time>2011-12-18T09:15:49Z</time>
      </trkpt>
      <trkpt lat="48.86168" lon="-0.31259">
        <ele>212.8000031</ele>
        <time>2011-12-18T09:15:54Z</time>
      </trkpt>
      <trkpt lat="48.86178" lon="-0.31256">
        <ele>212.8000031</ele>
        <time>2011-12-18T09:15:57Z</time>
      </trkpt>
      <trkpt lat="48.8619" lon="-0.31253">
        <ele>212.8000031</ele>
        <time>2011-12-18T09:16:01Z</time>
      </trkpt>
      <trkpt lat="48.86193" lon="-0.31252">
        <ele>212.8000031</ele>
        <time>2011-12-18T09:16:02Z</time>
      </trkpt>
      <trkpt lat="48.86213" lon="-0.31249">
        <ele>212.8000031</ele>
        <time>2011-12-18T09:16:08Z</time>
      </trkpt>
      <trkpt lat="48.86223" lon="-0.3125">
        <ele>213</ele>
        <time>2011-12-18T09:16:11Z</time>
      </trkpt>
      <trkpt lat="48.86226" lon="-0.3125">
        <ele>214</ele>
        <time>2011-12-18T09:16:12Z</time>
      </trkpt>
      <trkpt lat="48.8623" lon="-0.31251">
        <ele>214.1999969</ele>
        <time>2011-12-18T09:16:13Z</time>
      </trkpt>
      <trkpt lat="48.86233" lon="-0.31251">
        <ele>214.8000031</ele>
        <time>2011-12-18T09:16:14Z</time>
      </trkpt>
      <trkpt lat="48.86248" lon="-0.31253">
        <ele>214.8000031</ele>
        <time>2011-12-18T09:16:18Z</time>
      </trkpt>
      <trkpt lat="48.86255" lon="-0.31254">
        <ele>214.8000031</ele>
        <time>2011-12-18T09:16:20Z</time>
      </trkpt>
      <trkpt lat="48.86266" lon="-0.31257">
        <ele>214.8000031</ele>
        <time>2011-12-18T09:16:23Z</time>
      </trkpt>
      <trkpt lat="48.86277" lon="-0.3126">
        <ele>214.8000031</ele>
        <time>2011-12-18T09:16:26Z</time>
      </trkpt>
      <trkpt lat="48.86288" lon="-0.31262">
        <ele>214.8000031</ele>
        <time>2011-12-18T09:16:29Z</time>
      </trkpt>
      <trkpt lat="48.863" lon="-0.31262">
        <ele>214.8000031</ele>
        <time>2011-12-18T09:16:32Z</time>
      </trkpt>
      <trkpt lat="48.86307" lon="-0.31263">
        <ele>214.8000031</ele>
        <time>2011-12-18T09:16:34Z</time>
      </trkpt>
      <trkpt lat="48.8632" lon="-0.31261">
        <ele>214.8000031</ele>
        <time>2011-12-18T09:16:38Z</time>
      </trkpt>
      <trkpt lat="48.86326" lon="-0.3126">
        <ele>214.8000031</ele>
        <time>2011-12-18T09:16:40Z</time>
      </trkpt>
      <trkpt lat="48.86348" lon="-0.31259">
        <ele>214.8000031</ele>
        <time>2011-12-18T09:16:46Z</time>
      </trkpt>
      <trkpt lat="48.86372" lon="-0.31255">
        <ele>214.8000031</ele>
        <time>2011-12-18T09:16:52Z</time>
      </trkpt>
      <trkpt lat="48.864" lon="-0.31252">
        <ele>214.8000031</ele>
        <time>2011-12-18T09:16:59Z</time>
      </trkpt>
      <trkpt lat="48.8642" lon="-0.31248">
        <ele>214.8000031</ele>
        <time>2011-12-18T09:17:05Z</time>
      </trkpt>
      <trkpt lat="48.86441" lon="-0.31253">
        <ele>214.8000031</ele>
        <time>2011-12-18T09:17:11Z</time>
      </trkpt>
      <trkpt lat="48.86459" lon="-0.3126">
        <ele>214.8000031</ele>
        <time>2011-12-18T09:17:17Z</time>
      </trkpt>
      <trkpt lat="48.86482" lon="-0.31267">
        <ele>214.8000031</ele>
        <time>2011-12-18T09:17:24Z</time>
      </trkpt>
      <trkpt lat="48.86499" lon="-0.31264">
        <ele>214.8000031</ele>
        <time>2011-12-18T09:17:30Z</time>
      </trkpt>
      <trkpt lat="48.86522" lon="-0.31258">
        <ele>214.8000031</ele>
        <time>2011-12-18T09:17:38Z</time>
      </trkpt>
      <trkpt lat="48.86542" lon="-0.31253">
        <ele>214.8000031</ele>
        <time>2011-12-18T09:17:44Z</time>
      </trkpt>
      <trkpt lat="48.86563" lon="-0.31247">
        <ele>214.8000031</ele>
        <time>2011-12-18T09:17:51Z</time>
      </trkpt>
      <trkpt lat="48.86585" lon="-0.31242">
        <ele>214.8000031</ele>
        <time>2011-12-18T09:17:59Z</time>
      </trkpt>
      <trkpt lat="48.86598" lon="-0.31241">
        <ele>214.8000031</ele>
        <time>2011-12-18T09:18:04Z</time>
      </trkpt>
      <trkpt lat="48.86617" lon="-0.31239">
        <ele>214.8000031</ele>
        <time>2011-12-18T09:18:11Z</time>
      </trkpt>
      <trkpt lat="48.86634" lon="-0.31237">
        <ele>214.8000031</ele>
        <time>2011-12-18T09:18:17Z</time>
      </trkpt>
      <trkpt lat="48.86657" lon="-0.31234">
        <ele>214.8000031</ele>
        <time>2011-12-18T09:18:25Z</time>
      </trkpt>
      <trkpt lat="48.86677" lon="-0.31233">
        <ele>214.8000031</ele>
        <time>2011-12-18T09:18:31Z</time>
      </trkpt>
      <trkpt lat="48.86682" lon="-0.31232">
        <ele>215</ele>
        <time>2011-12-18T09:18:33Z</time>
      </trkpt>
      <trkpt lat="48.86686" lon="-0.31231">
        <ele>215.8000031</ele>
        <time>2011-12-18T09:18:34Z</time>
      </trkpt>
      <trkpt lat="48.86689" lon="-0.31231">
        <ele>216</ele>
        <time>2011-12-18T09:18:35Z</time>
      </trkpt>
      <trkpt lat="48.86692" lon="-0.31231">
        <ele>216.6000061</ele>
        <time>2011-12-18T09:18:36Z</time>
      </trkpt>
      <trkpt lat="48.86695" lon="-0.3123">
        <ele>217</ele>
        <time>2011-12-18T09:18:37Z</time>
      </trkpt>
      <trkpt lat="48.86718" lon="-0.31225">
        <ele>217</ele>
        <time>2011-12-18T09:18:45Z</time>
      </trkpt>
      <trkpt lat="48.86737" lon="-0.31223">
        <ele>217</ele>
        <time>2011-12-18T09:18:51Z</time>
      </trkpt>
      <trkpt lat="48.86755" lon="-0.3122">
        <ele>217</ele>
        <time>2011-12-18T09:18:57Z</time>
      </trkpt>
      <trkpt lat="48.86771" lon="-0.31211">
        <ele>217</ele>
        <time>2011-12-18T09:19:03Z</time>
      </trkpt>
      <trkpt lat="48.86786" lon="-0.31197">
        <ele>217</ele>
        <time>2011-12-18T09:19:09Z</time>
      </trkpt>
      <trkpt lat="48.86806" lon="-0.31174">
        <ele>217</ele>
        <time>2011-12-18T09:19:17Z</time>
      </trkpt>
      <trkpt lat="48.86822" lon="-0.31162">
        <ele>217</ele>
        <time>2011-12-18T09:19:23Z</time>
      </trkpt>
      <trkpt lat="48.86825" lon="-0.31163">
        <ele>217</ele>
        <time>2011-12-18T09:19:24Z</time>
      </trkpt>
      <trkpt lat="48.86827" lon="-0.31165">
        <ele>217</ele>
        <time>2011-12-18T09:19:27Z</time>
      </trkpt>
      <trkpt lat="48.86831" lon="-0.31169">
        <ele>217</ele>
        <time>2011-12-18T09:27:48Z</time>
      </trkpt>
      <trkpt lat="48.86832" lon="-0.31172">
        <ele>217</ele>
        <time>2011-12-18T09:27:49Z</time>
      </trkpt>
      <trkpt lat="48.86833" lon="-0.31178">
        <ele>217</ele>
        <time>2011-12-18T09:27:51Z</time>
      </trkpt>
      <trkpt lat="48.86834" lon="-0.31185">
        <ele>217</ele>
        <time>2011-12-18T09:27:53Z</time>
      </trkpt>
      <trkpt lat="48.86836" lon="-0.31188">
        <ele>217</ele>
        <time>2011-12-18T09:27:54Z</time>
      </trkpt>
      <trkpt lat="48.86846" lon="-0.31218">
        <ele>217</ele>
        <time>2011-12-18T09:28:02Z</time>
      </trkpt>
      <trkpt lat="48.8685" lon="-0.31231">
        <ele>217</ele>
        <time>2011-12-18T09:28:05Z</time>
      </trkpt>
      <trkpt lat="48.86853" lon="-0.31239">
        <ele>217</ele>
        <time>2011-12-18T09:28:07Z</time>
      </trkpt>
      <trkpt lat="48.86855" lon="-0.31247">
        <ele>217</ele>
        <time>2011-12-18T09:28:09Z</time>
      </trkpt>
      <trkpt lat="48.86857" lon="-0.3127">
        <ele>217</ele>
        <time>2011-12-18T09:28:14Z</time>
      </trkpt>
      <trkpt lat="48.86847" lon="-0.31304">
        <ele>217</ele>
        <time>2011-12-18T09:28:21Z</time>
      </trkpt>
      <trkpt lat="48.86844" lon="-0.31315">
        <ele>217</ele>
        <time>2011-12-18T09:28:23Z</time>
      </trkpt>
      <trkpt lat="48.86837" lon="-0.31334">
        <ele>217</ele>
        <time>2011-12-18T09:28:27Z</time>
      </trkpt>
      <trkpt lat="48.86829" lon="-0.31354">
        <ele>217</ele>
        <time>2011-12-18T09:28:31Z</time>
      </trkpt>
      <trkpt lat="48.8682" lon="-0.31379">
        <ele>217</ele>
        <time>2011-12-18T09:28:36Z</time>
      </trkpt>
      <trkpt lat="48.8681" lon="-0.31403">
        <ele>217</ele>
        <time>2011-12-18T09:28:41Z</time>
      </trkpt>
      <trkpt lat="48.86807" lon="-0.31411">
        <ele>217</ele>
        <time>2011-12-18T09:28:43Z</time>
      </trkpt>
      <trkpt lat="48.86795" lon="-0.31441">
        <ele>217</ele>
        <time>2011-12-18T09:28:49Z</time>
      </trkpt>
      <trkpt lat="48.86783" lon="-0.31475">
        <ele>217</ele>
        <time>2011-12-18T09:28:56Z</time>
      </trkpt>
      <trkpt lat="48.8677" lon="-0.31504">
        <ele>217</ele>
        <time>2011-12-18T09:29:02Z</time>
      </trkpt>
      <trkpt lat="48.86749" lon="-0.31544">
        <ele>217</ele>
        <time>2011-12-18T09:29:11Z</time>
      </trkpt>
      <trkpt lat="48.86742" lon="-0.3157">
        <ele>217</ele>
        <time>2011-12-18T09:29:17Z</time>
      </trkpt>
      <trkpt lat="48.86743" lon="-0.31594">
        <ele>217</ele>
        <time>2011-12-18T09:29:22Z</time>
      </trkpt>
      <trkpt lat="48.86743" lon="-0.31598">
        <ele>217</ele>
        <time>2011-12-18T09:29:23Z</time>
      </trkpt>
      <trkpt lat="48.86747" lon="-0.31613">
        <ele>216.6000061</ele>
        <time>2011-12-18T09:29:26Z</time>
      </trkpt>
      <trkpt lat="48.86749" lon="-0.31618">
        <ele>216</ele>
        <time>2011-12-18T09:29:27Z</time>
      </trkpt>
      <trkpt lat="48.86751" lon="-0.31622">
        <ele>215.8000031</ele>
        <time>2011-12-18T09:29:28Z</time>
      </trkpt>
      <trkpt lat="48.86753" lon="-0.31628">
        <ele>215</ele>
        <time>2011-12-18T09:29:29Z</time>
      </trkpt>
      <trkpt lat="48.86755" lon="-0.31633">
        <ele>214.8000031</ele>
        <time>2011-12-18T09:29:30Z</time>
      </trkpt>
      <trkpt lat="48.86757" lon="-0.31638">
        <ele>214.8000031</ele>
        <time>2011-12-18T09:29:31Z</time>
      </trkpt>
      <trkpt lat="48.86758" lon="-0.31643">
        <ele>214.1999969</ele>
        <time>2011-12-18T09:29:32Z</time>
      </trkpt>
      <trkpt lat="48.8676" lon="-0.31647">
        <ele>213.8000031</ele>
        <time>2011-12-18T09:29:33Z</time>
      </trkpt>
      <trkpt lat="48.86761" lon="-0.31652">
        <ele>213.1999969</ele>
        <time>2011-12-18T09:29:34Z</time>
      </trkpt>
      <trkpt lat="48.86762" lon="-0.31656">
        <ele>213</ele>
        <time>2011-12-18T09:29:35Z</time>
      </trkpt>
      <trkpt lat="48.86763" lon="-0.3166">
        <ele>212.1999969</ele>
        <time>2011-12-18T09:29:36Z</time>
      </trkpt>
      <trkpt lat="48.86767" lon="-0.31674">
        <ele>212</ele>
        <time>2011-12-18T09:29:39Z</time>
      </trkpt>
      <trkpt lat="48.86767" lon="-0.31677">
        <ele>211.1999969</ele>
        <time>2011-12-18T09:29:40Z</time>
      </trkpt>
      <trkpt lat="48.86768" lon="-0.31681">
        <ele>211</ele>
        <time>2011-12-18T09:29:41Z</time>
      </trkpt>
      <trkpt lat="48.86769" lon="-0.31686">
        <ele>210.6000061</ele>
        <time>2011-12-18T09:29:42Z</time>
      </trkpt>
      <trkpt lat="48.8677" lon="-0.31692">
        <ele>210</ele>
        <time>2011-12-18T09:29:43Z</time>
      </trkpt>
      <trkpt lat="48.86772" lon="-0.31701">
        <ele>210</ele>
        <time>2011-12-18T09:29:45Z</time>
      </trkpt>
      <trkpt lat="48.86773" lon="-0.31707">
        <ele>209.6000061</ele>
        <time>2011-12-18T09:29:46Z</time>
      </trkpt>
      <trkpt lat="48.86774" lon="-0.31714">
        <ele>209</ele>
        <time>2011-12-18T09:29:47Z</time>
      </trkpt>
      <trkpt lat="48.86776" lon="-0.31721">
        <ele>208.1999969</ele>
        <time>2011-12-18T09:29:48Z</time>
      </trkpt>
      <trkpt lat="48.86777" lon="-0.31728">
        <ele>208</ele>
        <time>2011-12-18T09:29:49Z</time>
      </trkpt>
      <trkpt lat="48.86778" lon="-0.31735">
        <ele>207.6000061</ele>
        <time>2011-12-18T09:29:50Z</time>
      </trkpt>
      <trkpt lat="48.8678" lon="-0.31742">
        <ele>207</ele>
        <time>2011-12-18T09:29:51Z</time>
      </trkpt>
      <trkpt lat="48.86781" lon="-0.3175">
        <ele>206.8000031</ele>
        <time>2011-12-18T09:29:52Z</time>
      </trkpt>
      <trkpt lat="48.86783" lon="-0.31758">
        <ele>206.1999969</ele>
        <time>2011-12-18T09:29:53Z</time>
      </trkpt>
      <trkpt lat="48.86785" lon="-0.31768">
        <ele>205.8000031</ele>
        <time>2011-12-18T09:29:54Z</time>
      </trkpt>
      <trkpt lat="48.86786" lon="-0.31777">
        <ele>205</ele>
        <time>2011-12-18T09:29:55Z</time>
      </trkpt>
      <trkpt lat="48.86787" lon="-0.31786">
        <ele>204.8000031</ele>
        <time>2011-12-18T09:29:56Z</time>
      </trkpt>
      <trkpt lat="48.86789" lon="-0.31795">
        <ele>204</ele>
        <time>2011-12-18T09:29:57Z</time>
      </trkpt>
      <trkpt lat="48.8679" lon="-0.31803">
        <ele>203.8000031</ele>
        <time>2011-12-18T09:29:58Z</time>
      </trkpt>
      <trkpt lat="48.86791" lon="-0.31812">
        <ele>203</ele>
        <time>2011-12-18T09:29:59Z</time>
      </trkpt>
      <trkpt lat="48.86791" lon="-0.31821">
        <ele>202.6000061</ele>
        <time>2011-12-18T09:30:00Z</time>
      </trkpt>
      <trkpt lat="48.86793" lon="-0.31829">
        <ele>202</ele>
        <time>2011-12-18T09:30:01Z</time>
      </trkpt>
      <trkpt lat="48.86794" lon="-0.31838">
        <ele>201.1999969</ele>
        <time>2011-12-18T09:30:02Z</time>
      </trkpt>
      <trkpt lat="48.86795" lon="-0.31846">
        <ele>200.8000031</ele>
        <time>2011-12-18T09:30:03Z</time>
      </trkpt>
      <trkpt lat="48.86796" lon="-0.31852">
        <ele>200</ele>
        <time>2011-12-18T09:30:04Z</time>
      </trkpt>
      <trkpt lat="48.86797" lon="-0.31859">
        <ele>199.1999969</ele>
        <time>2011-12-18T09:30:05Z</time>
      </trkpt>
      <trkpt lat="48.86798" lon="-0.31865">
        <ele>198.8000031</ele>
        <time>2011-12-18T09:30:06Z</time>
      </trkpt>
      <trkpt lat="48.86799" lon="-0.31872">
        <ele>198</ele>
        <time>2011-12-18T09:30:07Z</time>
      </trkpt>
      <trkpt lat="48.86799" lon="-0.31879">
        <ele>197.6000061</ele>
        <time>2011-12-18T09:30:08Z</time>
      </trkpt>
      <trkpt lat="48.868" lon="-0.31885">
        <ele>196.8000031</ele>
        <time>2011-12-18T09:30:09Z</time>
      </trkpt>
      <trkpt lat="48.868" lon="-0.31891">
        <ele>196.1999969</ele>
        <time>2011-12-18T09:30:10Z</time>
      </trkpt>
      <trkpt lat="48.868" lon="-0.31898">
        <ele>196</ele>
        <time>2011-12-18T09:30:11Z</time>
      </trkpt>
      <trkpt lat="48.868" lon="-0.31904">
        <ele>195.6000061</ele>
        <time>2011-12-18T09:30:12Z</time>
      </trkpt>
      <trkpt lat="48.868" lon="-0.31911">
        <ele>194.6000061</ele>
        <time>2011-12-18T09:30:13Z</time>
      </trkpt>
      <trkpt lat="48.86799" lon="-0.31918">
        <ele>194</ele>
        <time>2011-12-18T09:30:14Z</time>
      </trkpt>
      <trkpt lat="48.86799" lon="-0.31925">
        <ele>193.6000061</ele>
        <time>2011-12-18T09:30:15Z</time>
      </trkpt>
      <trkpt lat="48.86798" lon="-0.31932">
        <ele>193</ele>
        <time>2011-12-18T09:30:16Z</time>
      </trkpt>
      <trkpt lat="48.86798" lon="-0.3194">
        <ele>192.8000031</ele>
        <time>2011-12-18T09:30:17Z</time>
      </trkpt>
      <trkpt lat="48.86798" lon="-0.31946">
        <ele>192</ele>
        <time>2011-12-18T09:30:18Z</time>
      </trkpt>
      <trkpt lat="48.86798" lon="-0.3196">
        <ele>191.8000031</ele>
        <time>2011-12-18T09:30:20Z</time>
      </trkpt>
      <trkpt lat="48.86798" lon="-0.31968">
        <ele>191</ele>
        <time>2011-12-18T09:30:21Z</time>
      </trkpt>
      <trkpt lat="48.86798" lon="-0.31975">
        <ele>190.8000031</ele>
        <time>2011-12-18T09:30:22Z</time>
      </trkpt>
      <trkpt lat="48.86798" lon="-0.31983">
        <ele>190.1999969</ele>
        <time>2011-12-18T09:30:23Z</time>
      </trkpt>
      <trkpt lat="48.86798" lon="-0.31989">
        <ele>189.8000031</ele>
        <time>2011-12-18T09:30:24Z</time>
      </trkpt>
      <trkpt lat="48.86798" lon="-0.32014">
        <ele>189.1999969</ele>
        <time>2011-12-18T09:30:27Z</time>
      </trkpt>
      <trkpt lat="48.86798" lon="-0.32022">
        <ele>188.8000031</ele>
        <time>2011-12-18T09:30:28Z</time>
      </trkpt>
      <trkpt lat="48.86798" lon="-0.32029">
        <ele>188.1999969</ele>
        <time>2011-12-18T09:30:29Z</time>
      </trkpt>
      <trkpt lat="48.86798" lon="-0.32037">
        <ele>188</ele>
        <time>2011-12-18T09:30:30Z</time>
      </trkpt>
      <trkpt lat="48.86798" lon="-0.32044">
        <ele>187.1999969</ele>
        <time>2011-12-18T09:30:31Z</time>
      </trkpt>
      <trkpt lat="48.86798" lon="-0.32052">
        <ele>187</ele>
        <time>2011-12-18T09:30:32Z</time>
      </trkpt>
      <trkpt lat="48.86798" lon="-0.32059">
        <ele>186.6000061</ele>
        <time>2011-12-18T09:30:33Z</time>
      </trkpt>
      <trkpt lat="48.86797" lon="-0.32066">
        <ele>186</ele>
        <time>2011-12-18T09:30:34Z</time>
      </trkpt>
      <trkpt lat="48.86798" lon="-0.32073">
        <ele>185.8000031</ele>
        <time>2011-12-18T09:30:35Z</time>
      </trkpt>
      <trkpt lat="48.86798" lon="-0.3208">
        <ele>185.1999969</ele>
        <time>2011-12-18T09:30:36Z</time>
      </trkpt>
      <trkpt lat="48.868" lon="-0.3209">
        <ele>185</ele>
        <time>2011-12-18T09:30:38Z</time>
      </trkpt>
      <trkpt lat="48.86802" lon="-0.32094">
        <ele>184.1999969</ele>
        <time>2011-12-18T09:30:39Z</time>
      </trkpt>
      <trkpt lat="48.86804" lon="-0.32095">
        <ele>184</ele>
        <time>2011-12-18T09:30:40Z</time>
      </trkpt>
      <trkpt lat="48.86806" lon="-0.32096">
        <ele>183.6000061</ele>
        <time>2011-12-18T09:30:41Z</time>
      </trkpt>
      <trkpt lat="48.86809" lon="-0.32096">
        <ele>183</ele>
        <time>2011-12-18T09:30:42Z</time>
      </trkpt>
      <trkpt lat="48.86812" lon="-0.32096">
        <ele>183</ele>
        <time>2011-12-18T09:30:43Z</time>
      </trkpt>
      <trkpt lat="48.8682" lon="-0.32099">
        <ele>182.8000031</ele>
        <time>2011-12-18T09:30:46Z</time>
      </trkpt>
      <trkpt lat="48.86822" lon="-0.32099">
        <ele>182.1999969</ele>
        <time>2011-12-18T09:30:47Z</time>
      </trkpt>
      <trkpt lat="48.86824" lon="-0.321">
        <ele>181.8000031</ele>
        <time>2011-12-18T09:30:48Z</time>
      </trkpt>
      <trkpt lat="48.86826" lon="-0.32101">
        <ele>181.1999969</ele>
        <time>2011-12-18T09:30:49Z</time>
      </trkpt>
      <trkpt lat="48.86827" lon="-0.32101">
        <ele>181</ele>
        <time>2011-12-18T09:30:50Z</time>
      </trkpt>
      <trkpt lat="48.86829" lon="-0.32102">
        <ele>181</ele>
        <time>2011-12-18T09:30:51Z</time>
      </trkpt>
      <trkpt lat="48.8683" lon="-0.32103">
        <ele>180.6000061</ele>
        <time>2011-12-18T09:30:52Z</time>
      </trkpt>
      <trkpt lat="48.86831" lon="-0.32104">
        <ele>180</ele>
        <time>2011-12-18T09:30:53Z</time>
      </trkpt>
      <trkpt lat="48.86833" lon="-0.32106">
        <ele>179.8000031</ele>
        <time>2011-12-18T09:30:54Z</time>
      </trkpt>
      <trkpt lat="48.86835" lon="-0.32108">
        <ele>179.1999969</ele>
        <time>2011-12-18T09:30:55Z</time>
      </trkpt>
      <trkpt lat="48.86837" lon="-0.3211">
        <ele>178.8000031</ele>
        <time>2011-12-18T09:30:56Z</time>
      </trkpt>
      <trkpt lat="48.86839" lon="-0.32113">
        <ele>178.1999969</ele>
        <time>2011-12-18T09:30:57Z</time>
      </trkpt>
      <trkpt lat="48.86841" lon="-0.32115">
        <ele>177.8000031</ele>
        <time>2011-12-18T09:30:58Z</time>
      </trkpt>
      <trkpt lat="48.86843" lon="-0.32117">
        <ele>177</ele>
        <time>2011-12-18T09:30:59Z</time>
      </trkpt>
      <trkpt lat="48.86846" lon="-0.32119">
        <ele>176.6000061</ele>
        <time>2011-12-18T09:31:00Z</time>
      </trkpt>
      <trkpt lat="48.86848" lon="-0.32121">
        <ele>176</ele>
        <time>2011-12-18T09:31:01Z</time>
      </trkpt>
      <trkpt lat="48.8685" lon="-0.32125">
        <ele>174.8000031</ele>
        <time>2011-12-18T09:31:02Z</time>
      </trkpt>
      <trkpt lat="48.86852" lon="-0.32128">
        <ele>174</ele>
        <time>2011-12-18T09:31:03Z</time>
      </trkpt>
      <trkpt lat="48.86854" lon="-0.32133">
        <ele>173.6000061</ele>
        <time>2011-12-18T09:31:04Z</time>
      </trkpt>
      <trkpt lat="48.86856" lon="-0.32137">
        <ele>173</ele>
        <time>2011-12-18T09:31:05Z</time>
      </trkpt>
      <trkpt lat="48.86858" lon="-0.32142">
        <ele>172</ele>
        <time>2011-12-18T09:31:06Z</time>
      </trkpt>
      <trkpt lat="48.86858" lon="-0.32146">
        <ele>171.6000061</ele>
        <time>2011-12-18T09:31:07Z</time>
      </trkpt>
      <trkpt lat="48.8686" lon="-0.32152">
        <ele>170.8000031</ele>
        <time>2011-12-18T09:31:08Z</time>
      </trkpt>
      <trkpt lat="48.86861" lon="-0.32157">
        <ele>170</ele>
        <time>2011-12-18T09:31:09Z</time>
      </trkpt>
      <trkpt lat="48.86861" lon="-0.32161">
        <ele>169.6000061</ele>
        <time>2011-12-18T09:31:10Z</time>
      </trkpt>
      <trkpt lat="48.86862" lon="-0.32166">
        <ele>168.8000031</ele>
        <time>2011-12-18T09:31:11Z</time>
      </trkpt>
      <trkpt lat="48.86863" lon="-0.32171">
        <ele>168</ele>
        <time>2011-12-18T09:31:12Z</time>
      </trkpt>
      <trkpt lat="48.86864" lon="-0.32176">
        <ele>167.6000061</ele>
        <time>2011-12-18T09:31:13Z</time>
      </trkpt>
      <trkpt lat="48.86865" lon="-0.32182">
        <ele>167</ele>
        <time>2011-12-18T09:31:14Z</time>
      </trkpt>
      <trkpt lat="48.86866" lon="-0.32187">
        <ele>166.8000031</ele>
        <time>2011-12-18T09:31:15Z</time>
      </trkpt>
      <trkpt lat="48.86867" lon="-0.32194">
        <ele>166</ele>
        <time>2011-12-18T09:31:16Z</time>
      </trkpt>
      <trkpt lat="48.86868" lon="-0.322">
        <ele>165.6000061</ele>
        <time>2011-12-18T09:31:17Z</time>
      </trkpt>
      <trkpt lat="48.86868" lon="-0.32207">
        <ele>165</ele>
        <time>2011-12-18T09:31:18Z</time>
      </trkpt>
      <trkpt lat="48.86869" lon="-0.32213">
        <ele>164.1999969</ele>
        <time>2011-12-18T09:31:19Z</time>
      </trkpt>
      <trkpt lat="48.8687" lon="-0.3222">
        <ele>163.6000061</ele>
        <time>2011-12-18T09:31:20Z</time>
      </trkpt>
      <trkpt lat="48.86871" lon="-0.32226">
        <ele>163</ele>
        <time>2011-12-18T09:31:21Z</time>
      </trkpt>
      <trkpt lat="48.86871" lon="-0.32234">
        <ele>162.1999969</ele>
        <time>2011-12-18T09:31:22Z</time>
      </trkpt>
      <trkpt lat="48.86871" lon="-0.3224">
        <ele>161.8000031</ele>
        <time>2011-12-18T09:31:23Z</time>
      </trkpt>
      <trkpt lat="48.86872" lon="-0.32246">
        <ele>161</ele>
        <time>2011-12-18T09:31:24Z</time>
      </trkpt>
      <trkpt lat="48.86872" lon="-0.32253">
        <ele>160.1999969</ele>
        <time>2011-12-18T09:31:25Z</time>
      </trkpt>
      <trkpt lat="48.86871" lon="-0.3226">
        <ele>159.8000031</ele>
        <time>2011-12-18T09:31:26Z</time>
      </trkpt>
      <trkpt lat="48.8687" lon="-0.32267">
        <ele>158.1999969</ele>
        <time>2011-12-18T09:31:27Z</time>
      </trkpt>
      <trkpt lat="48.86869" lon="-0.32275">
        <ele>157.8000031</ele>
        <time>2011-12-18T09:31:28Z</time>
      </trkpt>
      <trkpt lat="48.86868" lon="-0.32283">
        <ele>157</ele>
        <time>2011-12-18T09:31:29Z</time>
      </trkpt>
      <trkpt lat="48.86869" lon="-0.32292">
        <ele>156.1999969</ele>
        <time>2011-12-18T09:31:30Z</time>
      </trkpt>
      <trkpt lat="48.86868" lon="-0.323">
        <ele>155.8000031</ele>
        <time>2011-12-18T09:31:31Z</time>
      </trkpt>
      <trkpt lat="48.86867" lon="-0.32308">
        <ele>155</ele>
        <time>2011-12-18T09:31:32Z</time>
      </trkpt>
      <trkpt lat="48.86866" lon="-0.32314">
        <ele>154.1999969</ele>
        <time>2011-12-18T09:31:33Z</time>
      </trkpt>
      <trkpt lat="48.86865" lon="-0.32323">
        <ele>153.8000031</ele>
        <time>2011-12-18T09:31:34Z</time>
      </trkpt>
      <trkpt lat="48.86863" lon="-0.32332">
        <ele>153</ele>
        <time>2011-12-18T09:31:35Z</time>
      </trkpt>
      <trkpt lat="48.86862" lon="-0.32339">
        <ele>152.8000031</ele>
        <time>2011-12-18T09:31:36Z</time>
      </trkpt>
      <trkpt lat="48.86861" lon="-0.32345">
        <ele>152</ele>
        <time>2011-12-18T09:31:37Z</time>
      </trkpt>
      <trkpt lat="48.8686" lon="-0.32351">
        <ele>151.6000061</ele>
        <time>2011-12-18T09:31:38Z</time>
      </trkpt>
      <trkpt lat="48.86859" lon="-0.32356">
        <ele>150.8000031</ele>
        <time>2011-12-18T09:31:39Z</time>
      </trkpt>
      <trkpt lat="48.86858" lon="-0.3236">
        <ele>150</ele>
        <time>2011-12-18T09:31:40Z</time>
      </trkpt>
      <trkpt lat="48.86857" lon="-0.32365">
        <ele>149.6000061</ele>
        <time>2011-12-18T09:31:41Z</time>
      </trkpt>
      <trkpt lat="48.86856" lon="-0.3237">
        <ele>149</ele>
        <time>2011-12-18T09:31:42Z</time>
      </trkpt>
      <trkpt lat="48.86855" lon="-0.32375">
        <ele>148.6000061</ele>
        <time>2011-12-18T09:31:43Z</time>
      </trkpt>
      <trkpt lat="48.86854" lon="-0.3238">
        <ele>148</ele>
        <time>2011-12-18T09:31:44Z</time>
      </trkpt>
      <trkpt lat="48.86853" lon="-0.32384">
        <ele>147.6000061</ele>
        <time>2011-12-18T09:31:45Z</time>
      </trkpt>
      <trkpt lat="48.86851" lon="-0.32387">
        <ele>147</ele>
        <time>2011-12-18T09:31:46Z</time>
      </trkpt>
      <trkpt lat="48.8685" lon="-0.32389">
        <ele>146.8000031</ele>
        <time>2011-12-18T09:31:47Z</time>
      </trkpt>
      <trkpt lat="48.86848" lon="-0.32392">
        <ele>146.1999969</ele>
        <time>2011-12-18T09:31:48Z</time>
      </trkpt>
      <trkpt lat="48.86846" lon="-0.32394">
        <ele>146</ele>
        <time>2011-12-18T09:31:49Z</time>
      </trkpt>
      <trkpt lat="48.86845" lon="-0.32395">
        <ele>145.6000061</ele>
        <time>2011-12-18T09:31:50Z</time>
      </trkpt>
      <trkpt lat="48.86843" lon="-0.32398">
        <ele>144.8000031</ele>
        <time>2011-12-18T09:31:51Z</time>
      </trkpt>
      <trkpt lat="48.86837" lon="-0.32409">
        <ele>144.1999969</ele>
        <time>2011-12-18T09:31:56Z</time>
      </trkpt>
      <trkpt lat="48.86836" lon="-0.3241">
        <ele>143.8000031</ele>
        <time>2011-12-18T09:31:57Z</time>
      </trkpt>
      <trkpt lat="48.86835" lon="-0.32411">
        <ele>143.1999969</ele>
        <time>2011-12-18T09:31:58Z</time>
      </trkpt>
      <trkpt lat="48.86827" lon="-0.32419">
        <ele>140</ele>
        <time>2011-12-18T09:41:44Z</time>
      </trkpt>
      <trkpt lat="48.86824" lon="-0.32422">
        <ele>140</ele>
        <time>2011-12-18T09:41:46Z</time>
      </trkpt>
      <trkpt lat="48.8682" lon="-0.32425">
        <ele>140</ele>
        <time>2011-12-18T09:41:48Z</time>
      </trkpt>
      <trkpt lat="48.86812" lon="-0.32441">
        <ele>138</ele>
        <time>2011-12-18T09:42:03Z</time>
      </trkpt>
      <trkpt lat="48.86812" lon="-0.32443">
        <ele>138</ele>
        <time>2011-12-18T09:42:04Z</time>
      </trkpt>
      <trkpt lat="48.86816" lon="-0.32447">
        <ele>138</ele>
        <time>2011-12-18T09:42:07Z</time>
      </trkpt>
      <trkpt lat="48.86818" lon="-0.32448">
        <ele>138</ele>
        <time>2011-12-18T09:42:08Z</time>
      </trkpt>
      <trkpt lat="48.86819" lon="-0.32449">
        <ele>138</ele>
        <time>2011-12-18T09:42:09Z</time>
      </trkpt>
      <trkpt lat="48.86825" lon="-0.32455">
        <ele>138</ele>
        <time>2011-12-18T09:42:14Z</time>
      </trkpt>
      <trkpt lat="48.86825" lon="-0.32457">
        <ele>138</ele>
        <time>2011-12-18T09:42:15Z</time>
      </trkpt>
      <trkpt lat="48.86829" lon="-0.32467">
        <ele>138</ele>
        <time>2011-12-18T09:42:19Z</time>
      </trkpt>
      <trkpt lat="48.86831" lon="-0.32472">
        <ele>138</ele>
        <time>2011-12-18T09:42:21Z</time>
      </trkpt>
      <trkpt lat="48.86836" lon="-0.3248">
        <ele>138</ele>
        <time>2011-12-18T09:42:26Z</time>
      </trkpt>
      <trkpt lat="48.86837" lon="-0.32482">
        <ele>138</ele>
        <time>2011-12-18T09:42:27Z</time>
      </trkpt>
      <trkpt lat="48.8684" lon="-0.32487">
        <ele>138</ele>
        <time>2011-12-18T09:42:30Z</time>
      </trkpt>
      <trkpt lat="48.86842" lon="-0.32491">
        <ele>138</ele>
        <time>2011-12-18T09:42:32Z</time>
      </trkpt>
      <trkpt lat="48.86843" lon="-0.32492">
        <ele>138.1999969</ele>
        <time>2011-12-18T09:42:33Z</time>
      </trkpt>
      <trkpt lat="48.86844" lon="-0.32493">
        <ele>139</ele>
        <time>2011-12-18T09:42:34Z</time>
      </trkpt>
      <trkpt lat="48.86845" lon="-0.32495">
        <ele>139.6000061</ele>
        <time>2011-12-18T09:42:35Z</time>
      </trkpt>
      <trkpt lat="48.86846" lon="-0.32496">
        <ele>140</ele>
        <time>2011-12-18T09:42:36Z</time>
      </trkpt>
      <trkpt lat="48.86848" lon="-0.32499">
        <ele>140</ele>
        <time>2011-12-18T09:42:38Z</time>
      </trkpt>
      <trkpt lat="48.86849" lon="-0.325">
        <ele>140</ele>
        <time>2011-12-18T09:42:39Z</time>
      </trkpt>
      <trkpt lat="48.86852" lon="-0.32503">
        <ele>140.1999969</ele>
        <time>2011-12-18T09:42:41Z</time>
      </trkpt>
      <trkpt lat="48.86854" lon="-0.32504">
        <ele>141</ele>
        <time>2011-12-18T09:42:42Z</time>
      </trkpt>
      <trkpt lat="48.86855" lon="-0.32504">
        <ele>141.1999969</ele>
        <time>2011-12-18T09:42:43Z</time>
      </trkpt>
      <trkpt lat="48.86857" lon="-0.32505">
        <ele>141.8000031</ele>
        <time>2011-12-18T09:42:44Z</time>
      </trkpt>
      <trkpt lat="48.86858" lon="-0.32506">
        <ele>142</ele>
        <time>2011-12-18T09:42:45Z</time>
      </trkpt>
      <trkpt lat="48.86859" lon="-0.32507">
        <ele>142</ele>
        <time>2011-12-18T09:42:46Z</time>
      </trkpt>
      <trkpt lat="48.86862" lon="-0.32511">
        <ele>142</ele>
        <time>2011-12-18T09:42:49Z</time>
      </trkpt>
      <trkpt lat="48.86864" lon="-0.32516">
        <ele>142.8000031</ele>
        <time>2011-12-18T09:42:52Z</time>
      </trkpt>
      <trkpt lat="48.86865" lon="-0.32517">
        <ele>143</ele>
        <time>2011-12-18T09:42:53Z</time>
      </trkpt>
      <trkpt lat="48.86866" lon="-0.32518">
        <ele>143.6000061</ele>
        <time>2011-12-18T09:42:54Z</time>
      </trkpt>
      <trkpt lat="48.86868" lon="-0.32519">
        <ele>144</ele>
        <time>2011-12-18T09:42:55Z</time>
      </trkpt>
      <trkpt lat="48.86869" lon="-0.3252">
        <ele>144.1999969</ele>
        <time>2011-12-18T09:42:56Z</time>
      </trkpt>
      <trkpt lat="48.86872" lon="-0.32522">
        <ele>144.1999969</ele>
        <time>2011-12-18T09:42:58Z</time>
      </trkpt>
      <trkpt lat="48.86875" lon="-0.32525">
        <ele>144.8000031</ele>
        <time>2011-12-18T09:43:01Z</time>
      </trkpt>
      <trkpt lat="48.86876" lon="-0.32526">
        <ele>145.1999969</ele>
        <time>2011-12-18T09:43:02Z</time>
      </trkpt>
      <trkpt lat="48.86878" lon="-0.32527">
        <ele>145.8000031</ele>
        <time>2011-12-18T09:43:03Z</time>
      </trkpt>
      <trkpt lat="48.86879" lon="-0.32528">
        <ele>146</ele>
        <time>2011-12-18T09:43:04Z</time>
      </trkpt>
      <trkpt lat="48.86881" lon="-0.32529">
        <ele>146.8000031</ele>
        <time>2011-12-18T09:43:05Z</time>
      </trkpt>
      <trkpt lat="48.86889" lon="-0.3253">
        <ele>146.8000031</ele>
        <time>2011-12-18T09:43:10Z</time>
      </trkpt>
      <trkpt lat="48.86892" lon="-0.32531">
        <ele>147</ele>
        <time>2011-12-18T09:43:12Z</time>
      </trkpt>
      <trkpt lat="48.86894" lon="-0.32531">
        <ele>147.6000061</ele>
        <time>2011-12-18T09:43:13Z</time>
      </trkpt>
      <trkpt lat="48.86896" lon="-0.32532">
        <ele>148</ele>
        <time>2011-12-18T09:43:14Z</time>
      </trkpt>
      <trkpt lat="48.86897" lon="-0.32532">
        <ele>148.6000061</ele>
        <time>2011-12-18T09:43:15Z</time>
      </trkpt>
      <trkpt lat="48.86899" lon="-0.32532">
        <ele>149</ele>
        <time>2011-12-18T09:43:16Z</time>
      </trkpt>
      <trkpt lat="48.86901" lon="-0.32533">
        <ele>149</ele>
        <time>2011-12-18T09:43:18Z</time>
      </trkpt>
      <trkpt lat="48.86908" lon="-0.32532">
        <ele>149.1999969</ele>
        <time>2011-12-18T09:43:23Z</time>
      </trkpt>
      <trkpt lat="48.8691" lon="-0.32533">
        <ele>150</ele>
        <time>2011-12-18T09:43:24Z</time>
      </trkpt>
      <trkpt lat="48.86911" lon="-0.32532">
        <ele>150.6000061</ele>
        <time>2011-12-18T09:43:25Z</time>
      </trkpt>
      <trkpt lat="48.86912" lon="-0.32532">
        <ele>151</ele>
        <time>2011-12-18T09:43:26Z</time>
      </trkpt>
      <trkpt lat="48.86918" lon="-0.32531">
        <ele>151</ele>
        <time>2011-12-18T09:43:29Z</time>
      </trkpt>
      <trkpt lat="48.86927" lon="-0.32532">
        <ele>151.6000061</ele>
        <time>2011-12-18T09:43:34Z</time>
      </trkpt>
      <trkpt lat="48.86928" lon="-0.32532">
        <ele>152</ele>
        <time>2011-12-18T09:43:35Z</time>
      </trkpt>
      <trkpt lat="48.8693" lon="-0.32532">
        <ele>152.1999969</ele>
        <time>2011-12-18T09:43:36Z</time>
      </trkpt>
      <trkpt lat="48.86931" lon="-0.32532">
        <ele>152.8000031</ele>
        <time>2011-12-18T09:43:37Z</time>
      </trkpt>
      <trkpt lat="48.86933" lon="-0.32532">
        <ele>153</ele>
        <time>2011-12-18T09:43:38Z</time>
      </trkpt>
      <trkpt lat="48.86942" lon="-0.32534">
        <ele>153</ele>
        <time>2011-12-18T09:43:43Z</time>
      </trkpt>
      <trkpt lat="48.86951" lon="-0.32534">
        <ele>153.6000061</ele>
        <time>2011-12-18T09:43:48Z</time>
      </trkpt>
      <trkpt lat="48.86953" lon="-0.32535">
        <ele>154.1999969</ele>
        <time>2011-12-18T09:43:49Z</time>
      </trkpt>
      <trkpt lat="48.86955" lon="-0.32535">
        <ele>154.8000031</ele>
        <time>2011-12-18T09:43:50Z</time>
      </trkpt>
      <trkpt lat="48.86957" lon="-0.32535">
        <ele>155</ele>
        <time>2011-12-18T09:43:51Z</time>
      </trkpt>
      <trkpt lat="48.86967" lon="-0.32532">
        <ele>155</ele>
        <time>2011-12-18T09:43:56Z</time>
      </trkpt>
      <trkpt lat="48.86979" lon="-0.32531">
        <ele>155</ele>
        <time>2011-12-18T09:44:02Z</time>
      </trkpt>
      <trkpt lat="48.8698" lon="-0.32531">
        <ele>155.6000061</ele>
        <time>2011-12-18T09:44:03Z</time>
      </trkpt>
      <trkpt lat="48.86982" lon="-0.32531">
        <ele>156</ele>
        <time>2011-12-18T09:44:04Z</time>
      </trkpt>
      <trkpt lat="48.86985" lon="-0.32531">
        <ele>156.1999969</ele>
        <time>2011-12-18T09:44:05Z</time>
      </trkpt>
      <trkpt lat="48.86987" lon="-0.3253">
        <ele>156.8000031</ele>
        <time>2011-12-18T09:44:06Z</time>
      </trkpt>
      <trkpt lat="48.86989" lon="-0.3253">
        <ele>157</ele>
        <time>2011-12-18T09:44:07Z</time>
      </trkpt>
      <trkpt lat="48.86992" lon="-0.32529">
        <ele>157</ele>
        <time>2011-12-18T09:44:08Z</time>
      </trkpt>
      <trkpt lat="48.87004" lon="-0.32527">
        <ele>157</ele>
        <time>2011-12-18T09:44:14Z</time>
      </trkpt>
      <trkpt lat="48.87008" lon="-0.32525">
        <ele>157.6000061</ele>
        <time>2011-12-18T09:44:16Z</time>
      </trkpt>
      <trkpt lat="48.8701" lon="-0.32524">
        <ele>158</ele>
        <time>2011-12-18T09:44:17Z</time>
      </trkpt>
      <trkpt lat="48.87012" lon="-0.32524">
        <ele>158.6000061</ele>
        <time>2011-12-18T09:44:18Z</time>
      </trkpt>
      <trkpt lat="48.87014" lon="-0.32524">
        <ele>159</ele>
        <time>2011-12-18T09:44:19Z</time>
      </trkpt>
      <trkpt lat="48.87016" lon="-0.32523">
        <ele>159.1999969</ele>
        <time>2011-12-18T09:44:20Z</time>
      </trkpt>
      <trkpt lat="48.87034" lon="-0.3252">
        <ele>159.1999969</ele>
        <time>2011-12-18T09:44:27Z</time>
      </trkpt>
      <trkpt lat="48.87054" lon="-0.32514">
        <ele>159.1999969</ele>
        <time>2011-12-18T09:44:33Z</time>
      </trkpt>
      <trkpt lat="48.87075" lon="-0.3251">
        <ele>159.1999969</ele>
        <time>2011-12-18T09:44:40Z</time>
      </trkpt>
      <trkpt lat="48.87096" lon="-0.32508">
        <ele>159.8000031</ele>
        <time>2011-12-18T09:44:47Z</time>
      </trkpt>
      <trkpt lat="48.87099" lon="-0.32509">
        <ele>160</ele>
        <time>2011-12-18T09:44:48Z</time>
      </trkpt>
      <trkpt lat="48.87101" lon="-0.32509">
        <ele>160.6000061</ele>
        <time>2011-12-18T09:44:49Z</time>
      </trkpt>
      <trkpt lat="48.87104" lon="-0.32509">
        <ele>161</ele>
        <time>2011-12-18T09:44:50Z</time>
      </trkpt>
      <trkpt lat="48.87107" lon="-0.32509">
        <ele>161.6000061</ele>
        <time>2011-12-18T09:44:51Z</time>
      </trkpt>
      <trkpt lat="48.87113" lon="-0.3251">
        <ele>161.6000061</ele>
        <time>2011-12-18T09:44:54Z</time>
      </trkpt>
      <trkpt lat="48.87124" lon="-0.32511">
        <ele>162</ele>
        <time>2011-12-18T09:44:59Z</time>
      </trkpt>
      <trkpt lat="48.87126" lon="-0.32511">
        <ele>162.1999969</ele>
        <time>2011-12-18T09:45:00Z</time>
      </trkpt>
      <trkpt lat="48.87128" lon="-0.32511">
        <ele>162.8000031</ele>
        <time>2011-12-18T09:45:01Z</time>
      </trkpt>
      <trkpt lat="48.8713" lon="-0.3251">
        <ele>163.1999969</ele>
        <time>2011-12-18T09:45:02Z</time>
      </trkpt>
      <trkpt lat="48.87132" lon="-0.3251">
        <ele>163.8000031</ele>
        <time>2011-12-18T09:45:03Z</time>
      </trkpt>
      <trkpt lat="48.87144" lon="-0.32509">
        <ele>164</ele>
        <time>2011-12-18T09:45:08Z</time>
      </trkpt>
      <trkpt lat="48.87146" lon="-0.32509">
        <ele>164.6000061</ele>
        <time>2011-12-18T09:45:09Z</time>
      </trkpt>
      <trkpt lat="48.87148" lon="-0.32509">
        <ele>165</ele>
        <time>2011-12-18T09:45:10Z</time>
      </trkpt>
      <trkpt lat="48.8715" lon="-0.3251">
        <ele>165.1999969</ele>
        <time>2011-12-18T09:45:11Z</time>
      </trkpt>
      <trkpt lat="48.87152" lon="-0.32509">
        <ele>165.8000031</ele>
        <time>2011-12-18T09:45:12Z</time>
      </trkpt>
      <trkpt lat="48.87155" lon="-0.32509">
        <ele>165.8000031</ele>
        <time>2011-12-18T09:45:13Z</time>
      </trkpt>
      <trkpt lat="48.87166" lon="-0.32508">
        <ele>166</ele>
        <time>2011-12-18T09:45:17Z</time>
      </trkpt>
      <trkpt lat="48.87168" lon="-0.32508">
        <ele>166.8000031</ele>
        <time>2011-12-18T09:45:18Z</time>
      </trkpt>
      <trkpt lat="48.8717" lon="-0.32509">
        <ele>167</ele>
        <time>2011-12-18T09:45:19Z</time>
      </trkpt>
      <trkpt lat="48.87173" lon="-0.32509">
        <ele>167.6000061</ele>
        <time>2011-12-18T09:45:20Z</time>
      </trkpt>
      <trkpt lat="48.87175" lon="-0.32509">
        <ele>168</ele>
        <time>2011-12-18T09:45:21Z</time>
      </trkpt>
      <trkpt lat="48.87184" lon="-0.32509">
        <ele>168</ele>
        <time>2011-12-18T09:45:26Z</time>
      </trkpt>
      <trkpt lat="48.87188" lon="-0.32509">
        <ele>168.8000031</ele>
        <time>2011-12-18T09:45:28Z</time>
      </trkpt>
      <trkpt lat="48.87189" lon="-0.32509">
        <ele>169.1999969</ele>
        <time>2011-12-18T09:45:29Z</time>
      </trkpt>
      <trkpt lat="48.87191" lon="-0.32509">
        <ele>169.8000031</ele>
        <time>2011-12-18T09:45:30Z</time>
      </trkpt>
      <trkpt lat="48.87193" lon="-0.32509">
        <ele>170</ele>
        <time>2011-12-18T09:45:31Z</time>
      </trkpt>
      <trkpt lat="48.87197" lon="-0.32509">
        <ele>170</ele>
        <time>2011-12-18T09:45:33Z</time>
      </trkpt>
      <trkpt lat="48.87201" lon="-0.3251">
        <ele>170.6000061</ele>
        <time>2011-12-18T09:45:35Z</time>
      </trkpt>
      <trkpt lat="48.87203" lon="-0.32509">
        <ele>171</ele>
        <time>2011-12-18T09:45:36Z</time>
      </trkpt>
      <trkpt lat="48.87206" lon="-0.32509">
        <ele>171.1999969</ele>
        <time>2011-12-18T09:45:37Z</time>
      </trkpt>
      <trkpt lat="48.87208" lon="-0.32509">
        <ele>171.8000031</ele>
        <time>2011-12-18T09:45:38Z</time>
      </trkpt>
      <trkpt lat="48.87211" lon="-0.32508">
        <ele>172.1999969</ele>
        <time>2011-12-18T09:45:39Z</time>
      </trkpt>
      <trkpt lat="48.87227" lon="-0.32507">
        <ele>172.1999969</ele>
        <time>2011-12-18T09:45:46Z</time>
      </trkpt>
      <trkpt lat="48.87246" lon="-0.32501">
        <ele>172.1999969</ele>
        <time>2011-12-18T09:45:53Z</time>
      </trkpt>
      <trkpt lat="48.87261" lon="-0.32499">
        <ele>172.8000031</ele>
        <time>2011-12-18T09:45:59Z</time>
      </trkpt>
      <trkpt lat="48.87263" lon="-0.32498">
        <ele>173</ele>
        <time>2011-12-18T09:46:00Z</time>
      </trkpt>
      <trkpt lat="48.87265" lon="-0.32497">
        <ele>173.6000061</ele>
        <time>2011-12-18T09:46:01Z</time>
      </trkpt>
      <trkpt lat="48.87268" lon="-0.32496">
        <ele>174</ele>
        <time>2011-12-18T09:46:02Z</time>
      </trkpt>
      <trkpt lat="48.8727" lon="-0.32495">
        <ele>174.1999969</ele>
        <time>2011-12-18T09:46:03Z</time>
      </trkpt>
      <trkpt lat="48.87282" lon="-0.32492">
        <ele>174.1999969</ele>
        <time>2011-12-18T09:46:08Z</time>
      </trkpt>
      <trkpt lat="48.87302" lon="-0.32491">
        <ele>174.1999969</ele>
        <time>2011-12-18T09:46:15Z</time>
      </trkpt>
      <trkpt lat="48.87319" lon="-0.3249">
        <ele>174.1999969</ele>
        <time>2011-12-18T09:46:19Z</time>
      </trkpt>
      <trkpt lat="48.87328" lon="-0.32491">
        <ele>174.1999969</ele>
        <time>2011-12-18T09:46:21Z</time>
      </trkpt>
      <trkpt lat="48.87336" lon="-0.32496">
        <ele>174.1999969</ele>
        <time>2011-12-18T09:46:23Z</time>
      </trkpt>
      <trkpt lat="48.87342" lon="-0.32502">
        <ele>174.1999969</ele>
        <time>2011-12-18T09:46:25Z</time>
      </trkpt>
      <trkpt lat="48.87352" lon="-0.32515">
        <ele>174.1999969</ele>
        <time>2011-12-18T09:46:29Z</time>
      </trkpt>
      <trkpt lat="48.87369" lon="-0.32534">
        <ele>174.1999969</ele>
        <time>2011-12-18T09:46:35Z</time>
      </trkpt>
      <trkpt lat="48.87383" lon="-0.32553">
        <ele>174.1999969</ele>
        <time>2011-12-18T09:46:41Z</time>
      </trkpt>
      <trkpt lat="48.87384" lon="-0.32555">
        <ele>174.8000031</ele>
        <time>2011-12-18T09:46:42Z</time>
      </trkpt>
      <trkpt lat="48.87385" lon="-0.32558">
        <ele>175.8000031</ele>
        <time>2011-12-18T09:46:43Z</time>
      </trkpt>
      <trkpt lat="48.87387" lon="-0.3256">
        <ele>176</ele>
        <time>2011-12-18T09:46:44Z</time>
      </trkpt>
      <trkpt lat="48.87389" lon="-0.32561">
        <ele>176.6000061</ele>
        <time>2011-12-18T09:46:45Z</time>
      </trkpt>
      <trkpt lat="48.87392" lon="-0.32563">
        <ele>176.6000061</ele>
        <time>2011-12-18T09:46:46Z</time>
      </trkpt>
      <trkpt lat="48.87405" lon="-0.32571">
        <ele>176.6000061</ele>
        <time>2011-12-18T09:46:51Z</time>
      </trkpt>
      <trkpt lat="48.87407" lon="-0.32571">
        <ele>176.6000061</ele>
        <time>2011-12-18T09:46:52Z</time>
      </trkpt>
      <trkpt lat="48.87416" lon="-0.32575">
        <ele>177</ele>
        <time>2011-12-18T09:46:55Z</time>
      </trkpt>
      <trkpt lat="48.8742" lon="-0.32576">
        <ele>177.1999969</ele>
        <time>2011-12-18T09:46:56Z</time>
      </trkpt>
      <trkpt lat="48.87423" lon="-0.32577">
        <ele>177.8000031</ele>
        <time>2011-12-18T09:46:57Z</time>
      </trkpt>
      <trkpt lat="48.87428" lon="-0.32578">
        <ele>178</ele>
        <time>2011-12-18T09:46:58Z</time>
      </trkpt>
      <trkpt lat="48.87431" lon="-0.3258">
        <ele>178.6000061</ele>
        <time>2011-12-18T09:46:59Z</time>
      </trkpt>
      <trkpt lat="48.87456" lon="-0.32588">
        <ele>178.6000061</ele>
        <time>2011-12-18T09:47:07Z</time>
      </trkpt>
      <trkpt lat="48.87477" lon="-0.32594">
        <ele>178.6000061</ele>
        <time>2011-12-18T09:47:13Z</time>
      </trkpt>
      <trkpt lat="48.87497" lon="-0.326">
        <ele>178.6000061</ele>
        <time>2011-12-18T09:47:19Z</time>
      </trkpt>
      <trkpt lat="48.8752" lon="-0.32606">
        <ele>178.6000061</ele>
        <time>2011-12-18T09:47:26Z</time>
      </trkpt>
      <trkpt lat="48.8754" lon="-0.32609">
        <ele>179.1999969</ele>
        <time>2011-12-18T09:47:32Z</time>
      </trkpt>
      <trkpt lat="48.87543" lon="-0.32609">
        <ele>179.8000031</ele>
        <time>2011-12-18T09:47:33Z</time>
      </trkpt>
      <trkpt lat="48.87546" lon="-0.32608">
        <ele>180</ele>
        <time>2011-12-18T09:47:34Z</time>
      </trkpt>
      <trkpt lat="48.87548" lon="-0.32607">
        <ele>180.6000061</ele>
        <time>2011-12-18T09:47:35Z</time>
      </trkpt>
      <trkpt lat="48.87552" lon="-0.32605">
        <ele>180.6000061</ele>
        <time>2011-12-18T09:47:37Z</time>
      </trkpt>
      <trkpt lat="48.87566" lon="-0.32596">
        <ele>180.6000061</ele>
        <time>2011-12-18T09:47:44Z</time>
      </trkpt>
      <trkpt lat="48.87571" lon="-0.32592">
        <ele>181</ele>
        <time>2011-12-18T09:47:47Z</time>
      </trkpt>
      <trkpt lat="48.87573" lon="-0.32591">
        <ele>181.6000061</ele>
        <time>2011-12-18T09:47:48Z</time>
      </trkpt>
      <trkpt lat="48.87574" lon="-0.3259">
        <ele>182</ele>
        <time>2011-12-18T09:47:49Z</time>
      </trkpt>
      <trkpt lat="48.87575" lon="-0.32589">
        <ele>182.1999969</ele>
        <time>2011-12-18T09:47:50Z</time>
      </trkpt>
      <trkpt lat="48.87577" lon="-0.32588">
        <ele>182.8000031</ele>
        <time>2011-12-18T09:47:51Z</time>
      </trkpt>
      <trkpt lat="48.87583" lon="-0.32581">
        <ele>182.8000031</ele>
        <time>2011-12-18T09:47:56Z</time>
      </trkpt>
      <trkpt lat="48.87587" lon="-0.32577">
        <ele>183</ele>
        <time>2011-12-18T09:47:59Z</time>
      </trkpt>
      <trkpt lat="48.87589" lon="-0.32576">
        <ele>183.6000061</ele>
        <time>2011-12-18T09:48:00Z</time>
      </trkpt>
      <trkpt lat="48.8759" lon="-0.32574">
        <ele>184</ele>
        <time>2011-12-18T09:48:01Z</time>
      </trkpt>
      <trkpt lat="48.87591" lon="-0.32573">
        <ele>184.6000061</ele>
        <time>2011-12-18T09:48:02Z</time>
      </trkpt>
      <trkpt lat="48.87593" lon="-0.32572">
        <ele>185</ele>
        <time>2011-12-18T09:48:03Z</time>
      </trkpt>
      <trkpt lat="48.87598" lon="-0.32568">
        <ele>185</ele>
        <time>2011-12-18T09:48:06Z</time>
      </trkpt>
      <trkpt lat="48.8761" lon="-0.32555">
        <ele>185.1999969</ele>
        <time>2011-12-18T09:48:13Z</time>
      </trkpt>
      <trkpt lat="48.87612" lon="-0.32553">
        <ele>185.8000031</ele>
        <time>2011-12-18T09:48:14Z</time>
      </trkpt>
      <trkpt lat="48.87613" lon="-0.32551">
        <ele>186</ele>
        <time>2011-12-18T09:48:15Z</time>
      </trkpt>
      <trkpt lat="48.87615" lon="-0.3255">
        <ele>186.6000061</ele>
        <time>2011-12-18T09:48:16Z</time>
      </trkpt>
      <trkpt lat="48.87617" lon="-0.32549">
        <ele>187</ele>
        <time>2011-12-18T09:48:17Z</time>
      </trkpt>
      <trkpt lat="48.87621" lon="-0.32544">
        <ele>187</ele>
        <time>2011-12-18T09:48:20Z</time>
      </trkpt>
      <trkpt lat="48.87625" lon="-0.32538">
        <ele>187.6000061</ele>
        <time>2011-12-18T09:48:24Z</time>
      </trkpt>
      <trkpt lat="48.87626" lon="-0.32537">
        <ele>188</ele>
        <time>2011-12-18T09:48:25Z</time>
      </trkpt>
      <trkpt lat="48.87627" lon="-0.32537">
        <ele>188.1999969</ele>
        <time>2011-12-18T09:48:26Z</time>
      </trkpt>
      <trkpt lat="48.87629" lon="-0.32536">
        <ele>188.8000031</ele>
        <time>2011-12-18T09:48:27Z</time>
      </trkpt>
      <trkpt lat="48.8763" lon="-0.32535">
        <ele>189</ele>
        <time>2011-12-18T09:48:28Z</time>
      </trkpt>
      <trkpt lat="48.87633" lon="-0.32531">
        <ele>189</ele>
        <time>2011-12-18T09:48:32Z</time>
      </trkpt>
      <trkpt lat="48.87634" lon="-0.32529">
        <ele>189</ele>
        <time>2011-12-18T09:48:33Z</time>
      </trkpt>
      <trkpt lat="48.87638" lon="-0.32527">
        <ele>189</ele>
        <time>2011-12-18T09:48:38Z</time>
      </trkpt>
      <trkpt lat="48.8764" lon="-0.32523">
        <ele>189</ele>
        <time>2011-12-18T09:51:01Z</time>
      </trkpt>
      <trkpt lat="48.87642" lon="-0.32517">
        <ele>189</ele>
        <time>2011-12-18T09:51:03Z</time>
      </trkpt>
      <trkpt lat="48.87644" lon="-0.32514">
        <ele>189</ele>
        <time>2011-12-18T09:51:04Z</time>
      </trkpt>
      <trkpt lat="48.87651" lon="-0.325">
        <ele>189</ele>
        <time>2011-12-18T09:51:09Z</time>
      </trkpt>
      <trkpt lat="48.87652" lon="-0.32497">
        <ele>189.6000061</ele>
        <time>2011-12-18T09:51:10Z</time>
      </trkpt>
      <trkpt lat="48.87654" lon="-0.32495">
        <ele>190</ele>
        <time>2011-12-18T09:51:11Z</time>
      </trkpt>
      <trkpt lat="48.87656" lon="-0.32493">
        <ele>190.1999969</ele>
        <time>2011-12-18T09:51:12Z</time>
      </trkpt>
      <trkpt lat="48.87658" lon="-0.32492">
        <ele>191</ele>
        <time>2011-12-18T09:51:13Z</time>
      </trkpt>
      <trkpt lat="48.8766" lon="-0.3249">
        <ele>191.1999969</ele>
        <time>2011-12-18T09:51:14Z</time>
      </trkpt>
      <trkpt lat="48.87661" lon="-0.32488">
        <ele>191.1999969</ele>
        <time>2011-12-18T09:51:15Z</time>
      </trkpt>
      <trkpt lat="48.87665" lon="-0.32484">
        <ele>191.1999969</ele>
        <time>2011-12-18T09:51:17Z</time>
      </trkpt>
      <trkpt lat="48.87668" lon="-0.3248">
        <ele>191.1999969</ele>
        <time>2011-12-18T09:51:19Z</time>
      </trkpt>
      <trkpt lat="48.8767" lon="-0.32479">
        <ele>191.1999969</ele>
        <time>2011-12-18T09:51:20Z</time>
      </trkpt>
      <trkpt lat="48.87672" lon="-0.32477">
        <ele>191.8000031</ele>
        <time>2011-12-18T09:51:21Z</time>
      </trkpt>
      <trkpt lat="48.87673" lon="-0.32475">
        <ele>192</ele>
        <time>2011-12-18T09:51:22Z</time>
      </trkpt>
      <trkpt lat="48.87675" lon="-0.32473">
        <ele>192.6000061</ele>
        <time>2011-12-18T09:51:23Z</time>
      </trkpt>
      <trkpt lat="48.87677" lon="-0.32471">
        <ele>193</ele>
        <time>2011-12-18T09:51:24Z</time>
      </trkpt>
      <trkpt lat="48.87679" lon="-0.3247">
        <ele>193.1999969</ele>
        <time>2011-12-18T09:51:25Z</time>
      </trkpt>
      <trkpt lat="48.87681" lon="-0.32468">
        <ele>193.1999969</ele>
        <time>2011-12-18T09:51:26Z</time>
      </trkpt>
      <trkpt lat="48.87698" lon="-0.32456">
        <ele>193.1999969</ele>
        <time>2011-12-18T09:51:33Z</time>
      </trkpt>
      <trkpt lat="48.87706" lon="-0.3245">
        <ele>193.8000031</ele>
        <time>2011-12-18T09:51:37Z</time>
      </trkpt>
      <trkpt lat="48.87708" lon="-0.3245">
        <ele>194</ele>
        <time>2011-12-18T09:51:38Z</time>
      </trkpt>
      <trkpt lat="48.87709" lon="-0.32448">
        <ele>194.6000061</ele>
        <time>2011-12-18T09:51:39Z</time>
      </trkpt>
      <trkpt lat="48.87712" lon="-0.32446">
        <ele>195</ele>
        <time>2011-12-18T09:51:40Z</time>
      </trkpt>
      <trkpt lat="48.87714" lon="-0.32444">
        <ele>195.1999969</ele>
        <time>2011-12-18T09:51:41Z</time>
      </trkpt>
      <trkpt lat="48.87723" lon="-0.32439">
        <ele>195.1999969</ele>
        <time>2011-12-18T09:51:45Z</time>
      </trkpt>
      <trkpt lat="48.87739" lon="-0.32428">
        <ele>195.8000031</ele>
        <time>2011-12-18T09:51:52Z</time>
      </trkpt>
      <trkpt lat="48.87742" lon="-0.32426">
        <ele>196.1999969</ele>
        <time>2011-12-18T09:51:53Z</time>
      </trkpt>
      <trkpt lat="48.87744" lon="-0.32424">
        <ele>196.8000031</ele>
        <time>2011-12-18T09:51:54Z</time>
      </trkpt>
      <trkpt lat="48.87747" lon="-0.32422">
        <ele>197</ele>
        <time>2011-12-18T09:51:55Z</time>
      </trkpt>
      <trkpt lat="48.87749" lon="-0.32421">
        <ele>197.6000061</ele>
        <time>2011-12-18T09:51:56Z</time>
      </trkpt>
      <trkpt lat="48.87755" lon="-0.32416">
        <ele>197.6000061</ele>
        <time>2011-12-18T09:51:59Z</time>
      </trkpt>
      <trkpt lat="48.87775" lon="-0.32403">
        <ele>197.6000061</ele>
        <time>2011-12-18T09:52:07Z</time>
      </trkpt>
      <trkpt lat="48.87777" lon="-0.32401">
        <ele>198</ele>
        <time>2011-12-18T09:52:08Z</time>
      </trkpt>
      <trkpt lat="48.8778" lon="-0.32399">
        <ele>198.8000031</ele>
        <time>2011-12-18T09:52:09Z</time>
      </trkpt>
      <trkpt lat="48.87782" lon="-0.32397">
        <ele>199</ele>
        <time>2011-12-18T09:52:10Z</time>
      </trkpt>
      <trkpt lat="48.87785" lon="-0.32396">
        <ele>199.8000031</ele>
        <time>2011-12-18T09:52:11Z</time>
      </trkpt>
      <trkpt lat="48.87787" lon="-0.32394">
        <ele>200.1999969</ele>
        <time>2011-12-18T09:52:12Z</time>
      </trkpt>
      <trkpt lat="48.87794" lon="-0.32389">
        <ele>200.1999969</ele>
        <time>2011-12-18T09:52:15Z</time>
      </trkpt>
      <trkpt lat="48.87807" lon="-0.3238">
        <ele>200.1999969</ele>
        <time>2011-12-18T09:52:20Z</time>
      </trkpt>
      <trkpt lat="48.87814" lon="-0.32375">
        <ele>200.1999969</ele>
        <time>2011-12-18T09:52:23Z</time>
      </trkpt>
      <trkpt lat="48.87816" lon="-0.32373">
        <ele>200.8000031</ele>
        <time>2011-12-18T09:52:24Z</time>
      </trkpt>
      <trkpt lat="48.87818" lon="-0.32371">
        <ele>201</ele>
        <time>2011-12-18T09:52:25Z</time>
      </trkpt>
      <trkpt lat="48.87821" lon="-0.32369">
        <ele>201.6000061</ele>
        <time>2011-12-18T09:52:26Z</time>
      </trkpt>
      <trkpt lat="48.87823" lon="-0.32367">
        <ele>202</ele>
        <time>2011-12-18T09:52:27Z</time>
      </trkpt>
      <trkpt lat="48.87825" lon="-0.32366">
        <ele>202.1999969</ele>
        <time>2011-12-18T09:52:28Z</time>
      </trkpt>
      <trkpt lat="48.87834" lon="-0.32359">
        <ele>202.1999969</ele>
        <time>2011-12-18T09:52:32Z</time>
      </trkpt>
      <trkpt lat="48.87845" lon="-0.32352">
        <ele>203</ele>
        <time>2011-12-18T09:52:37Z</time>
      </trkpt>
      <trkpt lat="48.87847" lon="-0.3235">
        <ele>203.1999969</ele>
        <time>2011-12-18T09:52:38Z</time>
      </trkpt>
      <trkpt lat="48.8785" lon="-0.32348">
        <ele>203.8000031</ele>
        <time>2011-12-18T09:52:39Z</time>
      </trkpt>
      <trkpt lat="48.87852" lon="-0.32347">
        <ele>204</ele>
        <time>2011-12-18T09:52:40Z</time>
      </trkpt>
      <trkpt lat="48.87854" lon="-0.32345">
        <ele>204.6000061</ele>
        <time>2011-12-18T09:52:41Z</time>
      </trkpt>
      <trkpt lat="48.87874" lon="-0.32333">
        <ele>204.6000061</ele>
        <time>2011-12-18T09:52:49Z</time>
      </trkpt>
      <trkpt lat="48.87876" lon="-0.32331">
        <ele>205</ele>
        <time>2011-12-18T09:52:50Z</time>
      </trkpt>
      <trkpt lat="48.87878" lon="-0.3233">
        <ele>205.1999969</ele>
        <time>2011-12-18T09:52:51Z</time>
      </trkpt>
      <trkpt lat="48.87881" lon="-0.32328">
        <ele>205.8000031</ele>
        <time>2011-12-18T09:52:52Z</time>
      </trkpt>
      <trkpt lat="48.87883" lon="-0.32326">
        <ele>206</ele>
        <time>2011-12-18T09:52:53Z</time>
      </trkpt>
      <trkpt lat="48.87886" lon="-0.32325">
        <ele>206.8000031</ele>
        <time>2011-12-18T09:52:54Z</time>
      </trkpt>
      <trkpt lat="48.87891" lon="-0.32323">
        <ele>206.8000031</ele>
        <time>2011-12-18T09:52:56Z</time>
      </trkpt>
      <trkpt lat="48.87907" lon="-0.32322">
        <ele>206.8000031</ele>
        <time>2011-12-18T09:53:02Z</time>
      </trkpt>
      <trkpt lat="48.87916" lon="-0.32323">
        <ele>207</ele>
        <time>2011-12-18T09:53:05Z</time>
      </trkpt>
      <trkpt lat="48.87919" lon="-0.32323">
        <ele>207.6000061</ele>
        <time>2011-12-18T09:53:06Z</time>
      </trkpt>
      <trkpt lat="48.87921" lon="-0.32323">
        <ele>208</ele>
        <time>2011-12-18T09:53:07Z</time>
      </trkpt>
      <trkpt lat="48.87924" lon="-0.32322">
        <ele>208.1999969</ele>
        <time>2011-12-18T09:53:08Z</time>
      </trkpt>
      <trkpt lat="48.87927" lon="-0.32323">
        <ele>208.8000031</ele>
        <time>2011-12-18T09:53:09Z</time>
      </trkpt>
      <trkpt lat="48.87945" lon="-0.32321">
        <ele>208.8000031</ele>
        <time>2011-12-18T09:53:16Z</time>
      </trkpt>
      <trkpt lat="48.8796" lon="-0.3232">
        <ele>208.8000031</ele>
        <time>2011-12-18T09:53:21Z</time>
      </trkpt>
      <trkpt lat="48.87969" lon="-0.32321">
        <ele>208.8000031</ele>
        <time>2011-12-18T09:53:24Z</time>
      </trkpt>
      <trkpt lat="48.87978" lon="-0.32326">
        <ele>208.8000031</ele>
        <time>2011-12-18T09:53:27Z</time>
      </trkpt>
      <trkpt lat="48.87999" lon="-0.32331">
        <ele>208.8000031</ele>
        <time>2011-12-18T09:53:33Z</time>
      </trkpt>
      <trkpt lat="48.88018" lon="-0.32329">
        <ele>208.8000031</ele>
        <time>2011-12-18T09:53:38Z</time>
      </trkpt>
      <trkpt lat="48.88021" lon="-0.32327">
        <ele>208.8000031</ele>
        <time>2011-12-18T09:53:39Z</time>
      </trkpt>
      <trkpt lat="48.88029" lon="-0.32325">
        <ele>208.8000031</ele>
        <time>2011-12-18T09:53:41Z</time>
      </trkpt>
      <trkpt lat="48.88046" lon="-0.32321">
        <ele>208.8000031</ele>
        <time>2011-12-18T09:53:46Z</time>
      </trkpt>
      <trkpt lat="48.88054" lon="-0.32317">
        <ele>208.8000031</ele>
        <time>2011-12-18T09:53:49Z</time>
      </trkpt>
      <trkpt lat="48.88057" lon="-0.32315">
        <ele>208.8000031</ele>
        <time>2011-12-18T09:53:50Z</time>
      </trkpt>
      <trkpt lat="48.8807" lon="-0.3231">
        <ele>208.8000031</ele>
        <time>2011-12-18T09:53:55Z</time>
      </trkpt>
      <trkpt lat="48.88075" lon="-0.3231">
        <ele>208.8000031</ele>
        <time>2011-12-18T09:53:57Z</time>
      </trkpt>
      <trkpt lat="48.8808" lon="-0.32311">
        <ele>209</ele>
        <time>2011-12-18T09:53:59Z</time>
      </trkpt>
      <trkpt lat="48.88082" lon="-0.32311">
        <ele>209.6000061</ele>
        <time>2011-12-18T09:54:00Z</time>
      </trkpt>
      <trkpt lat="48.88084" lon="-0.32312">
        <ele>210</ele>
        <time>2011-12-18T09:54:01Z</time>
      </trkpt>
      <trkpt lat="48.88086" lon="-0.32313">
        <ele>210.1999969</ele>
        <time>2011-12-18T09:54:02Z</time>
      </trkpt>
      <trkpt lat="48.88087" lon="-0.32314">
        <ele>210.8000031</ele>
        <time>2011-12-18T09:54:03Z</time>
      </trkpt>
      <trkpt lat="48.88096" lon="-0.32319">
        <ele>211</ele>
        <time>2011-12-18T09:54:08Z</time>
      </trkpt>
      <trkpt lat="48.88098" lon="-0.32321">
        <ele>212</ele>
        <time>2011-12-18T09:54:09Z</time>
      </trkpt>
      <trkpt lat="48.88099" lon="-0.32323">
        <ele>212.1999969</ele>
        <time>2011-12-18T09:54:10Z</time>
      </trkpt>
      <trkpt lat="48.88101" lon="-0.32324">
        <ele>212.8000031</ele>
        <time>2011-12-18T09:54:11Z</time>
      </trkpt>
      <trkpt lat="48.88103" lon="-0.32326">
        <ele>213</ele>
        <time>2011-12-18T09:54:13Z</time>
      </trkpt>
      <trkpt lat="48.88105" lon="-0.32328">
        <ele>213.6000061</ele>
        <time>2011-12-18T09:54:14Z</time>
      </trkpt>
      <trkpt lat="48.88106" lon="-0.32329">
        <ele>214</ele>
        <time>2011-12-18T09:54:15Z</time>
      </trkpt>
      <trkpt lat="48.88107" lon="-0.3233">
        <ele>214.1999969</ele>
        <time>2011-12-18T09:54:16Z</time>
      </trkpt>
      <trkpt lat="48.88109" lon="-0.32332">
        <ele>215</ele>
        <time>2011-12-18T09:54:17Z</time>
      </trkpt>
      <trkpt lat="48.88115" lon="-0.32335">
        <ele>215</ele>
        <time>2011-12-18T09:54:20Z</time>
      </trkpt>
      <trkpt lat="48.88128" lon="-0.3235">
        <ele>215</ele>
        <time>2011-12-18T09:54:26Z</time>
      </trkpt>
      <trkpt lat="48.88149" lon="-0.32365">
        <ele>215</ele>
        <time>2011-12-18T09:54:34Z</time>
      </trkpt>
      <trkpt lat="48.88173" lon="-0.32369">
        <ele>215.1999969</ele>
        <time>2011-12-18T09:54:41Z</time>
      </trkpt>
      <trkpt lat="48.88176" lon="-0.3237">
        <ele>215.8000031</ele>
        <time>2011-12-18T09:54:42Z</time>
      </trkpt>
      <trkpt lat="48.8818" lon="-0.3237">
        <ele>216</ele>
        <time>2011-12-18T09:54:43Z</time>
      </trkpt>
      <trkpt lat="48.88184" lon="-0.3237">
        <ele>216.6000061</ele>
        <time>2011-12-18T09:54:44Z</time>
      </trkpt>
      <trkpt lat="48.88187" lon="-0.3237">
        <ele>217</ele>
        <time>2011-12-18T09:54:45Z</time>
      </trkpt>
      <trkpt lat="48.88198" lon="-0.32368">
        <ele>217</ele>
        <time>2011-12-18T09:54:48Z</time>
      </trkpt>
      <trkpt lat="48.88213" lon="-0.32364">
        <ele>217</ele>
        <time>2011-12-18T09:54:52Z</time>
      </trkpt>
      <trkpt lat="48.88221" lon="-0.32362">
        <ele>217</ele>
        <time>2011-12-18T09:54:54Z</time>
      </trkpt>
      <trkpt lat="48.88228" lon="-0.32361">
        <ele>217</ele>
        <time>2011-12-18T09:54:56Z</time>
      </trkpt>
      <trkpt lat="48.88262" lon="-0.32361">
        <ele>217</ele>
        <time>2011-12-18T09:55:04Z</time>
      </trkpt>
      <trkpt lat="48.88278" lon="-0.32367">
        <ele>217</ele>
        <time>2011-12-18T09:55:08Z</time>
      </trkpt>
      <trkpt lat="48.88286" lon="-0.32371">
        <ele>217</ele>
        <time>2011-12-18T09:55:10Z</time>
      </trkpt>
      <trkpt lat="48.88315" lon="-0.32389">
        <ele>217</ele>
        <time>2011-12-18T09:55:18Z</time>
      </trkpt>
      <trkpt lat="48.88342" lon="-0.32402">
        <ele>217</ele>
        <time>2011-12-18T09:55:25Z</time>
      </trkpt>
      <trkpt lat="48.88364" lon="-0.32409">
        <ele>217</ele>
        <time>2011-12-18T09:55:31Z</time>
      </trkpt>
      <trkpt lat="48.88371" lon="-0.32412">
        <ele>217.1999969</ele>
        <time>2011-12-18T09:55:33Z</time>
      </trkpt>
      <trkpt lat="48.88375" lon="-0.32413">
        <ele>217.8000031</ele>
        <time>2011-12-18T09:55:34Z</time>
      </trkpt>
      <trkpt lat="48.88379" lon="-0.32414">
        <ele>218</ele>
        <time>2011-12-18T09:55:35Z</time>
      </trkpt>
      <trkpt lat="48.88383" lon="-0.32415">
        <ele>218.6000061</ele>
        <time>2011-12-18T09:55:36Z</time>
      </trkpt>
      <trkpt lat="48.88387" lon="-0.32416">
        <ele>219</ele>
        <time>2011-12-18T09:55:37Z</time>
      </trkpt>
      <trkpt lat="48.88421" lon="-0.32424">
        <ele>219</ele>
        <time>2011-12-18T09:55:45Z</time>
      </trkpt>
      <trkpt lat="48.88431" lon="-0.32426">
        <ele>219</ele>
        <time>2011-12-18T09:55:47Z</time>
      </trkpt>
      <trkpt lat="48.88464" lon="-0.32435">
        <ele>219</ele>
        <time>2011-12-18T09:55:54Z</time>
      </trkpt>
      <trkpt lat="48.88475" lon="-0.32437">
        <ele>218.6000061</ele>
        <time>2011-12-18T09:55:56Z</time>
      </trkpt>
      <trkpt lat="48.8848" lon="-0.32438">
        <ele>218</ele>
        <time>2011-12-18T09:55:57Z</time>
      </trkpt>
      <trkpt lat="48.88485" lon="-0.3244">
        <ele>217.8000031</ele>
        <time>2011-12-18T09:55:58Z</time>
      </trkpt>
      <trkpt lat="48.88491" lon="-0.32441">
        <ele>217.1999969</ele>
        <time>2011-12-18T09:55:59Z</time>
      </trkpt>
      <trkpt lat="48.88496" lon="-0.32443">
        <ele>216.8000031</ele>
        <time>2011-12-18T09:56:00Z</time>
      </trkpt>
      <trkpt lat="48.88507" lon="-0.32446">
        <ele>216.8000031</ele>
        <time>2011-12-18T09:56:02Z</time>
      </trkpt>
      <trkpt lat="48.88529" lon="-0.3245">
        <ele>216.1999969</ele>
        <time>2011-12-18T09:56:06Z</time>
      </trkpt>
      <trkpt lat="48.88534" lon="-0.32452">
        <ele>216</ele>
        <time>2011-12-18T09:56:07Z</time>
      </trkpt>
      <trkpt lat="48.88539" lon="-0.32454">
        <ele>215.6000061</ele>
        <time>2011-12-18T09:56:08Z</time>
      </trkpt>
      <trkpt lat="48.88545" lon="-0.32456">
        <ele>215</ele>
        <time>2011-12-18T09:56:09Z</time>
      </trkpt>
      <trkpt lat="48.88551" lon="-0.32457">
        <ele>214.8000031</ele>
        <time>2011-12-18T09:56:10Z</time>
      </trkpt>
      <trkpt lat="48.88572" lon="-0.32461">
        <ele>214.1999969</ele>
        <time>2011-12-18T09:56:15Z</time>
      </trkpt>
      <trkpt lat="48.88575" lon="-0.32457">
        <ele>214</ele>
        <time>2011-12-18T09:56:16Z</time>
      </trkpt>
      <trkpt lat="48.88576" lon="-0.32451">
        <ele>213.6000061</ele>
        <time>2011-12-18T09:56:17Z</time>
      </trkpt>
      <trkpt lat="48.88575" lon="-0.32447">
        <ele>213</ele>
        <time>2011-12-18T09:56:18Z</time>
      </trkpt>
      <trkpt lat="48.88575" lon="-0.32443">
        <ele>212.8000031</ele>
        <time>2011-12-18T09:56:19Z</time>
      </trkpt>
      <trkpt lat="48.88575" lon="-0.32434">
        <ele>212.8000031</ele>
        <time>2011-12-18T09:56:21Z</time>
      </trkpt>
      <trkpt lat="48.88574" lon="-0.32426">
        <ele>212.8000031</ele>
        <time>2011-12-18T09:56:23Z</time>
      </trkpt>
      <trkpt lat="48.88574" lon="-0.32418">
        <ele>212.8000031</ele>
        <time>2011-12-18T09:56:25Z</time>
      </trkpt>
      <trkpt lat="48.88573" lon="-0.32411">
        <ele>212.8000031</ele>
        <time>2011-12-18T09:56:27Z</time>
      </trkpt>
      <trkpt lat="48.88573" lon="-0.32402">
        <ele>212.8000031</ele>
        <time>2011-12-18T09:56:30Z</time>
      </trkpt>
      <trkpt lat="48.88573" lon="-0.324">
        <ele>212.8000031</ele>
        <time>2011-12-18T09:56:31Z</time>
      </trkpt>
      <trkpt lat="48.88573" lon="-0.32398">
        <ele>212.8000031</ele>
        <time>2011-12-18T09:56:32Z</time>
      </trkpt>
      <trkpt lat="48.88573" lon="-0.32389">
        <ele>212.8000031</ele>
        <time>2011-12-18T09:56:35Z</time>
      </trkpt>
      <trkpt lat="48.88572" lon="-0.3238">
        <ele>212.8000031</ele>
        <time>2011-12-18T09:56:38Z</time>
      </trkpt>
      <trkpt lat="48.88571" lon="-0.32374">
        <ele>213</ele>
        <time>2011-12-18T09:56:40Z</time>
      </trkpt>
      <trkpt lat="48.88571" lon="-0.32371">
        <ele>213.6000061</ele>
        <time>2011-12-18T09:56:41Z</time>
      </trkpt>
      <trkpt lat="48.88571" lon="-0.32369">
        <ele>214</ele>
        <time>2011-12-18T09:56:42Z</time>
      </trkpt>
      <trkpt lat="48.88571" lon="-0.32365">
        <ele>214.1999969</ele>
        <time>2011-12-18T09:56:43Z</time>
      </trkpt>
      <trkpt lat="48.88571" lon="-0.32362">
        <ele>214.8000031</ele>
        <time>2011-12-18T09:56:44Z</time>
      </trkpt>
      <trkpt lat="48.8857" lon="-0.32345">
        <ele>214.8000031</ele>
        <time>2011-12-18T09:56:50Z</time>
      </trkpt>
      <trkpt lat="48.88569" lon="-0.32333">
        <ele>215</ele>
        <time>2011-12-18T09:56:54Z</time>
      </trkpt>
      <trkpt lat="48.88568" lon="-0.32329">
        <ele>215.6000061</ele>
        <time>2011-12-18T09:56:55Z</time>
      </trkpt>
      <trkpt lat="48.88568" lon="-0.32326">
        <ele>216</ele>
        <time>2011-12-18T09:56:56Z</time>
      </trkpt>
      <trkpt lat="48.88568" lon="-0.32323">
        <ele>216.1999969</ele>
        <time>2011-12-18T09:56:57Z</time>
      </trkpt>
      <trkpt lat="48.88568" lon="-0.3232">
        <ele>216.8000031</ele>
        <time>2011-12-18T09:56:58Z</time>
      </trkpt>
      <trkpt lat="48.88567" lon="-0.32307">
        <ele>216.8000031</ele>
        <time>2011-12-18T09:57:02Z</time>
      </trkpt>
      <trkpt lat="48.88568" lon="-0.32301">
        <ele>216.8000031</ele>
        <time>2011-12-18T09:57:04Z</time>
      </trkpt>
      <trkpt lat="48.88568" lon="-0.32291">
        <ele>216.8000031</ele>
        <time>2011-12-18T09:57:07Z</time>
      </trkpt>
      <trkpt lat="48.88566" lon="-0.32276">
        <ele>216.8000031</ele>
        <time>2011-12-18T09:57:12Z</time>
      </trkpt>
      <trkpt lat="48.88566" lon="-0.32269">
        <ele>217</ele>
        <time>2011-12-18T09:57:14Z</time>
      </trkpt>
      <trkpt lat="48.88566" lon="-0.32266">
        <ele>217.6000061</ele>
        <time>2011-12-18T09:57:15Z</time>
      </trkpt>
      <trkpt lat="48.88566" lon="-0.32263">
        <ele>218</ele>
        <time>2011-12-18T09:57:16Z</time>
      </trkpt>
      <trkpt lat="48.88566" lon="-0.3226">
        <ele>218.6000061</ele>
        <time>2011-12-18T09:57:17Z</time>
      </trkpt>
      <trkpt lat="48.88566" lon="-0.32256">
        <ele>219</ele>
        <time>2011-12-18T09:57:18Z</time>
      </trkpt>
      <trkpt lat="48.88565" lon="-0.32241">
        <ele>219</ele>
        <time>2011-12-18T09:57:23Z</time>
      </trkpt>
      <trkpt lat="48.88564" lon="-0.3223">
        <ele>219.1999969</ele>
        <time>2011-12-18T09:57:27Z</time>
      </trkpt>
      <trkpt lat="48.88564" lon="-0.32227">
        <ele>219.8000031</ele>
        <time>2011-12-18T09:57:28Z</time>
      </trkpt>
      <trkpt lat="48.88564" lon="-0.32225">
        <ele>220</ele>
        <time>2011-12-18T09:57:29Z</time>
      </trkpt>
      <trkpt lat="48.88564" lon="-0.32222">
        <ele>220.6000061</ele>
        <time>2011-12-18T09:57:30Z</time>
      </trkpt>
      <trkpt lat="48.88564" lon="-0.32218">
        <ele>221</ele>
        <time>2011-12-18T09:57:31Z</time>
      </trkpt>
      <trkpt lat="48.88564" lon="-0.32199">
        <ele>221</ele>
        <time>2011-12-18T09:57:37Z</time>
      </trkpt>
      <trkpt lat="48.88562" lon="-0.32189">
        <ele>221</ele>
        <time>2011-12-18T09:57:42Z</time>
      </trkpt>
      <trkpt lat="48.88562" lon="-0.32177">
        <ele>221.1999969</ele>
        <time>2011-12-18T09:57:46Z</time>
      </trkpt>
      <trkpt lat="48.88562" lon="-0.32174">
        <ele>221.8000031</ele>
        <time>2011-12-18T09:57:47Z</time>
      </trkpt>
      <trkpt lat="48.88562" lon="-0.32172">
        <ele>222</ele>
        <time>2011-12-18T09:57:48Z</time>
      </trkpt>
      <trkpt lat="48.88561" lon="-0.32172">
        <ele>222.6000061</ele>
        <time>2011-12-18T09:57:49Z</time>
      </trkpt>
      <trkpt lat="48.88562" lon="-0.32171">
        <ele>223</ele>
        <time>2011-12-18T09:57:50Z</time>
      </trkpt>
      <trkpt lat="48.88561" lon="-0.32169">
        <ele>223</ele>
        <time>2011-12-18T09:57:51Z</time>
      </trkpt>
      <trkpt lat="48.88561" lon="-0.32156">
        <ele>223</ele>
        <time>2011-12-18T09:57:57Z</time>
      </trkpt>
      <trkpt lat="48.8856" lon="-0.32142">
        <ele>223</ele>
        <time>2011-12-18T09:58:03Z</time>
      </trkpt>
      <trkpt lat="48.88559" lon="-0.32126">
        <ele>223</ele>
        <time>2011-12-18T09:58:07Z</time>
      </trkpt>
      <trkpt lat="48.88559" lon="-0.32123">
        <ele>223.1999969</ele>
        <time>2011-12-18T09:58:08Z</time>
      </trkpt>
      <trkpt lat="48.88559" lon="-0.32119">
        <ele>223.8000031</ele>
        <time>2011-12-18T09:58:09Z</time>
      </trkpt>
      <trkpt lat="48.88559" lon="-0.32115">
        <ele>224</ele>
        <time>2011-12-18T09:58:10Z</time>
      </trkpt>
      <trkpt lat="48.88558" lon="-0.32111">
        <ele>224.6000061</ele>
        <time>2011-12-18T09:58:11Z</time>
      </trkpt>
      <trkpt lat="48.88558" lon="-0.32107">
        <ele>225</ele>
        <time>2011-12-18T09:58:12Z</time>
      </trkpt>
      <trkpt lat="48.88557" lon="-0.32091">
        <ele>225</ele>
        <time>2011-12-18T09:58:16Z</time>
      </trkpt>
      <trkpt lat="48.88556" lon="-0.3206">
        <ele>225</ele>
        <time>2011-12-18T09:58:25Z</time>
      </trkpt>
      <trkpt lat="48.88556" lon="-0.32033">
        <ele>225.1999969</ele>
        <time>2011-12-18T09:58:32Z</time>
      </trkpt>
      <trkpt lat="48.88556" lon="-0.32029">
        <ele>225.8000031</ele>
        <time>2011-12-18T09:58:33Z</time>
      </trkpt>
      <trkpt lat="48.88556" lon="-0.32025">
        <ele>226</ele>
        <time>2011-12-18T09:58:34Z</time>
      </trkpt>
      <trkpt lat="48.88556" lon="-0.32022">
        <ele>226.6000061</ele>
        <time>2011-12-18T09:58:35Z</time>
      </trkpt>
      <trkpt lat="48.88556" lon="-0.32019">
        <ele>227</ele>
        <time>2011-12-18T09:58:36Z</time>
      </trkpt>
      <trkpt lat="48.88558" lon="-0.32005">
        <ele>227</ele>
        <time>2011-12-18T09:58:40Z</time>
      </trkpt>
      <trkpt lat="48.88562" lon="-0.31979">
        <ele>227</ele>
        <time>2011-12-18T09:58:47Z</time>
      </trkpt>
      <trkpt lat="48.88569" lon="-0.31958">
        <ele>227.1999969</ele>
        <time>2011-12-18T09:58:53Z</time>
      </trkpt>
      <trkpt lat="48.8857" lon="-0.31954">
        <ele>227.8000031</ele>
        <time>2011-12-18T09:58:54Z</time>
      </trkpt>
      <trkpt lat="48.8857" lon="-0.3195">
        <ele>228</ele>
        <time>2011-12-18T09:58:55Z</time>
      </trkpt>
      <trkpt lat="48.88571" lon="-0.31947">
        <ele>228.8000031</ele>
        <time>2011-12-18T09:58:56Z</time>
      </trkpt>
      <trkpt lat="48.88572" lon="-0.31944">
        <ele>229</ele>
        <time>2011-12-18T09:58:57Z</time>
      </trkpt>
      <trkpt lat="48.88575" lon="-0.31933">
        <ele>229</ele>
        <time>2011-12-18T09:59:00Z</time>
      </trkpt>
      <trkpt lat="48.8858" lon="-0.31918">
        <ele>229</ele>
        <time>2011-12-18T09:59:05Z</time>
      </trkpt>
      <trkpt lat="48.88581" lon="-0.31915">
        <ele>229</ele>
        <time>2011-12-18T09:59:06Z</time>
      </trkpt>
      <trkpt lat="48.88587" lon="-0.31895">
        <ele>229</ele>
        <time>2011-12-18T09:59:12Z</time>
      </trkpt>
      <trkpt lat="48.88593" lon="-0.31866">
        <ele>229</ele>
        <time>2011-12-18T09:59:19Z</time>
      </trkpt>
      <trkpt lat="48.88597" lon="-0.31843">
        <ele>229</ele>
        <time>2011-12-18T09:59:25Z</time>
      </trkpt>
      <trkpt lat="48.88601" lon="-0.31824">
        <ele>229</ele>
        <time>2011-12-18T09:59:31Z</time>
      </trkpt>
      <trkpt lat="48.88603" lon="-0.31795">
        <ele>229</ele>
        <time>2011-12-18T09:59:38Z</time>
      </trkpt>
      <trkpt lat="48.88604" lon="-0.31777">
        <ele>229</ele>
        <time>2011-12-18T09:59:43Z</time>
      </trkpt>
      <trkpt lat="48.88606" lon="-0.31751">
        <ele>229.6000061</ele>
        <time>2011-12-18T09:59:49Z</time>
      </trkpt>
      <trkpt lat="48.88606" lon="-0.31747">
        <ele>230</ele>
        <time>2011-12-18T09:59:50Z</time>
      </trkpt>
      <trkpt lat="48.88606" lon="-0.31743">
        <ele>230.1999969</ele>
        <time>2011-12-18T09:59:51Z</time>
      </trkpt>
      <trkpt lat="48.88606" lon="-0.31739">
        <ele>230.8000031</ele>
        <time>2011-12-18T09:59:52Z</time>
      </trkpt>
      <trkpt lat="48.88607" lon="-0.31735">
        <ele>231</ele>
        <time>2011-12-18T09:59:53Z</time>
      </trkpt>
      <trkpt lat="48.88607" lon="-0.31712">
        <ele>231</ele>
        <time>2011-12-18T09:59:58Z</time>
      </trkpt>
      <trkpt lat="48.88609" lon="-0.31681">
        <ele>231</ele>
        <time>2011-12-18T10:00:05Z</time>
      </trkpt>
      <trkpt lat="48.88611" lon="-0.31648">
        <ele>231</ele>
        <time>2011-12-18T10:00:13Z</time>
      </trkpt>
      <trkpt lat="48.88612" lon="-0.31629">
        <ele>231.6000061</ele>
        <time>2011-12-18T10:00:18Z</time>
      </trkpt>
      <trkpt lat="48.88612" lon="-0.31625">
        <ele>232</ele>
        <time>2011-12-18T10:00:19Z</time>
      </trkpt>
      <trkpt lat="48.88613" lon="-0.31621">
        <ele>233</ele>
        <time>2011-12-18T10:00:20Z</time>
      </trkpt>
      <trkpt lat="48.88613" lon="-0.31617">
        <ele>233.1999969</ele>
        <time>2011-12-18T10:00:21Z</time>
      </trkpt>
      <trkpt lat="48.88615" lon="-0.31598">
        <ele>233.1999969</ele>
        <time>2011-12-18T10:00:26Z</time>
      </trkpt>
      <trkpt lat="48.88616" lon="-0.31593">
        <ele>233.8000031</ele>
        <time>2011-12-18T10:00:27Z</time>
      </trkpt>
      <trkpt lat="48.88616" lon="-0.31589">
        <ele>234</ele>
        <time>2011-12-18T10:00:28Z</time>
      </trkpt>
      <trkpt lat="48.88616" lon="-0.31584">
        <ele>234.6000061</ele>
        <time>2011-12-18T10:00:29Z</time>
      </trkpt>
      <trkpt lat="48.88617" lon="-0.31581">
        <ele>235</ele>
        <time>2011-12-18T10:00:30Z</time>
      </trkpt>
      <trkpt lat="48.88617" lon="-0.31577">
        <ele>235.1999969</ele>
        <time>2011-12-18T10:00:31Z</time>
      </trkpt>
      <trkpt lat="48.88618" lon="-0.3157">
        <ele>235.1999969</ele>
        <time>2011-12-18T10:00:33Z</time>
      </trkpt>
      <trkpt lat="48.88619" lon="-0.31556">
        <ele>235.8000031</ele>
        <time>2011-12-18T10:00:37Z</time>
      </trkpt>
      <trkpt lat="48.88619" lon="-0.31552">
        <ele>236</ele>
        <time>2011-12-18T10:00:38Z</time>
      </trkpt>
      <trkpt lat="48.8862" lon="-0.31549">
        <ele>236.6000061</ele>
        <time>2011-12-18T10:00:39Z</time>
      </trkpt>
      <trkpt lat="48.8862" lon="-0.31546">
        <ele>237</ele>
        <time>2011-12-18T10:00:40Z</time>
      </trkpt>
      <trkpt lat="48.8862" lon="-0.31544">
        <ele>237.1999969</ele>
        <time>2011-12-18T10:00:41Z</time>
      </trkpt>
      <trkpt lat="48.8862" lon="-0.31542">
        <ele>237.1999969</ele>
        <time>2011-12-18T10:00:44Z</time>
      </trkpt>
      <trkpt lat="48.8862" lon="-0.31539">
        <ele>237.1999969</ele>
        <time>2011-12-18T10:02:05Z</time>
      </trkpt>
      <trkpt lat="48.8862" lon="-0.31536">
        <ele>237.1999969</ele>
        <time>2011-12-18T10:02:06Z</time>
      </trkpt>
      <trkpt lat="48.88618" lon="-0.31521">
        <ele>237.1999969</ele>
        <time>2011-12-18T10:02:10Z</time>
      </trkpt>
      <trkpt lat="48.88617" lon="-0.31512">
        <ele>237.1999969</ele>
        <time>2011-12-18T10:02:12Z</time>
      </trkpt>
      <trkpt lat="48.88615" lon="-0.31492">
        <ele>237.1999969</ele>
        <time>2011-12-18T10:02:17Z</time>
      </trkpt>
      <trkpt lat="48.88614" lon="-0.31482">
        <ele>237.8000031</ele>
        <time>2011-12-18T10:02:19Z</time>
      </trkpt>
      <trkpt lat="48.88614" lon="-0.31477">
        <ele>238</ele>
        <time>2011-12-18T10:02:20Z</time>
      </trkpt>
      <trkpt lat="48.88613" lon="-0.31473">
        <ele>238.6000061</ele>
        <time>2011-12-18T10:02:21Z</time>
      </trkpt>
      <trkpt lat="48.88613" lon="-0.31468">
        <ele>239</ele>
        <time>2011-12-18T10:02:22Z</time>
      </trkpt>
      <trkpt lat="48.88612" lon="-0.31463">
        <ele>239.1999969</ele>
        <time>2011-12-18T10:02:23Z</time>
      </trkpt>
      <trkpt lat="48.88611" lon="-0.31447">
        <ele>239.1999969</ele>
        <time>2011-12-18T10:02:26Z</time>
      </trkpt>
      <trkpt lat="48.88606" lon="-0.31415">
        <ele>239.1999969</ele>
        <time>2011-12-18T10:02:32Z</time>
      </trkpt>
      <trkpt lat="48.88597" lon="-0.3137">
        <ele>239.1999969</ele>
        <time>2011-12-18T10:02:40Z</time>
      </trkpt>
      <trkpt lat="48.88591" lon="-0.3134">
        <ele>239.1999969</ele>
        <time>2011-12-18T10:02:45Z</time>
      </trkpt>
      <trkpt lat="48.88588" lon="-0.31328">
        <ele>239.1999969</ele>
        <time>2011-12-18T10:02:47Z</time>
      </trkpt>
      <trkpt lat="48.88581" lon="-0.31283">
        <ele>239.1999969</ele>
        <time>2011-12-18T10:02:54Z</time>
      </trkpt>
      <trkpt lat="48.88578" lon="-0.31249">
        <ele>239.1999969</ele>
        <time>2011-12-18T10:02:59Z</time>
      </trkpt>
      <trkpt lat="48.88577" lon="-0.31235">
        <ele>239.1999969</ele>
        <time>2011-12-18T10:03:01Z</time>
      </trkpt>
      <trkpt lat="48.88582" lon="-0.31185">
        <ele>239.1999969</ele>
        <time>2011-12-18T10:03:08Z</time>
      </trkpt>
      <trkpt lat="48.88597" lon="-0.31118">
        <ele>239.1999969</ele>
        <time>2011-12-18T10:03:17Z</time>
      </trkpt>
      <trkpt lat="48.8861" lon="-0.31058">
        <ele>239.1999969</ele>
        <time>2011-12-18T10:03:25Z</time>
      </trkpt>
      <trkpt lat="48.88618" lon="-0.31022">
        <ele>239.1999969</ele>
        <time>2011-12-18T10:03:30Z</time>
      </trkpt>
      <trkpt lat="48.88621" lon="-0.31008">
        <ele>239.1999969</ele>
        <time>2011-12-18T10:03:32Z</time>
      </trkpt>
      <trkpt lat="48.8863" lon="-0.30958">
        <ele>239.1999969</ele>
        <time>2011-12-18T10:03:39Z</time>
      </trkpt>
      <trkpt lat="48.88642" lon="-0.30906">
        <ele>239.1999969</ele>
        <time>2011-12-18T10:03:47Z</time>
      </trkpt>
      <trkpt lat="48.88642" lon="-0.309">
        <ele>239.1999969</ele>
        <time>2011-12-18T10:03:48Z</time>
      </trkpt>
      <trkpt lat="48.88646" lon="-0.30881">
        <ele>239.8000031</ele>
        <time>2011-12-18T10:03:51Z</time>
      </trkpt>
      <trkpt lat="48.88648" lon="-0.30875">
        <ele>240</ele>
        <time>2011-12-18T10:03:52Z</time>
      </trkpt>
      <trkpt lat="48.8865" lon="-0.30868">
        <ele>240.6000061</ele>
        <time>2011-12-18T10:03:53Z</time>
      </trkpt>
      <trkpt lat="48.88651" lon="-0.30862">
        <ele>241</ele>
        <time>2011-12-18T10:03:54Z</time>
      </trkpt>
      <trkpt lat="48.88654" lon="-0.30855">
        <ele>241.1999969</ele>
        <time>2011-12-18T10:03:55Z</time>
      </trkpt>
      <trkpt lat="48.8866" lon="-0.30836">
        <ele>241.1999969</ele>
        <time>2011-12-18T10:03:58Z</time>
      </trkpt>
      <trkpt lat="48.88668" lon="-0.30813">
        <ele>242</ele>
        <time>2011-12-18T10:04:02Z</time>
      </trkpt>
      <trkpt lat="48.8867" lon="-0.30808">
        <ele>242.8000031</ele>
        <time>2011-12-18T10:04:03Z</time>
      </trkpt>
      <trkpt lat="48.88672" lon="-0.30802">
        <ele>243</ele>
        <time>2011-12-18T10:04:04Z</time>
      </trkpt>
      <trkpt lat="48.88674" lon="-0.30797">
        <ele>243.6000061</ele>
        <time>2011-12-18T10:04:05Z</time>
      </trkpt>
      <trkpt lat="48.88684" lon="-0.30773">
        <ele>243.6000061</ele>
        <time>2011-12-18T10:04:10Z</time>
      </trkpt>
      <trkpt lat="48.88686" lon="-0.3077">
        <ele>243.6000061</ele>
        <time>2011-12-18T10:04:11Z</time>
      </trkpt>
      <trkpt lat="48.88692" lon="-0.30773">
        <ele>243.6000061</ele>
        <time>2011-12-18T10:04:13Z</time>
      </trkpt>
      <trkpt lat="48.88702" lon="-0.30779">
        <ele>243.6000061</ele>
        <time>2011-12-18T10:04:17Z</time>
      </trkpt>
      <trkpt lat="48.88707" lon="-0.30779">
        <ele>243.6000061</ele>
        <time>2011-12-18T10:04:19Z</time>
      </trkpt>
      <trkpt lat="48.88712" lon="-0.30779">
        <ele>244</ele>
        <time>2011-12-18T10:04:21Z</time>
      </trkpt>
      <trkpt lat="48.88715" lon="-0.30779">
        <ele>244.1999969</ele>
        <time>2011-12-18T10:04:22Z</time>
      </trkpt>
      <trkpt lat="48.88718" lon="-0.30778">
        <ele>244.8000031</ele>
        <time>2011-12-18T10:04:23Z</time>
      </trkpt>
      <trkpt lat="48.8872" lon="-0.30778">
        <ele>245</ele>
        <time>2011-12-18T10:04:24Z</time>
      </trkpt>
      <trkpt lat="48.88723" lon="-0.30777">
        <ele>245.6000061</ele>
        <time>2011-12-18T10:04:25Z</time>
      </trkpt>
      <trkpt lat="48.88728" lon="-0.30777">
        <ele>245.6000061</ele>
        <time>2011-12-18T10:04:27Z</time>
      </trkpt>
      <trkpt lat="48.88743" lon="-0.30777">
        <ele>245.6000061</ele>
        <time>2011-12-18T10:04:33Z</time>
      </trkpt>
      <trkpt lat="48.88746" lon="-0.30776">
        <ele>245.6000061</ele>
        <time>2011-12-18T10:04:34Z</time>
      </trkpt>
      <trkpt lat="48.88766" lon="-0.30777">
        <ele>245.6000061</ele>
        <time>2011-12-18T10:04:40Z</time>
      </trkpt>
      <trkpt lat="48.88781" lon="-0.30778">
        <ele>246</ele>
        <time>2011-12-18T10:04:45Z</time>
      </trkpt>
      <trkpt lat="48.88784" lon="-0.30777">
        <ele>246.1999969</ele>
        <time>2011-12-18T10:04:46Z</time>
      </trkpt>
      <trkpt lat="48.88787" lon="-0.30777">
        <ele>246.8000031</ele>
        <time>2011-12-18T10:04:47Z</time>
      </trkpt>
      <trkpt lat="48.88789" lon="-0.30777">
        <ele>247</ele>
        <time>2011-12-18T10:04:48Z</time>
      </trkpt>
      <trkpt lat="48.88791" lon="-0.30776">
        <ele>247.6000061</ele>
        <time>2011-12-18T10:04:49Z</time>
      </trkpt>
      <trkpt lat="48.88796" lon="-0.30775">
        <ele>247.6000061</ele>
        <time>2011-12-18T10:04:52Z</time>
      </trkpt>
      <trkpt lat="48.88805" lon="-0.30774">
        <ele>247.6000061</ele>
        <time>2011-12-18T10:04:56Z</time>
      </trkpt>
      <trkpt lat="48.88814" lon="-0.30772">
        <ele>247.6000061</ele>
        <time>2011-12-18T10:04:59Z</time>
      </trkpt>
      <trkpt lat="48.88838" lon="-0.30772">
        <ele>247.6000061</ele>
        <time>2011-12-18T10:05:06Z</time>
      </trkpt>
      <trkpt lat="48.88859" lon="-0.30772">
        <ele>247.6000061</ele>
        <time>2011-12-18T10:05:12Z</time>
      </trkpt>
      <trkpt lat="48.88862" lon="-0.30772">
        <ele>247.6000061</ele>
        <time>2011-12-18T10:05:13Z</time>
      </trkpt>
      <trkpt lat="48.88885" lon="-0.30777">
        <ele>247.6000061</ele>
        <time>2011-12-18T10:05:20Z</time>
      </trkpt>
      <trkpt lat="48.88902" lon="-0.3078">
        <ele>247.6000061</ele>
        <time>2011-12-18T10:05:26Z</time>
      </trkpt>
      <trkpt lat="48.88915" lon="-0.30782">
        <ele>247.6000061</ele>
        <time>2011-12-18T10:05:30Z</time>
      </trkpt>
      <trkpt lat="48.88927" lon="-0.30785">
        <ele>247.6000061</ele>
        <time>2011-12-18T10:05:33Z</time>
      </trkpt>
      <trkpt lat="48.88952" lon="-0.30792">
        <ele>247.6000061</ele>
        <time>2011-12-18T10:05:40Z</time>
      </trkpt>
      <trkpt lat="48.88974" lon="-0.30795">
        <ele>247.6000061</ele>
        <time>2011-12-18T10:05:45Z</time>
      </trkpt>
      <trkpt lat="48.88991" lon="-0.30798">
        <ele>247.6000061</ele>
        <time>2011-12-18T10:05:49Z</time>
      </trkpt>
      <trkpt lat="48.89008" lon="-0.30801">
        <ele>247.6000061</ele>
        <time>2011-12-18T10:05:53Z</time>
      </trkpt>
      <trkpt lat="48.89037" lon="-0.30805">
        <ele>247.6000061</ele>
        <time>2011-12-18T10:06:00Z</time>
      </trkpt>
      <trkpt lat="48.89045" lon="-0.30806">
        <ele>247</ele>
        <time>2011-12-18T10:06:02Z</time>
      </trkpt>
      <trkpt lat="48.8905" lon="-0.30806">
        <ele>246.8000031</ele>
        <time>2011-12-18T10:06:03Z</time>
      </trkpt>
      <trkpt lat="48.89054" lon="-0.30807">
        <ele>246.1999969</ele>
        <time>2011-12-18T10:06:04Z</time>
      </trkpt>
      <trkpt lat="48.89058" lon="-0.30808">
        <ele>245.6000061</ele>
        <time>2011-12-18T10:06:05Z</time>
      </trkpt>
      <trkpt lat="48.89066" lon="-0.30809">
        <ele>245.6000061</ele>
        <time>2011-12-18T10:06:07Z</time>
      </trkpt>
      <trkpt lat="48.89084" lon="-0.30811">
        <ele>245.6000061</ele>
        <time>2011-12-18T10:06:11Z</time>
      </trkpt>
      <trkpt lat="48.89093" lon="-0.30813">
        <ele>245.6000061</ele>
        <time>2011-12-18T10:06:13Z</time>
      </trkpt>
      <trkpt lat="48.89101" lon="-0.30815">
        <ele>245</ele>
        <time>2011-12-18T10:06:15Z</time>
      </trkpt>
      <trkpt lat="48.89105" lon="-0.30816">
        <ele>244.8000031</ele>
        <time>2011-12-18T10:06:16Z</time>
      </trkpt>
      <trkpt lat="48.8911" lon="-0.30817">
        <ele>244.1999969</ele>
        <time>2011-12-18T10:06:17Z</time>
      </trkpt>
      <trkpt lat="48.89114" lon="-0.30817">
        <ele>243.8000031</ele>
        <time>2011-12-18T10:06:18Z</time>
      </trkpt>
      <trkpt lat="48.89118" lon="-0.30819">
        <ele>243.1999969</ele>
        <time>2011-12-18T10:06:19Z</time>
      </trkpt>
      <trkpt lat="48.89122" lon="-0.3082">
        <ele>243.1999969</ele>
        <time>2011-12-18T10:06:20Z</time>
      </trkpt>
      <trkpt lat="48.89131" lon="-0.30823">
        <ele>243.1999969</ele>
        <time>2011-12-18T10:06:22Z</time>
      </trkpt>
      <trkpt lat="48.89145" lon="-0.30829">
        <ele>243.1999969</ele>
        <time>2011-12-18T10:06:25Z</time>
      </trkpt>
      <trkpt lat="48.89161" lon="-0.30835">
        <ele>243</ele>
        <time>2011-12-18T10:06:28Z</time>
      </trkpt>
      <trkpt lat="48.89167" lon="-0.30837">
        <ele>242.6000061</ele>
        <time>2011-12-18T10:06:29Z</time>
      </trkpt>
      <trkpt lat="48.89173" lon="-0.3084">
        <ele>241.8000031</ele>
        <time>2011-12-18T10:06:30Z</time>
      </trkpt>
      <trkpt lat="48.89179" lon="-0.30842">
        <ele>241.1999969</ele>
        <time>2011-12-18T10:06:31Z</time>
      </trkpt>
      <trkpt lat="48.89197" lon="-0.30848">
        <ele>241.1999969</ele>
        <time>2011-12-18T10:06:34Z</time>
      </trkpt>
      <trkpt lat="48.89201" lon="-0.30849">
        <ele>241.1999969</ele>
        <time>2011-12-18T10:06:35Z</time>
      </trkpt>
      <trkpt lat="48.89215" lon="-0.30853">
        <ele>241</ele>
        <time>2011-12-18T10:06:38Z</time>
      </trkpt>
      <trkpt lat="48.89221" lon="-0.30854">
        <ele>240.6000061</ele>
        <time>2011-12-18T10:06:39Z</time>
      </trkpt>
      <trkpt lat="48.89226" lon="-0.30854">
        <ele>240</ele>
        <time>2011-12-18T10:06:40Z</time>
      </trkpt>
      <trkpt lat="48.89232" lon="-0.30856">
        <ele>239.8000031</ele>
        <time>2011-12-18T10:06:41Z</time>
      </trkpt>
      <trkpt lat="48.89237" lon="-0.30858">
        <ele>239.1999969</ele>
        <time>2011-12-18T10:06:42Z</time>
      </trkpt>
      <trkpt lat="48.89259" lon="-0.30865">
        <ele>239.1999969</ele>
        <time>2011-12-18T10:06:46Z</time>
      </trkpt>
      <trkpt lat="48.89264" lon="-0.30866">
        <ele>239</ele>
        <time>2011-12-18T10:06:47Z</time>
      </trkpt>
      <trkpt lat="48.8927" lon="-0.30868">
        <ele>238.6000061</ele>
        <time>2011-12-18T10:06:48Z</time>
      </trkpt>
      <trkpt lat="48.89276" lon="-0.3087">
        <ele>238</ele>
        <time>2011-12-18T10:06:49Z</time>
      </trkpt>
      <trkpt lat="48.89281" lon="-0.30872">
        <ele>237.6000061</ele>
        <time>2011-12-18T10:06:50Z</time>
      </trkpt>
      <trkpt lat="48.89287" lon="-0.30874">
        <ele>237</ele>
        <time>2011-12-18T10:06:51Z</time>
      </trkpt>
      <trkpt lat="48.89302" lon="-0.30879">
        <ele>236.8000031</ele>
        <time>2011-12-18T10:06:54Z</time>
      </trkpt>
      <trkpt lat="48.89307" lon="-0.30881">
        <ele>235.8000031</ele>
        <time>2011-12-18T10:06:55Z</time>
      </trkpt>
      <trkpt lat="48.89313" lon="-0.30883">
        <ele>235.1999969</ele>
        <time>2011-12-18T10:06:56Z</time>
      </trkpt>
      <trkpt lat="48.89319" lon="-0.30884">
        <ele>234.8000031</ele>
        <time>2011-12-18T10:06:57Z</time>
      </trkpt>
      <trkpt lat="48.89336" lon="-0.30889">
        <ele>234.8000031</ele>
        <time>2011-12-18T10:07:00Z</time>
      </trkpt>
      <trkpt lat="48.89342" lon="-0.3089">
        <ele>234.1999969</ele>
        <time>2011-12-18T10:07:01Z</time>
      </trkpt>
      <trkpt lat="48.89348" lon="-0.30892">
        <ele>234</ele>
        <time>2011-12-18T10:07:02Z</time>
      </trkpt>
      <trkpt lat="48.89354" lon="-0.30893">
        <ele>233.6000061</ele>
        <time>2011-12-18T10:07:03Z</time>
      </trkpt>
      <trkpt lat="48.8936" lon="-0.30896">
        <ele>233</ele>
        <time>2011-12-18T10:07:04Z</time>
      </trkpt>
      <trkpt lat="48.89366" lon="-0.30898">
        <ele>232.8000031</ele>
        <time>2011-12-18T10:07:05Z</time>
      </trkpt>
      <trkpt lat="48.89382" lon="-0.30905">
        <ele>232.8000031</ele>
        <time>2011-12-18T10:07:08Z</time>
      </trkpt>
      <trkpt lat="48.89393" lon="-0.30909">
        <ele>232.1999969</ele>
        <time>2011-12-18T10:07:10Z</time>
      </trkpt>
      <trkpt lat="48.89398" lon="-0.30912">
        <ele>232</ele>
        <time>2011-12-18T10:07:11Z</time>
      </trkpt>
      <trkpt lat="48.89403" lon="-0.30914">
        <ele>231.6000061</ele>
        <time>2011-12-18T10:07:12Z</time>
      </trkpt>
      <trkpt lat="48.89408" lon="-0.30917">
        <ele>231</ele>
        <time>2011-12-18T10:07:13Z</time>
      </trkpt>
      <trkpt lat="48.89413" lon="-0.30919">
        <ele>230.6000061</ele>
        <time>2011-12-18T10:07:14Z</time>
      </trkpt>
      <trkpt lat="48.89418" lon="-0.30923">
        <ele>230.6000061</ele>
        <time>2011-12-18T10:07:15Z</time>
      </trkpt>
      <trkpt lat="48.89439" lon="-0.30936">
        <ele>230.6000061</ele>
        <time>2011-12-18T10:07:19Z</time>
      </trkpt>
      <trkpt lat="48.89454" lon="-0.30945">
        <ele>230.6000061</ele>
        <time>2011-12-18T10:07:22Z</time>
      </trkpt>
      <trkpt lat="48.89459" lon="-0.30948">
        <ele>230.6000061</ele>
        <time>2011-12-18T10:07:23Z</time>
      </trkpt>
      <trkpt lat="48.89469" lon="-0.30954">
        <ele>230.6000061</ele>
        <time>2011-12-18T10:07:25Z</time>
      </trkpt>
      <trkpt lat="48.89474" lon="-0.30957">
        <ele>230</ele>
        <time>2011-12-18T10:07:26Z</time>
      </trkpt>
      <trkpt lat="48.8948" lon="-0.3096">
        <ele>229.8000031</ele>
        <time>2011-12-18T10:07:27Z</time>
      </trkpt>
      <trkpt lat="48.89484" lon="-0.30964">
        <ele>229.1999969</ele>
        <time>2011-12-18T10:07:28Z</time>
      </trkpt>
      <trkpt lat="48.89489" lon="-0.30967">
        <ele>229</ele>
        <time>2011-12-18T10:07:29Z</time>
      </trkpt>
      <trkpt lat="48.89493" lon="-0.30969">
        <ele>228.6000061</ele>
        <time>2011-12-18T10:07:30Z</time>
      </trkpt>
      <trkpt lat="48.89502" lon="-0.30973">
        <ele>228.6000061</ele>
        <time>2011-12-18T10:07:32Z</time>
      </trkpt>
      <trkpt lat="48.89506" lon="-0.30974">
        <ele>228.6000061</ele>
        <time>2011-12-18T10:07:33Z</time>
      </trkpt>
      <trkpt lat="48.8951" lon="-0.30977">
        <ele>228.6000061</ele>
        <time>2011-12-18T10:07:34Z</time>
      </trkpt>
      <trkpt lat="48.89519" lon="-0.30982">
        <ele>228.6000061</ele>
        <time>2011-12-18T10:07:36Z</time>
      </trkpt>
      <trkpt lat="48.89526" lon="-0.30987">
        <ele>228.6000061</ele>
        <time>2011-12-18T10:07:38Z</time>
      </trkpt>
      <trkpt lat="48.89532" lon="-0.30991">
        <ele>228.6000061</ele>
        <time>2011-12-18T10:07:40Z</time>
      </trkpt>
      <trkpt lat="48.89535" lon="-0.30993">
        <ele>228.6000061</ele>
        <time>2011-12-18T10:07:41Z</time>
      </trkpt>
      <trkpt lat="48.89542" lon="-0.30997">
        <ele>228.6000061</ele>
        <time>2011-12-18T10:07:43Z</time>
      </trkpt>
      <trkpt lat="48.89553" lon="-0.31004">
        <ele>228.6000061</ele>
        <time>2011-12-18T10:07:46Z</time>
      </trkpt>
      <trkpt lat="48.89558" lon="-0.31006">
        <ele>228.6000061</ele>
        <time>2011-12-18T10:07:47Z</time>
      </trkpt>
      <trkpt lat="48.89571" lon="-0.31013">
        <ele>228.6000061</ele>
        <time>2011-12-18T10:07:50Z</time>
      </trkpt>
      <trkpt lat="48.89585" lon="-0.31018">
        <ele>228.6000061</ele>
        <time>2011-12-18T10:07:54Z</time>
      </trkpt>
      <trkpt lat="48.89612" lon="-0.31024">
        <ele>228.6000061</ele>
        <time>2011-12-18T10:08:00Z</time>
      </trkpt>
      <trkpt lat="48.89639" lon="-0.3103">
        <ele>228.6000061</ele>
        <time>2011-12-18T10:08:06Z</time>
      </trkpt>
      <trkpt lat="48.89671" lon="-0.31031">
        <ele>228.6000061</ele>
        <time>2011-12-18T10:08:13Z</time>
      </trkpt>
      <trkpt lat="48.89688" lon="-0.31029">
        <ele>228.6000061</ele>
        <time>2011-12-18T10:08:18Z</time>
      </trkpt>
      <trkpt lat="48.89711" lon="-0.31029">
        <ele>228.6000061</ele>
        <time>2011-12-18T10:08:24Z</time>
      </trkpt>
      <trkpt lat="48.89718" lon="-0.31029">
        <ele>228</ele>
        <time>2011-12-18T10:08:26Z</time>
      </trkpt>
      <trkpt lat="48.89723" lon="-0.31029">
        <ele>227.8000031</ele>
        <time>2011-12-18T10:08:27Z</time>
      </trkpt>
      <trkpt lat="48.89727" lon="-0.3103">
        <ele>227.1999969</ele>
        <time>2011-12-18T10:08:28Z</time>
      </trkpt>
      <trkpt lat="48.89731" lon="-0.3103">
        <ele>227</ele>
        <time>2011-12-18T10:08:29Z</time>
      </trkpt>
      <trkpt lat="48.89735" lon="-0.3103">
        <ele>226.6000061</ele>
        <time>2011-12-18T10:08:30Z</time>
      </trkpt>
      <trkpt lat="48.8974" lon="-0.31031">
        <ele>226.6000061</ele>
        <time>2011-12-18T10:08:31Z</time>
      </trkpt>
      <trkpt lat="48.89757" lon="-0.31031">
        <ele>226.6000061</ele>
        <time>2011-12-18T10:08:36Z</time>
      </trkpt>
      <trkpt lat="48.8978" lon="-0.31034">
        <ele>226.6000061</ele>
        <time>2011-12-18T10:08:42Z</time>
      </trkpt>
      <trkpt lat="48.89786" lon="-0.31031">
        <ele>226.6000061</ele>
        <time>2011-12-18T10:08:44Z</time>
      </trkpt>
      <trkpt lat="48.89789" lon="-0.31026">
        <ele>226.6000061</ele>
        <time>2011-12-18T10:08:46Z</time>
      </trkpt>
      <trkpt lat="48.89793" lon="-0.31012">
        <ele>226.6000061</ele>
        <time>2011-12-18T10:08:50Z</time>
      </trkpt>
      <trkpt lat="48.89794" lon="-0.31007">
        <ele>226.6000061</ele>
        <time>2011-12-18T10:08:51Z</time>
      </trkpt>
      <trkpt lat="48.898" lon="-0.30994">
        <ele>226.6000061</ele>
        <time>2011-12-18T10:08:55Z</time>
      </trkpt>
      <trkpt lat="48.89804" lon="-0.30991">
        <ele>226.6000061</ele>
        <time>2011-12-18T10:08:57Z</time>
      </trkpt>
      <trkpt lat="48.89806" lon="-0.30973">
        <ele>224</ele>
        <time>2011-12-18T10:10:36Z</time>
      </trkpt>
      <trkpt lat="48.89808" lon="-0.3096">
        <ele>224</ele>
        <time>2011-12-18T10:10:39Z</time>
      </trkpt>
      <trkpt lat="48.89812" lon="-0.30919">
        <ele>224</ele>
        <time>2011-12-18T10:10:46Z</time>
      </trkpt>
      <trkpt lat="48.89819" lon="-0.3088">
        <ele>224</ele>
        <time>2011-12-18T10:10:52Z</time>
      </trkpt>
      <trkpt lat="48.8982" lon="-0.30874">
        <ele>224.8000031</ele>
        <time>2011-12-18T10:10:53Z</time>
      </trkpt>
      <trkpt lat="48.8982" lon="-0.30868">
        <ele>225</ele>
        <time>2011-12-18T10:10:54Z</time>
      </trkpt>
      <trkpt lat="48.89821" lon="-0.30861">
        <ele>225.6000061</ele>
        <time>2011-12-18T10:10:55Z</time>
      </trkpt>
      <trkpt lat="48.89822" lon="-0.30855">
        <ele>226</ele>
        <time>2011-12-18T10:10:56Z</time>
      </trkpt>
      <trkpt lat="48.89823" lon="-0.3085">
        <ele>226.1999969</ele>
        <time>2011-12-18T10:10:57Z</time>
      </trkpt>
      <trkpt lat="48.89826" lon="-0.30823">
        <ele>226.1999969</ele>
        <time>2011-12-18T10:11:01Z</time>
      </trkpt>
      <trkpt lat="48.89829" lon="-0.30796">
        <ele>226.1999969</ele>
        <time>2011-12-18T10:11:05Z</time>
      </trkpt>
      <trkpt lat="48.89831" lon="-0.30776">
        <ele>226.1999969</ele>
        <time>2011-12-18T10:11:08Z</time>
      </trkpt>
      <trkpt lat="48.89832" lon="-0.30756">
        <ele>225.6000061</ele>
        <time>2011-12-18T10:11:11Z</time>
      </trkpt>
      <trkpt lat="48.89832" lon="-0.3075">
        <ele>224.8000031</ele>
        <time>2011-12-18T10:11:12Z</time>
      </trkpt>
      <trkpt lat="48.89832" lon="-0.30743">
        <ele>224.8000031</ele>
        <time>2011-12-18T10:11:13Z</time>
      </trkpt>
      <trkpt lat="48.89833" lon="-0.30737">
        <ele>225.1999969</ele>
        <time>2011-12-18T10:11:14Z</time>
      </trkpt>
      <trkpt lat="48.89833" lon="-0.3073">
        <ele>225.6000061</ele>
        <time>2011-12-18T10:11:15Z</time>
      </trkpt>
      <trkpt lat="48.89834" lon="-0.30724">
        <ele>225.6000061</ele>
        <time>2011-12-18T10:11:16Z</time>
      </trkpt>
      <trkpt lat="48.89834" lon="-0.30717">
        <ele>225.8000031</ele>
        <time>2011-12-18T10:11:17Z</time>
      </trkpt>
      <trkpt lat="48.89834" lon="-0.30711">
        <ele>225.8000031</ele>
        <time>2011-12-18T10:11:18Z</time>
      </trkpt>
      <trkpt lat="48.89835" lon="-0.30704">
        <ele>226</ele>
        <time>2011-12-18T10:11:19Z</time>
      </trkpt>
      <trkpt lat="48.89835" lon="-0.30669">
        <ele>226</ele>
        <time>2011-12-18T10:11:24Z</time>
      </trkpt>
      <trkpt lat="48.89835" lon="-0.30628">
        <ele>226</ele>
        <time>2011-12-18T10:11:30Z</time>
      </trkpt>
      <trkpt lat="48.89833" lon="-0.30584">
        <ele>226</ele>
        <time>2011-12-18T10:11:37Z</time>
      </trkpt>
      <trkpt lat="48.89832" lon="-0.30545">
        <ele>226</ele>
        <time>2011-12-18T10:11:43Z</time>
      </trkpt>
      <trkpt lat="48.89828" lon="-0.30492">
        <ele>226</ele>
        <time>2011-12-18T10:11:50Z</time>
      </trkpt>
      <trkpt lat="48.89824" lon="-0.30447">
        <ele>225.6000061</ele>
        <time>2011-12-18T10:11:56Z</time>
      </trkpt>
      <trkpt lat="48.89823" lon="-0.3044">
        <ele>225</ele>
        <time>2011-12-18T10:11:57Z</time>
      </trkpt>
      <trkpt lat="48.89823" lon="-0.30433">
        <ele>224.6000061</ele>
        <time>2011-12-18T10:11:58Z</time>
      </trkpt>
      <trkpt lat="48.89823" lon="-0.30426">
        <ele>224</ele>
        <time>2011-12-18T10:11:59Z</time>
      </trkpt>
      <trkpt lat="48.89823" lon="-0.30419">
        <ele>223.8000031</ele>
        <time>2011-12-18T10:12:00Z</time>
      </trkpt>
      <trkpt lat="48.8982" lon="-0.30381">
        <ele>223.8000031</ele>
        <time>2011-12-18T10:12:05Z</time>
      </trkpt>
      <trkpt lat="48.89818" lon="-0.30365">
        <ele>223.8000031</ele>
        <time>2011-12-18T10:12:07Z</time>
      </trkpt>
      <trkpt lat="48.89816" lon="-0.30331">
        <ele>223.8000031</ele>
        <time>2011-12-18T10:12:12Z</time>
      </trkpt>
      <trkpt lat="48.89813" lon="-0.30301">
        <ele>223</ele>
        <time>2011-12-18T10:12:17Z</time>
      </trkpt>
      <trkpt lat="48.89813" lon="-0.30295">
        <ele>222.6000061</ele>
        <time>2011-12-18T10:12:18Z</time>
      </trkpt>
      <trkpt lat="48.89812" lon="-0.30289">
        <ele>222</ele>
        <time>2011-12-18T10:12:19Z</time>
      </trkpt>
      <trkpt lat="48.89812" lon="-0.30283">
        <ele>222.1999969</ele>
        <time>2011-12-18T10:12:20Z</time>
      </trkpt>
      <trkpt lat="48.89812" lon="-0.30276">
        <ele>222.6000061</ele>
        <time>2011-12-18T10:12:21Z</time>
      </trkpt>
      <trkpt lat="48.89811" lon="-0.30269">
        <ele>222.8000031</ele>
        <time>2011-12-18T10:12:22Z</time>
      </trkpt>
      <trkpt lat="48.89811" lon="-0.30263">
        <ele>223</ele>
        <time>2011-12-18T10:12:23Z</time>
      </trkpt>
      <trkpt lat="48.89811" lon="-0.30256">
        <ele>223.1999969</ele>
        <time>2011-12-18T10:12:24Z</time>
      </trkpt>
      <trkpt lat="48.8981" lon="-0.30235">
        <ele>223.1999969</ele>
        <time>2011-12-18T10:12:27Z</time>
      </trkpt>
      <trkpt lat="48.8981" lon="-0.30192">
        <ele>223.1999969</ele>
        <time>2011-12-18T10:12:34Z</time>
      </trkpt>
      <trkpt lat="48.89807" lon="-0.3015">
        <ele>223.1999969</ele>
        <time>2011-12-18T10:12:41Z</time>
      </trkpt>
      <trkpt lat="48.89801" lon="-0.30117">
        <ele>223.1999969</ele>
        <time>2011-12-18T10:12:46Z</time>
      </trkpt>
      <trkpt lat="48.89799" lon="-0.30111">
        <ele>223.1999969</ele>
        <time>2011-12-18T10:12:47Z</time>
      </trkpt>
      <trkpt lat="48.89785" lon="-0.30069">
        <ele>223.1999969</ele>
        <time>2011-12-18T10:12:54Z</time>
      </trkpt>
      <trkpt lat="48.89783" lon="-0.30062">
        <ele>223.1999969</ele>
        <time>2011-12-18T10:12:55Z</time>
      </trkpt>
      <trkpt lat="48.89772" lon="-0.30034">
        <ele>223.1999969</ele>
        <time>2011-12-18T10:13:00Z</time>
      </trkpt>
      <trkpt lat="48.89757" lon="-0.29994">
        <ele>223.1999969</ele>
        <time>2011-12-18T10:13:08Z</time>
      </trkpt>
      <trkpt lat="48.89753" lon="-0.29964">
        <ele>223.1999969</ele>
        <time>2011-12-18T10:13:13Z</time>
      </trkpt>
      <trkpt lat="48.89752" lon="-0.29928">
        <ele>223.1999969</ele>
        <time>2011-12-18T10:13:19Z</time>
      </trkpt>
      <trkpt lat="48.89752" lon="-0.29898">
        <ele>223.1999969</ele>
        <time>2011-12-18T10:13:24Z</time>
      </trkpt>
      <trkpt lat="48.89752" lon="-0.29889">
        <ele>223.8000031</ele>
        <time>2011-12-18T10:13:27Z</time>
      </trkpt>
      <trkpt lat="48.89751" lon="-0.29887">
        <ele>224</ele>
        <time>2011-12-18T10:13:28Z</time>
      </trkpt>
      <trkpt lat="48.89751" lon="-0.29885">
        <ele>224.6000061</ele>
        <time>2011-12-18T10:13:29Z</time>
      </trkpt>
      <trkpt lat="48.89751" lon="-0.29883">
        <ele>225.1999969</ele>
        <time>2011-12-18T10:13:30Z</time>
      </trkpt>
      <trkpt lat="48.89749" lon="-0.29873">
        <ele>225.1999969</ele>
        <time>2011-12-18T10:13:34Z</time>
      </trkpt>
      <trkpt lat="48.89749" lon="-0.29869">
        <ele>225.1999969</ele>
        <time>2011-12-18T10:13:35Z</time>
      </trkpt>
      <trkpt lat="48.89747" lon="-0.29852">
        <ele>225.1999969</ele>
        <time>2011-12-18T10:13:40Z</time>
      </trkpt>
      <trkpt lat="48.89747" lon="-0.29843">
        <ele>225.1999969</ele>
        <time>2011-12-18T10:13:43Z</time>
      </trkpt>
      <trkpt lat="48.89745" lon="-0.29823">
        <ele>225.1999969</ele>
        <time>2011-12-18T10:13:50Z</time>
      </trkpt>
      <trkpt lat="48.89743" lon="-0.29803">
        <ele>225.1999969</ele>
        <time>2011-12-18T10:13:56Z</time>
      </trkpt>
      <trkpt lat="48.89742" lon="-0.29799">
        <ele>225.1999969</ele>
        <time>2011-12-18T10:13:57Z</time>
      </trkpt>
      <trkpt lat="48.89742" lon="-0.29792">
        <ele>225.8000031</ele>
        <time>2011-12-18T10:13:59Z</time>
      </trkpt>
      <trkpt lat="48.89741" lon="-0.29789">
        <ele>226</ele>
        <time>2011-12-18T10:14:00Z</time>
      </trkpt>
      <trkpt lat="48.89741" lon="-0.29786">
        <ele>226.6000061</ele>
        <time>2011-12-18T10:14:01Z</time>
      </trkpt>
      <trkpt lat="48.89741" lon="-0.29783">
        <ele>227</ele>
        <time>2011-12-18T10:14:02Z</time>
      </trkpt>
      <trkpt lat="48.8974" lon="-0.2978">
        <ele>227.6000061</ele>
        <time>2011-12-18T10:14:03Z</time>
      </trkpt>
      <trkpt lat="48.8974" lon="-0.29777">
        <ele>227.6000061</ele>
        <time>2011-12-18T10:14:04Z</time>
      </trkpt>
      <trkpt lat="48.89739" lon="-0.29752">
        <ele>227.6000061</ele>
        <time>2011-12-18T10:14:11Z</time>
      </trkpt>
      <trkpt lat="48.89738" lon="-0.29721">
        <ele>227.6000061</ele>
        <time>2011-12-18T10:14:18Z</time>
      </trkpt>
      <trkpt lat="48.89736" lon="-0.29695">
        <ele>227.6000061</ele>
        <time>2011-12-18T10:14:24Z</time>
      </trkpt>
      <trkpt lat="48.89737" lon="-0.29675">
        <ele>228</ele>
        <time>2011-12-18T10:14:28Z</time>
      </trkpt>
      <trkpt lat="48.89737" lon="-0.2967">
        <ele>228.1999969</ele>
        <time>2011-12-18T10:14:29Z</time>
      </trkpt>
      <trkpt lat="48.89737" lon="-0.29665">
        <ele>228.8000031</ele>
        <time>2011-12-18T10:14:30Z</time>
      </trkpt>
      <trkpt lat="48.89737" lon="-0.29659">
        <ele>229</ele>
        <time>2011-12-18T10:14:31Z</time>
      </trkpt>
      <trkpt lat="48.89737" lon="-0.29654">
        <ele>229.6000061</ele>
        <time>2011-12-18T10:14:32Z</time>
      </trkpt>
      <trkpt lat="48.89739" lon="-0.29616">
        <ele>229.6000061</ele>
        <time>2011-12-18T10:14:39Z</time>
      </trkpt>
      <trkpt lat="48.8974" lon="-0.29583">
        <ele>229.6000061</ele>
        <time>2011-12-18T10:14:45Z</time>
      </trkpt>
      <trkpt lat="48.8974" lon="-0.29578">
        <ele>229.6000061</ele>
        <time>2011-12-18T10:14:46Z</time>
      </trkpt>
      <trkpt lat="48.8974" lon="-0.29548">
        <ele>229.6000061</ele>
        <time>2011-12-18T10:14:52Z</time>
      </trkpt>
      <trkpt lat="48.89742" lon="-0.29506">
        <ele>229.6000061</ele>
        <time>2011-12-18T10:15:00Z</time>
      </trkpt>
      <trkpt lat="48.89745" lon="-0.29474">
        <ele>229.6000061</ele>
        <time>2011-12-18T10:15:06Z</time>
      </trkpt>
      <trkpt lat="48.89747" lon="-0.29453">
        <ele>229.6000061</ele>
        <time>2011-12-18T10:15:10Z</time>
      </trkpt>
      <trkpt lat="48.89749" lon="-0.29436">
        <ele>229.6000061</ele>
        <time>2011-12-18T10:15:13Z</time>
      </trkpt>
      <trkpt lat="48.89756" lon="-0.29393">
        <ele>229.6000061</ele>
        <time>2011-12-18T10:15:21Z</time>
      </trkpt>
      <trkpt lat="48.89761" lon="-0.29357">
        <ele>229.6000061</ele>
        <time>2011-12-18T10:15:28Z</time>
      </trkpt>
      <trkpt lat="48.89765" lon="-0.29325">
        <ele>229.6000061</ele>
        <time>2011-12-18T10:15:34Z</time>
      </trkpt>
      <trkpt lat="48.89773" lon="-0.29277">
        <ele>229.6000061</ele>
        <time>2011-12-18T10:15:42Z</time>
      </trkpt>
      <trkpt lat="48.89781" lon="-0.29235">
        <ele>229.6000061</ele>
        <time>2011-12-18T10:15:49Z</time>
      </trkpt>
      <trkpt lat="48.89786" lon="-0.29198">
        <ele>229.6000061</ele>
        <time>2011-12-18T10:15:55Z</time>
      </trkpt>
      <trkpt lat="48.89787" lon="-0.29193">
        <ele>229.6000061</ele>
        <time>2011-12-18T10:15:56Z</time>
      </trkpt>
      <trkpt lat="48.89798" lon="-0.29145">
        <ele>229.6000061</ele>
        <time>2011-12-18T10:16:04Z</time>
      </trkpt>
      <trkpt lat="48.89814" lon="-0.29106">
        <ele>229.6000061</ele>
        <time>2011-12-18T10:16:10Z</time>
      </trkpt>
      <trkpt lat="48.89821" lon="-0.29078">
        <ele>229</ele>
        <time>2011-12-18T10:16:15Z</time>
      </trkpt>
      <trkpt lat="48.89822" lon="-0.29073">
        <ele>228.6000061</ele>
        <time>2011-12-18T10:16:16Z</time>
      </trkpt>
      <trkpt lat="48.89823" lon="-0.29068">
        <ele>228</ele>
        <time>2011-12-18T10:16:17Z</time>
      </trkpt>
      <trkpt lat="48.89824" lon="-0.29064">
        <ele>227.8000031</ele>
        <time>2011-12-18T10:16:18Z</time>
      </trkpt>
      <trkpt lat="48.89826" lon="-0.29061">
        <ele>227.1999969</ele>
        <time>2011-12-18T10:16:19Z</time>
      </trkpt>
      <trkpt lat="48.89828" lon="-0.2906">
        <ele>227.1999969</ele>
        <time>2011-12-18T10:16:20Z</time>
      </trkpt>
      <trkpt lat="48.89835" lon="-0.29071">
        <ele>227.1999969</ele>
        <time>2011-12-18T10:16:25Z</time>
      </trkpt>
      <trkpt lat="48.89844" lon="-0.29081">
        <ele>227.1999969</ele>
        <time>2011-12-18T10:16:29Z</time>
      </trkpt>
      <trkpt lat="48.8985" lon="-0.29085">
        <ele>227.1999969</ele>
        <time>2011-12-18T10:16:31Z</time>
      </trkpt>
      <trkpt lat="48.89865" lon="-0.29084">
        <ele>227.1999969</ele>
        <time>2011-12-18T10:16:36Z</time>
      </trkpt>
      <trkpt lat="48.89885" lon="-0.29086">
        <ele>227.1999969</ele>
        <time>2011-12-18T10:16:41Z</time>
      </trkpt>
      <trkpt lat="48.89903" lon="-0.29099">
        <ele>227.1999969</ele>
        <time>2011-12-18T10:16:46Z</time>
      </trkpt>
      <trkpt lat="48.89918" lon="-0.2912">
        <ele>227.8000031</ele>
        <time>2011-12-18T10:16:51Z</time>
      </trkpt>
      <trkpt lat="48.89921" lon="-0.29124">
        <ele>228</ele>
        <time>2011-12-18T10:16:52Z</time>
      </trkpt>
      <trkpt lat="48.89924" lon="-0.29129">
        <ele>228.6000061</ele>
        <time>2011-12-18T10:16:53Z</time>
      </trkpt>
      <trkpt lat="48.89927" lon="-0.29134">
        <ele>229</ele>
        <time>2011-12-18T10:16:54Z</time>
      </trkpt>
      <trkpt lat="48.8993" lon="-0.29139">
        <ele>229.1999969</ele>
        <time>2011-12-18T10:16:55Z</time>
      </trkpt>
      <trkpt lat="48.89933" lon="-0.29143">
        <ele>229.1999969</ele>
        <time>2011-12-18T10:16:56Z</time>
      </trkpt>
      <trkpt lat="48.8996" lon="-0.2919">
        <ele>229.1999969</ele>
        <time>2011-12-18T10:17:05Z</time>
      </trkpt>
      <trkpt lat="48.89985" lon="-0.29233">
        <ele>229.1999969</ele>
        <time>2011-12-18T10:17:13Z</time>
      </trkpt>
      <trkpt lat="48.90013" lon="-0.2928">
        <ele>229.1999969</ele>
        <time>2011-12-18T10:17:21Z</time>
      </trkpt>
      <trkpt lat="48.90044" lon="-0.29333">
        <ele>229.1999969</ele>
        <time>2011-12-18T10:17:30Z</time>
      </trkpt>
      <trkpt lat="48.90067" lon="-0.29374">
        <ele>229.1999969</ele>
        <time>2011-12-18T10:17:37Z</time>
      </trkpt>
      <trkpt lat="48.90096" lon="-0.29414">
        <ele>229.1999969</ele>
        <time>2011-12-18T10:17:44Z</time>
      </trkpt>
      <trkpt lat="48.90125" lon="-0.29445">
        <ele>229.1999969</ele>
        <time>2011-12-18T10:17:50Z</time>
      </trkpt>
      <trkpt lat="48.90161" lon="-0.2948">
        <ele>229.1999969</ele>
        <time>2011-12-18T10:17:57Z</time>
      </trkpt>
      <trkpt lat="48.90165" lon="-0.29486">
        <ele>229.1999969</ele>
        <time>2011-12-18T10:17:58Z</time>
      </trkpt>
      <trkpt lat="48.90187" lon="-0.29516">
        <ele>229.1999969</ele>
        <time>2011-12-18T10:18:03Z</time>
      </trkpt>
      <trkpt lat="48.90222" lon="-0.29562">
        <ele>229.1999969</ele>
        <time>2011-12-18T10:18:11Z</time>
      </trkpt>
      <trkpt lat="48.90258" lon="-0.29602">
        <ele>229.1999969</ele>
        <time>2011-12-18T10:18:18Z</time>
      </trkpt>
      <trkpt lat="48.90269" lon="-0.29614">
        <ele>229</ele>
        <time>2011-12-18T10:18:20Z</time>
      </trkpt>
      <trkpt lat="48.90274" lon="-0.2962">
        <ele>228.6000061</ele>
        <time>2011-12-18T10:18:21Z</time>
      </trkpt>
      <trkpt lat="48.90279" lon="-0.29627">
        <ele>228</ele>
        <time>2011-12-18T10:18:22Z</time>
      </trkpt>
      <trkpt lat="48.90284" lon="-0.29633">
        <ele>227.8000031</ele>
        <time>2011-12-18T10:18:23Z</time>
      </trkpt>
      <trkpt lat="48.90289" lon="-0.29639">
        <ele>227.1999969</ele>
        <time>2011-12-18T10:18:24Z</time>
      </trkpt>
      <trkpt lat="48.90295" lon="-0.29645">
        <ele>227.1999969</ele>
        <time>2011-12-18T10:18:25Z</time>
      </trkpt>
      <trkpt lat="48.90335" lon="-0.29687">
        <ele>227.1999969</ele>
        <time>2011-12-18T10:18:33Z</time>
      </trkpt>
      <trkpt lat="48.90372" lon="-0.2972">
        <ele>227.1999969</ele>
        <time>2011-12-18T10:18:40Z</time>
      </trkpt>
      <trkpt lat="48.90411" lon="-0.29755">
        <ele>227.1999969</ele>
        <time>2011-12-18T10:18:47Z</time>
      </trkpt>
      <trkpt lat="48.90417" lon="-0.2976">
        <ele>227.1999969</ele>
        <time>2011-12-18T10:18:48Z</time>
      </trkpt>
      <trkpt lat="48.90447" lon="-0.29784">
        <ele>227</ele>
        <time>2011-12-18T10:18:53Z</time>
      </trkpt>
      <trkpt lat="48.90453" lon="-0.29789">
        <ele>226.1999969</ele>
        <time>2011-12-18T10:18:54Z</time>
      </trkpt>
      <trkpt lat="48.90458" lon="-0.29795">
        <ele>226</ele>
        <time>2011-12-18T10:18:55Z</time>
      </trkpt>
      <trkpt lat="48.90464" lon="-0.298">
        <ele>225.6000061</ele>
        <time>2011-12-18T10:18:56Z</time>
      </trkpt>
      <trkpt lat="48.9047" lon="-0.29806">
        <ele>225</ele>
        <time>2011-12-18T10:18:57Z</time>
      </trkpt>
      <trkpt lat="48.90492" lon="-0.29828">
        <ele>225</ele>
        <time>2011-12-18T10:19:01Z</time>
      </trkpt>
      <trkpt lat="48.90535" lon="-0.29878">
        <ele>225</ele>
        <time>2011-12-18T10:19:09Z</time>
      </trkpt>
      <trkpt lat="48.90555" lon="-0.29907">
        <ele>224.6000061</ele>
        <time>2011-12-18T10:19:13Z</time>
      </trkpt>
      <trkpt lat="48.9056" lon="-0.29914">
        <ele>224</ele>
        <time>2011-12-18T10:19:14Z</time>
      </trkpt>
      <trkpt lat="48.90566" lon="-0.29921">
        <ele>223.6000061</ele>
        <time>2011-12-18T10:19:15Z</time>
      </trkpt>
      <trkpt lat="48.90571" lon="-0.29928">
        <ele>222.8000031</ele>
        <time>2011-12-18T10:19:16Z</time>
      </trkpt>
      <trkpt lat="48.90589" lon="-0.29947">
        <ele>222.8000031</ele>
        <time>2011-12-18T10:19:19Z</time>
      </trkpt>
      <trkpt lat="48.90601" lon="-0.29957">
        <ele>222.8000031</ele>
        <time>2011-12-18T10:19:21Z</time>
      </trkpt>
      <trkpt lat="48.90627" lon="-0.29976">
        <ele>222.1999969</ele>
        <time>2011-12-18T10:19:25Z</time>
      </trkpt>
      <trkpt lat="48.90634" lon="-0.29981">
        <ele>222</ele>
        <time>2011-12-18T10:19:26Z</time>
      </trkpt>
      <trkpt lat="48.9064" lon="-0.29985">
        <ele>221.6000061</ele>
        <time>2011-12-18T10:19:27Z</time>
      </trkpt>
      <trkpt lat="48.90647" lon="-0.2999">
        <ele>221</ele>
        <time>2011-12-18T10:19:28Z</time>
      </trkpt>
      <trkpt lat="48.90654" lon="-0.29995">
        <ele>220.8000031</ele>
        <time>2011-12-18T10:19:29Z</time>
      </trkpt>
      <trkpt lat="48.90691" lon="-0.30027">
        <ele>220.8000031</ele>
        <time>2011-12-18T10:19:35Z</time>
      </trkpt>
      <trkpt lat="48.9073" lon="-0.3007">
        <ele>220.8000031</ele>
        <time>2011-12-18T10:19:42Z</time>
      </trkpt>
      <trkpt lat="48.9076" lon="-0.30108">
        <ele>220.8000031</ele>
        <time>2011-12-18T10:19:48Z</time>
      </trkpt>
      <trkpt lat="48.90797" lon="-0.30161">
        <ele>220.8000031</ele>
        <time>2011-12-18T10:19:56Z</time>
      </trkpt>
      <trkpt lat="48.90836" lon="-0.30211">
        <ele>220.8000031</ele>
        <time>2011-12-18T10:20:04Z</time>
      </trkpt>
      <trkpt lat="48.90855" lon="-0.3024">
        <ele>220.8000031</ele>
        <time>2011-12-18T10:20:08Z</time>
      </trkpt>
      <trkpt lat="48.90858" lon="-0.30249">
        <ele>220.8000031</ele>
        <time>2011-12-18T10:20:09Z</time>
      </trkpt>
      <trkpt lat="48.90859" lon="-0.30278">
        <ele>220.1999969</ele>
        <time>2011-12-18T10:20:12Z</time>
      </trkpt>
      <trkpt lat="48.90857" lon="-0.30288">
        <ele>219.8000031</ele>
        <time>2011-12-18T10:20:13Z</time>
      </trkpt>
      <trkpt lat="48.90855" lon="-0.30297">
        <ele>219.1999969</ele>
        <time>2011-12-18T10:20:14Z</time>
      </trkpt>
      <trkpt lat="48.90853" lon="-0.30305">
        <ele>219</ele>
        <time>2011-12-18T10:20:15Z</time>
      </trkpt>
      <trkpt lat="48.90851" lon="-0.30313">
        <ele>218.6000061</ele>
        <time>2011-12-18T10:20:16Z</time>
      </trkpt>
      <trkpt lat="48.90834" lon="-0.30378">
        <ele>218.6000061</ele>
        <time>2011-12-18T10:20:24Z</time>
      </trkpt>
      <trkpt lat="48.9082" lon="-0.30436">
        <ele>218.6000061</ele>
        <time>2011-12-18T10:20:31Z</time>
      </trkpt>
      <trkpt lat="48.90822" lon="-0.30471">
        <ele>218.6000061</ele>
        <time>2011-12-18T10:20:35Z</time>
      </trkpt>
      <trkpt lat="48.90831" lon="-0.30494">
        <ele>218.6000061</ele>
        <time>2011-12-18T10:20:38Z</time>
      </trkpt>
      <trkpt lat="48.90835" lon="-0.30501">
        <ele>218.6000061</ele>
        <time>2011-12-18T10:20:39Z</time>
      </trkpt>
      <trkpt lat="48.90865" lon="-0.3055">
        <ele>218.6000061</ele>
        <time>2011-12-18T10:20:46Z</time>
      </trkpt>
      <trkpt lat="48.90869" lon="-0.30558">
        <ele>218.6000061</ele>
        <time>2011-12-18T10:20:47Z</time>
      </trkpt>
      <trkpt lat="48.90887" lon="-0.30588">
        <ele>218.6000061</ele>
        <time>2011-12-18T10:20:51Z</time>
      </trkpt>
      <trkpt lat="48.9091" lon="-0.30623">
        <ele>218.6000061</ele>
        <time>2011-12-18T10:20:56Z</time>
      </trkpt>
      <trkpt lat="48.90921" lon="-0.30633">
        <ele>218.6000061</ele>
        <time>2011-12-18T10:20:58Z</time>
      </trkpt>
      <trkpt lat="48.90934" lon="-0.30637">
        <ele>218</ele>
        <time>2011-12-18T10:21:00Z</time>
      </trkpt>
      <trkpt lat="48.9094" lon="-0.30638">
        <ele>217.8000031</ele>
        <time>2011-12-18T10:21:01Z</time>
      </trkpt>
      <trkpt lat="48.90947" lon="-0.30639">
        <ele>217.1999969</ele>
        <time>2011-12-18T10:21:02Z</time>
      </trkpt>
      <trkpt lat="48.90954" lon="-0.3064">
        <ele>216.8000031</ele>
        <time>2011-12-18T10:21:03Z</time>
      </trkpt>
      <trkpt lat="48.9096" lon="-0.30641">
        <ele>216.1999969</ele>
        <time>2011-12-18T10:21:04Z</time>
      </trkpt>
      <trkpt lat="48.90982" lon="-0.30644">
        <ele>216.1999969</ele>
        <time>2011-12-18T10:21:08Z</time>
      </trkpt>
      <trkpt lat="48.90987" lon="-0.30644">
        <ele>216.1999969</ele>
        <time>2011-12-18T10:21:09Z</time>
      </trkpt>
      <trkpt lat="48.90997" lon="-0.30645">
        <ele>215.6000061</ele>
        <time>2011-12-18T10:21:11Z</time>
      </trkpt>
      <trkpt lat="48.91002" lon="-0.30646">
        <ele>215</ele>
        <time>2011-12-18T10:21:12Z</time>
      </trkpt>
      <trkpt lat="48.91007" lon="-0.30647">
        <ele>215</ele>
        <time>2011-12-18T10:21:13Z</time>
      </trkpt>
      <trkpt lat="48.91011" lon="-0.30648">
        <ele>215.6000061</ele>
        <time>2011-12-18T10:21:14Z</time>
      </trkpt>
      <trkpt lat="48.91016" lon="-0.30648">
        <ele>215.6000061</ele>
        <time>2011-12-18T10:21:15Z</time>
      </trkpt>
      <trkpt lat="48.9102" lon="-0.30649">
        <ele>215.6000061</ele>
        <time>2011-12-18T10:21:16Z</time>
      </trkpt>
      <trkpt lat="48.91025" lon="-0.30649">
        <ele>215.8000031</ele>
        <time>2011-12-18T10:21:17Z</time>
      </trkpt>
      <trkpt lat="48.9103" lon="-0.3065">
        <ele>215.8000031</ele>
        <time>2011-12-18T10:21:18Z</time>
      </trkpt>
      <trkpt lat="48.91035" lon="-0.3065">
        <ele>215.8000031</ele>
        <time>2011-12-18T10:21:19Z</time>
      </trkpt>
      <trkpt lat="48.9104" lon="-0.30651">
        <ele>215.8000031</ele>
        <time>2011-12-18T10:21:20Z</time>
      </trkpt>
      <trkpt lat="48.91044" lon="-0.30652">
        <ele>215.8000031</ele>
        <time>2011-12-18T10:21:21Z</time>
      </trkpt>
      <trkpt lat="48.91075" lon="-0.30655">
        <ele>215.8000031</ele>
        <time>2011-12-18T10:21:27Z</time>
      </trkpt>
      <trkpt lat="48.911" lon="-0.30659">
        <ele>215.8000031</ele>
        <time>2011-12-18T10:21:32Z</time>
      </trkpt>
      <trkpt lat="48.91115" lon="-0.3066">
        <ele>215.8000031</ele>
        <time>2011-12-18T10:21:35Z</time>
      </trkpt>
      <trkpt lat="48.91129" lon="-0.3066">
        <ele>215.8000031</ele>
        <time>2011-12-18T10:21:38Z</time>
      </trkpt>
      <trkpt lat="48.91148" lon="-0.30655">
        <ele>215.8000031</ele>
        <time>2011-12-18T10:21:42Z</time>
      </trkpt>
      <trkpt lat="48.91159" lon="-0.30641">
        <ele>215.1999969</ele>
        <time>2011-12-18T10:21:45Z</time>
      </trkpt>
      <trkpt lat="48.91162" lon="-0.30635">
        <ele>215</ele>
        <time>2011-12-18T10:21:46Z</time>
      </trkpt>
      <trkpt lat="48.91163" lon="-0.30628">
        <ele>214.6000061</ele>
        <time>2011-12-18T10:21:47Z</time>
      </trkpt>
      <trkpt lat="48.91165" lon="-0.3062">
        <ele>214</ele>
        <time>2011-12-18T10:21:48Z</time>
      </trkpt>
      <trkpt lat="48.91166" lon="-0.30613">
        <ele>213.8000031</ele>
        <time>2011-12-18T10:21:49Z</time>
      </trkpt>
      <trkpt lat="48.91168" lon="-0.30599">
        <ele>213.8000031</ele>
        <time>2011-12-18T10:21:51Z</time>
      </trkpt>
      <trkpt lat="48.91173" lon="-0.30569">
        <ele>213.8000031</ele>
        <time>2011-12-18T10:21:55Z</time>
      </trkpt>
      <trkpt lat="48.91178" lon="-0.30556">
        <ele>213.8000031</ele>
        <time>2011-12-18T10:21:57Z</time>
      </trkpt>
      <trkpt lat="48.91184" lon="-0.30546">
        <ele>213.8000031</ele>
        <time>2011-12-18T10:21:59Z</time>
      </trkpt>
      <trkpt lat="48.91195" lon="-0.30526">
        <ele>213.8000031</ele>
        <time>2011-12-18T10:22:03Z</time>
      </trkpt>
      <trkpt lat="48.91208" lon="-0.30498">
        <ele>213.8000031</ele>
        <time>2011-12-18T10:22:08Z</time>
      </trkpt>
      <trkpt lat="48.91211" lon="-0.30492">
        <ele>213.8000031</ele>
        <time>2011-12-18T10:22:09Z</time>
      </trkpt>
      <trkpt lat="48.91216" lon="-0.30479">
        <ele>213.8000031</ele>
        <time>2011-12-18T10:22:11Z</time>
      </trkpt>
      <trkpt lat="48.91224" lon="-0.30461">
        <ele>213.8000031</ele>
        <time>2011-12-18T10:22:14Z</time>
      </trkpt>
      <trkpt lat="48.91229" lon="-0.30449">
        <ele>213</ele>
        <time>2011-12-18T10:22:16Z</time>
      </trkpt>
      <trkpt lat="48.91231" lon="-0.30442">
        <ele>212.8000031</ele>
        <time>2011-12-18T10:22:17Z</time>
      </trkpt>
      <trkpt lat="48.91233" lon="-0.30435">
        <ele>212.1999969</ele>
        <time>2011-12-18T10:22:18Z</time>
      </trkpt>
      <trkpt lat="48.91235" lon="-0.30429">
        <ele>211.8000031</ele>
        <time>2011-12-18T10:22:19Z</time>
      </trkpt>
      <trkpt lat="48.91238" lon="-0.30422">
        <ele>211.1999969</ele>
        <time>2011-12-18T10:22:20Z</time>
      </trkpt>
      <trkpt lat="48.9124" lon="-0.30415">
        <ele>211.1999969</ele>
        <time>2011-12-18T10:22:21Z</time>
      </trkpt>
      <trkpt lat="48.91243" lon="-0.30409">
        <ele>211.1999969</ele>
        <time>2011-12-18T10:22:22Z</time>
      </trkpt>
      <trkpt lat="48.91248" lon="-0.30397">
        <ele>211.1999969</ele>
        <time>2011-12-18T10:22:24Z</time>
      </trkpt>
      <trkpt lat="48.91251" lon="-0.30391">
        <ele>211.1999969</ele>
        <time>2011-12-18T10:22:25Z</time>
      </trkpt>
      <trkpt lat="48.91255" lon="-0.30385">
        <ele>211.1999969</ele>
        <time>2011-12-18T10:22:26Z</time>
      </trkpt>
      <trkpt lat="48.91278" lon="-0.30365">
        <ele>211.1999969</ele>
        <time>2011-12-18T10:22:31Z</time>
      </trkpt>
      <trkpt lat="48.91302" lon="-0.3035">
        <ele>211.1999969</ele>
        <time>2011-12-18T10:22:36Z</time>
      </trkpt>
      <trkpt lat="48.91308" lon="-0.30348">
        <ele>211.1999969</ele>
        <time>2011-12-18T10:22:37Z</time>
      </trkpt>
      <trkpt lat="48.91347" lon="-0.30328">
        <ele>211.1999969</ele>
        <time>2011-12-18T10:22:45Z</time>
      </trkpt>
      <trkpt lat="48.91377" lon="-0.30307">
        <ele>211</ele>
        <time>2011-12-18T10:22:51Z</time>
      </trkpt>
      <trkpt lat="48.91381" lon="-0.30302">
        <ele>210.6000061</ele>
        <time>2011-12-18T10:22:52Z</time>
      </trkpt>
      <trkpt lat="48.91386" lon="-0.30298">
        <ele>210</ele>
        <time>2011-12-18T10:22:53Z</time>
      </trkpt>
      <trkpt lat="48.9139" lon="-0.30294">
        <ele>209.6000061</ele>
        <time>2011-12-18T10:22:54Z</time>
      </trkpt>
      <trkpt lat="48.91395" lon="-0.30289">
        <ele>209</ele>
        <time>2011-12-18T10:22:55Z</time>
      </trkpt>
      <trkpt lat="48.91412" lon="-0.3027">
        <ele>209</ele>
        <time>2011-12-18T10:22:59Z</time>
      </trkpt>
      <trkpt lat="48.91439" lon="-0.30239">
        <ele>209</ele>
        <time>2011-12-18T10:23:06Z</time>
      </trkpt>
      <trkpt lat="48.91456" lon="-0.30224">
        <ele>209</ele>
        <time>2011-12-18T10:23:10Z</time>
      </trkpt>
      <trkpt lat="48.91468" lon="-0.30215">
        <ele>209</ele>
        <time>2011-12-18T10:23:13Z</time>
      </trkpt>
      <trkpt lat="48.91477" lon="-0.30211">
        <ele>209</ele>
        <time>2011-12-18T10:23:15Z</time>
      </trkpt>
      <trkpt lat="48.91494" lon="-0.30204">
        <ele>209</ele>
        <time>2011-12-18T10:23:19Z</time>
      </trkpt>
      <trkpt lat="48.9153" lon="-0.30193">
        <ele>209</ele>
        <time>2011-12-18T10:23:27Z</time>
      </trkpt>
      <trkpt lat="48.91543" lon="-0.30192">
        <ele>209</ele>
        <time>2011-12-18T10:23:30Z</time>
      </trkpt>
      <trkpt lat="48.9156" lon="-0.30192">
        <ele>209</ele>
        <time>2011-12-18T10:23:35Z</time>
      </trkpt>
      <trkpt lat="48.91572" lon="-0.30189">
        <ele>209</ele>
        <time>2011-12-18T10:23:40Z</time>
      </trkpt>
      <trkpt lat="48.91572" lon="-0.30189">
        <ele>209</ele>
        <time>2011-12-18T10:23:41Z</time>
      </trkpt>
      <trkpt lat="48.91573" lon="-0.30186">
        <ele>209</ele>
        <time>2011-12-18T10:24:16Z</time>
      </trkpt>
      <trkpt lat="48.91574" lon="-0.30183">
        <ele>209</ele>
        <time>2011-12-18T10:24:17Z</time>
      </trkpt>
      <trkpt lat="48.91579" lon="-0.30155">
        <ele>209</ele>
        <time>2011-12-18T10:24:22Z</time>
      </trkpt>
      <trkpt lat="48.91584" lon="-0.30137">
        <ele>209</ele>
        <time>2011-12-18T10:24:25Z</time>
      </trkpt>
      <trkpt lat="48.91591" lon="-0.30111">
        <ele>209</ele>
        <time>2011-12-18T10:24:29Z</time>
      </trkpt>
      <trkpt lat="48.91597" lon="-0.30086">
        <ele>209</ele>
        <time>2011-12-18T10:24:33Z</time>
      </trkpt>
      <trkpt lat="48.91598" lon="-0.30079">
        <ele>209</ele>
        <time>2011-12-18T10:24:34Z</time>
      </trkpt>
      <trkpt lat="48.916" lon="-0.30067">
        <ele>209</ele>
        <time>2011-12-18T10:24:36Z</time>
      </trkpt>
      <trkpt lat="48.91601" lon="-0.30054">
        <ele>209</ele>
        <time>2011-12-18T10:24:38Z</time>
      </trkpt>
      <trkpt lat="48.91602" lon="-0.30036">
        <ele>209</ele>
        <time>2011-12-18T10:24:41Z</time>
      </trkpt>
      <trkpt lat="48.91601" lon="-0.30029">
        <ele>209</ele>
        <time>2011-12-18T10:24:42Z</time>
      </trkpt>
      <trkpt lat="48.91603" lon="-0.30001">
        <ele>208.8000031</ele>
        <time>2011-12-18T10:24:46Z</time>
      </trkpt>
      <trkpt lat="48.91603" lon="-0.29993">
        <ele>208.1999969</ele>
        <time>2011-12-18T10:24:47Z</time>
      </trkpt>
      <trkpt lat="48.91604" lon="-0.29985">
        <ele>208</ele>
        <time>2011-12-18T10:24:48Z</time>
      </trkpt>
      <trkpt lat="48.91604" lon="-0.29977">
        <ele>207.6000061</ele>
        <time>2011-12-18T10:24:49Z</time>
      </trkpt>
      <trkpt lat="48.91605" lon="-0.29968">
        <ele>207</ele>
        <time>2011-12-18T10:24:50Z</time>
      </trkpt>
      <trkpt lat="48.9161" lon="-0.29925">
        <ele>207</ele>
        <time>2011-12-18T10:24:55Z</time>
      </trkpt>
      <trkpt lat="48.91611" lon="-0.29916">
        <ele>206.8000031</ele>
        <time>2011-12-18T10:24:56Z</time>
      </trkpt>
      <trkpt lat="48.91612" lon="-0.29906">
        <ele>206</ele>
        <time>2011-12-18T10:24:57Z</time>
      </trkpt>
      <trkpt lat="48.91614" lon="-0.29896">
        <ele>205.6000061</ele>
        <time>2011-12-18T10:24:58Z</time>
      </trkpt>
      <trkpt lat="48.91615" lon="-0.29886">
        <ele>205</ele>
        <time>2011-12-18T10:24:59Z</time>
      </trkpt>
      <trkpt lat="48.91617" lon="-0.29876">
        <ele>204.6000061</ele>
        <time>2011-12-18T10:25:00Z</time>
      </trkpt>
      <trkpt lat="48.91619" lon="-0.29856">
        <ele>204.6000061</ele>
        <time>2011-12-18T10:25:02Z</time>
      </trkpt>
      <trkpt lat="48.91623" lon="-0.29836">
        <ele>204</ele>
        <time>2011-12-18T10:25:04Z</time>
      </trkpt>
      <trkpt lat="48.91624" lon="-0.29825">
        <ele>202.8000031</ele>
        <time>2011-12-18T10:25:05Z</time>
      </trkpt>
      <trkpt lat="48.91625" lon="-0.29814">
        <ele>202</ele>
        <time>2011-12-18T10:25:06Z</time>
      </trkpt>
      <trkpt lat="48.91625" lon="-0.29803">
        <ele>201.6000061</ele>
        <time>2011-12-18T10:25:07Z</time>
      </trkpt>
      <trkpt lat="48.91625" lon="-0.29791">
        <ele>201.6000061</ele>
        <time>2011-12-18T10:25:08Z</time>
      </trkpt>
      <trkpt lat="48.91618" lon="-0.29759">
        <ele>201.6000061</ele>
        <time>2011-12-18T10:25:11Z</time>
      </trkpt>
      <trkpt lat="48.91615" lon="-0.29749">
        <ele>201.6000061</ele>
        <time>2011-12-18T10:25:12Z</time>
      </trkpt>
      <trkpt lat="48.91611" lon="-0.29738">
        <ele>201</ele>
        <time>2011-12-18T10:25:13Z</time>
      </trkpt>
      <trkpt lat="48.91607" lon="-0.29727">
        <ele>200.6000061</ele>
        <time>2011-12-18T10:25:14Z</time>
      </trkpt>
      <trkpt lat="48.91603" lon="-0.29717">
        <ele>200</ele>
        <time>2011-12-18T10:25:15Z</time>
      </trkpt>
      <trkpt lat="48.916" lon="-0.29706">
        <ele>199.6000061</ele>
        <time>2011-12-18T10:25:16Z</time>
      </trkpt>
      <trkpt lat="48.91596" lon="-0.29694">
        <ele>199</ele>
        <time>2011-12-18T10:25:17Z</time>
      </trkpt>
      <trkpt lat="48.91593" lon="-0.29683">
        <ele>198.8000031</ele>
        <time>2011-12-18T10:25:18Z</time>
      </trkpt>
      <trkpt lat="48.91589" lon="-0.29671">
        <ele>198.1999969</ele>
        <time>2011-12-18T10:25:19Z</time>
      </trkpt>
      <trkpt lat="48.91586" lon="-0.29659">
        <ele>197.8000031</ele>
        <time>2011-12-18T10:25:20Z</time>
      </trkpt>
      <trkpt lat="48.91582" lon="-0.29647">
        <ele>197.1999969</ele>
        <time>2011-12-18T10:25:21Z</time>
      </trkpt>
      <trkpt lat="48.91579" lon="-0.29635">
        <ele>197</ele>
        <time>2011-12-18T10:25:22Z</time>
      </trkpt>
      <trkpt lat="48.91577" lon="-0.29623">
        <ele>197</ele>
        <time>2011-12-18T10:25:23Z</time>
      </trkpt>
      <trkpt lat="48.91576" lon="-0.2961">
        <ele>196.6000061</ele>
        <time>2011-12-18T10:25:24Z</time>
      </trkpt>
      <trkpt lat="48.91576" lon="-0.29598">
        <ele>196</ele>
        <time>2011-12-18T10:25:25Z</time>
      </trkpt>
      <trkpt lat="48.91576" lon="-0.29587">
        <ele>195.6000061</ele>
        <time>2011-12-18T10:25:26Z</time>
      </trkpt>
      <trkpt lat="48.91578" lon="-0.29577">
        <ele>195</ele>
        <time>2011-12-18T10:25:27Z</time>
      </trkpt>
      <trkpt lat="48.91579" lon="-0.29566">
        <ele>194.8000031</ele>
        <time>2011-12-18T10:25:28Z</time>
      </trkpt>
      <trkpt lat="48.91583" lon="-0.29545">
        <ele>194.8000031</ele>
        <time>2011-12-18T10:25:30Z</time>
      </trkpt>
      <trkpt lat="48.91587" lon="-0.29525">
        <ele>194.8000031</ele>
        <time>2011-12-18T10:25:32Z</time>
      </trkpt>
      <trkpt lat="48.91589" lon="-0.29515">
        <ele>194.8000031</ele>
        <time>2011-12-18T10:25:33Z</time>
      </trkpt>
      <trkpt lat="48.91591" lon="-0.29506">
        <ele>194.8000031</ele>
        <time>2011-12-18T10:25:34Z</time>
      </trkpt>
      <trkpt lat="48.91593" lon="-0.29488">
        <ele>194.8000031</ele>
        <time>2011-12-18T10:25:36Z</time>
      </trkpt>
      <trkpt lat="48.91594" lon="-0.2947">
        <ele>194.8000031</ele>
        <time>2011-12-18T10:25:38Z</time>
      </trkpt>
      <trkpt lat="48.91595" lon="-0.29453">
        <ele>194.8000031</ele>
        <time>2011-12-18T10:25:40Z</time>
      </trkpt>
      <trkpt lat="48.91595" lon="-0.29446">
        <ele>194.8000031</ele>
        <time>2011-12-18T10:25:41Z</time>
      </trkpt>
      <trkpt lat="48.91594" lon="-0.29423">
        <ele>194.8000031</ele>
        <time>2011-12-18T10:25:44Z</time>
      </trkpt>
      <trkpt lat="48.91593" lon="-0.29416">
        <ele>194.8000031</ele>
        <time>2011-12-18T10:25:45Z</time>
      </trkpt>
      <trkpt lat="48.91592" lon="-0.29409">
        <ele>195</ele>
        <time>2011-12-18T10:25:46Z</time>
      </trkpt>
      <trkpt lat="48.9159" lon="-0.29402">
        <ele>195.6000061</ele>
        <time>2011-12-18T10:25:47Z</time>
      </trkpt>
      <trkpt lat="48.91589" lon="-0.29395">
        <ele>196</ele>
        <time>2011-12-18T10:25:48Z</time>
      </trkpt>
      <trkpt lat="48.91587" lon="-0.29388">
        <ele>196.1999969</ele>
        <time>2011-12-18T10:25:49Z</time>
      </trkpt>
      <trkpt lat="48.91586" lon="-0.29381">
        <ele>196.8000031</ele>
        <time>2011-12-18T10:25:50Z</time>
      </trkpt>
      <trkpt lat="48.91584" lon="-0.29374">
        <ele>196.8000031</ele>
        <time>2011-12-18T10:25:51Z</time>
      </trkpt>
      <trkpt lat="48.91582" lon="-0.29361">
        <ele>196.8000031</ele>
        <time>2011-12-18T10:25:53Z</time>
      </trkpt>
      <trkpt lat="48.9158" lon="-0.29348">
        <ele>197</ele>
        <time>2011-12-18T10:25:55Z</time>
      </trkpt>
      <trkpt lat="48.91579" lon="-0.29342">
        <ele>197.6000061</ele>
        <time>2011-12-18T10:25:56Z</time>
      </trkpt>
      <trkpt lat="48.91578" lon="-0.29335">
        <ele>198</ele>
        <time>2011-12-18T10:25:57Z</time>
      </trkpt>
      <trkpt lat="48.91577" lon="-0.29329">
        <ele>198.6000061</ele>
        <time>2011-12-18T10:25:58Z</time>
      </trkpt>
      <trkpt lat="48.91576" lon="-0.29323">
        <ele>199</ele>
        <time>2011-12-18T10:25:59Z</time>
      </trkpt>
      <trkpt lat="48.91573" lon="-0.29304">
        <ele>199</ele>
        <time>2011-12-18T10:26:02Z</time>
      </trkpt>
      <trkpt lat="48.91571" lon="-0.2929">
        <ele>199.1999969</ele>
        <time>2011-12-18T10:26:04Z</time>
      </trkpt>
      <trkpt lat="48.91569" lon="-0.29283">
        <ele>199.8000031</ele>
        <time>2011-12-18T10:26:05Z</time>
      </trkpt>
      <trkpt lat="48.91568" lon="-0.29276">
        <ele>200</ele>
        <time>2011-12-18T10:26:06Z</time>
      </trkpt>
      <trkpt lat="48.91566" lon="-0.29269">
        <ele>200.6000061</ele>
        <time>2011-12-18T10:26:07Z</time>
      </trkpt>
      <trkpt lat="48.91565" lon="-0.29262">
        <ele>201</ele>
        <time>2011-12-18T10:26:08Z</time>
      </trkpt>
      <trkpt lat="48.91561" lon="-0.29244">
        <ele>201</ele>
        <time>2011-12-18T10:26:11Z</time>
      </trkpt>
      <trkpt lat="48.91559" lon="-0.29232">
        <ele>201.6000061</ele>
        <time>2011-12-18T10:26:13Z</time>
      </trkpt>
      <trkpt lat="48.91558" lon="-0.29225">
        <ele>202</ele>
        <time>2011-12-18T10:26:14Z</time>
      </trkpt>
      <trkpt lat="48.91557" lon="-0.29218">
        <ele>202.8000031</ele>
        <time>2011-12-18T10:26:15Z</time>
      </trkpt>
      <trkpt lat="48.91555" lon="-0.29212">
        <ele>203</ele>
        <time>2011-12-18T10:26:16Z</time>
      </trkpt>
      <trkpt lat="48.91554" lon="-0.29206">
        <ele>203.8000031</ele>
        <time>2011-12-18T10:26:17Z</time>
      </trkpt>
      <trkpt lat="48.91551" lon="-0.29187">
        <ele>203.8000031</ele>
        <time>2011-12-18T10:26:20Z</time>
      </trkpt>
      <trkpt lat="48.91545" lon="-0.29149">
        <ele>204</ele>
        <time>2011-12-18T10:26:26Z</time>
      </trkpt>
      <trkpt lat="48.91544" lon="-0.29143">
        <ele>204.6000061</ele>
        <time>2011-12-18T10:26:27Z</time>
      </trkpt>
      <trkpt lat="48.91543" lon="-0.29137">
        <ele>205</ele>
        <time>2011-12-18T10:26:28Z</time>
      </trkpt>
      <trkpt lat="48.91542" lon="-0.29131">
        <ele>205.6000061</ele>
        <time>2011-12-18T10:26:29Z</time>
      </trkpt>
      <trkpt lat="48.91541" lon="-0.29125">
        <ele>206</ele>
        <time>2011-12-18T10:26:30Z</time>
      </trkpt>
      <trkpt lat="48.91539" lon="-0.29119">
        <ele>206</ele>
        <time>2011-12-18T10:26:31Z</time>
      </trkpt>
      <trkpt lat="48.91529" lon="-0.29077">
        <ele>206.1999969</ele>
        <time>2011-12-18T10:26:38Z</time>
      </trkpt>
      <trkpt lat="48.91528" lon="-0.29071">
        <ele>206.8000031</ele>
        <time>2011-12-18T10:26:39Z</time>
      </trkpt>
      <trkpt lat="48.91526" lon="-0.29065">
        <ele>207</ele>
        <time>2011-12-18T10:26:40Z</time>
      </trkpt>
      <trkpt lat="48.91524" lon="-0.29059">
        <ele>207.6000061</ele>
        <time>2011-12-18T10:26:41Z</time>
      </trkpt>
      <trkpt lat="48.91522" lon="-0.29053">
        <ele>208</ele>
        <time>2011-12-18T10:26:42Z</time>
      </trkpt>
      <trkpt lat="48.91511" lon="-0.2902">
        <ele>208.6000061</ele>
        <time>2011-12-18T10:26:48Z</time>
      </trkpt>
      <trkpt lat="48.91509" lon="-0.29015">
        <ele>209</ele>
        <time>2011-12-18T10:26:49Z</time>
      </trkpt>
      <trkpt lat="48.91507" lon="-0.29009">
        <ele>209.1999969</ele>
        <time>2011-12-18T10:26:50Z</time>
      </trkpt>
      <trkpt lat="48.91506" lon="-0.29004">
        <ele>209.8000031</ele>
        <time>2011-12-18T10:26:51Z</time>
      </trkpt>
      <trkpt lat="48.91504" lon="-0.28999">
        <ele>210</ele>
        <time>2011-12-18T10:26:52Z</time>
      </trkpt>
      <trkpt lat="48.91494" lon="-0.2898">
        <ele>210</ele>
        <time>2011-12-18T10:26:56Z</time>
      </trkpt>
      <trkpt lat="48.91484" lon="-0.28961">
        <ele>210.6000061</ele>
        <time>2011-12-18T10:27:00Z</time>
      </trkpt>
      <trkpt lat="48.91481" lon="-0.28956">
        <ele>211</ele>
        <time>2011-12-18T10:27:01Z</time>
      </trkpt>
      <trkpt lat="48.91478" lon="-0.2895">
        <ele>211.1999969</ele>
        <time>2011-12-18T10:27:02Z</time>
      </trkpt>
      <trkpt lat="48.91476" lon="-0.28945">
        <ele>211.8000031</ele>
        <time>2011-12-18T10:27:03Z</time>
      </trkpt>
      <trkpt lat="48.91473" lon="-0.2894">
        <ele>212</ele>
        <time>2011-12-18T10:27:04Z</time>
      </trkpt>
      <trkpt lat="48.91457" lon="-0.28909">
        <ele>212</ele>
        <time>2011-12-18T10:27:11Z</time>
      </trkpt>
      <trkpt lat="48.91451" lon="-0.28897">
        <ele>212.6000061</ele>
        <time>2011-12-18T10:27:14Z</time>
      </trkpt>
      <trkpt lat="48.91449" lon="-0.28893">
        <ele>213</ele>
        <time>2011-12-18T10:27:15Z</time>
      </trkpt>
      <trkpt lat="48.91447" lon="-0.28888">
        <ele>213.6000061</ele>
        <time>2011-12-18T10:27:16Z</time>
      </trkpt>
      <trkpt lat="48.91445" lon="-0.28885">
        <ele>214</ele>
        <time>2011-12-18T10:27:17Z</time>
      </trkpt>
      <trkpt lat="48.91443" lon="-0.2888">
        <ele>214.1999969</ele>
        <time>2011-12-18T10:27:18Z</time>
      </trkpt>
      <trkpt lat="48.91446" lon="-0.2887">
        <ele>216.1999969</ele>
        <time>2011-12-18T10:27:46Z</time>
      </trkpt>
      <trkpt lat="48.91455" lon="-0.28857">
        <ele>216.1999969</ele>
        <time>2011-12-18T10:27:50Z</time>
      </trkpt>
      <trkpt lat="48.91465" lon="-0.2884">
        <ele>215.8000031</ele>
        <time>2011-12-18T10:27:54Z</time>
      </trkpt>
      <trkpt lat="48.91468" lon="-0.28836">
        <ele>215.1999969</ele>
        <time>2011-12-18T10:27:55Z</time>
      </trkpt>
      <trkpt lat="48.9147" lon="-0.28833">
        <ele>214.8000031</ele>
        <time>2011-12-18T10:27:56Z</time>
      </trkpt>
      <trkpt lat="48.91473" lon="-0.28829">
        <ele>213.8000031</ele>
        <time>2011-12-18T10:27:57Z</time>
      </trkpt>
      <trkpt lat="48.91478" lon="-0.28821">
        <ele>213.8000031</ele>
        <time>2011-12-18T10:27:59Z</time>
      </trkpt>
      <trkpt lat="48.91492" lon="-0.28801">
        <ele>213.8000031</ele>
        <time>2011-12-18T10:28:04Z</time>
      </trkpt>
      <trkpt lat="48.91495" lon="-0.28796">
        <ele>213.8000031</ele>
        <time>2011-12-18T10:28:05Z</time>
      </trkpt>
      <trkpt lat="48.91514" lon="-0.28767">
        <ele>213.8000031</ele>
        <time>2011-12-18T10:28:11Z</time>
      </trkpt>
      <trkpt lat="48.9152" lon="-0.28757">
        <ele>213.8000031</ele>
        <time>2011-12-18T10:28:13Z</time>
      </trkpt>
      <trkpt lat="48.91532" lon="-0.28738">
        <ele>213.8000031</ele>
        <time>2011-12-18T10:28:17Z</time>
      </trkpt>
      <trkpt lat="48.91542" lon="-0.28723">
        <ele>213.8000031</ele>
        <time>2011-12-18T10:28:20Z</time>
      </trkpt>
      <trkpt lat="48.9156" lon="-0.28692">
        <ele>213.8000031</ele>
        <time>2011-12-18T10:28:26Z</time>
      </trkpt>
      <trkpt lat="48.9157" lon="-0.28677">
        <ele>213.8000031</ele>
        <time>2011-12-18T10:28:29Z</time>
      </trkpt>
      <trkpt lat="48.91577" lon="-0.28667">
        <ele>213.8000031</ele>
        <time>2011-12-18T10:28:31Z</time>
      </trkpt>
      <trkpt lat="48.91587" lon="-0.28662">
        <ele>213.8000031</ele>
        <time>2011-12-18T10:28:33Z</time>
      </trkpt>
      <trkpt lat="48.91603" lon="-0.28665">
        <ele>213.8000031</ele>
        <time>2011-12-18T10:28:36Z</time>
      </trkpt>
      <trkpt lat="48.91614" lon="-0.28672">
        <ele>213.8000031</ele>
        <time>2011-12-18T10:28:38Z</time>
      </trkpt>
      <trkpt lat="48.9162" lon="-0.28675">
        <ele>213.1999969</ele>
        <time>2011-12-18T10:28:39Z</time>
      </trkpt>
      <trkpt lat="48.91627" lon="-0.28677">
        <ele>213</ele>
        <time>2011-12-18T10:28:40Z</time>
      </trkpt>
      <trkpt lat="48.91633" lon="-0.28678">
        <ele>212.1999969</ele>
        <time>2011-12-18T10:28:41Z</time>
      </trkpt>
      <trkpt lat="48.9164" lon="-0.28678">
        <ele>212</ele>
        <time>2011-12-18T10:28:42Z</time>
      </trkpt>
      <trkpt lat="48.91647" lon="-0.28677">
        <ele>211.6000061</ele>
        <time>2011-12-18T10:28:43Z</time>
      </trkpt>
      <trkpt lat="48.9166" lon="-0.28673">
        <ele>211.6000061</ele>
        <time>2011-12-18T10:28:45Z</time>
      </trkpt>
      <trkpt lat="48.91673" lon="-0.28665">
        <ele>211</ele>
        <time>2011-12-18T10:28:47Z</time>
      </trkpt>
      <trkpt lat="48.91679" lon="-0.28659">
        <ele>210.8000031</ele>
        <time>2011-12-18T10:28:48Z</time>
      </trkpt>
      <trkpt lat="48.91684" lon="-0.28652">
        <ele>209.8000031</ele>
        <time>2011-12-18T10:28:49Z</time>
      </trkpt>
      <trkpt lat="48.91689" lon="-0.28644">
        <ele>209.1999969</ele>
        <time>2011-12-18T10:28:50Z</time>
      </trkpt>
      <trkpt lat="48.91693" lon="-0.28636">
        <ele>209.1999969</ele>
        <time>2011-12-18T10:28:51Z</time>
      </trkpt>
      <trkpt lat="48.91708" lon="-0.28613">
        <ele>209.1999969</ele>
        <time>2011-12-18T10:28:54Z</time>
      </trkpt>
      <trkpt lat="48.91714" lon="-0.28608">
        <ele>209</ele>
        <time>2011-12-18T10:28:55Z</time>
      </trkpt>
      <trkpt lat="48.9172" lon="-0.28605">
        <ele>208.6000061</ele>
        <time>2011-12-18T10:28:56Z</time>
      </trkpt>
      <trkpt lat="48.91727" lon="-0.28604">
        <ele>208</ele>
        <time>2011-12-18T10:28:57Z</time>
      </trkpt>
      <trkpt lat="48.91734" lon="-0.28605">
        <ele>207.8000031</ele>
        <time>2011-12-18T10:28:58Z</time>
      </trkpt>
      <trkpt lat="48.9174" lon="-0.28606">
        <ele>207.1999969</ele>
        <time>2011-12-18T10:28:59Z</time>
      </trkpt>
      <trkpt lat="48.91753" lon="-0.28609">
        <ele>207.1999969</ele>
        <time>2011-12-18T10:29:01Z</time>
      </trkpt>
      <trkpt lat="48.91789" lon="-0.28623">
        <ele>207.1999969</ele>
        <time>2011-12-18T10:29:07Z</time>
      </trkpt>
      <trkpt lat="48.91802" lon="-0.28628">
        <ele>207.1999969</ele>
        <time>2011-12-18T10:29:09Z</time>
      </trkpt>
      <trkpt lat="48.91827" lon="-0.2864">
        <ele>207.1999969</ele>
        <time>2011-12-18T10:29:13Z</time>
      </trkpt>
      <trkpt lat="48.91846" lon="-0.28648">
        <ele>207.1999969</ele>
        <time>2011-12-18T10:29:16Z</time>
      </trkpt>
      <trkpt lat="48.91878" lon="-0.28661">
        <ele>207.1999969</ele>
        <time>2011-12-18T10:29:21Z</time>
      </trkpt>
      <trkpt lat="48.91891" lon="-0.28667">
        <ele>207.1999969</ele>
        <time>2011-12-18T10:29:23Z</time>
      </trkpt>
      <trkpt lat="48.91934" lon="-0.28684">
        <ele>206.8000031</ele>
        <time>2011-12-18T10:29:30Z</time>
      </trkpt>
      <trkpt lat="48.9194" lon="-0.28686">
        <ele>206</ele>
        <time>2011-12-18T10:29:31Z</time>
      </trkpt>
      <trkpt lat="48.91945" lon="-0.28687">
        <ele>205.8000031</ele>
        <time>2011-12-18T10:29:32Z</time>
      </trkpt>
      <trkpt lat="48.91951" lon="-0.28688">
        <ele>205</ele>
        <time>2011-12-18T10:29:33Z</time>
      </trkpt>
      <trkpt lat="48.91957" lon="-0.28689">
        <ele>204.6000061</ele>
        <time>2011-12-18T10:29:34Z</time>
      </trkpt>
      <trkpt lat="48.9197" lon="-0.28692">
        <ele>204.6000061</ele>
        <time>2011-12-18T10:29:36Z</time>
      </trkpt>
      <trkpt lat="48.92001" lon="-0.28693">
        <ele>204.6000061</ele>
        <time>2011-12-18T10:29:41Z</time>
      </trkpt>
      <trkpt lat="48.92014" lon="-0.28692">
        <ele>204.6000061</ele>
        <time>2011-12-18T10:29:43Z</time>
      </trkpt>
      <trkpt lat="48.92054" lon="-0.28684">
        <ele>204.6000061</ele>
        <time>2011-12-18T10:29:49Z</time>
      </trkpt>
      <trkpt lat="48.9206" lon="-0.28683">
        <ele>204.6000061</ele>
        <time>2011-12-18T10:29:50Z</time>
      </trkpt>
      <trkpt lat="48.92088" lon="-0.28678">
        <ele>204.6000061</ele>
        <time>2011-12-18T10:29:54Z</time>
      </trkpt>
      <trkpt lat="48.92114" lon="-0.28677">
        <ele>204.6000061</ele>
        <time>2011-12-18T10:29:58Z</time>
      </trkpt>
      <trkpt lat="48.92155" lon="-0.28675">
        <ele>204.6000061</ele>
        <time>2011-12-18T10:30:05Z</time>
      </trkpt>
      <trkpt lat="48.92178" lon="-0.28672">
        <ele>204.6000061</ele>
        <time>2011-12-18T10:30:10Z</time>
      </trkpt>
      <trkpt lat="48.92183" lon="-0.28671">
        <ele>204.6000061</ele>
        <time>2011-12-18T10:30:11Z</time>
      </trkpt>
      <trkpt lat="48.92192" lon="-0.28661">
        <ele>204.6000061</ele>
        <time>2011-12-18T10:30:14Z</time>
      </trkpt>
      <trkpt lat="48.92196" lon="-0.2865">
        <ele>204.6000061</ele>
        <time>2011-12-18T10:30:18Z</time>
      </trkpt>
      <trkpt lat="48.92196" lon="-0.28648">
        <ele>204.6000061</ele>
        <time>2011-12-18T10:30:19Z</time>
      </trkpt>
      <trkpt lat="48.92197" lon="-0.28643">
        <ele>204.6000061</ele>
        <time>2011-12-18T10:30:21Z</time>
      </trkpt>
      <trkpt lat="48.92197" lon="-0.28637">
        <ele>204.6000061</ele>
        <time>2011-12-18T10:30:24Z</time>
      </trkpt>
      <trkpt lat="48.92197" lon="-0.28636">
        <ele>204.6000061</ele>
        <time>2011-12-18T10:30:25Z</time>
      </trkpt>
      <trkpt lat="48.92196" lon="-0.28619">
        <ele>204.6000061</ele>
        <time>2011-12-18T10:30:32Z</time>
      </trkpt>
      <trkpt lat="48.92197" lon="-0.286">
        <ele>204.6000061</ele>
        <time>2011-12-18T10:30:38Z</time>
      </trkpt>
      <trkpt lat="48.92198" lon="-0.28577">
        <ele>204.6000061</ele>
        <time>2011-12-18T10:30:45Z</time>
      </trkpt>
      <trkpt lat="48.92201" lon="-0.28556">
        <ele>204.6000061</ele>
        <time>2011-12-18T10:30:51Z</time>
      </trkpt>
      <trkpt lat="48.92202" lon="-0.28544">
        <ele>204.6000061</ele>
        <time>2011-12-18T10:30:55Z</time>
      </trkpt>
      <trkpt lat="48.92203" lon="-0.28542">
        <ele>204.6000061</ele>
        <time>2011-12-18T10:30:56Z</time>
      </trkpt>
      <trkpt lat="48.92205" lon="-0.28526">
        <ele>204.6000061</ele>
        <time>2011-12-18T10:31:01Z</time>
      </trkpt>
      <trkpt lat="48.92205" lon="-0.28523">
        <ele>204.6000061</ele>
        <time>2011-12-18T10:31:02Z</time>
      </trkpt>
      <trkpt lat="48.92205" lon="-0.28516">
        <ele>205</ele>
        <time>2011-12-18T10:31:04Z</time>
      </trkpt>
      <trkpt lat="48.92205" lon="-0.28513">
        <ele>205.1999969</ele>
        <time>2011-12-18T10:31:05Z</time>
      </trkpt>
      <trkpt lat="48.92206" lon="-0.28509">
        <ele>205.8000031</ele>
        <time>2011-12-18T10:31:06Z</time>
      </trkpt>
      <trkpt lat="48.92207" lon="-0.28506">
        <ele>206</ele>
        <time>2011-12-18T10:31:07Z</time>
      </trkpt>
      <trkpt lat="48.92208" lon="-0.28502">
        <ele>206.6000061</ele>
        <time>2011-12-18T10:31:08Z</time>
      </trkpt>
      <trkpt lat="48.9221" lon="-0.28494">
        <ele>206.6000061</ele>
        <time>2011-12-18T10:31:11Z</time>
      </trkpt>
      <trkpt lat="48.9221" lon="-0.28488">
        <ele>206.6000061</ele>
        <time>2011-12-18T10:31:13Z</time>
      </trkpt>
      <trkpt lat="48.9221" lon="-0.28467">
        <ele>206.6000061</ele>
        <time>2011-12-18T10:31:19Z</time>
      </trkpt>
      <trkpt lat="48.9221" lon="-0.2846">
        <ele>207</ele>
        <time>2011-12-18T10:31:21Z</time>
      </trkpt>
      <trkpt lat="48.92209" lon="-0.28457">
        <ele>207.1999969</ele>
        <time>2011-12-18T10:31:22Z</time>
      </trkpt>
      <trkpt lat="48.92209" lon="-0.28453">
        <ele>207.8000031</ele>
        <time>2011-12-18T10:31:23Z</time>
      </trkpt>
      <trkpt lat="48.92209" lon="-0.28449">
        <ele>208</ele>
        <time>2011-12-18T10:31:24Z</time>
      </trkpt>
      <trkpt lat="48.92209" lon="-0.28444">
        <ele>208.6000061</ele>
        <time>2011-12-18T10:31:25Z</time>
      </trkpt>
      <trkpt lat="48.92213" lon="-0.28415">
        <ele>208.6000061</ele>
        <time>2011-12-18T10:31:31Z</time>
      </trkpt>
      <trkpt lat="48.92216" lon="-0.28377">
        <ele>208.6000061</ele>
        <time>2011-12-18T10:31:38Z</time>
      </trkpt>
      <trkpt lat="48.92219" lon="-0.28348">
        <ele>208.6000061</ele>
        <time>2011-12-18T10:31:44Z</time>
      </trkpt>
      <trkpt lat="48.92221" lon="-0.28325">
        <ele>208.6000061</ele>
        <time>2011-12-18T10:31:49Z</time>
      </trkpt>
      <trkpt lat="48.92219" lon="-0.28299">
        <ele>208.6000061</ele>
        <time>2011-12-18T10:31:54Z</time>
      </trkpt>
      <trkpt lat="48.92217" lon="-0.28257">
        <ele>208.6000061</ele>
        <time>2011-12-18T10:32:01Z</time>
      </trkpt>
      <trkpt lat="48.92216" lon="-0.28246">
        <ele>209</ele>
        <time>2011-12-18T10:32:03Z</time>
      </trkpt>
      <trkpt lat="48.92216" lon="-0.28239">
        <ele>209.6000061</ele>
        <time>2011-12-18T10:32:04Z</time>
      </trkpt>
      <trkpt lat="48.92215" lon="-0.28233">
        <ele>210</ele>
        <time>2011-12-18T10:32:05Z</time>
      </trkpt>
      <trkpt lat="48.92215" lon="-0.28228">
        <ele>210.1999969</ele>
        <time>2011-12-18T10:32:06Z</time>
      </trkpt>
      <trkpt lat="48.92215" lon="-0.28222">
        <ele>210.8000031</ele>
        <time>2011-12-18T10:32:07Z</time>
      </trkpt>
      <trkpt lat="48.92214" lon="-0.28216">
        <ele>210.8000031</ele>
        <time>2011-12-18T10:32:08Z</time>
      </trkpt>
      <trkpt lat="48.92211" lon="-0.28182">
        <ele>210.8000031</ele>
        <time>2011-12-18T10:32:14Z</time>
      </trkpt>
      <trkpt lat="48.92208" lon="-0.28141">
        <ele>210.8000031</ele>
        <time>2011-12-18T10:32:21Z</time>
      </trkpt>
      <trkpt lat="48.92205" lon="-0.28103">
        <ele>210.8000031</ele>
        <time>2011-12-18T10:32:29Z</time>
      </trkpt>
      <trkpt lat="48.92198" lon="-0.28088">
        <ele>210.8000031</ele>
        <time>2011-12-18T10:32:34Z</time>
      </trkpt>
      <trkpt lat="48.92197" lon="-0.28088">
        <ele>210.8000031</ele>
        <time>2011-12-18T10:32:36Z</time>
      </trkpt>
      <trkpt lat="48.92195" lon="-0.28083">
        <ele>210.8000031</ele>
        <time>2011-12-18T10:32:40Z</time>
      </trkpt>
      <trkpt lat="48.92193" lon="-0.28081">
        <ele>210.8000031</ele>
        <time>2011-12-18T10:32:41Z</time>
      </trkpt>
      <trkpt lat="48.92184" lon="-0.28062">
        <ele>210.8000031</ele>
        <time>2011-12-18T10:32:48Z</time>
      </trkpt>
      <trkpt lat="48.92177" lon="-0.28047">
        <ele>210.8000031</ele>
        <time>2011-12-18T10:32:54Z</time>
      </trkpt>
      <trkpt lat="48.92168" lon="-0.28027">
        <ele>210.8000031</ele>
        <time>2011-12-18T10:33:00Z</time>
      </trkpt>
      <trkpt lat="48.9216" lon="-0.28011">
        <ele>210.8000031</ele>
        <time>2011-12-18T10:33:06Z</time>
      </trkpt>
      <trkpt lat="48.92158" lon="-0.28008">
        <ele>210.8000031</ele>
        <time>2011-12-18T10:33:07Z</time>
      </trkpt>
      <trkpt lat="48.92154" lon="-0.27994">
        <ele>210.8000031</ele>
        <time>2011-12-18T10:33:13Z</time>
      </trkpt>
      <trkpt lat="48.92151" lon="-0.27993">
        <ele>210.8000031</ele>
        <time>2011-12-18T10:33:17Z</time>
      </trkpt>
      <trkpt lat="48.92151" lon="-0.27993">
        <ele>210.8000031</ele>
        <time>2011-12-18T10:33:18Z</time>
      </trkpt>
      <trkpt lat="48.92148" lon="-0.27989">
        <ele>210.8000031</ele>
        <time>2011-12-18T10:33:30Z</time>
      </trkpt>
      <trkpt lat="48.92146" lon="-0.27984">
        <ele>210.8000031</ele>
        <time>2011-12-18T10:33:32Z</time>
      </trkpt>
      <trkpt lat="48.92142" lon="-0.27978">
        <ele>210.8000031</ele>
        <time>2011-12-18T10:33:35Z</time>
      </trkpt>
      <trkpt lat="48.92137" lon="-0.27972">
        <ele>210.8000031</ele>
        <time>2011-12-18T10:33:38Z</time>
      </trkpt>
      <trkpt lat="48.92136" lon="-0.2797">
        <ele>210.8000031</ele>
        <time>2011-12-18T10:33:39Z</time>
      </trkpt>
      <trkpt lat="48.92127" lon="-0.27952">
        <ele>210.8000031</ele>
        <time>2011-12-18T10:33:45Z</time>
      </trkpt>
      <trkpt lat="48.92117" lon="-0.27928">
        <ele>211</ele>
        <time>2011-12-18T10:33:53Z</time>
      </trkpt>
      <trkpt lat="48.92115" lon="-0.27923">
        <ele>211.6000061</ele>
        <time>2011-12-18T10:33:54Z</time>
      </trkpt>
      <trkpt lat="48.92113" lon="-0.27918">
        <ele>212</ele>
        <time>2011-12-18T10:33:55Z</time>
      </trkpt>
      <trkpt lat="48.92111" lon="-0.27913">
        <ele>212.1999969</ele>
        <time>2011-12-18T10:33:56Z</time>
      </trkpt>
      <trkpt lat="48.92108" lon="-0.27909">
        <ele>212.8000031</ele>
        <time>2011-12-18T10:33:57Z</time>
      </trkpt>
      <trkpt lat="48.92099" lon="-0.27887">
        <ele>212.8000031</ele>
        <time>2011-12-18T10:34:01Z</time>
      </trkpt>
      <trkpt lat="48.92087" lon="-0.27856">
        <ele>212.8000031</ele>
        <time>2011-12-18T10:34:07Z</time>
      </trkpt>
      <trkpt lat="48.92071" lon="-0.27819">
        <ele>212.8000031</ele>
        <time>2011-12-18T10:34:15Z</time>
      </trkpt>
      <trkpt lat="48.92064" lon="-0.27801">
        <ele>213</ele>
        <time>2011-12-18T10:34:19Z</time>
      </trkpt>
      <trkpt lat="48.92062" lon="-0.27798">
        <ele>213.6000061</ele>
        <time>2011-12-18T10:34:20Z</time>
      </trkpt>
      <trkpt lat="48.9206" lon="-0.27793">
        <ele>214</ele>
        <time>2011-12-18T10:34:21Z</time>
      </trkpt>
      <trkpt lat="48.92058" lon="-0.27789">
        <ele>214.1999969</ele>
        <time>2011-12-18T10:34:22Z</time>
      </trkpt>
      <trkpt lat="48.92056" lon="-0.27784">
        <ele>214.8000031</ele>
        <time>2011-12-18T10:34:23Z</time>
      </trkpt>
      <trkpt lat="48.92048" lon="-0.27765">
        <ele>214.8000031</ele>
        <time>2011-12-18T10:34:27Z</time>
      </trkpt>
      <trkpt lat="48.92046" lon="-0.2776">
        <ele>214.8000031</ele>
        <time>2011-12-18T10:34:28Z</time>
      </trkpt>
      <trkpt lat="48.92034" lon="-0.27732">
        <ele>214.8000031</ele>
        <time>2011-12-18T10:34:34Z</time>
      </trkpt>
      <trkpt lat="48.92032" lon="-0.27721">
        <ele>214.8000031</ele>
        <time>2011-12-18T10:34:38Z</time>
      </trkpt>
      <trkpt lat="48.92032" lon="-0.27721">
        <ele>214.8000031</ele>
        <time>2011-12-18T10:34:39Z</time>
      </trkpt>
      <trkpt lat="48.92029" lon="-0.27719">
        <ele>214.8000031</ele>
        <time>2011-12-18T10:35:08Z</time>
      </trkpt>
      <trkpt lat="48.92027" lon="-0.27717">
        <ele>214.8000031</ele>
        <time>2011-12-18T10:35:09Z</time>
      </trkpt>
      <trkpt lat="48.92026" lon="-0.27715">
        <ele>214.8000031</ele>
        <time>2011-12-18T10:35:10Z</time>
      </trkpt>
      <trkpt lat="48.92019" lon="-0.27703">
        <ele>214.8000031</ele>
        <time>2011-12-18T10:35:14Z</time>
      </trkpt>
      <trkpt lat="48.92018" lon="-0.277">
        <ele>214.8000031</ele>
        <time>2011-12-18T10:35:15Z</time>
      </trkpt>
      <trkpt lat="48.92006" lon="-0.27674">
        <ele>214.8000031</ele>
        <time>2011-12-18T10:35:21Z</time>
      </trkpt>
      <trkpt lat="48.91999" lon="-0.27655">
        <ele>214.8000031</ele>
        <time>2011-12-18T10:35:25Z</time>
      </trkpt>
      <trkpt lat="48.91995" lon="-0.27645">
        <ele>214.8000031</ele>
        <time>2011-12-18T10:35:27Z</time>
      </trkpt>
      <trkpt lat="48.91988" lon="-0.27631">
        <ele>215</ele>
        <time>2011-12-18T10:35:30Z</time>
      </trkpt>
      <trkpt lat="48.91987" lon="-0.27626">
        <ele>215.6000061</ele>
        <time>2011-12-18T10:35:31Z</time>
      </trkpt>
      <trkpt lat="48.91985" lon="-0.27622">
        <ele>216</ele>
        <time>2011-12-18T10:35:32Z</time>
      </trkpt>
      <trkpt lat="48.91983" lon="-0.27618">
        <ele>216.1999969</ele>
        <time>2011-12-18T10:35:33Z</time>
      </trkpt>
      <trkpt lat="48.91981" lon="-0.27614">
        <ele>216.8000031</ele>
        <time>2011-12-18T10:35:34Z</time>
      </trkpt>
      <trkpt lat="48.91975" lon="-0.27598">
        <ele>216.8000031</ele>
        <time>2011-12-18T10:35:38Z</time>
      </trkpt>
      <trkpt lat="48.91964" lon="-0.27573">
        <ele>216.8000031</ele>
        <time>2011-12-18T10:35:44Z</time>
      </trkpt>
      <trkpt lat="48.9196" lon="-0.27564">
        <ele>216.8000031</ele>
        <time>2011-12-18T10:35:46Z</time>
      </trkpt>
      <trkpt lat="48.91954" lon="-0.27549">
        <ele>216.8000031</ele>
        <time>2011-12-18T10:35:49Z</time>
      </trkpt>
      <trkpt lat="48.91949" lon="-0.27535">
        <ele>216.8000031</ele>
        <time>2011-12-18T10:35:52Z</time>
      </trkpt>
      <trkpt lat="48.91941" lon="-0.27515">
        <ele>216.8000031</ele>
        <time>2011-12-18T10:35:57Z</time>
      </trkpt>
      <trkpt lat="48.91939" lon="-0.2751">
        <ele>216.8000031</ele>
        <time>2011-12-18T10:35:58Z</time>
      </trkpt>
      <trkpt lat="48.91937" lon="-0.27506">
        <ele>217</ele>
        <time>2011-12-18T10:35:59Z</time>
      </trkpt>
      <trkpt lat="48.91935" lon="-0.27502">
        <ele>217.6000061</ele>
        <time>2011-12-18T10:36:00Z</time>
      </trkpt>
      <trkpt lat="48.91933" lon="-0.27497">
        <ele>218</ele>
        <time>2011-12-18T10:36:01Z</time>
      </trkpt>
      <trkpt lat="48.9193" lon="-0.27493">
        <ele>218.1999969</ele>
        <time>2011-12-18T10:36:02Z</time>
      </trkpt>
      <trkpt lat="48.91928" lon="-0.2749">
        <ele>218.8000031</ele>
        <time>2011-12-18T10:36:03Z</time>
      </trkpt>
      <trkpt lat="48.91925" lon="-0.27483">
        <ele>218.8000031</ele>
        <time>2011-12-18T10:36:05Z</time>
      </trkpt>
      <trkpt lat="48.91912" lon="-0.27455">
        <ele>218.8000031</ele>
        <time>2011-12-18T10:36:12Z</time>
      </trkpt>
      <trkpt lat="48.91901" lon="-0.27436">
        <ele>218.8000031</ele>
        <time>2011-12-18T10:36:18Z</time>
      </trkpt>
      <trkpt lat="48.91894" lon="-0.27422">
        <ele>218.8000031</ele>
        <time>2011-12-18T10:36:23Z</time>
      </trkpt>
      <trkpt lat="48.91884" lon="-0.27402">
        <ele>218.8000031</ele>
        <time>2011-12-18T10:36:29Z</time>
      </trkpt>
      <trkpt lat="48.91879" lon="-0.2739">
        <ele>218.8000031</ele>
        <time>2011-12-18T10:36:32Z</time>
      </trkpt>
      <trkpt lat="48.9187" lon="-0.27369">
        <ele>218.8000031</ele>
        <time>2011-12-18T10:36:37Z</time>
      </trkpt>
      <trkpt lat="48.91864" lon="-0.27357">
        <ele>219.8000031</ele>
        <time>2011-12-18T10:36:40Z</time>
      </trkpt>
      <trkpt lat="48.91863" lon="-0.27353">
        <ele>220</ele>
        <time>2011-12-18T10:36:41Z</time>
      </trkpt>
      <trkpt lat="48.91861" lon="-0.27348">
        <ele>220.6000061</ele>
        <time>2011-12-18T10:36:42Z</time>
      </trkpt>
      <trkpt lat="48.91859" lon="-0.27344">
        <ele>221</ele>
        <time>2011-12-18T10:36:43Z</time>
      </trkpt>
      <trkpt lat="48.91857" lon="-0.2734">
        <ele>221</ele>
        <time>2011-12-18T10:36:44Z</time>
      </trkpt>
      <trkpt lat="48.91844" lon="-0.27312">
        <ele>221</ele>
        <time>2011-12-18T10:36:50Z</time>
      </trkpt>
      <trkpt lat="48.91833" lon="-0.27285">
        <ele>221</ele>
        <time>2011-12-18T10:36:56Z</time>
      </trkpt>
      <trkpt lat="48.91824" lon="-0.27264">
        <ele>221</ele>
        <time>2011-12-18T10:37:01Z</time>
      </trkpt>
      <trkpt lat="48.91823" lon="-0.2726">
        <ele>221.1999969</ele>
        <time>2011-12-18T10:37:02Z</time>
      </trkpt>
      <trkpt lat="48.91821" lon="-0.27256">
        <ele>222</ele>
        <time>2011-12-18T10:37:03Z</time>
      </trkpt>
      <trkpt lat="48.91819" lon="-0.27252">
        <ele>222.8000031</ele>
        <time>2011-12-18T10:37:04Z</time>
      </trkpt>
      <trkpt lat="48.91816" lon="-0.27248">
        <ele>223</ele>
        <time>2011-12-18T10:37:05Z</time>
      </trkpt>
      <trkpt lat="48.91811" lon="-0.27235">
        <ele>223</ele>
        <time>2011-12-18T10:37:08Z</time>
      </trkpt>
      <trkpt lat="48.91799" lon="-0.27208">
        <ele>223</ele>
        <time>2011-12-18T10:37:14Z</time>
      </trkpt>
      <trkpt lat="48.9179" lon="-0.27186">
        <ele>223</ele>
        <time>2011-12-18T10:37:20Z</time>
      </trkpt>
      <trkpt lat="48.91779" lon="-0.27161">
        <ele>223</ele>
        <time>2011-12-18T10:37:26Z</time>
      </trkpt>
      <trkpt lat="48.91766" lon="-0.27127">
        <ele>223.6000061</ele>
        <time>2011-12-18T10:37:33Z</time>
      </trkpt>
      <trkpt lat="48.91764" lon="-0.27122">
        <ele>224</ele>
        <time>2011-12-18T10:37:34Z</time>
      </trkpt>
      <trkpt lat="48.91763" lon="-0.27117">
        <ele>224.6000061</ele>
        <time>2011-12-18T10:37:35Z</time>
      </trkpt>
      <trkpt lat="48.91761" lon="-0.27113">
        <ele>225</ele>
        <time>2011-12-18T10:37:36Z</time>
      </trkpt>
      <trkpt lat="48.91759" lon="-0.27109">
        <ele>225.1999969</ele>
        <time>2011-12-18T10:37:37Z</time>
      </trkpt>
      <trkpt lat="48.91755" lon="-0.271">
        <ele>225.1999969</ele>
        <time>2011-12-18T10:37:39Z</time>
      </trkpt>
      <trkpt lat="48.91745" lon="-0.27081">
        <ele>225.8000031</ele>
        <time>2011-12-18T10:37:44Z</time>
      </trkpt>
      <trkpt lat="48.91743" lon="-0.27078">
        <ele>226</ele>
        <time>2011-12-18T10:37:45Z</time>
      </trkpt>
      <trkpt lat="48.91741" lon="-0.27075">
        <ele>226.6000061</ele>
        <time>2011-12-18T10:37:46Z</time>
      </trkpt>
      <trkpt lat="48.91739" lon="-0.27072">
        <ele>227</ele>
        <time>2011-12-18T10:37:47Z</time>
      </trkpt>
      <trkpt lat="48.91738" lon="-0.27068">
        <ele>227.1999969</ele>
        <time>2011-12-18T10:37:48Z</time>
      </trkpt>
      <trkpt lat="48.91733" lon="-0.27057">
        <ele>227.1999969</ele>
        <time>2011-12-18T10:37:51Z</time>
      </trkpt>
      <trkpt lat="48.91719" lon="-0.27032">
        <ele>227.1999969</ele>
        <time>2011-12-18T10:37:58Z</time>
      </trkpt>
      <trkpt lat="48.91707" lon="-0.27006">
        <ele>227.1999969</ele>
        <time>2011-12-18T10:38:04Z</time>
      </trkpt>
      <trkpt lat="48.91699" lon="-0.26991">
        <ele>227.1999969</ele>
        <time>2011-12-18T10:38:07Z</time>
      </trkpt>
      <trkpt lat="48.9169" lon="-0.26979">
        <ele>227.1999969</ele>
        <time>2011-12-18T10:38:10Z</time>
      </trkpt>
      <trkpt lat="48.91673" lon="-0.26952">
        <ele>227.1999969</ele>
        <time>2011-12-18T10:38:16Z</time>
      </trkpt>
      <trkpt lat="48.9165" lon="-0.26919">
        <ele>227.1999969</ele>
        <time>2011-12-18T10:38:22Z</time>
      </trkpt>
      <trkpt lat="48.91627" lon="-0.26884">
        <ele>227.1999969</ele>
        <time>2011-12-18T10:38:29Z</time>
      </trkpt>
      <trkpt lat="48.91617" lon="-0.26871">
        <ele>227.1999969</ele>
        <time>2011-12-18T10:38:32Z</time>
      </trkpt>
      <trkpt lat="48.91609" lon="-0.26859">
        <ele>227.1999969</ele>
        <time>2011-12-18T10:38:35Z</time>
      </trkpt>
      <trkpt lat="48.91588" lon="-0.26827">
        <ele>227.1999969</ele>
        <time>2011-12-18T10:38:43Z</time>
      </trkpt>
      <trkpt lat="48.91574" lon="-0.26803">
        <ele>227.1999969</ele>
        <time>2011-12-18T10:38:48Z</time>
      </trkpt>
      <trkpt lat="48.91564" lon="-0.26785">
        <ele>227.1999969</ele>
        <time>2011-12-18T10:38:52Z</time>
      </trkpt>
      <trkpt lat="48.91559" lon="-0.26776">
        <ele>228</ele>
        <time>2011-12-18T10:38:54Z</time>
      </trkpt>
      <trkpt lat="48.91556" lon="-0.26772">
        <ele>228.1999969</ele>
        <time>2011-12-18T10:38:55Z</time>
      </trkpt>
      <trkpt lat="48.91554" lon="-0.26769">
        <ele>228.8000031</ele>
        <time>2011-12-18T10:38:56Z</time>
      </trkpt>
      <trkpt lat="48.91551" lon="-0.26765">
        <ele>229</ele>
        <time>2011-12-18T10:38:57Z</time>
      </trkpt>
      <trkpt lat="48.91548" lon="-0.26761">
        <ele>229.6000061</ele>
        <time>2011-12-18T10:38:58Z</time>
      </trkpt>
      <trkpt lat="48.91528" lon="-0.26737">
        <ele>229.6000061</ele>
        <time>2011-12-18T10:39:04Z</time>
      </trkpt>
      <trkpt lat="48.91505" lon="-0.26703">
        <ele>229.6000061</ele>
        <time>2011-12-18T10:39:11Z</time>
      </trkpt>
      <trkpt lat="48.91479" lon="-0.26665">
        <ele>229.6000061</ele>
        <time>2011-12-18T10:39:19Z</time>
      </trkpt>
      <trkpt lat="48.91459" lon="-0.26633">
        <ele>229.6000061</ele>
        <time>2011-12-18T10:39:25Z</time>
      </trkpt>
      <trkpt lat="48.91452" lon="-0.26624">
        <ele>229.6000061</ele>
        <time>2011-12-18T10:39:27Z</time>
      </trkpt>
      <trkpt lat="48.91444" lon="-0.26615">
        <ele>229.6000061</ele>
        <time>2011-12-18T10:39:29Z</time>
      </trkpt>
      <trkpt lat="48.91427" lon="-0.26593">
        <ele>229.6000061</ele>
        <time>2011-12-18T10:39:34Z</time>
      </trkpt>
      <trkpt lat="48.91404" lon="-0.26558">
        <ele>229.6000061</ele>
        <time>2011-12-18T10:39:41Z</time>
      </trkpt>
      <trkpt lat="48.9138" lon="-0.26528">
        <ele>229.6000061</ele>
        <time>2011-12-18T10:39:48Z</time>
      </trkpt>
      <trkpt lat="48.91377" lon="-0.26524">
        <ele>230</ele>
        <time>2011-12-18T10:39:49Z</time>
      </trkpt>
      <trkpt lat="48.91373" lon="-0.2652">
        <ele>230.1999969</ele>
        <time>2011-12-18T10:39:50Z</time>
      </trkpt>
      <trkpt lat="48.91369" lon="-0.26515">
        <ele>230.8000031</ele>
        <time>2011-12-18T10:39:51Z</time>
      </trkpt>
      <trkpt lat="48.91365" lon="-0.2651">
        <ele>231</ele>
        <time>2011-12-18T10:39:52Z</time>
      </trkpt>
      <trkpt lat="48.91362" lon="-0.26505">
        <ele>231.6000061</ele>
        <time>2011-12-18T10:39:53Z</time>
      </trkpt>
      <trkpt lat="48.91354" lon="-0.26495">
        <ele>231.6000061</ele>
        <time>2011-12-18T10:39:55Z</time>
      </trkpt>
      <trkpt lat="48.91347" lon="-0.26486">
        <ele>231.6000061</ele>
        <time>2011-12-18T10:39:57Z</time>
      </trkpt>
      <trkpt lat="48.91334" lon="-0.26468">
        <ele>231.6000061</ele>
        <time>2011-12-18T10:40:01Z</time>
      </trkpt>
      <trkpt lat="48.9132" lon="-0.26451">
        <ele>231.6000061</ele>
        <time>2011-12-18T10:40:06Z</time>
      </trkpt>
      <trkpt lat="48.91304" lon="-0.26431">
        <ele>231.6000061</ele>
        <time>2011-12-18T10:40:12Z</time>
      </trkpt>
      <trkpt lat="48.91288" lon="-0.26412">
        <ele>231.6000061</ele>
        <time>2011-12-18T10:40:18Z</time>
      </trkpt>
      <trkpt lat="48.91265" lon="-0.26386">
        <ele>231.6000061</ele>
        <time>2011-12-18T10:40:25Z</time>
      </trkpt>
      <trkpt lat="48.91252" lon="-0.26367">
        <ele>231.6000061</ele>
        <time>2011-12-18T10:40:30Z</time>
      </trkpt>
      <trkpt lat="48.9124" lon="-0.26341">
        <ele>231.6000061</ele>
        <time>2011-12-18T10:40:38Z</time>
      </trkpt>
      <trkpt lat="48.91229" lon="-0.26321">
        <ele>231.6000061</ele>
        <time>2011-12-18T10:40:44Z</time>
      </trkpt>
      <trkpt lat="48.91226" lon="-0.26318">
        <ele>231.6000061</ele>
        <time>2011-12-18T10:40:45Z</time>
      </trkpt>
      <trkpt lat="48.9122" lon="-0.26302">
        <ele>231.6000061</ele>
        <time>2011-12-18T10:40:49Z</time>
      </trkpt>
      <trkpt lat="48.91218" lon="-0.26296">
        <ele>231.6000061</ele>
        <time>2011-12-18T10:40:51Z</time>
      </trkpt>
      <trkpt lat="48.91215" lon="-0.26288">
        <ele>231.6000061</ele>
        <time>2011-12-18T10:40:54Z</time>
      </trkpt>
      <trkpt lat="48.91213" lon="-0.26283">
        <ele>231.6000061</ele>
        <time>2011-12-18T10:40:56Z</time>
      </trkpt>
      <trkpt lat="48.91206" lon="-0.26265">
        <ele>231.6000061</ele>
        <time>2011-12-18T10:41:01Z</time>
      </trkpt>
      <trkpt lat="48.91204" lon="-0.26261">
        <ele>231.6000061</ele>
        <time>2011-12-18T10:41:02Z</time>
      </trkpt>
      <trkpt lat="48.91194" lon="-0.2624">
        <ele>231.6000061</ele>
        <time>2011-12-18T10:41:07Z</time>
      </trkpt>
      <trkpt lat="48.91188" lon="-0.26231">
        <ele>231.6000061</ele>
        <time>2011-12-18T10:41:09Z</time>
      </trkpt>
      <trkpt lat="48.91183" lon="-0.26223">
        <ele>231.6000061</ele>
        <time>2011-12-18T10:41:11Z</time>
      </trkpt>
      <trkpt lat="48.91177" lon="-0.26215">
        <ele>231.6000061</ele>
        <time>2011-12-18T10:41:13Z</time>
      </trkpt>
      <trkpt lat="48.91173" lon="-0.26208">
        <ele>231.6000061</ele>
        <time>2011-12-18T10:41:15Z</time>
      </trkpt>
      <trkpt lat="48.91171" lon="-0.26205">
        <ele>231</ele>
        <time>2011-12-18T10:41:16Z</time>
      </trkpt>
      <trkpt lat="48.91168" lon="-0.26201">
        <ele>230.8000031</ele>
        <time>2011-12-18T10:41:17Z</time>
      </trkpt>
      <trkpt lat="48.91165" lon="-0.26196">
        <ele>230</ele>
        <time>2011-12-18T10:41:18Z</time>
      </trkpt>
      <trkpt lat="48.91163" lon="-0.26191">
        <ele>229.8000031</ele>
        <time>2011-12-18T10:41:19Z</time>
      </trkpt>
      <trkpt lat="48.91161" lon="-0.26185">
        <ele>229.1999969</ele>
        <time>2011-12-18T10:41:20Z</time>
      </trkpt>
      <trkpt lat="48.91158" lon="-0.26179">
        <ele>228.8000031</ele>
        <time>2011-12-18T10:41:21Z</time>
      </trkpt>
      <trkpt lat="48.91156" lon="-0.26171">
        <ele>228.1999969</ele>
        <time>2011-12-18T10:41:22Z</time>
      </trkpt>
      <trkpt lat="48.91153" lon="-0.26163">
        <ele>227.8000031</ele>
        <time>2011-12-18T10:41:23Z</time>
      </trkpt>
      <trkpt lat="48.9115" lon="-0.26154">
        <ele>227</ele>
        <time>2011-12-18T10:41:24Z</time>
      </trkpt>
      <trkpt lat="48.91148" lon="-0.26144">
        <ele>226.1999969</ele>
        <time>2011-12-18T10:41:25Z</time>
      </trkpt>
      <trkpt lat="48.91145" lon="-0.26133">
        <ele>225.8000031</ele>
        <time>2011-12-18T10:41:26Z</time>
      </trkpt>
      <trkpt lat="48.91142" lon="-0.26123">
        <ele>225</ele>
        <time>2011-12-18T10:41:27Z</time>
      </trkpt>
      <trkpt lat="48.9114" lon="-0.26113">
        <ele>224.6000061</ele>
        <time>2011-12-18T10:41:28Z</time>
      </trkpt>
      <trkpt lat="48.91138" lon="-0.26103">
        <ele>224</ele>
        <time>2011-12-18T10:41:29Z</time>
      </trkpt>
      <trkpt lat="48.91135" lon="-0.26094">
        <ele>223.1999969</ele>
        <time>2011-12-18T10:41:30Z</time>
      </trkpt>
      <trkpt lat="48.91133" lon="-0.26085">
        <ele>222.8000031</ele>
        <time>2011-12-18T10:41:31Z</time>
      </trkpt>
      <trkpt lat="48.91128" lon="-0.26067">
        <ele>222.1999969</ele>
        <time>2011-12-18T10:41:33Z</time>
      </trkpt>
      <trkpt lat="48.91126" lon="-0.26059">
        <ele>222</ele>
        <time>2011-12-18T10:41:34Z</time>
      </trkpt>
      <trkpt lat="48.91124" lon="-0.26051">
        <ele>221.6000061</ele>
        <time>2011-12-18T10:41:35Z</time>
      </trkpt>
      <trkpt lat="48.91123" lon="-0.26043">
        <ele>220.6000061</ele>
        <time>2011-12-18T10:41:36Z</time>
      </trkpt>
      <trkpt lat="48.91115" lon="-0.26004">
        <ele>220</ele>
        <time>2011-12-18T10:41:41Z</time>
      </trkpt>
      <trkpt lat="48.91113" lon="-0.25996">
        <ele>219.8000031</ele>
        <time>2011-12-18T10:41:42Z</time>
      </trkpt>
      <trkpt lat="48.9111" lon="-0.25988">
        <ele>219.1999969</ele>
        <time>2011-12-18T10:41:43Z</time>
      </trkpt>
      <trkpt lat="48.91107" lon="-0.25981">
        <ele>219</ele>
        <time>2011-12-18T10:41:44Z</time>
      </trkpt>
      <trkpt lat="48.91103" lon="-0.25974">
        <ele>218.6000061</ele>
        <time>2011-12-18T10:41:45Z</time>
      </trkpt>
      <trkpt lat="48.911" lon="-0.25967">
        <ele>218.6000061</ele>
        <time>2011-12-18T10:41:46Z</time>
      </trkpt>
      <trkpt lat="48.91091" lon="-0.25947">
        <ele>218.6000061</ele>
        <time>2011-12-18T10:41:49Z</time>
      </trkpt>
      <trkpt lat="48.91082" lon="-0.25923">
        <ele>218.6000061</ele>
        <time>2011-12-18T10:41:53Z</time>
      </trkpt>
      <trkpt lat="48.91068" lon="-0.25892">
        <ele>218.6000061</ele>
        <time>2011-12-18T10:41:59Z</time>
      </trkpt>
      <trkpt lat="48.91065" lon="-0.25887">
        <ele>218.6000061</ele>
        <time>2011-12-18T10:42:00Z</time>
      </trkpt>
      <trkpt lat="48.91054" lon="-0.25869">
        <ele>218.6000061</ele>
        <time>2011-12-18T10:42:04Z</time>
      </trkpt>
      <trkpt lat="48.91052" lon="-0.25863">
        <ele>218</ele>
        <time>2011-12-18T10:42:05Z</time>
      </trkpt>
      <trkpt lat="48.91049" lon="-0.25856">
        <ele>217.6000061</ele>
        <time>2011-12-18T10:42:06Z</time>
      </trkpt>
      <trkpt lat="48.91047" lon="-0.25849">
        <ele>217</ele>
        <time>2011-12-18T10:42:07Z</time>
      </trkpt>
      <trkpt lat="48.91044" lon="-0.25842">
        <ele>216.8000031</ele>
        <time>2011-12-18T10:42:08Z</time>
      </trkpt>
      <trkpt lat="48.91042" lon="-0.25836">
        <ele>216.1999969</ele>
        <time>2011-12-18T10:42:09Z</time>
      </trkpt>
      <trkpt lat="48.9104" lon="-0.2583">
        <ele>216.1999969</ele>
        <time>2011-12-18T10:42:10Z</time>
      </trkpt>
      <trkpt lat="48.91034" lon="-0.25818">
        <ele>216.1999969</ele>
        <time>2011-12-18T10:42:12Z</time>
      </trkpt>
      <trkpt lat="48.9103" lon="-0.25802">
        <ele>216.1999969</ele>
        <time>2011-12-18T10:42:15Z</time>
      </trkpt>
      <trkpt lat="48.91029" lon="-0.2579">
        <ele>216.1999969</ele>
        <time>2011-12-18T10:42:17Z</time>
      </trkpt>
      <trkpt lat="48.91028" lon="-0.25768">
        <ele>215.8000031</ele>
        <time>2011-12-18T10:42:21Z</time>
      </trkpt>
      <trkpt lat="48.91027" lon="-0.25763">
        <ele>215.1999969</ele>
        <time>2011-12-18T10:42:22Z</time>
      </trkpt>
      <trkpt lat="48.91026" lon="-0.25757">
        <ele>215</ele>
        <time>2011-12-18T10:42:23Z</time>
      </trkpt>
      <trkpt lat="48.91023" lon="-0.25751">
        <ele>214.6000061</ele>
        <time>2011-12-18T10:42:24Z</time>
      </trkpt>
      <trkpt lat="48.91021" lon="-0.25745">
        <ele>214</ele>
        <time>2011-12-18T10:42:25Z</time>
      </trkpt>
      <trkpt lat="48.91018" lon="-0.25738">
        <ele>214</ele>
        <time>2011-12-18T10:42:26Z</time>
      </trkpt>
      <trkpt lat="48.91015" lon="-0.25731">
        <ele>213.8000031</ele>
        <time>2011-12-18T10:42:27Z</time>
      </trkpt>
      <trkpt lat="48.91012" lon="-0.25723">
        <ele>213.1999969</ele>
        <time>2011-12-18T10:42:28Z</time>
      </trkpt>
      <trkpt lat="48.91008" lon="-0.25715">
        <ele>213</ele>
        <time>2011-12-18T10:42:29Z</time>
      </trkpt>
      <trkpt lat="48.91004" lon="-0.25707">
        <ele>212.6000061</ele>
        <time>2011-12-18T10:42:30Z</time>
      </trkpt>
      <trkpt lat="48.91" lon="-0.25701">
        <ele>212</ele>
        <time>2011-12-18T10:42:31Z</time>
      </trkpt>
      <trkpt lat="48.90995" lon="-0.25694">
        <ele>211.6000061</ele>
        <time>2011-12-18T10:42:32Z</time>
      </trkpt>
      <trkpt lat="48.90992" lon="-0.25688">
        <ele>211</ele>
        <time>2011-12-18T10:42:33Z</time>
      </trkpt>
      <trkpt lat="48.90989" lon="-0.25684">
        <ele>210.1999969</ele>
        <time>2011-12-18T10:42:34Z</time>
      </trkpt>
      <trkpt lat="48.90986" lon="-0.2568">
        <ele>210</ele>
        <time>2011-12-18T10:42:35Z</time>
      </trkpt>
      <trkpt lat="48.90984" lon="-0.25676">
        <ele>209.1999969</ele>
        <time>2011-12-18T10:42:36Z</time>
      </trkpt>
      <trkpt lat="48.90982" lon="-0.25671">
        <ele>208.8000031</ele>
        <time>2011-12-18T10:42:37Z</time>
      </trkpt>
      <trkpt lat="48.9098" lon="-0.25667">
        <ele>208.1999969</ele>
        <time>2011-12-18T10:42:38Z</time>
      </trkpt>
      <trkpt lat="48.90978" lon="-0.25663">
        <ele>207.8000031</ele>
        <time>2011-12-18T10:42:39Z</time>
      </trkpt>
      <trkpt lat="48.90969" lon="-0.25638">
        <ele>207.8000031</ele>
        <time>2011-12-18T10:42:44Z</time>
      </trkpt>
      <trkpt lat="48.90968" lon="-0.25633">
        <ele>207.8000031</ele>
        <time>2011-12-18T10:42:45Z</time>
      </trkpt>
      <trkpt lat="48.90964" lon="-0.25615">
        <ele>207.1999969</ele>
        <time>2011-12-18T10:42:48Z</time>
      </trkpt>
      <trkpt lat="48.90963" lon="-0.25609">
        <ele>207</ele>
        <time>2011-12-18T10:42:49Z</time>
      </trkpt>
      <trkpt lat="48.90962" lon="-0.25602">
        <ele>206</ele>
        <time>2011-12-18T10:42:50Z</time>
      </trkpt>
      <trkpt lat="48.90961" lon="-0.25594">
        <ele>205.8000031</ele>
        <time>2011-12-18T10:42:51Z</time>
      </trkpt>
      <trkpt lat="48.90954" lon="-0.2557">
        <ele>205.8000031</ele>
        <time>2011-12-18T10:42:55Z</time>
      </trkpt>
      <trkpt lat="48.90952" lon="-0.25566">
        <ele>205.8000031</ele>
        <time>2011-12-18T10:42:56Z</time>
      </trkpt>
      <trkpt lat="48.90944" lon="-0.25543">
        <ele>205.8000031</ele>
        <time>2011-12-18T10:43:02Z</time>
      </trkpt>
      <trkpt lat="48.90941" lon="-0.25528">
        <ele>206</ele>
        <time>2011-12-18T10:43:07Z</time>
      </trkpt>
      <trkpt lat="48.9094" lon="-0.25526">
        <ele>206.6000061</ele>
        <time>2011-12-18T10:43:08Z</time>
      </trkpt>
      <trkpt lat="48.9094" lon="-0.25523">
        <ele>207</ele>
        <time>2011-12-18T10:43:09Z</time>
      </trkpt>
      <trkpt lat="48.90939" lon="-0.2552">
        <ele>207.1999969</ele>
        <time>2011-12-18T10:43:10Z</time>
      </trkpt>
      <trkpt lat="48.90938" lon="-0.25519">
        <ele>207.8000031</ele>
        <time>2011-12-18T10:43:11Z</time>
      </trkpt>
      <trkpt lat="48.90938" lon="-0.25518">
        <ele>207.8000031</ele>
        <time>2011-12-18T10:43:12Z</time>
      </trkpt>
      <trkpt lat="48.90937" lon="-0.25514">
        <ele>207.8000031</ele>
        <time>2011-12-18T10:43:39Z</time>
      </trkpt>
      <trkpt lat="48.90931" lon="-0.25496">
        <ele>207.8000031</ele>
        <time>2011-12-18T10:43:45Z</time>
      </trkpt>
      <trkpt lat="48.90929" lon="-0.25494">
        <ele>207.8000031</ele>
        <time>2011-12-18T10:43:46Z</time>
      </trkpt>
      <trkpt lat="48.90925" lon="-0.25482">
        <ele>207.8000031</ele>
        <time>2011-12-18T10:43:49Z</time>
      </trkpt>
      <trkpt lat="48.90922" lon="-0.25475">
        <ele>207.8000031</ele>
        <time>2011-12-18T10:43:51Z</time>
      </trkpt>
      <trkpt lat="48.90914" lon="-0.25456">
        <ele>207.8000031</ele>
        <time>2011-12-18T10:43:55Z</time>
      </trkpt>
      <trkpt lat="48.90912" lon="-0.2545">
        <ele>207.8000031</ele>
        <time>2011-12-18T10:43:56Z</time>
      </trkpt>
      <trkpt lat="48.90911" lon="-0.25445">
        <ele>208</ele>
        <time>2011-12-18T10:43:57Z</time>
      </trkpt>
      <trkpt lat="48.9091" lon="-0.25439">
        <ele>208.6000061</ele>
        <time>2011-12-18T10:43:58Z</time>
      </trkpt>
      <trkpt lat="48.90908" lon="-0.25433">
        <ele>209</ele>
        <time>2011-12-18T10:43:59Z</time>
      </trkpt>
      <trkpt lat="48.90907" lon="-0.25427">
        <ele>209.6000061</ele>
        <time>2011-12-18T10:44:00Z</time>
      </trkpt>
      <trkpt lat="48.90906" lon="-0.25419">
        <ele>210</ele>
        <time>2011-12-18T10:44:01Z</time>
      </trkpt>
      <trkpt lat="48.90903" lon="-0.25408">
        <ele>210</ele>
        <time>2011-12-18T10:44:03Z</time>
      </trkpt>
      <trkpt lat="48.90896" lon="-0.25386">
        <ele>210</ele>
        <time>2011-12-18T10:44:08Z</time>
      </trkpt>
      <trkpt lat="48.90887" lon="-0.25367">
        <ele>210</ele>
        <time>2011-12-18T10:44:12Z</time>
      </trkpt>
      <trkpt lat="48.90884" lon="-0.2535">
        <ele>210</ele>
        <time>2011-12-18T10:44:17Z</time>
      </trkpt>
      <trkpt lat="48.90877" lon="-0.25328">
        <ele>210</ele>
        <time>2011-12-18T10:44:22Z</time>
      </trkpt>
      <trkpt lat="48.90876" lon="-0.25323">
        <ele>210.1999969</ele>
        <time>2011-12-18T10:44:23Z</time>
      </trkpt>
      <trkpt lat="48.90875" lon="-0.25318">
        <ele>211</ele>
        <time>2011-12-18T10:44:24Z</time>
      </trkpt>
      <trkpt lat="48.90873" lon="-0.25312">
        <ele>211.1999969</ele>
        <time>2011-12-18T10:44:25Z</time>
      </trkpt>
      <trkpt lat="48.90872" lon="-0.25307">
        <ele>211.8000031</ele>
        <time>2011-12-18T10:44:26Z</time>
      </trkpt>
      <trkpt lat="48.90871" lon="-0.25301">
        <ele>212</ele>
        <time>2011-12-18T10:44:27Z</time>
      </trkpt>
      <trkpt lat="48.9087" lon="-0.25295">
        <ele>212</ele>
        <time>2011-12-18T10:44:28Z</time>
      </trkpt>
      <trkpt lat="48.90862" lon="-0.25268">
        <ele>212</ele>
        <time>2011-12-18T10:44:33Z</time>
      </trkpt>
      <trkpt lat="48.90852" lon="-0.25235">
        <ele>212.8000031</ele>
        <time>2011-12-18T10:44:39Z</time>
      </trkpt>
      <trkpt lat="48.9085" lon="-0.25231">
        <ele>213</ele>
        <time>2011-12-18T10:44:40Z</time>
      </trkpt>
      <trkpt lat="48.90849" lon="-0.25225">
        <ele>213.6000061</ele>
        <time>2011-12-18T10:44:41Z</time>
      </trkpt>
      <trkpt lat="48.90848" lon="-0.2522">
        <ele>214</ele>
        <time>2011-12-18T10:44:42Z</time>
      </trkpt>
      <trkpt lat="48.90847" lon="-0.25214">
        <ele>214.1999969</ele>
        <time>2011-12-18T10:44:43Z</time>
      </trkpt>
      <trkpt lat="48.90844" lon="-0.25196">
        <ele>214.1999969</ele>
        <time>2011-12-18T10:44:46Z</time>
      </trkpt>
      <trkpt lat="48.90837" lon="-0.25169">
        <ele>214.1999969</ele>
        <time>2011-12-18T10:44:51Z</time>
      </trkpt>
      <trkpt lat="48.9083" lon="-0.25137">
        <ele>214.1999969</ele>
        <time>2011-12-18T10:44:56Z</time>
      </trkpt>
      <trkpt lat="48.90824" lon="-0.25118">
        <ele>214.1999969</ele>
        <time>2011-12-18T10:44:59Z</time>
      </trkpt>
      <trkpt lat="48.90818" lon="-0.25098">
        <ele>214.1999969</ele>
        <time>2011-12-18T10:45:02Z</time>
      </trkpt>
      <trkpt lat="48.90804" lon="-0.25047">
        <ele>214.1999969</ele>
        <time>2011-12-18T10:45:09Z</time>
      </trkpt>
      <trkpt lat="48.90799" lon="-0.25026">
        <ele>214.1999969</ele>
        <time>2011-12-18T10:45:12Z</time>
      </trkpt>
      <trkpt lat="48.90795" lon="-0.25011">
        <ele>214.1999969</ele>
        <time>2011-12-18T10:45:14Z</time>
      </trkpt>
      <trkpt lat="48.90793" lon="-0.25004">
        <ele>214.1999969</ele>
        <time>2011-12-18T10:45:15Z</time>
      </trkpt>
      <trkpt lat="48.90787" lon="-0.24964">
        <ele>214.1999969</ele>
        <time>2011-12-18T10:45:20Z</time>
      </trkpt>
      <trkpt lat="48.90783" lon="-0.24924">
        <ele>214.1999969</ele>
        <time>2011-12-18T10:45:25Z</time>
      </trkpt>
      <trkpt lat="48.9078" lon="-0.24908">
        <ele>214.1999969</ele>
        <time>2011-12-18T10:45:27Z</time>
      </trkpt>
      <trkpt lat="48.90775" lon="-0.24894">
        <ele>214.1999969</ele>
        <time>2011-12-18T10:45:29Z</time>
      </trkpt>
      <trkpt lat="48.9077" lon="-0.24879">
        <ele>214.1999969</ele>
        <time>2011-12-18T10:45:31Z</time>
      </trkpt>
      <trkpt lat="48.90759" lon="-0.24839">
        <ele>214</ele>
        <time>2011-12-18T10:45:36Z</time>
      </trkpt>
      <trkpt lat="48.90757" lon="-0.24833">
        <ele>213.1999969</ele>
        <time>2011-12-18T10:45:37Z</time>
      </trkpt>
      <trkpt lat="48.90755" lon="-0.24826">
        <ele>213</ele>
        <time>2011-12-18T10:45:38Z</time>
      </trkpt>
      <trkpt lat="48.90752" lon="-0.24819">
        <ele>212.6000061</ele>
        <time>2011-12-18T10:45:39Z</time>
      </trkpt>
      <trkpt lat="48.90749" lon="-0.2481">
        <ele>212</ele>
        <time>2011-12-18T10:45:40Z</time>
      </trkpt>
      <trkpt lat="48.90747" lon="-0.24803">
        <ele>212</ele>
        <time>2011-12-18T10:45:41Z</time>
      </trkpt>
      <trkpt lat="48.90737" lon="-0.24761">
        <ele>211.8000031</ele>
        <time>2011-12-18T10:45:46Z</time>
      </trkpt>
      <trkpt lat="48.90735" lon="-0.24752">
        <ele>211.1999969</ele>
        <time>2011-12-18T10:45:47Z</time>
      </trkpt>
      <trkpt lat="48.90734" lon="-0.24743">
        <ele>210.8000031</ele>
        <time>2011-12-18T10:45:48Z</time>
      </trkpt>
      <trkpt lat="48.90732" lon="-0.24735">
        <ele>210.1999969</ele>
        <time>2011-12-18T10:45:49Z</time>
      </trkpt>
      <trkpt lat="48.9073" lon="-0.24727">
        <ele>210</ele>
        <time>2011-12-18T10:45:50Z</time>
      </trkpt>
      <trkpt lat="48.90723" lon="-0.24685">
        <ele>210</ele>
        <time>2011-12-18T10:45:55Z</time>
      </trkpt>
      <trkpt lat="48.90716" lon="-0.24662">
        <ele>210</ele>
        <time>2011-12-18T10:45:58Z</time>
      </trkpt>
      <trkpt lat="48.90708" lon="-0.24649">
        <ele>210</ele>
        <time>2011-12-18T10:46:00Z</time>
      </trkpt>
      <trkpt lat="48.90703" lon="-0.24633">
        <ele>210</ele>
        <time>2011-12-18T10:46:02Z</time>
      </trkpt>
      <trkpt lat="48.907" lon="-0.24616">
        <ele>210</ele>
        <time>2011-12-18T10:46:04Z</time>
      </trkpt>
      <trkpt lat="48.90698" lon="-0.24606">
        <ele>209.6000061</ele>
        <time>2011-12-18T10:46:05Z</time>
      </trkpt>
      <trkpt lat="48.90697" lon="-0.24596">
        <ele>209</ele>
        <time>2011-12-18T10:46:06Z</time>
      </trkpt>
      <trkpt lat="48.90695" lon="-0.24586">
        <ele>208.1999969</ele>
        <time>2011-12-18T10:46:07Z</time>
      </trkpt>
      <trkpt lat="48.90693" lon="-0.24575">
        <ele>207.8000031</ele>
        <time>2011-12-18T10:46:08Z</time>
      </trkpt>
      <trkpt lat="48.90691" lon="-0.24565">
        <ele>207.8000031</ele>
        <time>2011-12-18T10:46:09Z</time>
      </trkpt>
      <trkpt lat="48.90673" lon="-0.24485">
        <ele>207.8000031</ele>
        <time>2011-12-18T10:46:17Z</time>
      </trkpt>
      <trkpt lat="48.90664" lon="-0.24445">
        <ele>207.8000031</ele>
        <time>2011-12-18T10:46:22Z</time>
      </trkpt>
      <trkpt lat="48.90647" lon="-0.24385">
        <ele>207.8000031</ele>
        <time>2011-12-18T10:46:29Z</time>
      </trkpt>
      <trkpt lat="48.9064" lon="-0.2436">
        <ele>207.8000031</ele>
        <time>2011-12-18T10:46:32Z</time>
      </trkpt>
      <trkpt lat="48.90633" lon="-0.24334">
        <ele>207.8000031</ele>
        <time>2011-12-18T10:46:35Z</time>
      </trkpt>
      <trkpt lat="48.90631" lon="-0.24324">
        <ele>207.8000031</ele>
        <time>2011-12-18T10:46:36Z</time>
      </trkpt>
      <trkpt lat="48.90625" lon="-0.24285">
        <ele>207.1999969</ele>
        <time>2011-12-18T10:46:40Z</time>
      </trkpt>
      <trkpt lat="48.90623" lon="-0.24275">
        <ele>207</ele>
        <time>2011-12-18T10:46:41Z</time>
      </trkpt>
      <trkpt lat="48.90621" lon="-0.24267">
        <ele>206.6000061</ele>
        <time>2011-12-18T10:46:42Z</time>
      </trkpt>
      <trkpt lat="48.90619" lon="-0.24257">
        <ele>206</ele>
        <time>2011-12-18T10:46:43Z</time>
      </trkpt>
      <trkpt lat="48.90617" lon="-0.24249">
        <ele>205.8000031</ele>
        <time>2011-12-18T10:46:44Z</time>
      </trkpt>
      <trkpt lat="48.90614" lon="-0.24241">
        <ele>205.8000031</ele>
        <time>2011-12-18T10:46:45Z</time>
      </trkpt>
      <trkpt lat="48.90604" lon="-0.24209">
        <ele>205.8000031</ele>
        <time>2011-12-18T10:46:50Z</time>
      </trkpt>
      <trkpt lat="48.906" lon="-0.242">
        <ele>205.1999969</ele>
        <time>2011-12-18T10:46:53Z</time>
      </trkpt>
      <trkpt lat="48.90601" lon="-0.242">
        <ele>205</ele>
        <time>2011-12-18T10:46:54Z</time>
      </trkpt>
      <trkpt lat="48.90599" lon="-0.24197">
        <ele>203.8000031</ele>
        <time>2011-12-18T10:47:30Z</time>
      </trkpt>
      <trkpt lat="48.90598" lon="-0.24194">
        <ele>203.8000031</ele>
        <time>2011-12-18T10:47:31Z</time>
      </trkpt>
      <trkpt lat="48.90594" lon="-0.24187">
        <ele>203.8000031</ele>
        <time>2011-12-18T10:47:34Z</time>
      </trkpt>
      <trkpt lat="48.90592" lon="-0.24183">
        <ele>203.8000031</ele>
        <time>2011-12-18T10:47:35Z</time>
      </trkpt>
      <trkpt lat="48.90579" lon="-0.24155">
        <ele>203.8000031</ele>
        <time>2011-12-18T10:47:41Z</time>
      </trkpt>
      <trkpt lat="48.90563" lon="-0.24116">
        <ele>203.8000031</ele>
        <time>2011-12-18T10:47:48Z</time>
      </trkpt>
      <trkpt lat="48.90546" lon="-0.2408">
        <ele>203.8000031</ele>
        <time>2011-12-18T10:47:54Z</time>
      </trkpt>
      <trkpt lat="48.90544" lon="-0.24074">
        <ele>203.8000031</ele>
        <time>2011-12-18T10:47:55Z</time>
      </trkpt>
      <trkpt lat="48.90527" lon="-0.24037">
        <ele>203.8000031</ele>
        <time>2011-12-18T10:48:01Z</time>
      </trkpt>
      <trkpt lat="48.90524" lon="-0.2403">
        <ele>203.8000031</ele>
        <time>2011-12-18T10:48:02Z</time>
      </trkpt>
      <trkpt lat="48.90506" lon="-0.2399">
        <ele>203.8000031</ele>
        <time>2011-12-18T10:48:08Z</time>
      </trkpt>
      <trkpt lat="48.90501" lon="-0.23977">
        <ele>203.8000031</ele>
        <time>2011-12-18T10:48:10Z</time>
      </trkpt>
      <trkpt lat="48.90489" lon="-0.23948">
        <ele>203.8000031</ele>
        <time>2011-12-18T10:48:14Z</time>
      </trkpt>
      <trkpt lat="48.90484" lon="-0.23934">
        <ele>204</ele>
        <time>2011-12-18T10:48:16Z</time>
      </trkpt>
      <trkpt lat="48.90481" lon="-0.23926">
        <ele>204.6000061</ele>
        <time>2011-12-18T10:48:17Z</time>
      </trkpt>
      <trkpt lat="48.90478" lon="-0.23919">
        <ele>205</ele>
        <time>2011-12-18T10:48:18Z</time>
      </trkpt>
      <trkpt lat="48.90475" lon="-0.23911">
        <ele>205.1999969</ele>
        <time>2011-12-18T10:48:19Z</time>
      </trkpt>
      <trkpt lat="48.90471" lon="-0.23903">
        <ele>205.8000031</ele>
        <time>2011-12-18T10:48:20Z</time>
      </trkpt>
      <trkpt lat="48.90469" lon="-0.23896">
        <ele>205.8000031</ele>
        <time>2011-12-18T10:48:21Z</time>
      </trkpt>
      <trkpt lat="48.90463" lon="-0.23882">
        <ele>205.8000031</ele>
        <time>2011-12-18T10:48:23Z</time>
      </trkpt>
      <trkpt lat="48.9045" lon="-0.23847">
        <ele>205.8000031</ele>
        <time>2011-12-18T10:48:28Z</time>
      </trkpt>
      <trkpt lat="48.90446" lon="-0.23832">
        <ele>205.8000031</ele>
        <time>2011-12-18T10:48:30Z</time>
      </trkpt>
      <trkpt lat="48.90431" lon="-0.23787">
        <ele>205.8000031</ele>
        <time>2011-12-18T10:48:36Z</time>
      </trkpt>
      <trkpt lat="48.90414" lon="-0.23743">
        <ele>205.8000031</ele>
        <time>2011-12-18T10:48:42Z</time>
      </trkpt>
      <trkpt lat="48.90402" lon="-0.23713">
        <ele>205.8000031</ele>
        <time>2011-12-18T10:48:47Z</time>
      </trkpt>
      <trkpt lat="48.90388" lon="-0.23673">
        <ele>205.8000031</ele>
        <time>2011-12-18T10:48:53Z</time>
      </trkpt>
      <trkpt lat="48.90375" lon="-0.23637">
        <ele>205.8000031</ele>
        <time>2011-12-18T10:48:58Z</time>
      </trkpt>
      <trkpt lat="48.90364" lon="-0.23608">
        <ele>205.1999969</ele>
        <time>2011-12-18T10:49:02Z</time>
      </trkpt>
      <trkpt lat="48.90362" lon="-0.236">
        <ele>205</ele>
        <time>2011-12-18T10:49:03Z</time>
      </trkpt>
      <trkpt lat="48.90358" lon="-0.23592">
        <ele>204.6000061</ele>
        <time>2011-12-18T10:49:04Z</time>
      </trkpt>
      <trkpt lat="48.90356" lon="-0.23584">
        <ele>204</ele>
        <time>2011-12-18T10:49:05Z</time>
      </trkpt>
      <trkpt lat="48.90353" lon="-0.23577">
        <ele>203.8000031</ele>
        <time>2011-12-18T10:49:06Z</time>
      </trkpt>
      <trkpt lat="48.90342" lon="-0.23546">
        <ele>203.8000031</ele>
        <time>2011-12-18T10:49:10Z</time>
      </trkpt>
      <trkpt lat="48.90332" lon="-0.23513">
        <ele>203.1999969</ele>
        <time>2011-12-18T10:49:14Z</time>
      </trkpt>
      <trkpt lat="48.9033" lon="-0.23505">
        <ele>202.8000031</ele>
        <time>2011-12-18T10:49:15Z</time>
      </trkpt>
      <trkpt lat="48.90328" lon="-0.23497">
        <ele>202.1999969</ele>
        <time>2011-12-18T10:49:16Z</time>
      </trkpt>
      <trkpt lat="48.90326" lon="-0.23489">
        <ele>202</ele>
        <time>2011-12-18T10:49:17Z</time>
      </trkpt>
      <trkpt lat="48.90324" lon="-0.23481">
        <ele>201.6000061</ele>
        <time>2011-12-18T10:49:18Z</time>
      </trkpt>
      <trkpt lat="48.90309" lon="-0.2344">
        <ele>201</ele>
        <time>2011-12-18T10:49:23Z</time>
      </trkpt>
      <trkpt lat="48.90306" lon="-0.23433">
        <ele>200.8000031</ele>
        <time>2011-12-18T10:49:24Z</time>
      </trkpt>
      <trkpt lat="48.90303" lon="-0.23425">
        <ele>200.1999969</ele>
        <time>2011-12-18T10:49:25Z</time>
      </trkpt>
      <trkpt lat="48.903" lon="-0.23418">
        <ele>199.6000061</ele>
        <time>2011-12-18T10:49:26Z</time>
      </trkpt>
      <trkpt lat="48.90295" lon="-0.23404">
        <ele>199</ele>
        <time>2011-12-18T10:49:28Z</time>
      </trkpt>
      <trkpt lat="48.90294" lon="-0.23397">
        <ele>198.6000061</ele>
        <time>2011-12-18T10:49:29Z</time>
      </trkpt>
      <trkpt lat="48.90291" lon="-0.2339">
        <ele>198</ele>
        <time>2011-12-18T10:49:30Z</time>
      </trkpt>
      <trkpt lat="48.90288" lon="-0.23384">
        <ele>197.8000031</ele>
        <time>2011-12-18T10:49:31Z</time>
      </trkpt>
      <trkpt lat="48.90286" lon="-0.23377">
        <ele>197</ele>
        <time>2011-12-18T10:49:32Z</time>
      </trkpt>
      <trkpt lat="48.90282" lon="-0.23365">
        <ele>196.8000031</ele>
        <time>2011-12-18T10:49:34Z</time>
      </trkpt>
      <trkpt lat="48.9028" lon="-0.23359">
        <ele>196.1999969</ele>
        <time>2011-12-18T10:49:35Z</time>
      </trkpt>
      <trkpt lat="48.90279" lon="-0.23352">
        <ele>196</ele>
        <time>2011-12-18T10:49:36Z</time>
      </trkpt>
      <trkpt lat="48.90277" lon="-0.23345">
        <ele>195.6000061</ele>
        <time>2011-12-18T10:49:37Z</time>
      </trkpt>
      <trkpt lat="48.90275" lon="-0.23338">
        <ele>195</ele>
        <time>2011-12-18T10:49:38Z</time>
      </trkpt>
      <trkpt lat="48.90271" lon="-0.23325">
        <ele>195</ele>
        <time>2011-12-18T10:49:40Z</time>
      </trkpt>
      <trkpt lat="48.90262" lon="-0.23297">
        <ele>194.8000031</ele>
        <time>2011-12-18T10:49:44Z</time>
      </trkpt>
      <trkpt lat="48.90258" lon="-0.23289">
        <ele>194.1999969</ele>
        <time>2011-12-18T10:49:45Z</time>
      </trkpt>
      <trkpt lat="48.90256" lon="-0.2328">
        <ele>193.8000031</ele>
        <time>2011-12-18T10:49:46Z</time>
      </trkpt>
      <trkpt lat="48.90253" lon="-0.23272">
        <ele>193.1999969</ele>
        <time>2011-12-18T10:49:47Z</time>
      </trkpt>
      <trkpt lat="48.9025" lon="-0.23263">
        <ele>193</ele>
        <time>2011-12-18T10:49:48Z</time>
      </trkpt>
      <trkpt lat="48.90244" lon="-0.23244">
        <ele>192</ele>
        <time>2011-12-18T10:49:50Z</time>
      </trkpt>
      <trkpt lat="48.90241" lon="-0.23236">
        <ele>191.6000061</ele>
        <time>2011-12-18T10:49:51Z</time>
      </trkpt>
      <trkpt lat="48.90238" lon="-0.23229">
        <ele>191</ele>
        <time>2011-12-18T10:49:52Z</time>
      </trkpt>
      <trkpt lat="48.90235" lon="-0.23221">
        <ele>190.6000061</ele>
        <time>2011-12-18T10:49:53Z</time>
      </trkpt>
      <trkpt lat="48.90219" lon="-0.23181">
        <ele>190.6000061</ele>
        <time>2011-12-18T10:49:58Z</time>
      </trkpt>
      <trkpt lat="48.90202" lon="-0.23137">
        <ele>190.6000061</ele>
        <time>2011-12-18T10:50:04Z</time>
      </trkpt>
      <trkpt lat="48.9018" lon="-0.2308">
        <ele>190.6000061</ele>
        <time>2011-12-18T10:50:12Z</time>
      </trkpt>
      <trkpt lat="48.90175" lon="-0.23068">
        <ele>190.6000061</ele>
        <time>2011-12-18T10:50:14Z</time>
      </trkpt>
      <trkpt lat="48.90165" lon="-0.2304">
        <ele>190.6000061</ele>
        <time>2011-12-18T10:50:18Z</time>
      </trkpt>
      <trkpt lat="48.90157" lon="-0.23022">
        <ele>190.6000061</ele>
        <time>2011-12-18T10:50:21Z</time>
      </trkpt>
      <trkpt lat="48.9015" lon="-0.23005">
        <ele>190.6000061</ele>
        <time>2011-12-18T10:50:24Z</time>
      </trkpt>
      <trkpt lat="48.90147" lon="-0.22999">
        <ele>190.6000061</ele>
        <time>2011-12-18T10:50:25Z</time>
      </trkpt>
      <trkpt lat="48.90136" lon="-0.22973">
        <ele>190</ele>
        <time>2011-12-18T10:50:29Z</time>
      </trkpt>
      <trkpt lat="48.90133" lon="-0.22966">
        <ele>189.8000031</ele>
        <time>2011-12-18T10:50:30Z</time>
      </trkpt>
      <trkpt lat="48.9013" lon="-0.22959">
        <ele>189.1999969</ele>
        <time>2011-12-18T10:50:31Z</time>
      </trkpt>
      <trkpt lat="48.90127" lon="-0.22952">
        <ele>189</ele>
        <time>2011-12-18T10:50:32Z</time>
      </trkpt>
      <trkpt lat="48.90125" lon="-0.22945">
        <ele>188.6000061</ele>
        <time>2011-12-18T10:50:33Z</time>
      </trkpt>
      <trkpt lat="48.9011" lon="-0.22911">
        <ele>188.6000061</ele>
        <time>2011-12-18T10:50:38Z</time>
      </trkpt>
      <trkpt lat="48.90107" lon="-0.22904">
        <ele>188</ele>
        <time>2011-12-18T10:50:39Z</time>
      </trkpt>
      <trkpt lat="48.90104" lon="-0.22898">
        <ele>187</ele>
        <time>2011-12-18T10:50:40Z</time>
      </trkpt>
      <trkpt lat="48.901" lon="-0.22892">
        <ele>186.6000061</ele>
        <time>2011-12-18T10:50:41Z</time>
      </trkpt>
      <trkpt lat="48.90096" lon="-0.22885">
        <ele>186</ele>
        <time>2011-12-18T10:50:42Z</time>
      </trkpt>
      <trkpt lat="48.90089" lon="-0.22871">
        <ele>186</ele>
        <time>2011-12-18T10:50:44Z</time>
      </trkpt>
      <trkpt lat="48.90075" lon="-0.22849">
        <ele>185.8000031</ele>
        <time>2011-12-18T10:50:47Z</time>
      </trkpt>
      <trkpt lat="48.9007" lon="-0.22842">
        <ele>185</ele>
        <time>2011-12-18T10:50:48Z</time>
      </trkpt>
      <trkpt lat="48.90065" lon="-0.22834">
        <ele>184.8000031</ele>
        <time>2011-12-18T10:50:49Z</time>
      </trkpt>
      <trkpt lat="48.90059" lon="-0.22825">
        <ele>184.1999969</ele>
        <time>2011-12-18T10:50:50Z</time>
      </trkpt>
      <trkpt lat="48.90053" lon="-0.22816">
        <ele>183.8000031</ele>
        <time>2011-12-18T10:50:51Z</time>
      </trkpt>
      <trkpt lat="48.90048" lon="-0.22807">
        <ele>183</ele>
        <time>2011-12-18T10:50:52Z</time>
      </trkpt>
      <trkpt lat="48.90042" lon="-0.22799">
        <ele>182.6000061</ele>
        <time>2011-12-18T10:50:53Z</time>
      </trkpt>
      <trkpt lat="48.90037" lon="-0.2279">
        <ele>182</ele>
        <time>2011-12-18T10:50:54Z</time>
      </trkpt>
      <trkpt lat="48.90032" lon="-0.22781">
        <ele>181.6000061</ele>
        <time>2011-12-18T10:50:55Z</time>
      </trkpt>
      <trkpt lat="48.90023" lon="-0.22762">
        <ele>181.6000061</ele>
        <time>2011-12-18T10:50:57Z</time>
      </trkpt>
      <trkpt lat="48.90022" lon="-0.22752">
        <ele>181</ele>
        <time>2011-12-18T10:50:58Z</time>
      </trkpt>
      <trkpt lat="48.90021" lon="-0.22743">
        <ele>180.6000061</ele>
        <time>2011-12-18T10:50:59Z</time>
      </trkpt>
      <trkpt lat="48.90021" lon="-0.22735">
        <ele>180</ele>
        <time>2011-12-18T10:51:00Z</time>
      </trkpt>
      <trkpt lat="48.90021" lon="-0.22725">
        <ele>179.6000061</ele>
        <time>2011-12-18T10:51:01Z</time>
      </trkpt>
      <trkpt lat="48.90022" lon="-0.22716">
        <ele>179</ele>
        <time>2011-12-18T10:51:02Z</time>
      </trkpt>
      <trkpt lat="48.90022" lon="-0.22706">
        <ele>179</ele>
        <time>2011-12-18T10:51:03Z</time>
      </trkpt>
      <trkpt lat="48.90019" lon="-0.22665">
        <ele>179</ele>
        <time>2011-12-18T10:51:08Z</time>
      </trkpt>
      <trkpt lat="48.90017" lon="-0.22643">
        <ele>179.6000061</ele>
        <time>2011-12-18T10:51:11Z</time>
      </trkpt>
      <trkpt lat="48.90016" lon="-0.22636">
        <ele>180</ele>
        <time>2011-12-18T10:51:12Z</time>
      </trkpt>
      <trkpt lat="48.90014" lon="-0.22629">
        <ele>180.1999969</ele>
        <time>2011-12-18T10:51:13Z</time>
      </trkpt>
      <trkpt lat="48.90013" lon="-0.22622">
        <ele>180.8000031</ele>
        <time>2011-12-18T10:51:14Z</time>
      </trkpt>
      <trkpt lat="48.90011" lon="-0.22615">
        <ele>181.1999969</ele>
        <time>2011-12-18T10:51:15Z</time>
      </trkpt>
      <trkpt lat="48.90007" lon="-0.22601">
        <ele>181.1999969</ele>
        <time>2011-12-18T10:51:17Z</time>
      </trkpt>
      <trkpt lat="48.90003" lon="-0.22586">
        <ele>181.8000031</ele>
        <time>2011-12-18T10:51:19Z</time>
      </trkpt>
      <trkpt lat="48.90001" lon="-0.22579">
        <ele>182</ele>
        <time>2011-12-18T10:51:20Z</time>
      </trkpt>
      <trkpt lat="48.89998" lon="-0.22571">
        <ele>182.6000061</ele>
        <time>2011-12-18T10:51:21Z</time>
      </trkpt>
      <trkpt lat="48.89996" lon="-0.22563">
        <ele>183</ele>
        <time>2011-12-18T10:51:22Z</time>
      </trkpt>
      <trkpt lat="48.89994" lon="-0.22555">
        <ele>183.1999969</ele>
        <time>2011-12-18T10:51:23Z</time>
      </trkpt>
      <trkpt lat="48.89988" lon="-0.22539">
        <ele>183.1999969</ele>
        <time>2011-12-18T10:51:25Z</time>
      </trkpt>
      <trkpt lat="48.8997" lon="-0.22499">
        <ele>183.1999969</ele>
        <time>2011-12-18T10:51:31Z</time>
      </trkpt>
      <trkpt lat="48.89949" lon="-0.22454">
        <ele>183.1999969</ele>
        <time>2011-12-18T10:51:37Z</time>
      </trkpt>
      <trkpt lat="48.89923" lon="-0.22396">
        <ele>183.1999969</ele>
        <time>2011-12-18T10:51:44Z</time>
      </trkpt>
      <trkpt lat="48.89913" lon="-0.2237">
        <ele>183</ele>
        <time>2011-12-18T10:51:47Z</time>
      </trkpt>
      <trkpt lat="48.8991" lon="-0.2236">
        <ele>182.6000061</ele>
        <time>2011-12-18T10:51:48Z</time>
      </trkpt>
      <trkpt lat="48.89907" lon="-0.22351">
        <ele>182</ele>
        <time>2011-12-18T10:51:49Z</time>
      </trkpt>
      <trkpt lat="48.89904" lon="-0.22343">
        <ele>181.8000031</ele>
        <time>2011-12-18T10:51:50Z</time>
      </trkpt>
      <trkpt lat="48.899" lon="-0.22334">
        <ele>181.1999969</ele>
        <time>2011-12-18T10:51:51Z</time>
      </trkpt>
      <trkpt lat="48.89878" lon="-0.22273">
        <ele>181.1999969</ele>
        <time>2011-12-18T10:51:58Z</time>
      </trkpt>
      <trkpt lat="48.89859" lon="-0.22232">
        <ele>181.1999969</ele>
        <time>2011-12-18T10:52:03Z</time>
      </trkpt>
      <trkpt lat="48.8983" lon="-0.22176">
        <ele>181</ele>
        <time>2011-12-18T10:52:10Z</time>
      </trkpt>
      <trkpt lat="48.89827" lon="-0.22168">
        <ele>180.6000061</ele>
        <time>2011-12-18T10:52:11Z</time>
      </trkpt>
      <trkpt lat="48.89824" lon="-0.2216">
        <ele>180</ele>
        <time>2011-12-18T10:52:12Z</time>
      </trkpt>
      <trkpt lat="48.89821" lon="-0.22153">
        <ele>179.8000031</ele>
        <time>2011-12-18T10:52:13Z</time>
      </trkpt>
      <trkpt lat="48.89818" lon="-0.22145">
        <ele>179.1999969</ele>
        <time>2011-12-18T10:52:14Z</time>
      </trkpt>
      <trkpt lat="48.89814" lon="-0.22131">
        <ele>179.1999969</ele>
        <time>2011-12-18T10:52:16Z</time>
      </trkpt>
      <trkpt lat="48.89797" lon="-0.22084">
        <ele>179.1999969</ele>
        <time>2011-12-18T10:52:23Z</time>
      </trkpt>
      <trkpt lat="48.89795" lon="-0.22078">
        <ele>179.1999969</ele>
        <time>2011-12-18T10:52:24Z</time>
      </trkpt>
      <trkpt lat="48.89785" lon="-0.22051">
        <ele>179.8000031</ele>
        <time>2011-12-18T10:52:29Z</time>
      </trkpt>
      <trkpt lat="48.89784" lon="-0.22046">
        <ele>180</ele>
        <time>2011-12-18T10:52:30Z</time>
      </trkpt>
      <trkpt lat="48.89783" lon="-0.22042">
        <ele>180.6000061</ele>
        <time>2011-12-18T10:52:31Z</time>
      </trkpt>
      <trkpt lat="48.89781" lon="-0.22037">
        <ele>181</ele>
        <time>2011-12-18T10:52:32Z</time>
      </trkpt>
      <trkpt lat="48.8978" lon="-0.22033">
        <ele>181.1999969</ele>
        <time>2011-12-18T10:52:33Z</time>
      </trkpt>
      <trkpt lat="48.89775" lon="-0.22021">
        <ele>181.1999969</ele>
        <time>2011-12-18T10:52:36Z</time>
      </trkpt>
      <trkpt lat="48.89773" lon="-0.22014">
        <ele>181.1999969</ele>
        <time>2011-12-18T10:52:38Z</time>
      </trkpt>
      <trkpt lat="48.89768" lon="-0.22004">
        <ele>181.1999969</ele>
        <time>2011-12-18T10:52:41Z</time>
      </trkpt>
      <trkpt lat="48.89768" lon="-0.22002">
        <ele>181.1999969</ele>
        <time>2011-12-18T10:52:43Z</time>
      </trkpt>
      <trkpt lat="48.89768" lon="-0.22002">
        <ele>181.1999969</ele>
        <time>2011-12-18T10:52:44Z</time>
      </trkpt>
      <trkpt lat="48.89768" lon="-0.22">
        <ele>181.1999969</ele>
        <time>2011-12-18T10:52:49Z</time>
      </trkpt>
      <trkpt lat="48.89768" lon="-0.21992">
        <ele>181.1999969</ele>
        <time>2011-12-18T10:52:52Z</time>
      </trkpt>
      <trkpt lat="48.89769" lon="-0.21985">
        <ele>181.1999969</ele>
        <time>2011-12-18T10:52:54Z</time>
      </trkpt>
      <trkpt lat="48.89772" lon="-0.21973">
        <ele>181.1999969</ele>
        <time>2011-12-18T10:52:57Z</time>
      </trkpt>
      <trkpt lat="48.89774" lon="-0.21969">
        <ele>181.1999969</ele>
        <time>2011-12-18T10:52:58Z</time>
      </trkpt>
      <trkpt lat="48.89777" lon="-0.21959">
        <ele>181</ele>
        <time>2011-12-18T10:53:00Z</time>
      </trkpt>
      <trkpt lat="48.89778" lon="-0.21954">
        <ele>180.6000061</ele>
        <time>2011-12-18T10:53:01Z</time>
      </trkpt>
      <trkpt lat="48.89779" lon="-0.21948">
        <ele>180</ele>
        <time>2011-12-18T10:53:02Z</time>
      </trkpt>
      <trkpt lat="48.89781" lon="-0.21942">
        <ele>179.6000061</ele>
        <time>2011-12-18T10:53:03Z</time>
      </trkpt>
      <trkpt lat="48.89783" lon="-0.21936">
        <ele>179</ele>
        <time>2011-12-18T10:53:04Z</time>
      </trkpt>
      <trkpt lat="48.89792" lon="-0.21906">
        <ele>178.8000031</ele>
        <time>2011-12-18T10:53:08Z</time>
      </trkpt>
      <trkpt lat="48.89795" lon="-0.21897">
        <ele>178.1999969</ele>
        <time>2011-12-18T10:53:09Z</time>
      </trkpt>
      <trkpt lat="48.89798" lon="-0.21889">
        <ele>178</ele>
        <time>2011-12-18T10:53:10Z</time>
      </trkpt>
      <trkpt lat="48.89802" lon="-0.21881">
        <ele>177.6000061</ele>
        <time>2011-12-18T10:53:11Z</time>
      </trkpt>
      <trkpt lat="48.89807" lon="-0.21873">
        <ele>177</ele>
        <time>2011-12-18T10:53:12Z</time>
      </trkpt>
      <trkpt lat="48.89811" lon="-0.21865">
        <ele>176.8000031</ele>
        <time>2011-12-18T10:53:13Z</time>
      </trkpt>
      <trkpt lat="48.89816" lon="-0.21856">
        <ele>176.1999969</ele>
        <time>2011-12-18T10:53:14Z</time>
      </trkpt>
      <trkpt lat="48.8982" lon="-0.21847">
        <ele>175.8000031</ele>
        <time>2011-12-18T10:53:15Z</time>
      </trkpt>
      <trkpt lat="48.89826" lon="-0.21838">
        <ele>175.1999969</ele>
        <time>2011-12-18T10:53:16Z</time>
      </trkpt>
      <trkpt lat="48.89831" lon="-0.2183">
        <ele>174.8000031</ele>
        <time>2011-12-18T10:53:17Z</time>
      </trkpt>
      <trkpt lat="48.89837" lon="-0.2182">
        <ele>174.1999969</ele>
        <time>2011-12-18T10:53:18Z</time>
      </trkpt>
      <trkpt lat="48.89842" lon="-0.21812">
        <ele>173.8000031</ele>
        <time>2011-12-18T10:53:19Z</time>
      </trkpt>
      <trkpt lat="48.89847" lon="-0.21803">
        <ele>173</ele>
        <time>2011-12-18T10:53:20Z</time>
      </trkpt>
      <trkpt lat="48.89853" lon="-0.21795">
        <ele>172.6000061</ele>
        <time>2011-12-18T10:53:21Z</time>
      </trkpt>
      <trkpt lat="48.89863" lon="-0.21779">
        <ele>172</ele>
        <time>2011-12-18T10:53:23Z</time>
      </trkpt>
      <trkpt lat="48.89866" lon="-0.21772">
        <ele>171.8000031</ele>
        <time>2011-12-18T10:53:24Z</time>
      </trkpt>
      <trkpt lat="48.89868" lon="-0.21763">
        <ele>171</ele>
        <time>2011-12-18T10:53:25Z</time>
      </trkpt>
      <trkpt lat="48.89867" lon="-0.21755">
        <ele>170.8000031</ele>
        <time>2011-12-18T10:53:26Z</time>
      </trkpt>
      <trkpt lat="48.89865" lon="-0.21748">
        <ele>170.1999969</ele>
        <time>2011-12-18T10:53:27Z</time>
      </trkpt>
      <trkpt lat="48.89863" lon="-0.21746">
        <ele>170.1999969</ele>
        <time>2011-12-18T10:53:28Z</time>
      </trkpt>
      <trkpt lat="48.8986" lon="-0.21745">
        <ele>170</ele>
        <time>2011-12-18T10:53:30Z</time>
      </trkpt>
      <trkpt lat="48.89861" lon="-0.21745">
        <ele>169.6000061</ele>
        <time>2011-12-18T10:53:31Z</time>
      </trkpt>
      <trkpt lat="48.89862" lon="-0.21746">
        <ele>168.1999969</ele>
        <time>2011-12-18T10:53:35Z</time>
      </trkpt>
      <trkpt lat="48.89863" lon="-0.21752">
        <ele>168.1999969</ele>
        <time>2011-12-18T10:53:37Z</time>
      </trkpt>
      <trkpt lat="48.89875" lon="-0.21757">
        <ele>168.1999969</ele>
        <time>2011-12-18T10:53:41Z</time>
      </trkpt>
      <trkpt lat="48.89888" lon="-0.21747">
        <ele>168.1999969</ele>
        <time>2011-12-18T10:53:44Z</time>
      </trkpt>
      <trkpt lat="48.89893" lon="-0.21742">
        <ele>168.1999969</ele>
        <time>2011-12-18T10:53:45Z</time>
      </trkpt>
      <trkpt lat="48.89904" lon="-0.21734">
        <ele>168</ele>
        <time>2011-12-18T10:53:47Z</time>
      </trkpt>
      <trkpt lat="48.89909" lon="-0.2173">
        <ele>167.6000061</ele>
        <time>2011-12-18T10:53:48Z</time>
      </trkpt>
      <trkpt lat="48.89915" lon="-0.21726">
        <ele>167</ele>
        <time>2011-12-18T10:53:49Z</time>
      </trkpt>
      <trkpt lat="48.89922" lon="-0.21722">
        <ele>166.6000061</ele>
        <time>2011-12-18T10:53:50Z</time>
      </trkpt>
      <trkpt lat="48.89928" lon="-0.21719">
        <ele>166</ele>
        <time>2011-12-18T10:53:51Z</time>
      </trkpt>
      <trkpt lat="48.89943" lon="-0.21712">
        <ele>165.8000031</ele>
        <time>2011-12-18T10:53:53Z</time>
      </trkpt>
      <trkpt lat="48.89951" lon="-0.21709">
        <ele>165</ele>
        <time>2011-12-18T10:53:54Z</time>
      </trkpt>
      <trkpt lat="48.89958" lon="-0.21705">
        <ele>164.8000031</ele>
        <time>2011-12-18T10:53:55Z</time>
      </trkpt>
      <trkpt lat="48.89966" lon="-0.21701">
        <ele>164</ele>
        <time>2011-12-18T10:53:56Z</time>
      </trkpt>
      <trkpt lat="48.89974" lon="-0.21696">
        <ele>163.8000031</ele>
        <time>2011-12-18T10:53:57Z</time>
      </trkpt>
      <trkpt lat="48.89981" lon="-0.21689">
        <ele>162.8000031</ele>
        <time>2011-12-18T10:53:58Z</time>
      </trkpt>
      <trkpt lat="48.89989" lon="-0.21682">
        <ele>162.1999969</ele>
        <time>2011-12-18T10:53:59Z</time>
      </trkpt>
      <trkpt lat="48.89996" lon="-0.21673">
        <ele>162</ele>
        <time>2011-12-18T10:54:00Z</time>
      </trkpt>
      <trkpt lat="48.90003" lon="-0.21664">
        <ele>161.1999969</ele>
        <time>2011-12-18T10:54:01Z</time>
      </trkpt>
      <trkpt lat="48.90008" lon="-0.21654">
        <ele>161</ele>
        <time>2011-12-18T10:54:02Z</time>
      </trkpt>
      <trkpt lat="48.90014" lon="-0.21643">
        <ele>160.1999969</ele>
        <time>2011-12-18T10:54:03Z</time>
      </trkpt>
      <trkpt lat="48.90019" lon="-0.21632">
        <ele>160</ele>
        <time>2011-12-18T10:54:04Z</time>
      </trkpt>
      <trkpt lat="48.90024" lon="-0.2162">
        <ele>159.6000061</ele>
        <time>2011-12-18T10:54:05Z</time>
      </trkpt>
      <trkpt lat="48.90027" lon="-0.21607">
        <ele>159</ele>
        <time>2011-12-18T10:54:06Z</time>
      </trkpt>
      <trkpt lat="48.90031" lon="-0.21595">
        <ele>158.6000061</ele>
        <time>2011-12-18T10:54:07Z</time>
      </trkpt>
      <trkpt lat="48.90034" lon="-0.21582">
        <ele>158</ele>
        <time>2011-12-18T10:54:08Z</time>
      </trkpt>
      <trkpt lat="48.90036" lon="-0.2157">
        <ele>157.6000061</ele>
        <time>2011-12-18T10:54:09Z</time>
      </trkpt>
      <trkpt lat="48.90039" lon="-0.21558">
        <ele>157</ele>
        <time>2011-12-18T10:54:10Z</time>
      </trkpt>
      <trkpt lat="48.90048" lon="-0.21524">
        <ele>157</ele>
        <time>2011-12-18T10:54:13Z</time>
      </trkpt>
      <trkpt lat="48.90052" lon="-0.21505">
        <ele>157</ele>
        <time>2011-12-18T10:54:15Z</time>
      </trkpt>
      <trkpt lat="48.90057" lon="-0.21466">
        <ele>157</ele>
        <time>2011-12-18T10:54:19Z</time>
      </trkpt>
      <trkpt lat="48.90056" lon="-0.21455">
        <ele>157</ele>
        <time>2011-12-18T10:54:20Z</time>
      </trkpt>
      <trkpt lat="48.90053" lon="-0.21449">
        <ele>157</ele>
        <time>2011-12-18T10:54:21Z</time>
      </trkpt>
      <trkpt lat="48.90042" lon="-0.21442">
        <ele>157</ele>
        <time>2011-12-18T10:54:23Z</time>
      </trkpt>
      <trkpt lat="48.90024" lon="-0.21455">
        <ele>157</ele>
        <time>2011-12-18T10:54:26Z</time>
      </trkpt>
      <trkpt lat="48.90016" lon="-0.2148">
        <ele>157</ele>
        <time>2011-12-18T10:54:29Z</time>
      </trkpt>
      <trkpt lat="48.90013" lon="-0.21497">
        <ele>157</ele>
        <time>2011-12-18T10:54:31Z</time>
      </trkpt>
      <trkpt lat="48.9001" lon="-0.21504">
        <ele>157</ele>
        <time>2011-12-18T10:54:32Z</time>
      </trkpt>
      <trkpt lat="48.90007" lon="-0.21511">
        <ele>157</ele>
        <time>2011-12-18T10:54:33Z</time>
      </trkpt>
      <trkpt lat="48.90003" lon="-0.21517">
        <ele>157</ele>
        <time>2011-12-18T10:54:34Z</time>
      </trkpt>
      <trkpt lat="48.89995" lon="-0.21526">
        <ele>157</ele>
        <time>2011-12-18T10:54:36Z</time>
      </trkpt>
      <trkpt lat="48.89986" lon="-0.2153">
        <ele>157</ele>
        <time>2011-12-18T10:54:38Z</time>
      </trkpt>
      <trkpt lat="48.89981" lon="-0.21532">
        <ele>157</ele>
        <time>2011-12-18T10:54:39Z</time>
      </trkpt>
      <trkpt lat="48.89972" lon="-0.21535">
        <ele>157.1999969</ele>
        <time>2011-12-18T10:54:41Z</time>
      </trkpt>
      <trkpt lat="48.89967" lon="-0.21536">
        <ele>157.8000031</ele>
        <time>2011-12-18T10:54:42Z</time>
      </trkpt>
      <trkpt lat="48.89963" lon="-0.21538">
        <ele>158</ele>
        <time>2011-12-18T10:54:43Z</time>
      </trkpt>
      <trkpt lat="48.89959" lon="-0.21539">
        <ele>158.6000061</ele>
        <time>2011-12-18T10:54:44Z</time>
      </trkpt>
      <trkpt lat="48.89955" lon="-0.21541">
        <ele>159</ele>
        <time>2011-12-18T10:54:45Z</time>
      </trkpt>
      <trkpt lat="48.89951" lon="-0.21542">
        <ele>159</ele>
        <time>2011-12-18T10:54:46Z</time>
      </trkpt>
      <trkpt lat="48.89919" lon="-0.21551">
        <ele>159</ele>
        <time>2011-12-18T10:54:53Z</time>
      </trkpt>
      <trkpt lat="48.89915" lon="-0.21552">
        <ele>159</ele>
        <time>2011-12-18T10:54:54Z</time>
      </trkpt>
      <trkpt lat="48.8989" lon="-0.2156">
        <ele>159</ele>
        <time>2011-12-18T10:54:59Z</time>
      </trkpt>
      <trkpt lat="48.89875" lon="-0.21564">
        <ele>159</ele>
        <time>2011-12-18T10:55:02Z</time>
      </trkpt>
      <trkpt lat="48.89853" lon="-0.21572">
        <ele>159.1999969</ele>
        <time>2011-12-18T10:55:07Z</time>
      </trkpt>
      <trkpt lat="48.89849" lon="-0.21573">
        <ele>159.8000031</ele>
        <time>2011-12-18T10:55:08Z</time>
      </trkpt>
      <trkpt lat="48.89845" lon="-0.21573">
        <ele>160</ele>
        <time>2011-12-18T10:55:09Z</time>
      </trkpt>
      <trkpt lat="48.89841" lon="-0.21574">
        <ele>160.6000061</ele>
        <time>2011-12-18T10:55:10Z</time>
      </trkpt>
      <trkpt lat="48.89837" lon="-0.21576">
        <ele>161</ele>
        <time>2011-12-18T10:55:11Z</time>
      </trkpt>
      <trkpt lat="48.89826" lon="-0.21578">
        <ele>161.1999969</ele>
        <time>2011-12-18T10:55:14Z</time>
      </trkpt>
      <trkpt lat="48.89823" lon="-0.21578">
        <ele>161.8000031</ele>
        <time>2011-12-18T10:55:15Z</time>
      </trkpt>
      <trkpt lat="48.89819" lon="-0.21579">
        <ele>162</ele>
        <time>2011-12-18T10:55:16Z</time>
      </trkpt>
      <trkpt lat="48.89815" lon="-0.2158">
        <ele>162.6000061</ele>
        <time>2011-12-18T10:55:17Z</time>
      </trkpt>
      <trkpt lat="48.89811" lon="-0.21581">
        <ele>163</ele>
        <time>2011-12-18T10:55:18Z</time>
      </trkpt>
      <trkpt lat="48.89804" lon="-0.21582">
        <ele>163.6000061</ele>
        <time>2011-12-18T10:55:20Z</time>
      </trkpt>
      <trkpt lat="48.898" lon="-0.21582">
        <ele>164</ele>
        <time>2011-12-18T10:55:21Z</time>
      </trkpt>
      <trkpt lat="48.89797" lon="-0.21581">
        <ele>164.1999969</ele>
        <time>2011-12-18T10:55:22Z</time>
      </trkpt>
      <trkpt lat="48.89794" lon="-0.2158">
        <ele>164.8000031</ele>
        <time>2011-12-18T10:55:23Z</time>
      </trkpt>
      <trkpt lat="48.89791" lon="-0.21578">
        <ele>165</ele>
        <time>2011-12-18T10:55:24Z</time>
      </trkpt>
      <trkpt lat="48.89784" lon="-0.21571">
        <ele>165.6000061</ele>
        <time>2011-12-18T10:55:26Z</time>
      </trkpt>
      <trkpt lat="48.89781" lon="-0.21566">
        <ele>166</ele>
        <time>2011-12-18T10:55:27Z</time>
      </trkpt>
      <trkpt lat="48.89778" lon="-0.21562">
        <ele>166.1999969</ele>
        <time>2011-12-18T10:55:28Z</time>
      </trkpt>
      <trkpt lat="48.89775" lon="-0.21557">
        <ele>166.8000031</ele>
        <time>2011-12-18T10:55:29Z</time>
      </trkpt>
      <trkpt lat="48.89773" lon="-0.21552">
        <ele>167</ele>
        <time>2011-12-18T10:55:30Z</time>
      </trkpt>
      <trkpt lat="48.89762" lon="-0.2153">
        <ele>167</ele>
        <time>2011-12-18T10:55:34Z</time>
      </trkpt>
      <trkpt lat="48.89759" lon="-0.21526">
        <ele>167</ele>
        <time>2011-12-18T10:55:35Z</time>
      </trkpt>
      <trkpt lat="48.8974" lon="-0.21499">
        <ele>167</ele>
        <time>2011-12-18T10:55:41Z</time>
      </trkpt>
      <trkpt lat="48.89737" lon="-0.21494">
        <ele>167</ele>
        <time>2011-12-18T10:55:42Z</time>
      </trkpt>
      <trkpt lat="48.89708" lon="-0.21456">
        <ele>167</ele>
        <time>2011-12-18T10:55:50Z</time>
      </trkpt>
      <trkpt lat="48.89697" lon="-0.21433">
        <ele>167</ele>
        <time>2011-12-18T10:55:54Z</time>
      </trkpt>
      <trkpt lat="48.89689" lon="-0.21421">
        <ele>167</ele>
        <time>2011-12-18T10:55:56Z</time>
      </trkpt>
      <trkpt lat="48.89658" lon="-0.21371">
        <ele>167</ele>
        <time>2011-12-18T10:56:04Z</time>
      </trkpt>
      <trkpt lat="48.89643" lon="-0.21345">
        <ele>167</ele>
        <time>2011-12-18T10:56:08Z</time>
      </trkpt>
      <trkpt lat="48.89631" lon="-0.21324">
        <ele>167</ele>
        <time>2011-12-18T10:56:11Z</time>
      </trkpt>
      <trkpt lat="48.89608" lon="-0.21275">
        <ele>167</ele>
        <time>2011-12-18T10:56:18Z</time>
      </trkpt>
      <trkpt lat="48.89605" lon="-0.21268">
        <ele>167</ele>
        <time>2011-12-18T10:56:19Z</time>
      </trkpt>
      <trkpt lat="48.89595" lon="-0.21246">
        <ele>167</ele>
        <time>2011-12-18T10:56:22Z</time>
      </trkpt>
      <trkpt lat="48.8959" lon="-0.21233">
        <ele>167</ele>
        <time>2011-12-18T10:56:24Z</time>
      </trkpt>
      <trkpt lat="48.89585" lon="-0.2122">
        <ele>167</ele>
        <time>2011-12-18T10:56:26Z</time>
      </trkpt>
      <trkpt lat="48.89572" lon="-0.21182">
        <ele>166.8000031</ele>
        <time>2011-12-18T10:56:32Z</time>
      </trkpt>
      <trkpt lat="48.89569" lon="-0.21175">
        <ele>166.1999969</ele>
        <time>2011-12-18T10:56:33Z</time>
      </trkpt>
      <trkpt lat="48.89568" lon="-0.21168">
        <ele>166</ele>
        <time>2011-12-18T10:56:34Z</time>
      </trkpt>
      <trkpt lat="48.89566" lon="-0.21162">
        <ele>165.6000061</ele>
        <time>2011-12-18T10:56:35Z</time>
      </trkpt>
      <trkpt lat="48.89566" lon="-0.21155">
        <ele>165</ele>
        <time>2011-12-18T10:56:36Z</time>
      </trkpt>
      <trkpt lat="48.89564" lon="-0.21142">
        <ele>165</ele>
        <time>2011-12-18T10:56:38Z</time>
      </trkpt>
      <trkpt lat="48.89567" lon="-0.21099">
        <ele>165</ele>
        <time>2011-12-18T10:56:44Z</time>
      </trkpt>
      <trkpt lat="48.89568" lon="-0.21091">
        <ele>165</ele>
        <time>2011-12-18T10:56:45Z</time>
      </trkpt>
      <trkpt lat="48.89569" lon="-0.21083">
        <ele>165</ele>
        <time>2011-12-18T10:56:46Z</time>
      </trkpt>
      <trkpt lat="48.89569" lon="-0.21075">
        <ele>164.8000031</ele>
        <time>2011-12-18T10:56:47Z</time>
      </trkpt>
      <trkpt lat="48.89569" lon="-0.21068">
        <ele>164.1999969</ele>
        <time>2011-12-18T10:56:48Z</time>
      </trkpt>
      <trkpt lat="48.89569" lon="-0.21061">
        <ele>163.6000061</ele>
        <time>2011-12-18T10:56:49Z</time>
      </trkpt>
      <trkpt lat="48.89569" lon="-0.21053">
        <ele>163</ele>
        <time>2011-12-18T10:56:50Z</time>
      </trkpt>
      <trkpt lat="48.89568" lon="-0.21045">
        <ele>162.8000031</ele>
        <time>2011-12-18T10:56:51Z</time>
      </trkpt>
      <trkpt lat="48.89567" lon="-0.21037">
        <ele>162</ele>
        <time>2011-12-18T10:56:52Z</time>
      </trkpt>
      <trkpt lat="48.89566" lon="-0.21028">
        <ele>161.8000031</ele>
        <time>2011-12-18T10:56:53Z</time>
      </trkpt>
      <trkpt lat="48.89565" lon="-0.21018">
        <ele>161.1999969</ele>
        <time>2011-12-18T10:56:54Z</time>
      </trkpt>
      <trkpt lat="48.89564" lon="-0.21006">
        <ele>160.8000031</ele>
        <time>2011-12-18T10:56:55Z</time>
      </trkpt>
      <trkpt lat="48.89564" lon="-0.20994">
        <ele>160</ele>
        <time>2011-12-18T10:56:56Z</time>
      </trkpt>
      <trkpt lat="48.89566" lon="-0.2098">
        <ele>159.8000031</ele>
        <time>2011-12-18T10:56:57Z</time>
      </trkpt>
      <trkpt lat="48.89568" lon="-0.20966">
        <ele>159</ele>
        <time>2011-12-18T10:56:58Z</time>
      </trkpt>
      <trkpt lat="48.8957" lon="-0.20953">
        <ele>158.1999969</ele>
        <time>2011-12-18T10:56:59Z</time>
      </trkpt>
      <trkpt lat="48.89572" lon="-0.20939">
        <ele>157.8000031</ele>
        <time>2011-12-18T10:57:00Z</time>
      </trkpt>
      <trkpt lat="48.89574" lon="-0.20925">
        <ele>157</ele>
        <time>2011-12-18T10:57:01Z</time>
      </trkpt>
      <trkpt lat="48.89577" lon="-0.20911">
        <ele>156</ele>
        <time>2011-12-18T10:57:02Z</time>
      </trkpt>
      <trkpt lat="48.89579" lon="-0.20898">
        <ele>155.1999969</ele>
        <time>2011-12-18T10:57:03Z</time>
      </trkpt>
      <trkpt lat="48.89582" lon="-0.20885">
        <ele>154.6000061</ele>
        <time>2011-12-18T10:57:04Z</time>
      </trkpt>
      <trkpt lat="48.89586" lon="-0.2087">
        <ele>153.8000031</ele>
        <time>2011-12-18T10:57:05Z</time>
      </trkpt>
      <trkpt lat="48.8959" lon="-0.20857">
        <ele>153</ele>
        <time>2011-12-18T10:57:06Z</time>
      </trkpt>
      <trkpt lat="48.89595" lon="-0.20845">
        <ele>152.1999969</ele>
        <time>2011-12-18T10:57:07Z</time>
      </trkpt>
      <trkpt lat="48.896" lon="-0.20833">
        <ele>151.6000061</ele>
        <time>2011-12-18T10:57:08Z</time>
      </trkpt>
      <trkpt lat="48.89606" lon="-0.20824">
        <ele>151</ele>
        <time>2011-12-18T10:57:09Z</time>
      </trkpt>
      <trkpt lat="48.89612" lon="-0.20815">
        <ele>150.6000061</ele>
        <time>2011-12-18T10:57:10Z</time>
      </trkpt>
      <trkpt lat="48.89619" lon="-0.20806">
        <ele>150</ele>
        <time>2011-12-18T10:57:11Z</time>
      </trkpt>
      <trkpt lat="48.89626" lon="-0.20797">
        <ele>149</ele>
        <time>2011-12-18T10:57:12Z</time>
      </trkpt>
      <trkpt lat="48.89632" lon="-0.20788">
        <ele>148.6000061</ele>
        <time>2011-12-18T10:57:13Z</time>
      </trkpt>
      <trkpt lat="48.89638" lon="-0.2078">
        <ele>147</ele>
        <time>2011-12-18T10:57:14Z</time>
      </trkpt>
      <trkpt lat="48.89649" lon="-0.20761">
        <ele>146.6000061</ele>
        <time>2011-12-18T10:57:16Z</time>
      </trkpt>
      <trkpt lat="48.89653" lon="-0.2075">
        <ele>146</ele>
        <time>2011-12-18T10:57:17Z</time>
      </trkpt>
      <trkpt lat="48.89657" lon="-0.2074">
        <ele>145.6000061</ele>
        <time>2011-12-18T10:57:18Z</time>
      </trkpt>
      <trkpt lat="48.8966" lon="-0.20728">
        <ele>145</ele>
        <time>2011-12-18T10:57:19Z</time>
      </trkpt>
      <trkpt lat="48.89661" lon="-0.20717">
        <ele>144.1999969</ele>
        <time>2011-12-18T10:57:20Z</time>
      </trkpt>
      <trkpt lat="48.89662" lon="-0.20705">
        <ele>143.8000031</ele>
        <time>2011-12-18T10:57:21Z</time>
      </trkpt>
      <trkpt lat="48.89663" lon="-0.20694">
        <ele>143</ele>
        <time>2011-12-18T10:57:22Z</time>
      </trkpt>
      <trkpt lat="48.89662" lon="-0.20684">
        <ele>142</ele>
        <time>2011-12-18T10:57:23Z</time>
      </trkpt>
      <trkpt lat="48.89657" lon="-0.20674">
        <ele>141.1999969</ele>
        <time>2011-12-18T10:57:24Z</time>
      </trkpt>
      <trkpt lat="48.89652" lon="-0.20666">
        <ele>140.6000061</ele>
        <time>2011-12-18T10:57:25Z</time>
      </trkpt>
      <trkpt lat="48.89646" lon="-0.20658">
        <ele>139.1999969</ele>
        <time>2011-12-18T10:57:26Z</time>
      </trkpt>
      <trkpt lat="48.89639" lon="-0.20649">
        <ele>138</ele>
        <time>2011-12-18T10:57:27Z</time>
      </trkpt>
      <trkpt lat="48.89633" lon="-0.20642">
        <ele>137</ele>
        <time>2011-12-18T10:57:28Z</time>
      </trkpt>
      <trkpt lat="48.89628" lon="-0.20636">
        <ele>136</ele>
        <time>2011-12-18T10:57:29Z</time>
      </trkpt>
      <trkpt lat="48.89624" lon="-0.20631">
        <ele>134.8000031</ele>
        <time>2011-12-18T10:57:30Z</time>
      </trkpt>
      <trkpt lat="48.89621" lon="-0.20628">
        <ele>133.8000031</ele>
        <time>2011-12-18T10:57:31Z</time>
      </trkpt>
      <trkpt lat="48.89619" lon="-0.20627">
        <ele>132.8000031</ele>
        <time>2011-12-18T10:57:32Z</time>
      </trkpt>
      <trkpt lat="48.89618" lon="-0.20625">
        <ele>131.8000031</ele>
        <time>2011-12-18T10:57:33Z</time>
      </trkpt>
      <trkpt lat="48.89617" lon="-0.20626">
        <ele>131</ele>
        <time>2011-12-18T10:57:34Z</time>
      </trkpt>
      <trkpt lat="48.89614" lon="-0.20624">
        <ele>130</ele>
        <time>2011-12-18T10:57:40Z</time>
      </trkpt>
      <trkpt lat="48.89613" lon="-0.20623">
        <ele>130</ele>
        <time>2011-12-18T10:57:41Z</time>
      </trkpt>
      <trkpt lat="48.8961" lon="-0.20623">
        <ele>130</ele>
        <time>2011-12-18T10:57:42Z</time>
      </trkpt>
      <trkpt lat="48.89604" lon="-0.20621">
        <ele>130</ele>
        <time>2011-12-18T10:57:45Z</time>
      </trkpt>
      <trkpt lat="48.89604" lon="-0.20621">
        <ele>130</ele>
        <time>2011-12-18T10:57:46Z</time>
      </trkpt>
      <trkpt lat="48.89602" lon="-0.20616">
        <ele>128</ele>
        <time>2011-12-18T10:57:57Z</time>
      </trkpt>
      <trkpt lat="48.896" lon="-0.20614">
        <ele>127.4000015</ele>
        <time>2011-12-18T10:57:58Z</time>
      </trkpt>
      <trkpt lat="48.89597" lon="-0.2061">
        <ele>127</ele>
        <time>2011-12-18T10:57:59Z</time>
      </trkpt>
      <trkpt lat="48.89594" lon="-0.20606">
        <ele>126.4000015</ele>
        <time>2011-12-18T10:58:00Z</time>
      </trkpt>
      <trkpt lat="48.89591" lon="-0.20601">
        <ele>126</ele>
        <time>2011-12-18T10:58:01Z</time>
      </trkpt>
      <trkpt lat="48.89587" lon="-0.20596">
        <ele>125.8000031</ele>
        <time>2011-12-18T10:58:02Z</time>
      </trkpt>
      <trkpt lat="48.89581" lon="-0.20582">
        <ele>124.8000031</ele>
        <time>2011-12-18T10:58:04Z</time>
      </trkpt>
      <trkpt lat="48.89578" lon="-0.20573">
        <ele>124.4000015</ele>
        <time>2011-12-18T10:58:05Z</time>
      </trkpt>
      <trkpt lat="48.89574" lon="-0.20563">
        <ele>124</ele>
        <time>2011-12-18T10:58:06Z</time>
      </trkpt>
      <trkpt lat="48.89571" lon="-0.20552">
        <ele>123.4000015</ele>
        <time>2011-12-18T10:58:07Z</time>
      </trkpt>
      <trkpt lat="48.89568" lon="-0.2054">
        <ele>123</ele>
        <time>2011-12-18T10:58:08Z</time>
      </trkpt>
      <trkpt lat="48.89565" lon="-0.20528">
        <ele>122.4000015</ele>
        <time>2011-12-18T10:58:09Z</time>
      </trkpt>
      <trkpt lat="48.89563" lon="-0.20516">
        <ele>121.8000031</ele>
        <time>2011-12-18T10:58:10Z</time>
      </trkpt>
      <trkpt lat="48.89562" lon="-0.20504">
        <ele>121</ele>
        <time>2011-12-18T10:58:11Z</time>
      </trkpt>
      <trkpt lat="48.89561" lon="-0.20491">
        <ele>120.4000015</ele>
        <time>2011-12-18T10:58:12Z</time>
      </trkpt>
      <trkpt lat="48.89561" lon="-0.20478">
        <ele>120</ele>
        <time>2011-12-18T10:58:13Z</time>
      </trkpt>
      <trkpt lat="48.89561" lon="-0.20465">
        <ele>119.4000015</ele>
        <time>2011-12-18T10:58:14Z</time>
      </trkpt>
      <trkpt lat="48.89562" lon="-0.20451">
        <ele>118.8000031</ele>
        <time>2011-12-18T10:58:15Z</time>
      </trkpt>
      <trkpt lat="48.89563" lon="-0.20438">
        <ele>118</ele>
        <time>2011-12-18T10:58:16Z</time>
      </trkpt>
      <trkpt lat="48.89564" lon="-0.20426">
        <ele>117.4000015</ele>
        <time>2011-12-18T10:58:17Z</time>
      </trkpt>
      <trkpt lat="48.89564" lon="-0.20415">
        <ele>117</ele>
        <time>2011-12-18T10:58:18Z</time>
      </trkpt>
      <trkpt lat="48.89562" lon="-0.20403">
        <ele>116.4000015</ele>
        <time>2011-12-18T10:58:19Z</time>
      </trkpt>
      <trkpt lat="48.8956" lon="-0.20392">
        <ele>116</ele>
        <time>2011-12-18T10:58:20Z</time>
      </trkpt>
      <trkpt lat="48.89558" lon="-0.20382">
        <ele>115.4000015</ele>
        <time>2011-12-18T10:58:21Z</time>
      </trkpt>
      <trkpt lat="48.89556" lon="-0.20372">
        <ele>115</ele>
        <time>2011-12-18T10:58:22Z</time>
      </trkpt>
      <trkpt lat="48.89554" lon="-0.20361">
        <ele>114.8000031</ele>
        <time>2011-12-18T10:58:23Z</time>
      </trkpt>
      <trkpt lat="48.89551" lon="-0.20351">
        <ele>114.4000015</ele>
        <time>2011-12-18T10:58:24Z</time>
      </trkpt>
      <trkpt lat="48.89548" lon="-0.20342">
        <ele>113.8000031</ele>
        <time>2011-12-18T10:58:25Z</time>
      </trkpt>
      <trkpt lat="48.89546" lon="-0.20334">
        <ele>113.4000015</ele>
        <time>2011-12-18T10:58:26Z</time>
      </trkpt>
      <trkpt lat="48.89543" lon="-0.20327">
        <ele>112.4000015</ele>
        <time>2011-12-18T10:58:27Z</time>
      </trkpt>
      <trkpt lat="48.8954" lon="-0.2032">
        <ele>112.4000015</ele>
        <time>2011-12-18T10:58:28Z</time>
      </trkpt>
      <trkpt lat="48.89535" lon="-0.20307">
        <ele>112.4000015</ele>
        <time>2011-12-18T10:58:31Z</time>
      </trkpt>
      <trkpt lat="48.89529" lon="-0.20296">
        <ele>112.4000015</ele>
        <time>2011-12-18T10:58:36Z</time>
      </trkpt>
      <trkpt lat="48.89528" lon="-0.20294">
        <ele>112.4000015</ele>
        <time>2011-12-18T10:58:37Z</time>
      </trkpt>
      <trkpt lat="48.89526" lon="-0.20292">
        <ele>112.8000031</ele>
        <time>2011-12-18T10:58:38Z</time>
      </trkpt>
      <trkpt lat="48.89525" lon="-0.20289">
        <ele>113</ele>
        <time>2011-12-18T10:58:39Z</time>
      </trkpt>
      <trkpt lat="48.89523" lon="-0.20287">
        <ele>113.8000031</ele>
        <time>2011-12-18T10:58:40Z</time>
      </trkpt>
      <trkpt lat="48.89522" lon="-0.20285">
        <ele>114</ele>
        <time>2011-12-18T10:58:41Z</time>
      </trkpt>
      <trkpt lat="48.89521" lon="-0.20283">
        <ele>114.4000015</ele>
        <time>2011-12-18T10:58:42Z</time>
      </trkpt>
      <trkpt lat="48.8952" lon="-0.20281">
        <ele>115</ele>
        <time>2011-12-18T10:58:43Z</time>
      </trkpt>
      <trkpt lat="48.89519" lon="-0.20279">
        <ele>115.4000015</ele>
        <time>2011-12-18T10:58:44Z</time>
      </trkpt>
      <trkpt lat="48.8952" lon="-0.20276">
        <ele>115.8000031</ele>
        <time>2011-12-18T10:58:45Z</time>
      </trkpt>
      <trkpt lat="48.89521" lon="-0.20275">
        <ele>116</ele>
        <time>2011-12-18T10:58:46Z</time>
      </trkpt>
      <trkpt lat="48.89523" lon="-0.20274">
        <ele>116.4000015</ele>
        <time>2011-12-18T10:58:47Z</time>
      </trkpt>
      <trkpt lat="48.89524" lon="-0.20274">
        <ele>116.4000015</ele>
        <time>2011-12-18T10:58:48Z</time>
      </trkpt>
      <trkpt lat="48.89525" lon="-0.20273">
        <ele>117</ele>
        <time>2011-12-18T10:58:49Z</time>
      </trkpt>
      <trkpt lat="48.89525" lon="-0.20271">
        <ele>117.4000015</ele>
        <time>2011-12-18T10:58:50Z</time>
      </trkpt>
      <trkpt lat="48.89525" lon="-0.2027">
        <ele>117.8000031</ele>
        <time>2011-12-18T10:58:51Z</time>
      </trkpt>
      <trkpt lat="48.89524" lon="-0.20268">
        <ele>118</ele>
        <time>2011-12-18T10:58:52Z</time>
      </trkpt>
      <trkpt lat="48.89523" lon="-0.20267">
        <ele>118.8000031</ele>
        <time>2011-12-18T10:58:53Z</time>
      </trkpt>
      <trkpt lat="48.89522" lon="-0.20267">
        <ele>118.8000031</ele>
        <time>2011-12-18T10:58:54Z</time>
      </trkpt>
      <trkpt lat="48.89519" lon="-0.20269">
        <ele>119</ele>
        <time>2011-12-18T10:58:56Z</time>
      </trkpt>
      <trkpt lat="48.89517" lon="-0.20269">
        <ele>119.4000015</ele>
        <time>2011-12-18T10:58:57Z</time>
      </trkpt>
      <trkpt lat="48.89516" lon="-0.20268">
        <ele>120</ele>
        <time>2011-12-18T10:58:58Z</time>
      </trkpt>
      <trkpt lat="48.89514" lon="-0.20268">
        <ele>120.4000015</ele>
        <time>2011-12-18T10:58:59Z</time>
      </trkpt>
      <trkpt lat="48.89513" lon="-0.20267">
        <ele>120.8000031</ele>
        <time>2011-12-18T10:59:00Z</time>
      </trkpt>
      <trkpt lat="48.89507" lon="-0.20272">
        <ele>120.8000031</ele>
        <time>2011-12-18T10:59:03Z</time>
      </trkpt>
      <trkpt lat="48.89505" lon="-0.20275">
        <ele>120.8000031</ele>
        <time>2011-12-18T10:59:04Z</time>
      </trkpt>
      <trkpt lat="48.8949" lon="-0.20286">
        <ele>120.8000031</ele>
        <time>2011-12-18T10:59:09Z</time>
      </trkpt>
      <trkpt lat="48.89474" lon="-0.203">
        <ele>120.8000031</ele>
        <time>2011-12-18T10:59:16Z</time>
      </trkpt>
      <trkpt lat="48.8947" lon="-0.20305">
        <ele>121.4000015</ele>
        <time>2011-12-18T10:59:18Z</time>
      </trkpt>
      <trkpt lat="48.89468" lon="-0.20307">
        <ele>122</ele>
        <time>2011-12-18T10:59:19Z</time>
      </trkpt>
      <trkpt lat="48.89466" lon="-0.2031">
        <ele>122.4000015</ele>
        <time>2011-12-18T10:59:20Z</time>
      </trkpt>
      <trkpt lat="48.89463" lon="-0.20314">
        <ele>122.8000031</ele>
        <time>2011-12-18T10:59:21Z</time>
      </trkpt>
      <trkpt lat="48.8946" lon="-0.2032">
        <ele>122.8000031</ele>
        <time>2011-12-18T10:59:23Z</time>
      </trkpt>
      <trkpt lat="48.89449" lon="-0.20345">
        <ele>122.8000031</ele>
        <time>2011-12-18T10:59:30Z</time>
      </trkpt>
      <trkpt lat="48.89435" lon="-0.20361">
        <ele>122.8000031</ele>
        <time>2011-12-18T10:59:35Z</time>
      </trkpt>
      <trkpt lat="48.8943" lon="-0.20388">
        <ele>122.8000031</ele>
        <time>2011-12-18T10:59:41Z</time>
      </trkpt>
      <trkpt lat="48.89428" lon="-0.20404">
        <ele>122.8000031</ele>
        <time>2011-12-18T10:59:45Z</time>
      </trkpt>
      <trkpt lat="48.89425" lon="-0.20414">
        <ele>122.4000015</ele>
        <time>2011-12-18T10:59:47Z</time>
      </trkpt>
      <trkpt lat="48.89423" lon="-0.20418">
        <ele>122</ele>
        <time>2011-12-18T10:59:48Z</time>
      </trkpt>
      <trkpt lat="48.89422" lon="-0.20423">
        <ele>121.4000015</ele>
        <time>2011-12-18T10:59:49Z</time>
      </trkpt>
      <trkpt lat="48.8942" lon="-0.20428">
        <ele>121</ele>
        <time>2011-12-18T10:59:50Z</time>
      </trkpt>
      <trkpt lat="48.89419" lon="-0.20434">
        <ele>120.4000015</ele>
        <time>2011-12-18T10:59:51Z</time>
      </trkpt>
      <trkpt lat="48.89415" lon="-0.20448">
        <ele>120.4000015</ele>
        <time>2011-12-18T10:59:53Z</time>
      </trkpt>
      <trkpt lat="48.89414" lon="-0.20456">
        <ele>120</ele>
        <time>2011-12-18T10:59:54Z</time>
      </trkpt>
      <trkpt lat="48.89412" lon="-0.20464">
        <ele>119.8000031</ele>
        <time>2011-12-18T10:59:55Z</time>
      </trkpt>
      <trkpt lat="48.89411" lon="-0.20472">
        <ele>119.4000015</ele>
        <time>2011-12-18T10:59:56Z</time>
      </trkpt>
      <trkpt lat="48.8941" lon="-0.20479">
        <ele>119</ele>
        <time>2011-12-18T10:59:57Z</time>
      </trkpt>
      <trkpt lat="48.89409" lon="-0.20486">
        <ele>118.4000015</ele>
        <time>2011-12-18T10:59:58Z</time>
      </trkpt>
      <trkpt lat="48.89408" lon="-0.20493">
        <ele>118.4000015</ele>
        <time>2011-12-18T10:59:59Z</time>
      </trkpt>
      <trkpt lat="48.89408" lon="-0.20501">
        <ele>118</ele>
        <time>2011-12-18T11:00:00Z</time>
      </trkpt>
      <trkpt lat="48.89406" lon="-0.20507">
        <ele>117.4000015</ele>
        <time>2011-12-18T11:00:01Z</time>
      </trkpt>
      <trkpt lat="48.89405" lon="-0.20513">
        <ele>117</ele>
        <time>2011-12-18T11:00:02Z</time>
      </trkpt>
      <trkpt lat="48.89403" lon="-0.20518">
        <ele>116.8000031</ele>
        <time>2011-12-18T11:00:03Z</time>
      </trkpt>
      <trkpt lat="48.89401" lon="-0.20523">
        <ele>116.4000015</ele>
        <time>2011-12-18T11:00:04Z</time>
      </trkpt>
      <trkpt lat="48.89398" lon="-0.20528">
        <ele>116.4000015</ele>
        <time>2011-12-18T11:00:05Z</time>
      </trkpt>
      <trkpt lat="48.89388" lon="-0.20539">
        <ele>116.4000015</ele>
        <time>2011-12-18T11:00:09Z</time>
      </trkpt>
      <trkpt lat="48.89375" lon="-0.20544">
        <ele>116.4000015</ele>
        <time>2011-12-18T11:00:14Z</time>
      </trkpt>
      <trkpt lat="48.89372" lon="-0.20545">
        <ele>116.8000031</ele>
        <time>2011-12-18T11:00:15Z</time>
      </trkpt>
      <trkpt lat="48.89369" lon="-0.20546">
        <ele>117</ele>
        <time>2011-12-18T11:00:16Z</time>
      </trkpt>
      <trkpt lat="48.89366" lon="-0.20546">
        <ele>117.4000015</ele>
        <time>2011-12-18T11:00:17Z</time>
      </trkpt>
      <trkpt lat="48.89364" lon="-0.20547">
        <ele>118</ele>
        <time>2011-12-18T11:00:18Z</time>
      </trkpt>
      <trkpt lat="48.89361" lon="-0.20548">
        <ele>118.4000015</ele>
        <time>2011-12-18T11:00:19Z</time>
      </trkpt>
      <trkpt lat="48.89353" lon="-0.20551">
        <ele>118.4000015</ele>
        <time>2011-12-18T11:00:22Z</time>
      </trkpt>
      <trkpt lat="48.8935" lon="-0.20552">
        <ele>119</ele>
        <time>2011-12-18T11:00:23Z</time>
      </trkpt>
      <trkpt lat="48.89347" lon="-0.20552">
        <ele>119.4000015</ele>
        <time>2011-12-18T11:00:24Z</time>
      </trkpt>
      <trkpt lat="48.89345" lon="-0.20552">
        <ele>119.8000031</ele>
        <time>2011-12-18T11:00:25Z</time>
      </trkpt>
      <trkpt lat="48.89342" lon="-0.20552">
        <ele>120</ele>
        <time>2011-12-18T11:00:26Z</time>
      </trkpt>
      <trkpt lat="48.89339" lon="-0.20551">
        <ele>120.4000015</ele>
        <time>2011-12-18T11:00:27Z</time>
      </trkpt>
      <trkpt lat="48.89337" lon="-0.2055">
        <ele>120.4000015</ele>
        <time>2011-12-18T11:00:28Z</time>
      </trkpt>
      <trkpt lat="48.8933" lon="-0.20547">
        <ele>120.4000015</ele>
        <time>2011-12-18T11:00:31Z</time>
      </trkpt>
      <trkpt lat="48.89328" lon="-0.20545">
        <ele>121.4000015</ele>
        <time>2011-12-18T11:00:32Z</time>
      </trkpt>
      <trkpt lat="48.89325" lon="-0.20543">
        <ele>121.8000031</ele>
        <time>2011-12-18T11:00:33Z</time>
      </trkpt>
      <trkpt lat="48.89323" lon="-0.20541">
        <ele>122.4000015</ele>
        <time>2011-12-18T11:00:34Z</time>
      </trkpt>
      <trkpt lat="48.8932" lon="-0.20539">
        <ele>122.8000031</ele>
        <time>2011-12-18T11:00:35Z</time>
      </trkpt>
      <trkpt lat="48.89315" lon="-0.20535">
        <ele>122.8000031</ele>
        <time>2011-12-18T11:00:37Z</time>
      </trkpt>
      <trkpt lat="48.89312" lon="-0.20533">
        <ele>123</ele>
        <time>2011-12-18T11:00:38Z</time>
      </trkpt>
      <trkpt lat="48.89309" lon="-0.20532">
        <ele>123.4000015</ele>
        <time>2011-12-18T11:00:39Z</time>
      </trkpt>
      <trkpt lat="48.89306" lon="-0.20531">
        <ele>124</ele>
        <time>2011-12-18T11:00:40Z</time>
      </trkpt>
      <trkpt lat="48.89302" lon="-0.2053">
        <ele>124.4000015</ele>
        <time>2011-12-18T11:00:41Z</time>
      </trkpt>
      <trkpt lat="48.89299" lon="-0.20529">
        <ele>124.8000031</ele>
        <time>2011-12-18T11:00:42Z</time>
      </trkpt>
      <trkpt lat="48.89296" lon="-0.20528">
        <ele>124.8000031</ele>
        <time>2011-12-18T11:00:43Z</time>
      </trkpt>
      <trkpt lat="48.89278" lon="-0.20525">
        <ele>125</ele>
        <time>2011-12-18T11:00:49Z</time>
      </trkpt>
      <trkpt lat="48.89275" lon="-0.20525">
        <ele>125.4000015</ele>
        <time>2011-12-18T11:00:50Z</time>
      </trkpt>
      <trkpt lat="48.89272" lon="-0.20526">
        <ele>126</ele>
        <time>2011-12-18T11:00:51Z</time>
      </trkpt>
      <trkpt lat="48.8927" lon="-0.20527">
        <ele>126.4000015</ele>
        <time>2011-12-18T11:00:52Z</time>
      </trkpt>
      <trkpt lat="48.89267" lon="-0.20527">
        <ele>127</ele>
        <time>2011-12-18T11:00:53Z</time>
      </trkpt>
      <trkpt lat="48.89262" lon="-0.20528">
        <ele>127</ele>
        <time>2011-12-18T11:00:55Z</time>
      </trkpt>
      <trkpt lat="48.89256" lon="-0.20531">
        <ele>128</ele>
        <time>2011-12-18T11:00:57Z</time>
      </trkpt>
      <trkpt lat="48.89253" lon="-0.20532">
        <ele>128.1999969</ele>
        <time>2011-12-18T11:00:58Z</time>
      </trkpt>
      <trkpt lat="48.8925" lon="-0.20533">
        <ele>128.8000031</ele>
        <time>2011-12-18T11:00:59Z</time>
      </trkpt>
      <trkpt lat="48.89248" lon="-0.20534">
        <ele>129.1999969</ele>
        <time>2011-12-18T11:01:00Z</time>
      </trkpt>
      <trkpt lat="48.89245" lon="-0.20536">
        <ele>129.1999969</ele>
        <time>2011-12-18T11:01:01Z</time>
      </trkpt>
      <trkpt lat="48.89237" lon="-0.20541">
        <ele>129.8000031</ele>
        <time>2011-12-18T11:01:04Z</time>
      </trkpt>
      <trkpt lat="48.89235" lon="-0.20541">
        <ele>130</ele>
        <time>2011-12-18T11:01:05Z</time>
      </trkpt>
      <trkpt lat="48.89232" lon="-0.20541">
        <ele>130.6000061</ele>
        <time>2011-12-18T11:01:06Z</time>
      </trkpt>
      <trkpt lat="48.8923" lon="-0.20539">
        <ele>131</ele>
        <time>2011-12-18T11:01:07Z</time>
      </trkpt>
      <trkpt lat="48.89229" lon="-0.20537">
        <ele>131.1999969</ele>
        <time>2011-12-18T11:01:08Z</time>
      </trkpt>
      <trkpt lat="48.89227" lon="-0.20534">
        <ele>131.1999969</ele>
        <time>2011-12-18T11:01:09Z</time>
      </trkpt>
      <trkpt lat="48.89226" lon="-0.20526">
        <ele>131.1999969</ele>
        <time>2011-12-18T11:01:11Z</time>
      </trkpt>
      <trkpt lat="48.89226" lon="-0.20512">
        <ele>131.8000031</ele>
        <time>2011-12-18T11:01:14Z</time>
      </trkpt>
      <trkpt lat="48.89226" lon="-0.20507">
        <ele>132</ele>
        <time>2011-12-18T11:01:15Z</time>
      </trkpt>
      <trkpt lat="48.89227" lon="-0.20502">
        <ele>132.6000061</ele>
        <time>2011-12-18T11:01:16Z</time>
      </trkpt>
      <trkpt lat="48.89228" lon="-0.20498">
        <ele>133</ele>
        <time>2011-12-18T11:01:17Z</time>
      </trkpt>
      <trkpt lat="48.8923" lon="-0.20493">
        <ele>133.1999969</ele>
        <time>2011-12-18T11:01:18Z</time>
      </trkpt>
      <trkpt lat="48.89239" lon="-0.20469">
        <ele>133.1999969</ele>
        <time>2011-12-18T11:01:23Z</time>
      </trkpt>
      <trkpt lat="48.89249" lon="-0.20438">
        <ele>133.1999969</ele>
        <time>2011-12-18T11:01:29Z</time>
      </trkpt>
      <trkpt lat="48.89259" lon="-0.20403">
        <ele>133.1999969</ele>
        <time>2011-12-18T11:01:36Z</time>
      </trkpt>
      <trkpt lat="48.89264" lon="-0.20364">
        <ele>133.1999969</ele>
        <time>2011-12-18T11:01:43Z</time>
      </trkpt>
      <trkpt lat="48.89265" lon="-0.20324">
        <ele>133.1999969</ele>
        <time>2011-12-18T11:01:51Z</time>
      </trkpt>
      <trkpt lat="48.89268" lon="-0.20313">
        <ele>133.1999969</ele>
        <time>2011-12-18T11:01:54Z</time>
      </trkpt>
      <trkpt lat="48.8927" lon="-0.20311">
        <ele>133.1999969</ele>
        <time>2011-12-18T11:01:55Z</time>
      </trkpt>
      <trkpt lat="48.89277" lon="-0.20304">
        <ele>133.1999969</ele>
        <time>2011-12-18T11:01:59Z</time>
      </trkpt>
      <trkpt lat="48.89278" lon="-0.203">
        <ele>133.1999969</ele>
        <time>2011-12-18T11:02:01Z</time>
      </trkpt>
    </trkseg>
  </trk>
</gpx>